<?xml version="1.0" encoding="UTF-8" standalone="no" ?>
<gpx xmlns="http://www.topografix.com/GPX/1/1" xmlns:xsi="http://www.w3.org/2001/XMLSchema-instance" xsi:schemaLocation="http://www.topografix.com/GPX/1/1 http://www.topografix.com/GPX/1/1/gpx.xsd" version="1.1" creator="VisuGPX - https://www.visugpx.com">
  <metadata>
    <name>VTT AM/ENDURO Cabrières</name>
    <desc><![CDATA[Sortie typée AM/ENDURO du coté de Cabrières, Pic du Vissou. C'est un classique du coin.
Ici 3 descentes intéressantes, la première sans difficultés plutôt ludique même. La deuxiéme avec un passage plus compliqué (de grosses marches) à éviter ou avec beaucoup de prudence quand c'est mouillé comme aujourd'hui. et la dernière, le descente du Vissounel qui était bien défoncé et glissante, mais c'est passé ( c'est mieux avec un vtt enduro).
Une petite sortie avec de bonnes cotes et des descentes comme on aime.]]></desc>
  </metadata>
  <trk>
    <name><![CDATA[VTT AM/ENDURO Cabrières_1]]></name>
    <trkseg>
      <trkpt lat="43.5773" lon="3.36264">
        <ele>-24.8</ele>
        <time>2017-03-26T06:09:41Z</time>
      </trkpt>
      <trkpt lat="43.57729" lon="3.36263">
        <ele>83.7</ele>
        <time>2017-03-26T06:09:42Z</time>
      </trkpt>
      <trkpt lat="43.57735" lon="3.36258">
        <ele>170.5</ele>
        <time>2017-03-26T06:09:48Z</time>
      </trkpt>
      <trkpt lat="43.57739" lon="3.36263">
        <ele>154</ele>
        <time>2017-03-26T06:10:29Z</time>
      </trkpt>
      <trkpt lat="43.57737" lon="3.36268">
        <ele>154.7</ele>
        <time>2017-03-26T06:10:36Z</time>
      </trkpt>
      <trkpt lat="43.57736" lon="3.36278">
        <ele>167.9</ele>
        <time>2017-03-26T06:13:34Z</time>
      </trkpt>
      <trkpt lat="43.57743" lon="3.36288">
        <ele>168</ele>
        <time>2017-03-26T06:13:39Z</time>
      </trkpt>
      <trkpt lat="43.57746" lon="3.36298">
        <ele>168.2</ele>
        <time>2017-03-26T06:13:45Z</time>
      </trkpt>
      <trkpt lat="43.57752" lon="3.36306">
        <ele>168.6</ele>
        <time>2017-03-26T06:13:52Z</time>
      </trkpt>
      <trkpt lat="43.57759" lon="3.36308">
        <ele>168.9</ele>
        <time>2017-03-26T06:13:55Z</time>
      </trkpt>
      <trkpt lat="43.57766" lon="3.36307">
        <ele>169.2</ele>
        <time>2017-03-26T06:13:59Z</time>
      </trkpt>
      <trkpt lat="43.57775" lon="3.36309">
        <ele>169.4</ele>
        <time>2017-03-26T06:14:03Z</time>
      </trkpt>
      <trkpt lat="43.57782" lon="3.36311">
        <ele>170</ele>
        <time>2017-03-26T06:14:07Z</time>
      </trkpt>
      <trkpt lat="43.57791" lon="3.36313">
        <ele>170.3</ele>
        <time>2017-03-26T06:14:10Z</time>
      </trkpt>
      <trkpt lat="43.578" lon="3.36315">
        <ele>170.4</ele>
        <time>2017-03-26T06:14:12Z</time>
      </trkpt>
      <trkpt lat="43.57809" lon="3.36319">
        <ele>170.5</ele>
        <time>2017-03-26T06:14:14Z</time>
      </trkpt>
      <trkpt lat="43.57816" lon="3.36325">
        <ele>171</ele>
        <time>2017-03-26T06:14:16Z</time>
      </trkpt>
      <trkpt lat="43.57824" lon="3.36331">
        <ele>170.5</ele>
        <time>2017-03-26T06:14:18Z</time>
      </trkpt>
      <trkpt lat="43.57832" lon="3.36338">
        <ele>169.7</ele>
        <time>2017-03-26T06:14:20Z</time>
      </trkpt>
      <trkpt lat="43.57839" lon="3.36344">
        <ele>169.2</ele>
        <time>2017-03-26T06:14:22Z</time>
      </trkpt>
      <trkpt lat="43.57844" lon="3.36349">
        <ele>169.1</ele>
        <time>2017-03-26T06:14:24Z</time>
      </trkpt>
      <trkpt lat="43.57851" lon="3.36358">
        <ele>169</ele>
        <time>2017-03-26T06:14:26Z</time>
      </trkpt>
      <trkpt lat="43.57856" lon="3.36365">
        <ele>168</ele>
        <time>2017-03-26T06:14:28Z</time>
      </trkpt>
      <trkpt lat="43.57862" lon="3.36373">
        <ele>166.5</ele>
        <time>2017-03-26T06:14:30Z</time>
      </trkpt>
      <trkpt lat="43.57869" lon="3.36382">
        <ele>165.4</ele>
        <time>2017-03-26T06:14:33Z</time>
      </trkpt>
      <trkpt lat="43.57877" lon="3.36387">
        <ele>164.9</ele>
        <time>2017-03-26T06:14:34Z</time>
      </trkpt>
      <trkpt lat="43.57884" lon="3.36394">
        <ele>164.4</ele>
        <time>2017-03-26T06:14:36Z</time>
      </trkpt>
      <trkpt lat="43.57888" lon="3.36406">
        <ele>163.6</ele>
        <time>2017-03-26T06:14:38Z</time>
      </trkpt>
      <trkpt lat="43.5789" lon="3.36422">
        <ele>163.5</ele>
        <time>2017-03-26T06:14:40Z</time>
      </trkpt>
      <trkpt lat="43.57893" lon="3.36435">
        <ele>161.8</ele>
        <time>2017-03-26T06:14:42Z</time>
      </trkpt>
      <trkpt lat="43.57897" lon="3.3645">
        <ele>160.1</ele>
        <time>2017-03-26T06:14:44Z</time>
      </trkpt>
      <trkpt lat="43.57903" lon="3.36465">
        <ele>159.2</ele>
        <time>2017-03-26T06:14:46Z</time>
      </trkpt>
      <trkpt lat="43.57908" lon="3.36476">
        <ele>158.4</ele>
        <time>2017-03-26T06:14:48Z</time>
      </trkpt>
      <trkpt lat="43.57914" lon="3.36487">
        <ele>158.7</ele>
        <time>2017-03-26T06:14:50Z</time>
      </trkpt>
      <trkpt lat="43.57919" lon="3.36496">
        <ele>159.4</ele>
        <time>2017-03-26T06:14:52Z</time>
      </trkpt>
      <trkpt lat="43.5792" lon="3.36511">
        <ele>159.6</ele>
        <time>2017-03-26T06:14:55Z</time>
      </trkpt>
      <trkpt lat="43.57918" lon="3.36521">
        <ele>159.9</ele>
        <time>2017-03-26T06:14:58Z</time>
      </trkpt>
      <trkpt lat="43.5791" lon="3.36529">
        <ele>160.4</ele>
        <time>2017-03-26T06:15:02Z</time>
      </trkpt>
      <trkpt lat="43.57904" lon="3.36533">
        <ele>160.8</ele>
        <time>2017-03-26T06:15:05Z</time>
      </trkpt>
      <trkpt lat="43.57895" lon="3.36534">
        <ele>161.3</ele>
        <time>2017-03-26T06:15:09Z</time>
      </trkpt>
      <trkpt lat="43.57886" lon="3.36535">
        <ele>161.8</ele>
        <time>2017-03-26T06:15:13Z</time>
      </trkpt>
      <trkpt lat="43.57875" lon="3.36534">
        <ele>162</ele>
        <time>2017-03-26T06:15:16Z</time>
      </trkpt>
      <trkpt lat="43.57867" lon="3.36536">
        <ele>162.3</ele>
        <time>2017-03-26T06:15:19Z</time>
      </trkpt>
      <trkpt lat="43.57859" lon="3.36538">
        <ele>162.7</ele>
        <time>2017-03-26T06:15:22Z</time>
      </trkpt>
      <trkpt lat="43.5785" lon="3.36544">
        <ele>163.2</ele>
        <time>2017-03-26T06:15:26Z</time>
      </trkpt>
      <trkpt lat="43.57844" lon="3.36551">
        <ele>163.4</ele>
        <time>2017-03-26T06:15:29Z</time>
      </trkpt>
      <trkpt lat="43.5784" lon="3.36562">
        <ele>163.7</ele>
        <time>2017-03-26T06:15:32Z</time>
      </trkpt>
      <trkpt lat="43.57836" lon="3.36575">
        <ele>164.2</ele>
        <time>2017-03-26T06:15:36Z</time>
      </trkpt>
      <trkpt lat="43.57833" lon="3.36585">
        <ele>164.6</ele>
        <time>2017-03-26T06:15:38Z</time>
      </trkpt>
      <trkpt lat="43.57831" lon="3.36596">
        <ele>164.9</ele>
        <time>2017-03-26T06:15:41Z</time>
      </trkpt>
      <trkpt lat="43.57828" lon="3.36609">
        <ele>165.3</ele>
        <time>2017-03-26T06:15:44Z</time>
      </trkpt>
      <trkpt lat="43.57823" lon="3.36621">
        <ele>165.5</ele>
        <time>2017-03-26T06:15:47Z</time>
      </trkpt>
      <trkpt lat="43.57818" lon="3.36631">
        <ele>165.8</ele>
        <time>2017-03-26T06:15:50Z</time>
      </trkpt>
      <trkpt lat="43.57813" lon="3.36641">
        <ele>165.9</ele>
        <time>2017-03-26T06:15:53Z</time>
      </trkpt>
      <trkpt lat="43.57806" lon="3.36652">
        <ele>166</ele>
        <time>2017-03-26T06:15:56Z</time>
      </trkpt>
      <trkpt lat="43.57799" lon="3.36661">
        <ele>166.1</ele>
        <time>2017-03-26T06:15:59Z</time>
      </trkpt>
      <trkpt lat="43.57794" lon="3.3667">
        <ele>166.3</ele>
        <time>2017-03-26T06:16:02Z</time>
      </trkpt>
      <trkpt lat="43.57788" lon="3.36679">
        <ele>166.5</ele>
        <time>2017-03-26T06:16:05Z</time>
      </trkpt>
      <trkpt lat="43.57781" lon="3.36689">
        <ele>166.7</ele>
        <time>2017-03-26T06:16:08Z</time>
      </trkpt>
      <trkpt lat="43.57777" lon="3.36699">
        <ele>166.6</ele>
        <time>2017-03-26T06:16:11Z</time>
      </trkpt>
      <trkpt lat="43.57775" lon="3.36711">
        <ele>166.9</ele>
        <time>2017-03-26T06:16:14Z</time>
      </trkpt>
      <trkpt lat="43.57774" lon="3.36724">
        <ele>167.3</ele>
        <time>2017-03-26T06:16:17Z</time>
      </trkpt>
      <trkpt lat="43.57776" lon="3.36735">
        <ele>167.7</ele>
        <time>2017-03-26T06:16:20Z</time>
      </trkpt>
      <trkpt lat="43.5778" lon="3.36748">
        <ele>167.8</ele>
        <time>2017-03-26T06:16:23Z</time>
      </trkpt>
      <trkpt lat="43.57784" lon="3.36762">
        <ele>168</ele>
        <time>2017-03-26T06:16:26Z</time>
      </trkpt>
      <trkpt lat="43.57787" lon="3.36775">
        <ele>168.3</ele>
        <time>2017-03-26T06:16:29Z</time>
      </trkpt>
      <trkpt lat="43.5779" lon="3.36788">
        <ele>168.4</ele>
        <time>2017-03-26T06:16:32Z</time>
      </trkpt>
      <trkpt lat="43.57791" lon="3.36799">
        <ele>168.5</ele>
        <time>2017-03-26T06:16:35Z</time>
      </trkpt>
      <trkpt lat="43.57793" lon="3.36811">
        <ele>168.7</ele>
        <time>2017-03-26T06:16:38Z</time>
      </trkpt>
      <trkpt lat="43.57796" lon="3.36821">
        <ele>168.6</ele>
        <time>2017-03-26T06:16:41Z</time>
      </trkpt>
      <trkpt lat="43.578" lon="3.3683">
        <ele>168.8</ele>
        <time>2017-03-26T06:16:44Z</time>
      </trkpt>
      <trkpt lat="43.57804" lon="3.36841">
        <ele>168.8</ele>
        <time>2017-03-26T06:16:47Z</time>
      </trkpt>
      <trkpt lat="43.57807" lon="3.36852">
        <ele>168.9</ele>
        <time>2017-03-26T06:16:50Z</time>
      </trkpt>
      <trkpt lat="43.57808" lon="3.36862">
        <ele>169</ele>
        <time>2017-03-26T06:16:53Z</time>
      </trkpt>
      <trkpt lat="43.57809" lon="3.36874">
        <ele>169.4</ele>
        <time>2017-03-26T06:16:56Z</time>
      </trkpt>
      <trkpt lat="43.5781" lon="3.36888">
        <ele>170.9</ele>
        <time>2017-03-26T06:16:59Z</time>
      </trkpt>
      <trkpt lat="43.57811" lon="3.36899">
        <ele>172.6</ele>
        <time>2017-03-26T06:17:01Z</time>
      </trkpt>
      <trkpt lat="43.57812" lon="3.36912">
        <ele>172.9</ele>
        <time>2017-03-26T06:17:03Z</time>
      </trkpt>
      <trkpt lat="43.57812" lon="3.36928">
        <ele>173.4</ele>
        <time>2017-03-26T06:17:05Z</time>
      </trkpt>
      <trkpt lat="43.57812" lon="3.36941">
        <ele>174</ele>
        <time>2017-03-26T06:17:07Z</time>
      </trkpt>
      <trkpt lat="43.57813" lon="3.36953">
        <ele>174.3</ele>
        <time>2017-03-26T06:17:09Z</time>
      </trkpt>
      <trkpt lat="43.57815" lon="3.36964">
        <ele>174.1</ele>
        <time>2017-03-26T06:17:11Z</time>
      </trkpt>
      <trkpt lat="43.57819" lon="3.36977">
        <ele>173.8</ele>
        <time>2017-03-26T06:17:14Z</time>
      </trkpt>
      <trkpt lat="43.57822" lon="3.3699">
        <ele>173.6</ele>
        <time>2017-03-26T06:17:17Z</time>
      </trkpt>
      <trkpt lat="43.57823" lon="3.37003">
        <ele>173.5</ele>
        <time>2017-03-26T06:17:20Z</time>
      </trkpt>
      <trkpt lat="43.57824" lon="3.37015">
        <ele>173.4</ele>
        <time>2017-03-26T06:17:23Z</time>
      </trkpt>
      <trkpt lat="43.57826" lon="3.37026">
        <ele>173.3</ele>
        <time>2017-03-26T06:17:26Z</time>
      </trkpt>
      <trkpt lat="43.57831" lon="3.37036">
        <ele>173.4</ele>
        <time>2017-03-26T06:17:29Z</time>
      </trkpt>
      <trkpt lat="43.57836" lon="3.37045">
        <ele>173.5</ele>
        <time>2017-03-26T06:17:32Z</time>
      </trkpt>
      <trkpt lat="43.57844" lon="3.3705">
        <ele>173.8</ele>
        <time>2017-03-26T06:17:35Z</time>
      </trkpt>
      <trkpt lat="43.57851" lon="3.37055">
        <ele>173.9</ele>
        <time>2017-03-26T06:17:39Z</time>
      </trkpt>
      <trkpt lat="43.57859" lon="3.37059">
        <ele>174</ele>
        <time>2017-03-26T06:17:42Z</time>
      </trkpt>
      <trkpt lat="43.57866" lon="3.37065">
        <ele>174.2</ele>
        <time>2017-03-26T06:17:45Z</time>
      </trkpt>
      <trkpt lat="43.57872" lon="3.37074">
        <ele>174.3</ele>
        <time>2017-03-26T06:17:49Z</time>
      </trkpt>
      <trkpt lat="43.57878" lon="3.37084">
        <ele>174.6</ele>
        <time>2017-03-26T06:17:53Z</time>
      </trkpt>
      <trkpt lat="43.57884" lon="3.37093">
        <ele>175.2</ele>
        <time>2017-03-26T06:17:57Z</time>
      </trkpt>
      <trkpt lat="43.57891" lon="3.37102">
        <ele>175.5</ele>
        <time>2017-03-26T06:18:00Z</time>
      </trkpt>
      <trkpt lat="43.57897" lon="3.37108">
        <ele>175.7</ele>
        <time>2017-03-26T06:18:03Z</time>
      </trkpt>
      <trkpt lat="43.57904" lon="3.37113">
        <ele>175.8</ele>
        <time>2017-03-26T06:18:06Z</time>
      </trkpt>
      <trkpt lat="43.5791" lon="3.3712">
        <ele>175.7</ele>
        <time>2017-03-26T06:18:09Z</time>
      </trkpt>
      <trkpt lat="43.57918" lon="3.37125">
        <ele>175.9</ele>
        <time>2017-03-26T06:18:13Z</time>
      </trkpt>
      <trkpt lat="43.57925" lon="3.37129">
        <ele>176.1</ele>
        <time>2017-03-26T06:18:17Z</time>
      </trkpt>
      <trkpt lat="43.57931" lon="3.37133">
        <ele>176.4</ele>
        <time>2017-03-26T06:18:20Z</time>
      </trkpt>
      <trkpt lat="43.5794" lon="3.37137">
        <ele>176.9</ele>
        <time>2017-03-26T06:18:24Z</time>
      </trkpt>
      <trkpt lat="43.5795" lon="3.37139">
        <ele>177.2</ele>
        <time>2017-03-26T06:18:28Z</time>
      </trkpt>
      <trkpt lat="43.57957" lon="3.37139">
        <ele>177.6</ele>
        <time>2017-03-26T06:18:31Z</time>
      </trkpt>
      <trkpt lat="43.57964" lon="3.37138">
        <ele>178</ele>
        <time>2017-03-26T06:18:34Z</time>
      </trkpt>
      <trkpt lat="43.57972" lon="3.37137">
        <ele>178.4</ele>
        <time>2017-03-26T06:18:37Z</time>
      </trkpt>
      <trkpt lat="43.5798" lon="3.37136">
        <ele>178.8</ele>
        <time>2017-03-26T06:18:40Z</time>
      </trkpt>
      <trkpt lat="43.57988" lon="3.37135">
        <ele>179.2</ele>
        <time>2017-03-26T06:18:43Z</time>
      </trkpt>
      <trkpt lat="43.57996" lon="3.37136">
        <ele>179.4</ele>
        <time>2017-03-26T06:18:46Z</time>
      </trkpt>
      <trkpt lat="43.58005" lon="3.37136">
        <ele>179.7</ele>
        <time>2017-03-26T06:18:49Z</time>
      </trkpt>
      <trkpt lat="43.58012" lon="3.37137">
        <ele>179.9</ele>
        <time>2017-03-26T06:18:52Z</time>
      </trkpt>
      <trkpt lat="43.58022" lon="3.37144">
        <ele>180.4</ele>
        <time>2017-03-26T06:18:56Z</time>
      </trkpt>
      <trkpt lat="43.58031" lon="3.37151">
        <ele>180.8</ele>
        <time>2017-03-26T06:18:59Z</time>
      </trkpt>
      <trkpt lat="43.58039" lon="3.37155">
        <ele>181.3</ele>
        <time>2017-03-26T06:19:02Z</time>
      </trkpt>
      <trkpt lat="43.58047" lon="3.37159">
        <ele>181.9</ele>
        <time>2017-03-26T06:19:06Z</time>
      </trkpt>
      <trkpt lat="43.58055" lon="3.37163">
        <ele>182.2</ele>
        <time>2017-03-26T06:19:09Z</time>
      </trkpt>
      <trkpt lat="43.58063" lon="3.37164">
        <ele>182.5</ele>
        <time>2017-03-26T06:19:12Z</time>
      </trkpt>
      <trkpt lat="43.58071" lon="3.37166">
        <ele>182.9</ele>
        <time>2017-03-26T06:19:15Z</time>
      </trkpt>
      <trkpt lat="43.58079" lon="3.3717">
        <ele>183.5</ele>
        <time>2017-03-26T06:19:19Z</time>
      </trkpt>
      <trkpt lat="43.58086" lon="3.37177">
        <ele>183.8</ele>
        <time>2017-03-26T06:19:22Z</time>
      </trkpt>
      <trkpt lat="43.5809" lon="3.37185">
        <ele>184.2</ele>
        <time>2017-03-26T06:19:25Z</time>
      </trkpt>
      <trkpt lat="43.58095" lon="3.37195">
        <ele>184.9</ele>
        <time>2017-03-26T06:19:29Z</time>
      </trkpt>
      <trkpt lat="43.581" lon="3.37204">
        <ele>185.4</ele>
        <time>2017-03-26T06:19:32Z</time>
      </trkpt>
      <trkpt lat="43.58105" lon="3.37212">
        <ele>185.9</ele>
        <time>2017-03-26T06:19:36Z</time>
      </trkpt>
      <trkpt lat="43.58111" lon="3.37218">
        <ele>186.2</ele>
        <time>2017-03-26T06:19:39Z</time>
      </trkpt>
      <trkpt lat="43.58118" lon="3.37224">
        <ele>186.6</ele>
        <time>2017-03-26T06:19:42Z</time>
      </trkpt>
      <trkpt lat="43.58126" lon="3.37229">
        <ele>187.1</ele>
        <time>2017-03-26T06:19:46Z</time>
      </trkpt>
      <trkpt lat="43.58133" lon="3.37234">
        <ele>187.4</ele>
        <time>2017-03-26T06:19:49Z</time>
      </trkpt>
      <trkpt lat="43.58142" lon="3.3724">
        <ele>187.8</ele>
        <time>2017-03-26T06:19:53Z</time>
      </trkpt>
      <trkpt lat="43.5815" lon="3.3725">
        <ele>188.3</ele>
        <time>2017-03-26T06:19:57Z</time>
      </trkpt>
      <trkpt lat="43.58155" lon="3.37259">
        <ele>188.7</ele>
        <time>2017-03-26T06:20:00Z</time>
      </trkpt>
      <trkpt lat="43.58162" lon="3.37268">
        <ele>189.1</ele>
        <time>2017-03-26T06:20:03Z</time>
      </trkpt>
      <trkpt lat="43.58167" lon="3.37275">
        <ele>189.6</ele>
        <time>2017-03-26T06:20:06Z</time>
      </trkpt>
      <trkpt lat="43.58174" lon="3.37283">
        <ele>189.9</ele>
        <time>2017-03-26T06:20:09Z</time>
      </trkpt>
      <trkpt lat="43.58183" lon="3.37286">
        <ele>190.1</ele>
        <time>2017-03-26T06:20:12Z</time>
      </trkpt>
      <trkpt lat="43.58193" lon="3.37285">
        <ele>191.2</ele>
        <time>2017-03-26T06:20:15Z</time>
      </trkpt>
      <trkpt lat="43.58202" lon="3.37284">
        <ele>192.6</ele>
        <time>2017-03-26T06:20:17Z</time>
      </trkpt>
      <trkpt lat="43.58209" lon="3.37286">
        <ele>193.7</ele>
        <time>2017-03-26T06:20:19Z</time>
      </trkpt>
      <trkpt lat="43.58215" lon="3.37292">
        <ele>193.7</ele>
        <time>2017-03-26T06:20:21Z</time>
      </trkpt>
      <trkpt lat="43.58217" lon="3.37303">
        <ele>193.7</ele>
        <time>2017-03-26T06:20:24Z</time>
      </trkpt>
      <trkpt lat="43.58213" lon="3.37313">
        <ele>193.7</ele>
        <time>2017-03-26T06:20:27Z</time>
      </trkpt>
      <trkpt lat="43.58207" lon="3.37323">
        <ele>193.7</ele>
        <time>2017-03-26T06:20:30Z</time>
      </trkpt>
      <trkpt lat="43.58202" lon="3.37331">
        <ele>193.5</ele>
        <time>2017-03-26T06:20:33Z</time>
      </trkpt>
      <trkpt lat="43.58198" lon="3.3734">
        <ele>193.5</ele>
        <time>2017-03-26T06:20:36Z</time>
      </trkpt>
      <trkpt lat="43.58196" lon="3.3735">
        <ele>193.5</ele>
        <time>2017-03-26T06:20:39Z</time>
      </trkpt>
      <trkpt lat="43.58196" lon="3.37366">
        <ele>193.5</ele>
        <time>2017-03-26T06:20:42Z</time>
      </trkpt>
      <trkpt lat="43.58198" lon="3.37378">
        <ele>193.1</ele>
        <time>2017-03-26T06:20:44Z</time>
      </trkpt>
      <trkpt lat="43.582" lon="3.37388">
        <ele>192.3</ele>
        <time>2017-03-26T06:20:46Z</time>
      </trkpt>
      <trkpt lat="43.582" lon="3.37401">
        <ele>191.9</ele>
        <time>2017-03-26T06:20:49Z</time>
      </trkpt>
      <trkpt lat="43.58201" lon="3.37416">
        <ele>191.8</ele>
        <time>2017-03-26T06:20:52Z</time>
      </trkpt>
      <trkpt lat="43.582" lon="3.3743">
        <ele>191.2</ele>
        <time>2017-03-26T06:20:55Z</time>
      </trkpt>
      <trkpt lat="43.582" lon="3.37442">
        <ele>190.3</ele>
        <time>2017-03-26T06:20:57Z</time>
      </trkpt>
      <trkpt lat="43.58202" lon="3.37455">
        <ele>190.6</ele>
        <time>2017-03-26T06:20:59Z</time>
      </trkpt>
      <trkpt lat="43.58206" lon="3.37468">
        <ele>191</ele>
        <time>2017-03-26T06:21:01Z</time>
      </trkpt>
      <trkpt lat="43.5821" lon="3.37483">
        <ele>191.1</ele>
        <time>2017-03-26T06:21:03Z</time>
      </trkpt>
      <trkpt lat="43.58214" lon="3.37498">
        <ele>190.5</ele>
        <time>2017-03-26T06:21:05Z</time>
      </trkpt>
      <trkpt lat="43.5822" lon="3.37511">
        <ele>189.9</ele>
        <time>2017-03-26T06:21:07Z</time>
      </trkpt>
      <trkpt lat="43.58227" lon="3.37522">
        <ele>188.1</ele>
        <time>2017-03-26T06:21:09Z</time>
      </trkpt>
      <trkpt lat="43.58232" lon="3.37531">
        <ele>187.6</ele>
        <time>2017-03-26T06:21:11Z</time>
      </trkpt>
      <trkpt lat="43.58235" lon="3.37542">
        <ele>187.3</ele>
        <time>2017-03-26T06:21:14Z</time>
      </trkpt>
      <trkpt lat="43.58238" lon="3.37555">
        <ele>186.9</ele>
        <time>2017-03-26T06:21:17Z</time>
      </trkpt>
      <trkpt lat="43.58241" lon="3.37568">
        <ele>186.5</ele>
        <time>2017-03-26T06:21:21Z</time>
      </trkpt>
      <trkpt lat="43.58243" lon="3.37579">
        <ele>186.2</ele>
        <time>2017-03-26T06:21:25Z</time>
      </trkpt>
      <trkpt lat="43.58243" lon="3.37591">
        <ele>186.1</ele>
        <time>2017-03-26T06:21:29Z</time>
      </trkpt>
      <trkpt lat="43.58241" lon="3.37601">
        <ele>186.1</ele>
        <time>2017-03-26T06:21:33Z</time>
      </trkpt>
      <trkpt lat="43.58239" lon="3.37614">
        <ele>186.5</ele>
        <time>2017-03-26T06:21:37Z</time>
      </trkpt>
      <trkpt lat="43.58238" lon="3.37626">
        <ele>186.9</ele>
        <time>2017-03-26T06:21:41Z</time>
      </trkpt>
      <trkpt lat="43.58234" lon="3.37637">
        <ele>187.6</ele>
        <time>2017-03-26T06:21:46Z</time>
      </trkpt>
      <trkpt lat="43.58231" lon="3.37648">
        <ele>188</ele>
        <time>2017-03-26T06:21:50Z</time>
      </trkpt>
      <trkpt lat="43.58229" lon="3.37657">
        <ele>188.5</ele>
        <time>2017-03-26T06:21:54Z</time>
      </trkpt>
      <trkpt lat="43.58223" lon="3.37667">
        <ele>189.3</ele>
        <time>2017-03-26T06:21:59Z</time>
      </trkpt>
      <trkpt lat="43.58217" lon="3.37675">
        <ele>190.1</ele>
        <time>2017-03-26T06:22:04Z</time>
      </trkpt>
      <trkpt lat="43.58211" lon="3.3768">
        <ele>190.9</ele>
        <time>2017-03-26T06:22:08Z</time>
      </trkpt>
      <trkpt lat="43.58204" lon="3.37676">
        <ele>192</ele>
        <time>2017-03-26T06:22:14Z</time>
      </trkpt>
      <trkpt lat="43.582" lon="3.37667">
        <ele>193.1</ele>
        <time>2017-03-26T06:22:19Z</time>
      </trkpt>
      <trkpt lat="43.58197" lon="3.37657">
        <ele>193.9</ele>
        <time>2017-03-26T06:22:24Z</time>
      </trkpt>
      <trkpt lat="43.58192" lon="3.37649">
        <ele>194.8</ele>
        <time>2017-03-26T06:22:29Z</time>
      </trkpt>
      <trkpt lat="43.58186" lon="3.37644">
        <ele>196</ele>
        <time>2017-03-26T06:22:34Z</time>
      </trkpt>
      <trkpt lat="43.58178" lon="3.37641">
        <ele>197.2</ele>
        <time>2017-03-26T06:22:39Z</time>
      </trkpt>
      <trkpt lat="43.58171" lon="3.37637">
        <ele>197.9</ele>
        <time>2017-03-26T06:22:43Z</time>
      </trkpt>
      <trkpt lat="43.58166" lon="3.3763">
        <ele>198.7</ele>
        <time>2017-03-26T06:22:47Z</time>
      </trkpt>
      <trkpt lat="43.5816" lon="3.37621">
        <ele>199.8</ele>
        <time>2017-03-26T06:22:53Z</time>
      </trkpt>
      <trkpt lat="43.58155" lon="3.37612">
        <ele>200.6</ele>
        <time>2017-03-26T06:22:58Z</time>
      </trkpt>
      <trkpt lat="43.5815" lon="3.37605">
        <ele>201.3</ele>
        <time>2017-03-26T06:23:02Z</time>
      </trkpt>
      <trkpt lat="43.58142" lon="3.37599">
        <ele>202.5</ele>
        <time>2017-03-26T06:23:07Z</time>
      </trkpt>
      <trkpt lat="43.58135" lon="3.37595">
        <ele>203.2</ele>
        <time>2017-03-26T06:23:12Z</time>
      </trkpt>
      <trkpt lat="43.58127" lon="3.37593">
        <ele>203.9</ele>
        <time>2017-03-26T06:23:16Z</time>
      </trkpt>
      <trkpt lat="43.5812" lon="3.37595">
        <ele>204.5</ele>
        <time>2017-03-26T06:23:20Z</time>
      </trkpt>
      <trkpt lat="43.58122" lon="3.37606">
        <ele>205.7</ele>
        <time>2017-03-26T06:23:27Z</time>
      </trkpt>
      <trkpt lat="43.58127" lon="3.37614">
        <ele>206.4</ele>
        <time>2017-03-26T06:23:31Z</time>
      </trkpt>
      <trkpt lat="43.5813" lon="3.37625">
        <ele>207.2</ele>
        <time>2017-03-26T06:23:36Z</time>
      </trkpt>
      <trkpt lat="43.58128" lon="3.37636">
        <ele>207.8</ele>
        <time>2017-03-26T06:23:40Z</time>
      </trkpt>
      <trkpt lat="43.58127" lon="3.37646">
        <ele>208.5</ele>
        <time>2017-03-26T06:23:44Z</time>
      </trkpt>
      <trkpt lat="43.58126" lon="3.37658">
        <ele>209.3</ele>
        <time>2017-03-26T06:23:48Z</time>
      </trkpt>
      <trkpt lat="43.58124" lon="3.37668">
        <ele>210</ele>
        <time>2017-03-26T06:23:52Z</time>
      </trkpt>
      <trkpt lat="43.58123" lon="3.37679">
        <ele>210.6</ele>
        <time>2017-03-26T06:23:56Z</time>
      </trkpt>
      <trkpt lat="43.58121" lon="3.3769">
        <ele>211.4</ele>
        <time>2017-03-26T06:24:00Z</time>
      </trkpt>
      <trkpt lat="43.5812" lon="3.37701">
        <ele>212.4</ele>
        <time>2017-03-26T06:24:04Z</time>
      </trkpt>
      <trkpt lat="43.58119" lon="3.37714">
        <ele>213.1</ele>
        <time>2017-03-26T06:24:08Z</time>
      </trkpt>
      <trkpt lat="43.58122" lon="3.37723">
        <ele>213.5</ele>
        <time>2017-03-26T06:24:12Z</time>
      </trkpt>
      <trkpt lat="43.58128" lon="3.3773">
        <ele>213.8</ele>
        <time>2017-03-26T06:24:16Z</time>
      </trkpt>
      <trkpt lat="43.58135" lon="3.37736">
        <ele>214</ele>
        <time>2017-03-26T06:24:20Z</time>
      </trkpt>
      <trkpt lat="43.5814" lon="3.37744">
        <ele>214.3</ele>
        <time>2017-03-26T06:24:24Z</time>
      </trkpt>
      <trkpt lat="43.58145" lon="3.37753">
        <ele>214.7</ele>
        <time>2017-03-26T06:24:28Z</time>
      </trkpt>
      <trkpt lat="43.5815" lon="3.37762">
        <ele>215.3</ele>
        <time>2017-03-26T06:24:32Z</time>
      </trkpt>
      <trkpt lat="43.58154" lon="3.37772">
        <ele>215.9</ele>
        <time>2017-03-26T06:24:36Z</time>
      </trkpt>
      <trkpt lat="43.58157" lon="3.37781">
        <ele>216.7</ele>
        <time>2017-03-26T06:24:40Z</time>
      </trkpt>
      <trkpt lat="43.58162" lon="3.37793">
        <ele>217.4</ele>
        <time>2017-03-26T06:24:44Z</time>
      </trkpt>
      <trkpt lat="43.58166" lon="3.37803">
        <ele>217.8</ele>
        <time>2017-03-26T06:24:47Z</time>
      </trkpt>
      <trkpt lat="43.58174" lon="3.3781">
        <ele>218.1</ele>
        <time>2017-03-26T06:24:50Z</time>
      </trkpt>
      <trkpt lat="43.58183" lon="3.37816">
        <ele>218.3</ele>
        <time>2017-03-26T06:24:53Z</time>
      </trkpt>
      <trkpt lat="43.58192" lon="3.37822">
        <ele>218.5</ele>
        <time>2017-03-26T06:24:56Z</time>
      </trkpt>
      <trkpt lat="43.58198" lon="3.37827">
        <ele>218.3</ele>
        <time>2017-03-26T06:24:58Z</time>
      </trkpt>
      <trkpt lat="43.58204" lon="3.37833">
        <ele>218.2</ele>
        <time>2017-03-26T06:25:01Z</time>
      </trkpt>
      <trkpt lat="43.58211" lon="3.37842">
        <ele>218.1</ele>
        <time>2017-03-26T06:25:04Z</time>
      </trkpt>
      <trkpt lat="43.58215" lon="3.37851">
        <ele>218.2</ele>
        <time>2017-03-26T06:25:08Z</time>
      </trkpt>
      <trkpt lat="43.58222" lon="3.37862">
        <ele>218.4</ele>
        <time>2017-03-26T06:25:11Z</time>
      </trkpt>
      <trkpt lat="43.58228" lon="3.37867">
        <ele>219</ele>
        <time>2017-03-26T06:25:13Z</time>
      </trkpt>
      <trkpt lat="43.58235" lon="3.37872">
        <ele>220.1</ele>
        <time>2017-03-26T06:25:15Z</time>
      </trkpt>
      <trkpt lat="43.58244" lon="3.37876">
        <ele>221.2</ele>
        <time>2017-03-26T06:25:17Z</time>
      </trkpt>
      <trkpt lat="43.58252" lon="3.37881">
        <ele>221.3</ele>
        <time>2017-03-26T06:25:19Z</time>
      </trkpt>
      <trkpt lat="43.5826" lon="3.37887">
        <ele>220.6</ele>
        <time>2017-03-26T06:25:21Z</time>
      </trkpt>
      <trkpt lat="43.58269" lon="3.37896">
        <ele>220.2</ele>
        <time>2017-03-26T06:25:23Z</time>
      </trkpt>
      <trkpt lat="43.58278" lon="3.37904">
        <ele>219.9</ele>
        <time>2017-03-26T06:25:25Z</time>
      </trkpt>
      <trkpt lat="43.58285" lon="3.37912">
        <ele>219</ele>
        <time>2017-03-26T06:25:27Z</time>
      </trkpt>
      <trkpt lat="43.58292" lon="3.37919">
        <ele>219</ele>
        <time>2017-03-26T06:25:29Z</time>
      </trkpt>
      <trkpt lat="43.58299" lon="3.37925">
        <ele>218.4</ele>
        <time>2017-03-26T06:25:31Z</time>
      </trkpt>
      <trkpt lat="43.58308" lon="3.37933">
        <ele>218.1</ele>
        <time>2017-03-26T06:25:34Z</time>
      </trkpt>
      <trkpt lat="43.58316" lon="3.37942">
        <ele>217.8</ele>
        <time>2017-03-26T06:25:37Z</time>
      </trkpt>
      <trkpt lat="43.58321" lon="3.37949">
        <ele>217.9</ele>
        <time>2017-03-26T06:25:40Z</time>
      </trkpt>
      <trkpt lat="43.58325" lon="3.3796">
        <ele>217.9</ele>
        <time>2017-03-26T06:25:43Z</time>
      </trkpt>
      <trkpt lat="43.58325" lon="3.37971">
        <ele>217.9</ele>
        <time>2017-03-26T06:25:46Z</time>
      </trkpt>
      <trkpt lat="43.58325" lon="3.37982">
        <ele>217.9</ele>
        <time>2017-03-26T06:25:48Z</time>
      </trkpt>
      <trkpt lat="43.58324" lon="3.37993">
        <ele>218</ele>
        <time>2017-03-26T06:25:51Z</time>
      </trkpt>
      <trkpt lat="43.58326" lon="3.38004">
        <ele>218</ele>
        <time>2017-03-26T06:25:54Z</time>
      </trkpt>
      <trkpt lat="43.58328" lon="3.38015">
        <ele>217.9</ele>
        <time>2017-03-26T06:25:57Z</time>
      </trkpt>
      <trkpt lat="43.58329" lon="3.38026">
        <ele>217.8</ele>
        <time>2017-03-26T06:26:00Z</time>
      </trkpt>
      <trkpt lat="43.5833" lon="3.38038">
        <ele>218</ele>
        <time>2017-03-26T06:26:04Z</time>
      </trkpt>
      <trkpt lat="43.58333" lon="3.38047">
        <ele>218.5</ele>
        <time>2017-03-26T06:26:08Z</time>
      </trkpt>
      <trkpt lat="43.58339" lon="3.38057">
        <ele>218.8</ele>
        <time>2017-03-26T06:26:11Z</time>
      </trkpt>
      <trkpt lat="43.58343" lon="3.38066">
        <ele>219.1</ele>
        <time>2017-03-26T06:26:14Z</time>
      </trkpt>
      <trkpt lat="43.58347" lon="3.38076">
        <ele>219.4</ele>
        <time>2017-03-26T06:26:18Z</time>
      </trkpt>
      <trkpt lat="43.58351" lon="3.38087">
        <ele>219.6</ele>
        <time>2017-03-26T06:26:21Z</time>
      </trkpt>
      <trkpt lat="43.58352" lon="3.38099">
        <ele>219.7</ele>
        <time>2017-03-26T06:26:24Z</time>
      </trkpt>
      <trkpt lat="43.58355" lon="3.38111">
        <ele>220</ele>
        <time>2017-03-26T06:26:27Z</time>
      </trkpt>
      <trkpt lat="43.58358" lon="3.38121">
        <ele>220.3</ele>
        <time>2017-03-26T06:26:30Z</time>
      </trkpt>
      <trkpt lat="43.58361" lon="3.38131">
        <ele>220.6</ele>
        <time>2017-03-26T06:26:34Z</time>
      </trkpt>
      <trkpt lat="43.58367" lon="3.38141">
        <ele>220.8</ele>
        <time>2017-03-26T06:26:37Z</time>
      </trkpt>
      <trkpt lat="43.58373" lon="3.38149">
        <ele>220.9</ele>
        <time>2017-03-26T06:26:40Z</time>
      </trkpt>
      <trkpt lat="43.58379" lon="3.38158">
        <ele>221.2</ele>
        <time>2017-03-26T06:26:43Z</time>
      </trkpt>
      <trkpt lat="43.58385" lon="3.38167">
        <ele>221.4</ele>
        <time>2017-03-26T06:26:47Z</time>
      </trkpt>
      <trkpt lat="43.58391" lon="3.38176">
        <ele>221.7</ele>
        <time>2017-03-26T06:26:51Z</time>
      </trkpt>
      <trkpt lat="43.58396" lon="3.38183">
        <ele>221.8</ele>
        <time>2017-03-26T06:26:54Z</time>
      </trkpt>
      <trkpt lat="43.58402" lon="3.3819">
        <ele>221.9</ele>
        <time>2017-03-26T06:26:57Z</time>
      </trkpt>
      <trkpt lat="43.58407" lon="3.38198">
        <ele>221.9</ele>
        <time>2017-03-26T06:27:00Z</time>
      </trkpt>
      <trkpt lat="43.58409" lon="3.38209">
        <ele>222.2</ele>
        <time>2017-03-26T06:27:04Z</time>
      </trkpt>
      <trkpt lat="43.58408" lon="3.3822">
        <ele>222.6</ele>
        <time>2017-03-26T06:27:08Z</time>
      </trkpt>
      <trkpt lat="43.58409" lon="3.38231">
        <ele>222.6</ele>
        <time>2017-03-26T06:27:11Z</time>
      </trkpt>
      <trkpt lat="43.58411" lon="3.38241">
        <ele>223</ele>
        <time>2017-03-26T06:27:16Z</time>
      </trkpt>
      <trkpt lat="43.58414" lon="3.3825">
        <ele>223.6</ele>
        <time>2017-03-26T06:27:21Z</time>
      </trkpt>
      <trkpt lat="43.5842" lon="3.38258">
        <ele>224.5</ele>
        <time>2017-03-26T06:27:25Z</time>
      </trkpt>
      <trkpt lat="43.58426" lon="3.38267">
        <ele>225.7</ele>
        <time>2017-03-26T06:27:29Z</time>
      </trkpt>
      <trkpt lat="43.58428" lon="3.38278">
        <ele>226.9</ele>
        <time>2017-03-26T06:27:34Z</time>
      </trkpt>
      <trkpt lat="43.5843" lon="3.38288">
        <ele>227.8</ele>
        <time>2017-03-26T06:27:38Z</time>
      </trkpt>
      <trkpt lat="43.58432" lon="3.38298">
        <ele>228.7</ele>
        <time>2017-03-26T06:27:43Z</time>
      </trkpt>
      <trkpt lat="43.58434" lon="3.38309">
        <ele>230</ele>
        <time>2017-03-26T06:27:48Z</time>
      </trkpt>
      <trkpt lat="43.58435" lon="3.38319">
        <ele>230.9</ele>
        <time>2017-03-26T06:27:52Z</time>
      </trkpt>
      <trkpt lat="43.58435" lon="3.3833">
        <ele>232</ele>
        <time>2017-03-26T06:27:57Z</time>
      </trkpt>
      <trkpt lat="43.58435" lon="3.3834">
        <ele>233.4</ele>
        <time>2017-03-26T06:28:02Z</time>
      </trkpt>
      <trkpt lat="43.58437" lon="3.3835">
        <ele>235.1</ele>
        <time>2017-03-26T06:28:07Z</time>
      </trkpt>
      <trkpt lat="43.58439" lon="3.3836">
        <ele>236.2</ele>
        <time>2017-03-26T06:28:11Z</time>
      </trkpt>
      <trkpt lat="43.58441" lon="3.38372">
        <ele>237.6</ele>
        <time>2017-03-26T06:28:16Z</time>
      </trkpt>
      <trkpt lat="43.58444" lon="3.38384">
        <ele>238.7</ele>
        <time>2017-03-26T06:28:20Z</time>
      </trkpt>
      <trkpt lat="43.58444" lon="3.38394">
        <ele>239.4</ele>
        <time>2017-03-26T06:28:24Z</time>
      </trkpt>
      <trkpt lat="43.58444" lon="3.38406">
        <ele>240.1</ele>
        <time>2017-03-26T06:28:28Z</time>
      </trkpt>
      <trkpt lat="43.58443" lon="3.38418">
        <ele>241</ele>
        <time>2017-03-26T06:28:32Z</time>
      </trkpt>
      <trkpt lat="43.58441" lon="3.38427">
        <ele>242</ele>
        <time>2017-03-26T06:28:37Z</time>
      </trkpt>
      <trkpt lat="43.58438" lon="3.38437">
        <ele>243.2</ele>
        <time>2017-03-26T06:28:42Z</time>
      </trkpt>
      <trkpt lat="43.58434" lon="3.38446">
        <ele>244.1</ele>
        <time>2017-03-26T06:28:46Z</time>
      </trkpt>
      <trkpt lat="43.58436" lon="3.38457">
        <ele>244.8</ele>
        <time>2017-03-26T06:28:50Z</time>
      </trkpt>
      <trkpt lat="43.58443" lon="3.38465">
        <ele>245.4</ele>
        <time>2017-03-26T06:28:55Z</time>
      </trkpt>
      <trkpt lat="43.58453" lon="3.3847">
        <ele>245.5</ele>
        <time>2017-03-26T06:28:58Z</time>
      </trkpt>
      <trkpt lat="43.58463" lon="3.38475">
        <ele>245.4</ele>
        <time>2017-03-26T06:29:01Z</time>
      </trkpt>
      <trkpt lat="43.5847" lon="3.3848">
        <ele>244.6</ele>
        <time>2017-03-26T06:29:03Z</time>
      </trkpt>
      <trkpt lat="43.58478" lon="3.38488">
        <ele>244.6</ele>
        <time>2017-03-26T06:29:06Z</time>
      </trkpt>
      <trkpt lat="43.58483" lon="3.38494">
        <ele>244.6</ele>
        <time>2017-03-26T06:29:08Z</time>
      </trkpt>
      <trkpt lat="43.58488" lon="3.38505">
        <ele>244.5</ele>
        <time>2017-03-26T06:29:10Z</time>
      </trkpt>
      <trkpt lat="43.58492" lon="3.38518">
        <ele>244.4</ele>
        <time>2017-03-26T06:29:13Z</time>
      </trkpt>
      <trkpt lat="43.58494" lon="3.38532">
        <ele>244.5</ele>
        <time>2017-03-26T06:29:16Z</time>
      </trkpt>
      <trkpt lat="43.58494" lon="3.38543">
        <ele>245</ele>
        <time>2017-03-26T06:29:18Z</time>
      </trkpt>
      <trkpt lat="43.58495" lon="3.38555">
        <ele>246.1</ele>
        <time>2017-03-26T06:29:20Z</time>
      </trkpt>
      <trkpt lat="43.58497" lon="3.38568">
        <ele>246.2</ele>
        <time>2017-03-26T06:29:23Z</time>
      </trkpt>
      <trkpt lat="43.585" lon="3.38579">
        <ele>246.3</ele>
        <time>2017-03-26T06:29:26Z</time>
      </trkpt>
      <trkpt lat="43.58502" lon="3.3859">
        <ele>246.3</ele>
        <time>2017-03-26T06:29:29Z</time>
      </trkpt>
      <trkpt lat="43.58503" lon="3.38601">
        <ele>246.2</ele>
        <time>2017-03-26T06:29:32Z</time>
      </trkpt>
      <trkpt lat="43.58504" lon="3.38613">
        <ele>245.8</ele>
        <time>2017-03-26T06:29:36Z</time>
      </trkpt>
      <trkpt lat="43.58506" lon="3.38625">
        <ele>245.7</ele>
        <time>2017-03-26T06:29:39Z</time>
      </trkpt>
      <trkpt lat="43.58507" lon="3.38635">
        <ele>245.8</ele>
        <time>2017-03-26T06:29:42Z</time>
      </trkpt>
      <trkpt lat="43.58507" lon="3.38649">
        <ele>245.8</ele>
        <time>2017-03-26T06:29:46Z</time>
      </trkpt>
      <trkpt lat="43.58509" lon="3.38661">
        <ele>245.7</ele>
        <time>2017-03-26T06:29:50Z</time>
      </trkpt>
      <trkpt lat="43.5851" lon="3.3867">
        <ele>245.8</ele>
        <time>2017-03-26T06:29:53Z</time>
      </trkpt>
      <trkpt lat="43.58512" lon="3.3868">
        <ele>245.7</ele>
        <time>2017-03-26T06:29:56Z</time>
      </trkpt>
      <trkpt lat="43.58513" lon="3.38691">
        <ele>245.8</ele>
        <time>2017-03-26T06:29:59Z</time>
      </trkpt>
      <trkpt lat="43.58515" lon="3.38701">
        <ele>245.9</ele>
        <time>2017-03-26T06:30:02Z</time>
      </trkpt>
      <trkpt lat="43.58518" lon="3.38711">
        <ele>246</ele>
        <time>2017-03-26T06:30:05Z</time>
      </trkpt>
      <trkpt lat="43.5852" lon="3.38722">
        <ele>246.2</ele>
        <time>2017-03-26T06:30:08Z</time>
      </trkpt>
      <trkpt lat="43.58519" lon="3.38732">
        <ele>246.3</ele>
        <time>2017-03-26T06:30:11Z</time>
      </trkpt>
      <trkpt lat="43.58518" lon="3.38742">
        <ele>246.5</ele>
        <time>2017-03-26T06:30:14Z</time>
      </trkpt>
      <trkpt lat="43.58517" lon="3.38753">
        <ele>246.9</ele>
        <time>2017-03-26T06:30:18Z</time>
      </trkpt>
      <trkpt lat="43.58518" lon="3.38764">
        <ele>247.4</ele>
        <time>2017-03-26T06:30:21Z</time>
      </trkpt>
      <trkpt lat="43.58519" lon="3.38777">
        <ele>247.9</ele>
        <time>2017-03-26T06:30:25Z</time>
      </trkpt>
      <trkpt lat="43.58518" lon="3.38787">
        <ele>248.2</ele>
        <time>2017-03-26T06:30:28Z</time>
      </trkpt>
      <trkpt lat="43.58517" lon="3.388">
        <ele>248.6</ele>
        <time>2017-03-26T06:30:32Z</time>
      </trkpt>
      <trkpt lat="43.58515" lon="3.38811">
        <ele>248.8</ele>
        <time>2017-03-26T06:30:35Z</time>
      </trkpt>
      <trkpt lat="43.58514" lon="3.3882">
        <ele>249.1</ele>
        <time>2017-03-26T06:30:38Z</time>
      </trkpt>
      <trkpt lat="43.58513" lon="3.38833">
        <ele>249.5</ele>
        <time>2017-03-26T06:30:42Z</time>
      </trkpt>
      <trkpt lat="43.58512" lon="3.38843">
        <ele>249.7</ele>
        <time>2017-03-26T06:30:45Z</time>
      </trkpt>
      <trkpt lat="43.58511" lon="3.38855">
        <ele>250</ele>
        <time>2017-03-26T06:30:49Z</time>
      </trkpt>
      <trkpt lat="43.58511" lon="3.38867">
        <ele>250.3</ele>
        <time>2017-03-26T06:30:53Z</time>
      </trkpt>
      <trkpt lat="43.5851" lon="3.38877">
        <ele>250.6</ele>
        <time>2017-03-26T06:30:56Z</time>
      </trkpt>
      <trkpt lat="43.58505" lon="3.38888">
        <ele>251</ele>
        <time>2017-03-26T06:31:00Z</time>
      </trkpt>
      <trkpt lat="43.585" lon="3.38896">
        <ele>251.5</ele>
        <time>2017-03-26T06:31:03Z</time>
      </trkpt>
      <trkpt lat="43.58493" lon="3.38903">
        <ele>252.6</ele>
        <time>2017-03-26T06:31:08Z</time>
      </trkpt>
      <trkpt lat="43.58486" lon="3.38908">
        <ele>253.7</ele>
        <time>2017-03-26T06:31:12Z</time>
      </trkpt>
      <trkpt lat="43.58477" lon="3.38914">
        <ele>254.8</ele>
        <time>2017-03-26T06:31:16Z</time>
      </trkpt>
      <trkpt lat="43.58471" lon="3.38923">
        <ele>255.7</ele>
        <time>2017-03-26T06:31:20Z</time>
      </trkpt>
      <trkpt lat="43.58468" lon="3.38933">
        <ele>256.1</ele>
        <time>2017-03-26T06:31:23Z</time>
      </trkpt>
      <trkpt lat="43.58464" lon="3.38942">
        <ele>256.3</ele>
        <time>2017-03-26T06:31:26Z</time>
      </trkpt>
      <trkpt lat="43.5846" lon="3.38954">
        <ele>256.6</ele>
        <time>2017-03-26T06:31:30Z</time>
      </trkpt>
      <trkpt lat="43.58458" lon="3.38964">
        <ele>257.2</ele>
        <time>2017-03-26T06:31:34Z</time>
      </trkpt>
      <trkpt lat="43.58455" lon="3.38975">
        <ele>257.7</ele>
        <time>2017-03-26T06:31:38Z</time>
      </trkpt>
      <trkpt lat="43.58453" lon="3.38985">
        <ele>258.2</ele>
        <time>2017-03-26T06:31:41Z</time>
      </trkpt>
      <trkpt lat="43.58451" lon="3.38996">
        <ele>259</ele>
        <time>2017-03-26T06:31:45Z</time>
      </trkpt>
      <trkpt lat="43.5845" lon="3.39008">
        <ele>259.6</ele>
        <time>2017-03-26T06:31:49Z</time>
      </trkpt>
      <trkpt lat="43.58448" lon="3.39019">
        <ele>260</ele>
        <time>2017-03-26T06:31:53Z</time>
      </trkpt>
      <trkpt lat="43.58444" lon="3.39031">
        <ele>260.6</ele>
        <time>2017-03-26T06:31:57Z</time>
      </trkpt>
      <trkpt lat="43.58442" lon="3.3904">
        <ele>261.5</ele>
        <time>2017-03-26T06:32:01Z</time>
      </trkpt>
      <trkpt lat="43.58439" lon="3.3905">
        <ele>262.4</ele>
        <time>2017-03-26T06:32:04Z</time>
      </trkpt>
      <trkpt lat="43.58435" lon="3.39059">
        <ele>263.4</ele>
        <time>2017-03-26T06:32:08Z</time>
      </trkpt>
      <trkpt lat="43.58431" lon="3.39068">
        <ele>264</ele>
        <time>2017-03-26T06:32:12Z</time>
      </trkpt>
      <trkpt lat="43.58426" lon="3.39076">
        <ele>264.4</ele>
        <time>2017-03-26T06:32:15Z</time>
      </trkpt>
      <trkpt lat="43.5842" lon="3.39086">
        <ele>265</ele>
        <time>2017-03-26T06:32:19Z</time>
      </trkpt>
      <trkpt lat="43.5842" lon="3.39098">
        <ele>265.6</ele>
        <time>2017-03-26T06:32:23Z</time>
      </trkpt>
      <trkpt lat="43.58419" lon="3.3911">
        <ele>266.3</ele>
        <time>2017-03-26T06:32:27Z</time>
      </trkpt>
      <trkpt lat="43.58418" lon="3.3912">
        <ele>266.7</ele>
        <time>2017-03-26T06:32:30Z</time>
      </trkpt>
      <trkpt lat="43.58415" lon="3.3913">
        <ele>267.1</ele>
        <time>2017-03-26T06:32:33Z</time>
      </trkpt>
      <trkpt lat="43.58411" lon="3.39139">
        <ele>267.7</ele>
        <time>2017-03-26T06:32:36Z</time>
      </trkpt>
      <trkpt lat="43.58407" lon="3.39147">
        <ele>268.4</ele>
        <time>2017-03-26T06:32:39Z</time>
      </trkpt>
      <trkpt lat="43.58403" lon="3.39157">
        <ele>269.2</ele>
        <time>2017-03-26T06:32:43Z</time>
      </trkpt>
      <trkpt lat="43.58397" lon="3.39167">
        <ele>269.9</ele>
        <time>2017-03-26T06:32:48Z</time>
      </trkpt>
      <trkpt lat="43.58394" lon="3.39179">
        <ele>270.5</ele>
        <time>2017-03-26T06:32:52Z</time>
      </trkpt>
      <trkpt lat="43.5839" lon="3.39191">
        <ele>271.1</ele>
        <time>2017-03-26T06:32:56Z</time>
      </trkpt>
      <trkpt lat="43.58385" lon="3.39201">
        <ele>271.7</ele>
        <time>2017-03-26T06:33:00Z</time>
      </trkpt>
      <trkpt lat="43.58378" lon="3.39211">
        <ele>272.6</ele>
        <time>2017-03-26T06:33:04Z</time>
      </trkpt>
      <trkpt lat="43.58371" lon="3.39218">
        <ele>273.3</ele>
        <time>2017-03-26T06:33:07Z</time>
      </trkpt>
      <trkpt lat="43.58364" lon="3.39224">
        <ele>274.5</ele>
        <time>2017-03-26T06:33:11Z</time>
      </trkpt>
      <trkpt lat="43.58357" lon="3.39231">
        <ele>275.7</ele>
        <time>2017-03-26T06:33:15Z</time>
      </trkpt>
      <trkpt lat="43.58351" lon="3.39237">
        <ele>276.6</ele>
        <time>2017-03-26T06:33:18Z</time>
      </trkpt>
      <trkpt lat="43.58345" lon="3.39244">
        <ele>277.6</ele>
        <time>2017-03-26T06:33:22Z</time>
      </trkpt>
      <trkpt lat="43.5834" lon="3.39252">
        <ele>278.4</ele>
        <time>2017-03-26T06:33:25Z</time>
      </trkpt>
      <trkpt lat="43.58335" lon="3.39261">
        <ele>279.1</ele>
        <time>2017-03-26T06:33:28Z</time>
      </trkpt>
      <trkpt lat="43.58328" lon="3.39266">
        <ele>280.1</ele>
        <time>2017-03-26T06:33:32Z</time>
      </trkpt>
      <trkpt lat="43.58323" lon="3.39274">
        <ele>280.8</ele>
        <time>2017-03-26T06:33:36Z</time>
      </trkpt>
      <trkpt lat="43.58317" lon="3.39283">
        <ele>281.4</ele>
        <time>2017-03-26T06:33:40Z</time>
      </trkpt>
      <trkpt lat="43.58312" lon="3.39292">
        <ele>281.9</ele>
        <time>2017-03-26T06:33:43Z</time>
      </trkpt>
      <trkpt lat="43.58308" lon="3.39301">
        <ele>282.5</ele>
        <time>2017-03-26T06:33:47Z</time>
      </trkpt>
      <trkpt lat="43.58304" lon="3.3931">
        <ele>283.1</ele>
        <time>2017-03-26T06:33:51Z</time>
      </trkpt>
      <trkpt lat="43.58301" lon="3.3932">
        <ele>283.4</ele>
        <time>2017-03-26T06:33:54Z</time>
      </trkpt>
      <trkpt lat="43.58299" lon="3.3933">
        <ele>283.7</ele>
        <time>2017-03-26T06:33:57Z</time>
      </trkpt>
      <trkpt lat="43.58297" lon="3.39343">
        <ele>283.9</ele>
        <time>2017-03-26T06:34:01Z</time>
      </trkpt>
      <trkpt lat="43.58293" lon="3.39351">
        <ele>284.2</ele>
        <time>2017-03-26T06:34:04Z</time>
      </trkpt>
      <trkpt lat="43.58288" lon="3.39359">
        <ele>284.5</ele>
        <time>2017-03-26T06:34:07Z</time>
      </trkpt>
      <trkpt lat="43.58282" lon="3.39368">
        <ele>285</ele>
        <time>2017-03-26T06:34:11Z</time>
      </trkpt>
      <trkpt lat="43.58285" lon="3.39378">
        <ele>285.8</ele>
        <time>2017-03-26T06:34:16Z</time>
      </trkpt>
      <trkpt lat="43.58292" lon="3.3938">
        <ele>286.1</ele>
        <time>2017-03-26T06:34:19Z</time>
      </trkpt>
      <trkpt lat="43.58301" lon="3.39384">
        <ele>286.7</ele>
        <time>2017-03-26T06:34:24Z</time>
      </trkpt>
      <trkpt lat="43.58308" lon="3.3939">
        <ele>287.4</ele>
        <time>2017-03-26T06:34:28Z</time>
      </trkpt>
      <trkpt lat="43.58316" lon="3.39396">
        <ele>288</ele>
        <time>2017-03-26T06:34:32Z</time>
      </trkpt>
      <trkpt lat="43.58322" lon="3.39404">
        <ele>288.5</ele>
        <time>2017-03-26T06:34:36Z</time>
      </trkpt>
      <trkpt lat="43.58328" lon="3.39411">
        <ele>289.1</ele>
        <time>2017-03-26T06:34:40Z</time>
      </trkpt>
      <trkpt lat="43.58334" lon="3.39418">
        <ele>289.7</ele>
        <time>2017-03-26T06:34:44Z</time>
      </trkpt>
      <trkpt lat="43.58341" lon="3.39424">
        <ele>290.3</ele>
        <time>2017-03-26T06:34:48Z</time>
      </trkpt>
      <trkpt lat="43.58347" lon="3.39431">
        <ele>290.8</ele>
        <time>2017-03-26T06:34:52Z</time>
      </trkpt>
      <trkpt lat="43.58352" lon="3.39439">
        <ele>291.1</ele>
        <time>2017-03-26T06:34:56Z</time>
      </trkpt>
      <trkpt lat="43.58357" lon="3.3945">
        <ele>291.5</ele>
        <time>2017-03-26T06:35:00Z</time>
      </trkpt>
      <trkpt lat="43.58361" lon="3.39462">
        <ele>292.1</ele>
        <time>2017-03-26T06:35:04Z</time>
      </trkpt>
      <trkpt lat="43.58363" lon="3.39471">
        <ele>292.7</ele>
        <time>2017-03-26T06:35:07Z</time>
      </trkpt>
      <trkpt lat="43.58365" lon="3.39483">
        <ele>293</ele>
        <time>2017-03-26T06:35:10Z</time>
      </trkpt>
      <trkpt lat="43.58368" lon="3.39494">
        <ele>293.4</ele>
        <time>2017-03-26T06:35:14Z</time>
      </trkpt>
      <trkpt lat="43.58372" lon="3.39507">
        <ele>294</ele>
        <time>2017-03-26T06:35:18Z</time>
      </trkpt>
      <trkpt lat="43.58375" lon="3.39517">
        <ele>294.4</ele>
        <time>2017-03-26T06:35:22Z</time>
      </trkpt>
      <trkpt lat="43.58378" lon="3.39527">
        <ele>294.8</ele>
        <time>2017-03-26T06:35:26Z</time>
      </trkpt>
      <trkpt lat="43.58382" lon="3.39537">
        <ele>295.3</ele>
        <time>2017-03-26T06:35:31Z</time>
      </trkpt>
      <trkpt lat="43.58387" lon="3.39547">
        <ele>295.5</ele>
        <time>2017-03-26T06:35:35Z</time>
      </trkpt>
      <trkpt lat="43.58392" lon="3.39557">
        <ele>296.1</ele>
        <time>2017-03-26T06:35:40Z</time>
      </trkpt>
      <trkpt lat="43.58396" lon="3.39568">
        <ele>296.6</ele>
        <time>2017-03-26T06:35:45Z</time>
      </trkpt>
      <trkpt lat="43.58399" lon="3.39577">
        <ele>296.8</ele>
        <time>2017-03-26T06:35:49Z</time>
      </trkpt>
      <trkpt lat="43.58396" lon="3.39588">
        <ele>297.7</ele>
        <time>2017-03-26T06:35:54Z</time>
      </trkpt>
      <trkpt lat="43.58392" lon="3.39596">
        <ele>298.7</ele>
        <time>2017-03-26T06:35:58Z</time>
      </trkpt>
      <trkpt lat="43.58385" lon="3.39602">
        <ele>299.3</ele>
        <time>2017-03-26T06:36:02Z</time>
      </trkpt>
      <trkpt lat="43.58379" lon="3.39606">
        <ele>300.1</ele>
        <time>2017-03-26T06:36:06Z</time>
      </trkpt>
      <trkpt lat="43.58373" lon="3.39614">
        <ele>300.7</ele>
        <time>2017-03-26T06:36:10Z</time>
      </trkpt>
      <trkpt lat="43.5837" lon="3.39626">
        <ele>301.7</ele>
        <time>2017-03-26T06:36:15Z</time>
      </trkpt>
      <trkpt lat="43.58368" lon="3.39637">
        <ele>302.5</ele>
        <time>2017-03-26T06:36:20Z</time>
      </trkpt>
      <trkpt lat="43.5837" lon="3.39649">
        <ele>302.9</ele>
        <time>2017-03-26T06:36:24Z</time>
      </trkpt>
      <trkpt lat="43.58372" lon="3.3966">
        <ele>303.8</ele>
        <time>2017-03-26T06:36:29Z</time>
      </trkpt>
      <trkpt lat="43.58373" lon="3.39671">
        <ele>304.5</ele>
        <time>2017-03-26T06:36:33Z</time>
      </trkpt>
      <trkpt lat="43.58373" lon="3.39681">
        <ele>305.2</ele>
        <time>2017-03-26T06:36:37Z</time>
      </trkpt>
      <trkpt lat="43.58374" lon="3.39692">
        <ele>305.9</ele>
        <time>2017-03-26T06:36:41Z</time>
      </trkpt>
      <trkpt lat="43.58375" lon="3.39704">
        <ele>306.6</ele>
        <time>2017-03-26T06:36:45Z</time>
      </trkpt>
      <trkpt lat="43.58375" lon="3.39714">
        <ele>307.4</ele>
        <time>2017-03-26T06:36:49Z</time>
      </trkpt>
      <trkpt lat="43.58375" lon="3.39727">
        <ele>308</ele>
        <time>2017-03-26T06:36:54Z</time>
      </trkpt>
      <trkpt lat="43.58375" lon="3.39738">
        <ele>308.6</ele>
        <time>2017-03-26T06:36:58Z</time>
      </trkpt>
      <trkpt lat="43.58375" lon="3.39748">
        <ele>309.4</ele>
        <time>2017-03-26T06:37:02Z</time>
      </trkpt>
      <trkpt lat="43.58381" lon="3.39756">
        <ele>310.1</ele>
        <time>2017-03-26T06:37:06Z</time>
      </trkpt>
      <trkpt lat="43.58387" lon="3.39765">
        <ele>310.5</ele>
        <time>2017-03-26T06:37:10Z</time>
      </trkpt>
      <trkpt lat="43.58394" lon="3.39773">
        <ele>311.3</ele>
        <time>2017-03-26T06:37:16Z</time>
      </trkpt>
      <trkpt lat="43.584" lon="3.39779">
        <ele>312</ele>
        <time>2017-03-26T06:37:20Z</time>
      </trkpt>
      <trkpt lat="43.58408" lon="3.39785">
        <ele>312.5</ele>
        <time>2017-03-26T06:37:24Z</time>
      </trkpt>
      <trkpt lat="43.58415" lon="3.39791">
        <ele>313.1</ele>
        <time>2017-03-26T06:37:28Z</time>
      </trkpt>
      <trkpt lat="43.58422" lon="3.39795">
        <ele>313.9</ele>
        <time>2017-03-26T06:37:32Z</time>
      </trkpt>
      <trkpt lat="43.58429" lon="3.39802">
        <ele>314.6</ele>
        <time>2017-03-26T06:37:36Z</time>
      </trkpt>
      <trkpt lat="43.58434" lon="3.39811">
        <ele>315.3</ele>
        <time>2017-03-26T06:37:40Z</time>
      </trkpt>
      <trkpt lat="43.58434" lon="3.39823">
        <ele>316.2</ele>
        <time>2017-03-26T06:37:45Z</time>
      </trkpt>
      <trkpt lat="43.5843" lon="3.39833">
        <ele>316.9</ele>
        <time>2017-03-26T06:37:49Z</time>
      </trkpt>
      <trkpt lat="43.58425" lon="3.39842">
        <ele>317.7</ele>
        <time>2017-03-26T06:37:53Z</time>
      </trkpt>
      <trkpt lat="43.5842" lon="3.3985">
        <ele>318.5</ele>
        <time>2017-03-26T06:37:57Z</time>
      </trkpt>
      <trkpt lat="43.58416" lon="3.39858">
        <ele>319.3</ele>
        <time>2017-03-26T06:38:01Z</time>
      </trkpt>
      <trkpt lat="43.58412" lon="3.39869">
        <ele>320.4</ele>
        <time>2017-03-26T06:38:06Z</time>
      </trkpt>
      <trkpt lat="43.58408" lon="3.39878">
        <ele>321.7</ele>
        <time>2017-03-26T06:38:11Z</time>
      </trkpt>
      <trkpt lat="43.58403" lon="3.39887">
        <ele>323.1</ele>
        <time>2017-03-26T06:38:16Z</time>
      </trkpt>
      <trkpt lat="43.58398" lon="3.39897">
        <ele>324.1</ele>
        <time>2017-03-26T06:38:20Z</time>
      </trkpt>
      <trkpt lat="43.58395" lon="3.39906">
        <ele>325</ele>
        <time>2017-03-26T06:38:24Z</time>
      </trkpt>
      <trkpt lat="43.58394" lon="3.39919">
        <ele>326</ele>
        <time>2017-03-26T06:38:28Z</time>
      </trkpt>
      <trkpt lat="43.58395" lon="3.39929">
        <ele>326.6</ele>
        <time>2017-03-26T06:38:31Z</time>
      </trkpt>
      <trkpt lat="43.58399" lon="3.39937">
        <ele>327.1</ele>
        <time>2017-03-26T06:38:34Z</time>
      </trkpt>
      <trkpt lat="43.58408" lon="3.3994">
        <ele>327.7</ele>
        <time>2017-03-26T06:38:38Z</time>
      </trkpt>
      <trkpt lat="43.58415" lon="3.39938">
        <ele>328.3</ele>
        <time>2017-03-26T06:38:42Z</time>
      </trkpt>
      <trkpt lat="43.58423" lon="3.39933">
        <ele>329</ele>
        <time>2017-03-26T06:38:47Z</time>
      </trkpt>
      <trkpt lat="43.58431" lon="3.39928">
        <ele>330</ele>
        <time>2017-03-26T06:38:52Z</time>
      </trkpt>
      <trkpt lat="43.58439" lon="3.39925">
        <ele>330.6</ele>
        <time>2017-03-26T06:38:56Z</time>
      </trkpt>
      <trkpt lat="43.58447" lon="3.39925">
        <ele>331.4</ele>
        <time>2017-03-26T06:39:02Z</time>
      </trkpt>
      <trkpt lat="43.58455" lon="3.39926">
        <ele>332</ele>
        <time>2017-03-26T06:39:07Z</time>
      </trkpt>
      <trkpt lat="43.58464" lon="3.39927">
        <ele>332.9</ele>
        <time>2017-03-26T06:39:12Z</time>
      </trkpt>
      <trkpt lat="43.58472" lon="3.39928">
        <ele>333.9</ele>
        <time>2017-03-26T06:39:17Z</time>
      </trkpt>
      <trkpt lat="43.5848" lon="3.39928">
        <ele>334.8</ele>
        <time>2017-03-26T06:39:22Z</time>
      </trkpt>
      <trkpt lat="43.58489" lon="3.39926">
        <ele>335.5</ele>
        <time>2017-03-26T06:39:26Z</time>
      </trkpt>
      <trkpt lat="43.58497" lon="3.39925">
        <ele>336.1</ele>
        <time>2017-03-26T06:39:29Z</time>
      </trkpt>
      <trkpt lat="43.58506" lon="3.39922">
        <ele>336.6</ele>
        <time>2017-03-26T06:39:32Z</time>
      </trkpt>
      <trkpt lat="43.58516" lon="3.39919">
        <ele>337</ele>
        <time>2017-03-26T06:39:35Z</time>
      </trkpt>
      <trkpt lat="43.58523" lon="3.39918">
        <ele>337.3</ele>
        <time>2017-03-26T06:39:37Z</time>
      </trkpt>
      <trkpt lat="43.58531" lon="3.39916">
        <ele>337.6</ele>
        <time>2017-03-26T06:39:40Z</time>
      </trkpt>
      <trkpt lat="43.58538" lon="3.39915">
        <ele>338</ele>
        <time>2017-03-26T06:39:43Z</time>
      </trkpt>
      <trkpt lat="43.58546" lon="3.39911">
        <ele>338.2</ele>
        <time>2017-03-26T06:39:45Z</time>
      </trkpt>
      <trkpt lat="43.58553" lon="3.39908">
        <ele>338.5</ele>
        <time>2017-03-26T06:39:47Z</time>
      </trkpt>
      <trkpt lat="43.5856" lon="3.39903">
        <ele>338.8</ele>
        <time>2017-03-26T06:39:49Z</time>
      </trkpt>
      <trkpt lat="43.58569" lon="3.39896">
        <ele>339</ele>
        <time>2017-03-26T06:39:52Z</time>
      </trkpt>
      <trkpt lat="43.58575" lon="3.39889">
        <ele>339.2</ele>
        <time>2017-03-26T06:39:54Z</time>
      </trkpt>
      <trkpt lat="43.58581" lon="3.39883">
        <ele>339.3</ele>
        <time>2017-03-26T06:39:56Z</time>
      </trkpt>
      <trkpt lat="43.58589" lon="3.39876">
        <ele>340.8</ele>
        <time>2017-03-26T06:39:58Z</time>
      </trkpt>
      <trkpt lat="43.58596" lon="3.3987">
        <ele>341.8</ele>
        <time>2017-03-26T06:40:00Z</time>
      </trkpt>
      <trkpt lat="43.58602" lon="3.39864">
        <ele>342.1</ele>
        <time>2017-03-26T06:40:02Z</time>
      </trkpt>
      <trkpt lat="43.58609" lon="3.39858">
        <ele>341.3</ele>
        <time>2017-03-26T06:40:04Z</time>
      </trkpt>
      <trkpt lat="43.58616" lon="3.39852">
        <ele>340.5</ele>
        <time>2017-03-26T06:40:07Z</time>
      </trkpt>
      <trkpt lat="43.58623" lon="3.39847">
        <ele>340.3</ele>
        <time>2017-03-26T06:40:09Z</time>
      </trkpt>
      <trkpt lat="43.5863" lon="3.39844">
        <ele>340.2</ele>
        <time>2017-03-26T06:40:11Z</time>
      </trkpt>
      <trkpt lat="43.58639" lon="3.3984">
        <ele>340.2</ele>
        <time>2017-03-26T06:40:14Z</time>
      </trkpt>
      <trkpt lat="43.58648" lon="3.39838">
        <ele>340.2</ele>
        <time>2017-03-26T06:40:17Z</time>
      </trkpt>
      <trkpt lat="43.58659" lon="3.39838">
        <ele>339.9</ele>
        <time>2017-03-26T06:40:20Z</time>
      </trkpt>
      <trkpt lat="43.58669" lon="3.39838">
        <ele>339.5</ele>
        <time>2017-03-26T06:40:23Z</time>
      </trkpt>
      <trkpt lat="43.58677" lon="3.39838">
        <ele>339</ele>
        <time>2017-03-26T06:40:26Z</time>
      </trkpt>
      <trkpt lat="43.58686" lon="3.39838">
        <ele>338.3</ele>
        <time>2017-03-26T06:40:30Z</time>
      </trkpt>
      <trkpt lat="43.58695" lon="3.39841">
        <ele>337.8</ele>
        <time>2017-03-26T06:40:34Z</time>
      </trkpt>
      <trkpt lat="43.58702" lon="3.39842">
        <ele>337.6</ele>
        <time>2017-03-26T06:40:37Z</time>
      </trkpt>
      <trkpt lat="43.5871" lon="3.39844">
        <ele>337.3</ele>
        <time>2017-03-26T06:40:40Z</time>
      </trkpt>
      <trkpt lat="43.58718" lon="3.39846">
        <ele>337.3</ele>
        <time>2017-03-26T06:40:43Z</time>
      </trkpt>
      <trkpt lat="43.58727" lon="3.39848">
        <ele>337.3</ele>
        <time>2017-03-26T06:40:46Z</time>
      </trkpt>
      <trkpt lat="43.58736" lon="3.39848">
        <ele>337.3</ele>
        <time>2017-03-26T06:40:49Z</time>
      </trkpt>
      <trkpt lat="43.58744" lon="3.39844">
        <ele>337.4</ele>
        <time>2017-03-26T06:40:52Z</time>
      </trkpt>
      <trkpt lat="43.58753" lon="3.39842">
        <ele>337.4</ele>
        <time>2017-03-26T06:40:55Z</time>
      </trkpt>
      <trkpt lat="43.58761" lon="3.39841">
        <ele>337.5</ele>
        <time>2017-03-26T06:40:58Z</time>
      </trkpt>
      <trkpt lat="43.58769" lon="3.39841">
        <ele>337.3</ele>
        <time>2017-03-26T06:41:01Z</time>
      </trkpt>
      <trkpt lat="43.58776" lon="3.39839">
        <ele>337.2</ele>
        <time>2017-03-26T06:41:05Z</time>
      </trkpt>
      <trkpt lat="43.58787" lon="3.39839">
        <ele>337</ele>
        <time>2017-03-26T06:41:09Z</time>
      </trkpt>
      <trkpt lat="43.58796" lon="3.39839">
        <ele>336.8</ele>
        <time>2017-03-26T06:41:12Z</time>
      </trkpt>
      <trkpt lat="43.58806" lon="3.39839">
        <ele>336.9</ele>
        <time>2017-03-26T06:41:15Z</time>
      </trkpt>
      <trkpt lat="43.58815" lon="3.39839">
        <ele>337.1</ele>
        <time>2017-03-26T06:41:18Z</time>
      </trkpt>
      <trkpt lat="43.58823" lon="3.39837">
        <ele>337.1</ele>
        <time>2017-03-26T06:41:21Z</time>
      </trkpt>
      <trkpt lat="43.5883" lon="3.39835">
        <ele>337.1</ele>
        <time>2017-03-26T06:41:25Z</time>
      </trkpt>
      <trkpt lat="43.58838" lon="3.39839">
        <ele>336.8</ele>
        <time>2017-03-26T06:41:29Z</time>
      </trkpt>
      <trkpt lat="43.58847" lon="3.39841">
        <ele>336.7</ele>
        <time>2017-03-26T06:41:32Z</time>
      </trkpt>
      <trkpt lat="43.58855" lon="3.39839">
        <ele>336.6</ele>
        <time>2017-03-26T06:41:35Z</time>
      </trkpt>
      <trkpt lat="43.58864" lon="3.39835">
        <ele>336.6</ele>
        <time>2017-03-26T06:41:38Z</time>
      </trkpt>
      <trkpt lat="43.58872" lon="3.3983">
        <ele>336.5</ele>
        <time>2017-03-26T06:41:41Z</time>
      </trkpt>
      <trkpt lat="43.58879" lon="3.39827">
        <ele>336.4</ele>
        <time>2017-03-26T06:41:44Z</time>
      </trkpt>
      <trkpt lat="43.58888" lon="3.39823">
        <ele>336.1</ele>
        <time>2017-03-26T06:41:47Z</time>
      </trkpt>
      <trkpt lat="43.58895" lon="3.3982">
        <ele>336</ele>
        <time>2017-03-26T06:41:50Z</time>
      </trkpt>
      <trkpt lat="43.58903" lon="3.39817">
        <ele>336</ele>
        <time>2017-03-26T06:41:53Z</time>
      </trkpt>
      <trkpt lat="43.58912" lon="3.39813">
        <ele>336</ele>
        <time>2017-03-26T06:41:56Z</time>
      </trkpt>
      <trkpt lat="43.5892" lon="3.39812">
        <ele>336</ele>
        <time>2017-03-26T06:41:59Z</time>
      </trkpt>
      <trkpt lat="43.58928" lon="3.3981">
        <ele>335.9</ele>
        <time>2017-03-26T06:42:02Z</time>
      </trkpt>
      <trkpt lat="43.58937" lon="3.39808">
        <ele>335.9</ele>
        <time>2017-03-26T06:42:05Z</time>
      </trkpt>
      <trkpt lat="43.58946" lon="3.39807">
        <ele>335.9</ele>
        <time>2017-03-26T06:42:08Z</time>
      </trkpt>
      <trkpt lat="43.58955" lon="3.39808">
        <ele>335.4</ele>
        <time>2017-03-26T06:42:12Z</time>
      </trkpt>
      <trkpt lat="43.58962" lon="3.3981">
        <ele>335.2</ele>
        <time>2017-03-26T06:42:15Z</time>
      </trkpt>
      <trkpt lat="43.58969" lon="3.39817">
        <ele>335.1</ele>
        <time>2017-03-26T06:42:18Z</time>
      </trkpt>
      <trkpt lat="43.58975" lon="3.39826">
        <ele>335.1</ele>
        <time>2017-03-26T06:42:21Z</time>
      </trkpt>
      <trkpt lat="43.5898" lon="3.39834">
        <ele>335</ele>
        <time>2017-03-26T06:42:24Z</time>
      </trkpt>
      <trkpt lat="43.58987" lon="3.39839">
        <ele>335</ele>
        <time>2017-03-26T06:42:27Z</time>
      </trkpt>
      <trkpt lat="43.58995" lon="3.39839">
        <ele>334.8</ele>
        <time>2017-03-26T06:42:30Z</time>
      </trkpt>
      <trkpt lat="43.59003" lon="3.39841">
        <ele>334.6</ele>
        <time>2017-03-26T06:42:33Z</time>
      </trkpt>
      <trkpt lat="43.59011" lon="3.39845">
        <ele>334.4</ele>
        <time>2017-03-26T06:42:36Z</time>
      </trkpt>
      <trkpt lat="43.59019" lon="3.39845">
        <ele>334.5</ele>
        <time>2017-03-26T06:42:39Z</time>
      </trkpt>
      <trkpt lat="43.59027" lon="3.3984">
        <ele>334.5</ele>
        <time>2017-03-26T06:42:42Z</time>
      </trkpt>
      <trkpt lat="43.59036" lon="3.39836">
        <ele>334.8</ele>
        <time>2017-03-26T06:42:45Z</time>
      </trkpt>
      <trkpt lat="43.59045" lon="3.39833">
        <ele>335.1</ele>
        <time>2017-03-26T06:42:49Z</time>
      </trkpt>
      <trkpt lat="43.59052" lon="3.39833">
        <ele>335.1</ele>
        <time>2017-03-26T06:42:52Z</time>
      </trkpt>
      <trkpt lat="43.5906" lon="3.39834">
        <ele>335.2</ele>
        <time>2017-03-26T06:42:55Z</time>
      </trkpt>
      <trkpt lat="43.59067" lon="3.39836">
        <ele>335.4</ele>
        <time>2017-03-26T06:42:58Z</time>
      </trkpt>
      <trkpt lat="43.59076" lon="3.39839">
        <ele>335.5</ele>
        <time>2017-03-26T06:43:01Z</time>
      </trkpt>
      <trkpt lat="43.59084" lon="3.39839">
        <ele>335.6</ele>
        <time>2017-03-26T06:43:05Z</time>
      </trkpt>
      <trkpt lat="43.59091" lon="3.39834">
        <ele>335.7</ele>
        <time>2017-03-26T06:43:09Z</time>
      </trkpt>
      <trkpt lat="43.59098" lon="3.39827">
        <ele>335.8</ele>
        <time>2017-03-26T06:43:13Z</time>
      </trkpt>
      <trkpt lat="43.59102" lon="3.39819">
        <ele>336.1</ele>
        <time>2017-03-26T06:43:17Z</time>
      </trkpt>
      <trkpt lat="43.59107" lon="3.39809">
        <ele>336.5</ele>
        <time>2017-03-26T06:43:22Z</time>
      </trkpt>
      <trkpt lat="43.59113" lon="3.398">
        <ele>336.6</ele>
        <time>2017-03-26T06:43:26Z</time>
      </trkpt>
      <trkpt lat="43.59118" lon="3.39791">
        <ele>336.8</ele>
        <time>2017-03-26T06:43:30Z</time>
      </trkpt>
      <trkpt lat="43.59124" lon="3.39782">
        <ele>337</ele>
        <time>2017-03-26T06:43:34Z</time>
      </trkpt>
      <trkpt lat="43.59128" lon="3.39774">
        <ele>337.3</ele>
        <time>2017-03-26T06:43:38Z</time>
      </trkpt>
      <trkpt lat="43.59133" lon="3.39765">
        <ele>337.5</ele>
        <time>2017-03-26T06:43:42Z</time>
      </trkpt>
      <trkpt lat="43.59138" lon="3.39757">
        <ele>337.9</ele>
        <time>2017-03-26T06:43:47Z</time>
      </trkpt>
      <trkpt lat="43.59143" lon="3.39748">
        <ele>338.4</ele>
        <time>2017-03-26T06:43:53Z</time>
      </trkpt>
      <trkpt lat="43.59151" lon="3.39745">
        <ele>339.3</ele>
        <time>2017-03-26T06:44:00Z</time>
      </trkpt>
      <trkpt lat="43.59149" lon="3.39756">
        <ele>339.9</ele>
        <time>2017-03-26T06:44:06Z</time>
      </trkpt>
      <trkpt lat="43.59143" lon="3.39765">
        <ele>340.1</ele>
        <time>2017-03-26T06:44:11Z</time>
      </trkpt>
      <trkpt lat="43.59139" lon="3.39774">
        <ele>340.2</ele>
        <time>2017-03-26T06:44:16Z</time>
      </trkpt>
      <trkpt lat="43.59134" lon="3.39784">
        <ele>340.2</ele>
        <time>2017-03-26T06:44:20Z</time>
      </trkpt>
      <trkpt lat="43.59127" lon="3.39784">
        <ele>340.2</ele>
        <time>2017-03-26T06:44:25Z</time>
      </trkpt>
      <trkpt lat="43.5913" lon="3.39773">
        <ele>340.3</ele>
        <time>2017-03-26T06:44:30Z</time>
      </trkpt>
      <trkpt lat="43.59136" lon="3.39764">
        <ele>340.4</ele>
        <time>2017-03-26T06:44:34Z</time>
      </trkpt>
      <trkpt lat="43.59139" lon="3.39756">
        <ele>340.6</ele>
        <time>2017-03-26T06:44:38Z</time>
      </trkpt>
      <trkpt lat="43.59146" lon="3.39748">
        <ele>340.7</ele>
        <time>2017-03-26T06:44:42Z</time>
      </trkpt>
      <trkpt lat="43.59153" lon="3.39746">
        <ele>340.8</ele>
        <time>2017-03-26T06:44:46Z</time>
      </trkpt>
      <trkpt lat="43.59161" lon="3.39746">
        <ele>340.9</ele>
        <time>2017-03-26T06:44:50Z</time>
      </trkpt>
      <trkpt lat="43.5917" lon="3.39746">
        <ele>341.1</ele>
        <time>2017-03-26T06:44:54Z</time>
      </trkpt>
      <trkpt lat="43.59177" lon="3.39748">
        <ele>341.2</ele>
        <time>2017-03-26T06:44:57Z</time>
      </trkpt>
      <trkpt lat="43.59185" lon="3.3975">
        <ele>341.2</ele>
        <time>2017-03-26T06:45:00Z</time>
      </trkpt>
      <trkpt lat="43.59193" lon="3.39752">
        <ele>341.4</ele>
        <time>2017-03-26T06:45:03Z</time>
      </trkpt>
      <trkpt lat="43.59201" lon="3.39753">
        <ele>341.6</ele>
        <time>2017-03-26T06:45:06Z</time>
      </trkpt>
      <trkpt lat="43.59208" lon="3.39754">
        <ele>341.7</ele>
        <time>2017-03-26T06:45:09Z</time>
      </trkpt>
      <trkpt lat="43.59217" lon="3.39754">
        <ele>341.7</ele>
        <time>2017-03-26T06:45:12Z</time>
      </trkpt>
      <trkpt lat="43.59225" lon="3.39755">
        <ele>342</ele>
        <time>2017-03-26T06:45:15Z</time>
      </trkpt>
      <trkpt lat="43.59234" lon="3.39755">
        <ele>342.1</ele>
        <time>2017-03-26T06:45:18Z</time>
      </trkpt>
      <trkpt lat="43.59241" lon="3.39756">
        <ele>342.3</ele>
        <time>2017-03-26T06:45:21Z</time>
      </trkpt>
      <trkpt lat="43.5925" lon="3.39756">
        <ele>342.5</ele>
        <time>2017-03-26T06:45:25Z</time>
      </trkpt>
      <trkpt lat="43.59259" lon="3.39754">
        <ele>342.6</ele>
        <time>2017-03-26T06:45:29Z</time>
      </trkpt>
      <trkpt lat="43.59268" lon="3.3975">
        <ele>342.7</ele>
        <time>2017-03-26T06:45:33Z</time>
      </trkpt>
      <trkpt lat="43.59276" lon="3.39747">
        <ele>342.7</ele>
        <time>2017-03-26T06:45:36Z</time>
      </trkpt>
      <trkpt lat="43.59283" lon="3.39744">
        <ele>342.8</ele>
        <time>2017-03-26T06:45:38Z</time>
      </trkpt>
      <trkpt lat="43.59294" lon="3.39742">
        <ele>343</ele>
        <time>2017-03-26T06:45:41Z</time>
      </trkpt>
      <trkpt lat="43.59302" lon="3.39741">
        <ele>342.5</ele>
        <time>2017-03-26T06:45:43Z</time>
      </trkpt>
      <trkpt lat="43.59311" lon="3.39741">
        <ele>342.8</ele>
        <time>2017-03-26T06:45:45Z</time>
      </trkpt>
      <trkpt lat="43.59318" lon="3.39741">
        <ele>342.3</ele>
        <time>2017-03-26T06:45:47Z</time>
      </trkpt>
      <trkpt lat="43.59327" lon="3.3974">
        <ele>342.5</ele>
        <time>2017-03-26T06:45:49Z</time>
      </trkpt>
      <trkpt lat="43.59334" lon="3.39739">
        <ele>341.9</ele>
        <time>2017-03-26T06:45:51Z</time>
      </trkpt>
      <trkpt lat="43.59342" lon="3.39739">
        <ele>341.2</ele>
        <time>2017-03-26T06:45:53Z</time>
      </trkpt>
      <trkpt lat="43.5935" lon="3.39742">
        <ele>341.1</ele>
        <time>2017-03-26T06:45:56Z</time>
      </trkpt>
      <trkpt lat="43.59357" lon="3.39748">
        <ele>340.8</ele>
        <time>2017-03-26T06:45:59Z</time>
      </trkpt>
      <trkpt lat="43.59364" lon="3.39754">
        <ele>340.4</ele>
        <time>2017-03-26T06:46:03Z</time>
      </trkpt>
      <trkpt lat="43.59372" lon="3.39761">
        <ele>340.3</ele>
        <time>2017-03-26T06:46:07Z</time>
      </trkpt>
      <trkpt lat="43.59379" lon="3.39767">
        <ele>340.2</ele>
        <time>2017-03-26T06:46:10Z</time>
      </trkpt>
      <trkpt lat="43.59385" lon="3.39773">
        <ele>340.2</ele>
        <time>2017-03-26T06:46:12Z</time>
      </trkpt>
      <trkpt lat="43.59395" lon="3.3978">
        <ele>338.9</ele>
        <time>2017-03-26T06:46:15Z</time>
      </trkpt>
      <trkpt lat="43.59403" lon="3.39787">
        <ele>339.6</ele>
        <time>2017-03-26T06:46:17Z</time>
      </trkpt>
      <trkpt lat="43.59412" lon="3.39797">
        <ele>339.8</ele>
        <time>2017-03-26T06:46:19Z</time>
      </trkpt>
      <trkpt lat="43.5942" lon="3.39809">
        <ele>338.3</ele>
        <time>2017-03-26T06:46:21Z</time>
      </trkpt>
      <trkpt lat="43.59429" lon="3.39821">
        <ele>337.9</ele>
        <time>2017-03-26T06:46:23Z</time>
      </trkpt>
      <trkpt lat="43.59438" lon="3.39832">
        <ele>337.8</ele>
        <time>2017-03-26T06:46:25Z</time>
      </trkpt>
      <trkpt lat="43.59446" lon="3.39847">
        <ele>337</ele>
        <time>2017-03-26T06:46:27Z</time>
      </trkpt>
      <trkpt lat="43.59452" lon="3.3986">
        <ele>337.5</ele>
        <time>2017-03-26T06:46:29Z</time>
      </trkpt>
      <trkpt lat="43.59457" lon="3.39876">
        <ele>337.5</ele>
        <time>2017-03-26T06:46:31Z</time>
      </trkpt>
      <trkpt lat="43.59461" lon="3.39891">
        <ele>336.5</ele>
        <time>2017-03-26T06:46:33Z</time>
      </trkpt>
      <trkpt lat="43.59465" lon="3.39904">
        <ele>334.4</ele>
        <time>2017-03-26T06:46:35Z</time>
      </trkpt>
      <trkpt lat="43.59469" lon="3.39916">
        <ele>333.1</ele>
        <time>2017-03-26T06:46:37Z</time>
      </trkpt>
      <trkpt lat="43.59476" lon="3.39925">
        <ele>331.3</ele>
        <time>2017-03-26T06:46:39Z</time>
      </trkpt>
      <trkpt lat="43.59482" lon="3.39933">
        <ele>330.6</ele>
        <time>2017-03-26T06:46:41Z</time>
      </trkpt>
      <trkpt lat="43.5949" lon="3.39944">
        <ele>328.9</ele>
        <time>2017-03-26T06:46:43Z</time>
      </trkpt>
      <trkpt lat="43.59499" lon="3.39956">
        <ele>327.8</ele>
        <time>2017-03-26T06:46:45Z</time>
      </trkpt>
      <trkpt lat="43.59509" lon="3.39971">
        <ele>326.9</ele>
        <time>2017-03-26T06:46:47Z</time>
      </trkpt>
      <trkpt lat="43.59516" lon="3.39987">
        <ele>325.4</ele>
        <time>2017-03-26T06:46:49Z</time>
      </trkpt>
      <trkpt lat="43.59523" lon="3.4">
        <ele>324.7</ele>
        <time>2017-03-26T06:46:51Z</time>
      </trkpt>
      <trkpt lat="43.5953" lon="3.40015">
        <ele>325.2</ele>
        <time>2017-03-26T06:46:53Z</time>
      </trkpt>
      <trkpt lat="43.59536" lon="3.4003">
        <ele>324.8</ele>
        <time>2017-03-26T06:46:55Z</time>
      </trkpt>
      <trkpt lat="43.59541" lon="3.40045">
        <ele>323.6</ele>
        <time>2017-03-26T06:46:57Z</time>
      </trkpt>
      <trkpt lat="43.59551" lon="3.40058">
        <ele>322</ele>
        <time>2017-03-26T06:46:59Z</time>
      </trkpt>
      <trkpt lat="43.59556" lon="3.40065">
        <ele>321.7</ele>
        <time>2017-03-26T06:47:00Z</time>
      </trkpt>
      <trkpt lat="43.59563" lon="3.40081">
        <ele>320.4</ele>
        <time>2017-03-26T06:47:02Z</time>
      </trkpt>
      <trkpt lat="43.59564" lon="3.40099">
        <ele>319.2</ele>
        <time>2017-03-26T06:47:04Z</time>
      </trkpt>
      <trkpt lat="43.59562" lon="3.40116">
        <ele>318.4</ele>
        <time>2017-03-26T06:47:06Z</time>
      </trkpt>
      <trkpt lat="43.59554" lon="3.4013">
        <ele>318.1</ele>
        <time>2017-03-26T06:47:08Z</time>
      </trkpt>
      <trkpt lat="43.59548" lon="3.40143">
        <ele>318.7</ele>
        <time>2017-03-26T06:47:10Z</time>
      </trkpt>
      <trkpt lat="43.59543" lon="3.40158">
        <ele>318.7</ele>
        <time>2017-03-26T06:47:12Z</time>
      </trkpt>
      <trkpt lat="43.59536" lon="3.40171">
        <ele>318.5</ele>
        <time>2017-03-26T06:47:14Z</time>
      </trkpt>
      <trkpt lat="43.59529" lon="3.40183">
        <ele>318.1</ele>
        <time>2017-03-26T06:47:16Z</time>
      </trkpt>
      <trkpt lat="43.59524" lon="3.40193">
        <ele>318.6</ele>
        <time>2017-03-26T06:47:18Z</time>
      </trkpt>
      <trkpt lat="43.59519" lon="3.40204">
        <ele>317.5</ele>
        <time>2017-03-26T06:47:20Z</time>
      </trkpt>
      <trkpt lat="43.59511" lon="3.40217">
        <ele>316.1</ele>
        <time>2017-03-26T06:47:22Z</time>
      </trkpt>
      <trkpt lat="43.59501" lon="3.40228">
        <ele>315.1</ele>
        <time>2017-03-26T06:47:24Z</time>
      </trkpt>
      <trkpt lat="43.5949" lon="3.4024">
        <ele>314.1</ele>
        <time>2017-03-26T06:47:26Z</time>
      </trkpt>
      <trkpt lat="43.59478" lon="3.40249">
        <ele>313.1</ele>
        <time>2017-03-26T06:47:28Z</time>
      </trkpt>
      <trkpt lat="43.5947" lon="3.40254">
        <ele>312.4</ele>
        <time>2017-03-26T06:47:29Z</time>
      </trkpt>
      <trkpt lat="43.59462" lon="3.40258">
        <ele>311.2</ele>
        <time>2017-03-26T06:47:30Z</time>
      </trkpt>
      <trkpt lat="43.59455" lon="3.40262">
        <ele>309.7</ele>
        <time>2017-03-26T06:47:31Z</time>
      </trkpt>
      <trkpt lat="43.59447" lon="3.40265">
        <ele>308.8</ele>
        <time>2017-03-26T06:47:32Z</time>
      </trkpt>
      <trkpt lat="43.59439" lon="3.40268">
        <ele>308.1</ele>
        <time>2017-03-26T06:47:33Z</time>
      </trkpt>
      <trkpt lat="43.59431" lon="3.40267">
        <ele>307.1</ele>
        <time>2017-03-26T06:47:34Z</time>
      </trkpt>
      <trkpt lat="43.59424" lon="3.40266">
        <ele>306.1</ele>
        <time>2017-03-26T06:47:35Z</time>
      </trkpt>
      <trkpt lat="43.59416" lon="3.40267">
        <ele>305.8</ele>
        <time>2017-03-26T06:47:36Z</time>
      </trkpt>
      <trkpt lat="43.59409" lon="3.40271">
        <ele>305.5</ele>
        <time>2017-03-26T06:47:37Z</time>
      </trkpt>
      <trkpt lat="43.59402" lon="3.40276">
        <ele>305.3</ele>
        <time>2017-03-26T06:47:38Z</time>
      </trkpt>
      <trkpt lat="43.59391" lon="3.40287">
        <ele>304.3</ele>
        <time>2017-03-26T06:47:40Z</time>
      </trkpt>
      <trkpt lat="43.59381" lon="3.40294">
        <ele>304.1</ele>
        <time>2017-03-26T06:47:42Z</time>
      </trkpt>
      <trkpt lat="43.59371" lon="3.40296">
        <ele>304.1</ele>
        <time>2017-03-26T06:47:44Z</time>
      </trkpt>
      <trkpt lat="43.59363" lon="3.40297">
        <ele>303.9</ele>
        <time>2017-03-26T06:47:46Z</time>
      </trkpt>
      <trkpt lat="43.59355" lon="3.40303">
        <ele>303.7</ele>
        <time>2017-03-26T06:47:49Z</time>
      </trkpt>
      <trkpt lat="43.59348" lon="3.40309">
        <ele>302.6</ele>
        <time>2017-03-26T06:47:52Z</time>
      </trkpt>
      <trkpt lat="43.59339" lon="3.40314">
        <ele>301.6</ele>
        <time>2017-03-26T06:47:54Z</time>
      </trkpt>
      <trkpt lat="43.59329" lon="3.40317">
        <ele>301.1</ele>
        <time>2017-03-26T06:47:56Z</time>
      </trkpt>
      <trkpt lat="43.5932" lon="3.40317">
        <ele>300.8</ele>
        <time>2017-03-26T06:47:58Z</time>
      </trkpt>
      <trkpt lat="43.59308" lon="3.40317">
        <ele>300.2</ele>
        <time>2017-03-26T06:48:00Z</time>
      </trkpt>
      <trkpt lat="43.59296" lon="3.40317">
        <ele>298.7</ele>
        <time>2017-03-26T06:48:02Z</time>
      </trkpt>
      <trkpt lat="43.59287" lon="3.40317">
        <ele>296.9</ele>
        <time>2017-03-26T06:48:04Z</time>
      </trkpt>
      <trkpt lat="43.59277" lon="3.40317">
        <ele>295.5</ele>
        <time>2017-03-26T06:48:06Z</time>
      </trkpt>
      <trkpt lat="43.59268" lon="3.40317">
        <ele>295.5</ele>
        <time>2017-03-26T06:48:08Z</time>
      </trkpt>
      <trkpt lat="43.59259" lon="3.40317">
        <ele>296.1</ele>
        <time>2017-03-26T06:48:10Z</time>
      </trkpt>
      <trkpt lat="43.59249" lon="3.40317">
        <ele>295.9</ele>
        <time>2017-03-26T06:48:12Z</time>
      </trkpt>
      <trkpt lat="43.59238" lon="3.40316">
        <ele>295.6</ele>
        <time>2017-03-26T06:48:14Z</time>
      </trkpt>
      <trkpt lat="43.59227" lon="3.40317">
        <ele>294.8</ele>
        <time>2017-03-26T06:48:16Z</time>
      </trkpt>
      <trkpt lat="43.59219" lon="3.40318">
        <ele>294.2</ele>
        <time>2017-03-26T06:48:17Z</time>
      </trkpt>
      <trkpt lat="43.59207" lon="3.40324">
        <ele>294.1</ele>
        <time>2017-03-26T06:48:19Z</time>
      </trkpt>
      <trkpt lat="43.59195" lon="3.40332">
        <ele>293.9</ele>
        <time>2017-03-26T06:48:21Z</time>
      </trkpt>
      <trkpt lat="43.59184" lon="3.40334">
        <ele>294.6</ele>
        <time>2017-03-26T06:48:23Z</time>
      </trkpt>
      <trkpt lat="43.59175" lon="3.40334">
        <ele>294.7</ele>
        <time>2017-03-26T06:48:25Z</time>
      </trkpt>
      <trkpt lat="43.59171" lon="3.40343">
        <ele>294.5</ele>
        <time>2017-03-26T06:48:27Z</time>
      </trkpt>
      <trkpt lat="43.59177" lon="3.40352">
        <ele>292.9</ele>
        <time>2017-03-26T06:48:30Z</time>
      </trkpt>
      <trkpt lat="43.59185" lon="3.40359">
        <ele>290</ele>
        <time>2017-03-26T06:48:32Z</time>
      </trkpt>
      <trkpt lat="43.59194" lon="3.40368">
        <ele>287.7</ele>
        <time>2017-03-26T06:48:34Z</time>
      </trkpt>
      <trkpt lat="43.59204" lon="3.40376">
        <ele>285.9</ele>
        <time>2017-03-26T06:48:36Z</time>
      </trkpt>
      <trkpt lat="43.59213" lon="3.40386">
        <ele>284.3</ele>
        <time>2017-03-26T06:48:38Z</time>
      </trkpt>
      <trkpt lat="43.59222" lon="3.40393">
        <ele>283.2</ele>
        <time>2017-03-26T06:48:40Z</time>
      </trkpt>
      <trkpt lat="43.59229" lon="3.40398">
        <ele>282.1</ele>
        <time>2017-03-26T06:48:42Z</time>
      </trkpt>
      <trkpt lat="43.59236" lon="3.40403">
        <ele>282</ele>
        <time>2017-03-26T06:48:44Z</time>
      </trkpt>
      <trkpt lat="43.59246" lon="3.40407">
        <ele>281.9</ele>
        <time>2017-03-26T06:48:47Z</time>
      </trkpt>
      <trkpt lat="43.59253" lon="3.4041">
        <ele>281.8</ele>
        <time>2017-03-26T06:48:49Z</time>
      </trkpt>
      <trkpt lat="43.59261" lon="3.40409">
        <ele>281.6</ele>
        <time>2017-03-26T06:48:52Z</time>
      </trkpt>
      <trkpt lat="43.59271" lon="3.40406">
        <ele>281.4</ele>
        <time>2017-03-26T06:48:55Z</time>
      </trkpt>
      <trkpt lat="43.5928" lon="3.40405">
        <ele>280.5</ele>
        <time>2017-03-26T06:48:57Z</time>
      </trkpt>
      <trkpt lat="43.5929" lon="3.40403">
        <ele>280.1</ele>
        <time>2017-03-26T06:48:59Z</time>
      </trkpt>
      <trkpt lat="43.593" lon="3.40403">
        <ele>281</ele>
        <time>2017-03-26T06:49:01Z</time>
      </trkpt>
      <trkpt lat="43.5931" lon="3.40403">
        <ele>280.4</ele>
        <time>2017-03-26T06:49:03Z</time>
      </trkpt>
      <trkpt lat="43.59318" lon="3.40403">
        <ele>279.9</ele>
        <time>2017-03-26T06:49:05Z</time>
      </trkpt>
      <trkpt lat="43.59326" lon="3.40402">
        <ele>279.8</ele>
        <time>2017-03-26T06:49:07Z</time>
      </trkpt>
      <trkpt lat="43.59333" lon="3.40402">
        <ele>279.9</ele>
        <time>2017-03-26T06:49:09Z</time>
      </trkpt>
      <trkpt lat="43.59344" lon="3.40399">
        <ele>279.8</ele>
        <time>2017-03-26T06:49:12Z</time>
      </trkpt>
      <trkpt lat="43.59353" lon="3.40397">
        <ele>280.1</ele>
        <time>2017-03-26T06:49:14Z</time>
      </trkpt>
      <trkpt lat="43.59363" lon="3.40394">
        <ele>280.1</ele>
        <time>2017-03-26T06:49:17Z</time>
      </trkpt>
      <trkpt lat="43.59373" lon="3.40394">
        <ele>280.2</ele>
        <time>2017-03-26T06:49:20Z</time>
      </trkpt>
      <trkpt lat="43.59382" lon="3.40394">
        <ele>280.3</ele>
        <time>2017-03-26T06:49:23Z</time>
      </trkpt>
      <trkpt lat="43.59391" lon="3.40391">
        <ele>280.3</ele>
        <time>2017-03-26T06:49:27Z</time>
      </trkpt>
      <trkpt lat="43.59399" lon="3.40389">
        <ele>280.4</ele>
        <time>2017-03-26T06:49:30Z</time>
      </trkpt>
      <trkpt lat="43.59407" lon="3.40392">
        <ele>280.8</ele>
        <time>2017-03-26T06:49:35Z</time>
      </trkpt>
      <trkpt lat="43.5941" lon="3.40395">
        <ele>281.9</ele>
        <time>2017-03-26T06:49:42Z</time>
      </trkpt>
      <trkpt lat="43.59419" lon="3.40411">
        <ele>285.8</ele>
        <time>2017-03-26T06:51:44Z</time>
      </trkpt>
      <trkpt lat="43.59429" lon="3.40407">
        <ele>285.8</ele>
        <time>2017-03-26T06:51:49Z</time>
      </trkpt>
      <trkpt lat="43.59438" lon="3.40407">
        <ele>285.8</ele>
        <time>2017-03-26T06:51:53Z</time>
      </trkpt>
      <trkpt lat="43.59449" lon="3.40415">
        <ele>286.7</ele>
        <time>2017-03-26T06:51:55Z</time>
      </trkpt>
      <trkpt lat="43.59462" lon="3.40417">
        <ele>286.2</ele>
        <time>2017-03-26T06:51:57Z</time>
      </trkpt>
      <trkpt lat="43.59474" lon="3.40419">
        <ele>285.1</ele>
        <time>2017-03-26T06:51:59Z</time>
      </trkpt>
      <trkpt lat="43.59484" lon="3.40424">
        <ele>283.1</ele>
        <time>2017-03-26T06:52:01Z</time>
      </trkpt>
      <trkpt lat="43.59496" lon="3.40433">
        <ele>281.1</ele>
        <time>2017-03-26T06:52:03Z</time>
      </trkpt>
      <trkpt lat="43.59502" lon="3.40438">
        <ele>279.5</ele>
        <time>2017-03-26T06:52:05Z</time>
      </trkpt>
      <trkpt lat="43.59511" lon="3.40441">
        <ele>279.4</ele>
        <time>2017-03-26T06:52:07Z</time>
      </trkpt>
      <trkpt lat="43.59522" lon="3.40447">
        <ele>279</ele>
        <time>2017-03-26T06:52:09Z</time>
      </trkpt>
      <trkpt lat="43.59531" lon="3.40455">
        <ele>277.5</ele>
        <time>2017-03-26T06:52:11Z</time>
      </trkpt>
      <trkpt lat="43.59539" lon="3.40462">
        <ele>276.6</ele>
        <time>2017-03-26T06:52:13Z</time>
      </trkpt>
      <trkpt lat="43.59547" lon="3.40467">
        <ele>275.8</ele>
        <time>2017-03-26T06:52:15Z</time>
      </trkpt>
      <trkpt lat="43.59554" lon="3.40475">
        <ele>275.3</ele>
        <time>2017-03-26T06:52:17Z</time>
      </trkpt>
      <trkpt lat="43.59553" lon="3.40487">
        <ele>275.1</ele>
        <time>2017-03-26T06:52:20Z</time>
      </trkpt>
      <trkpt lat="43.59554" lon="3.40498">
        <ele>274.6</ele>
        <time>2017-03-26T06:52:22Z</time>
      </trkpt>
      <trkpt lat="43.59553" lon="3.40511">
        <ele>274</ele>
        <time>2017-03-26T06:52:24Z</time>
      </trkpt>
      <trkpt lat="43.5955" lon="3.40522">
        <ele>273.6</ele>
        <time>2017-03-26T06:52:26Z</time>
      </trkpt>
      <trkpt lat="43.5955" lon="3.40533">
        <ele>273.4</ele>
        <time>2017-03-26T06:52:30Z</time>
      </trkpt>
      <trkpt lat="43.59556" lon="3.40521">
        <ele>273.2</ele>
        <time>2017-03-26T06:53:29Z</time>
      </trkpt>
      <trkpt lat="43.59557" lon="3.40534">
        <ele>273.2</ele>
        <time>2017-03-26T06:53:31Z</time>
      </trkpt>
      <trkpt lat="43.59557" lon="3.40546">
        <ele>273.1</ele>
        <time>2017-03-26T06:53:34Z</time>
      </trkpt>
      <trkpt lat="43.59559" lon="3.40558">
        <ele>272.8</ele>
        <time>2017-03-26T06:53:37Z</time>
      </trkpt>
      <trkpt lat="43.59562" lon="3.4057">
        <ele>270.9</ele>
        <time>2017-03-26T06:53:40Z</time>
      </trkpt>
      <trkpt lat="43.59569" lon="3.40576">
        <ele>267.6</ele>
        <time>2017-03-26T06:53:42Z</time>
      </trkpt>
      <trkpt lat="43.59577" lon="3.40584">
        <ele>264.1</ele>
        <time>2017-03-26T06:53:44Z</time>
      </trkpt>
      <trkpt lat="43.59581" lon="3.40592">
        <ele>262.7</ele>
        <time>2017-03-26T06:53:46Z</time>
      </trkpt>
      <trkpt lat="43.59588" lon="3.40602">
        <ele>262.3</ele>
        <time>2017-03-26T06:53:49Z</time>
      </trkpt>
      <trkpt lat="43.59594" lon="3.40611">
        <ele>262</ele>
        <time>2017-03-26T06:53:52Z</time>
      </trkpt>
      <trkpt lat="43.596" lon="3.40621">
        <ele>260.1</ele>
        <time>2017-03-26T06:53:55Z</time>
      </trkpt>
      <trkpt lat="43.59607" lon="3.40621">
        <ele>259.9</ele>
        <time>2017-03-26T06:53:58Z</time>
      </trkpt>
      <trkpt lat="43.59611" lon="3.40629">
        <ele>259.3</ele>
        <time>2017-03-26T06:54:02Z</time>
      </trkpt>
      <trkpt lat="43.59618" lon="3.40636">
        <ele>256.5</ele>
        <time>2017-03-26T06:54:05Z</time>
      </trkpt>
      <trkpt lat="43.59626" lon="3.40639">
        <ele>252</ele>
        <time>2017-03-26T06:54:07Z</time>
      </trkpt>
      <trkpt lat="43.59635" lon="3.4064">
        <ele>249.5</ele>
        <time>2017-03-26T06:54:09Z</time>
      </trkpt>
      <trkpt lat="43.59644" lon="3.40635">
        <ele>248.1</ele>
        <time>2017-03-26T06:54:12Z</time>
      </trkpt>
      <trkpt lat="43.59647" lon="3.40626">
        <ele>247.1</ele>
        <time>2017-03-26T06:54:14Z</time>
      </trkpt>
      <trkpt lat="43.59657" lon="3.40622">
        <ele>246.9</ele>
        <time>2017-03-26T06:54:17Z</time>
      </trkpt>
      <trkpt lat="43.59664" lon="3.40622">
        <ele>246.7</ele>
        <time>2017-03-26T06:54:19Z</time>
      </trkpt>
      <trkpt lat="43.59674" lon="3.40618">
        <ele>246.3</ele>
        <time>2017-03-26T06:54:22Z</time>
      </trkpt>
      <trkpt lat="43.59682" lon="3.40619">
        <ele>245.5</ele>
        <time>2017-03-26T06:54:26Z</time>
      </trkpt>
      <trkpt lat="43.5969" lon="3.40622">
        <ele>244.1</ele>
        <time>2017-03-26T06:54:31Z</time>
      </trkpt>
      <trkpt lat="43.59699" lon="3.40618">
        <ele>243.2</ele>
        <time>2017-03-26T06:54:34Z</time>
      </trkpt>
      <trkpt lat="43.59707" lon="3.40619">
        <ele>242.2</ele>
        <time>2017-03-26T06:54:37Z</time>
      </trkpt>
      <trkpt lat="43.59716" lon="3.40618">
        <ele>240.9</ele>
        <time>2017-03-26T06:54:41Z</time>
      </trkpt>
      <trkpt lat="43.59724" lon="3.40619">
        <ele>240.1</ele>
        <time>2017-03-26T06:54:44Z</time>
      </trkpt>
      <trkpt lat="43.59731" lon="3.40619">
        <ele>237.2</ele>
        <time>2017-03-26T06:54:47Z</time>
      </trkpt>
      <trkpt lat="43.59738" lon="3.40622">
        <ele>236.7</ele>
        <time>2017-03-26T06:54:49Z</time>
      </trkpt>
      <trkpt lat="43.59747" lon="3.40623">
        <ele>233.9</ele>
        <time>2017-03-26T06:54:51Z</time>
      </trkpt>
      <trkpt lat="43.59755" lon="3.40623">
        <ele>230.3</ele>
        <time>2017-03-26T06:54:53Z</time>
      </trkpt>
      <trkpt lat="43.59764" lon="3.4062">
        <ele>229.8</ele>
        <time>2017-03-26T06:54:56Z</time>
      </trkpt>
      <trkpt lat="43.59772" lon="3.40621">
        <ele>226.5</ele>
        <time>2017-03-26T06:54:58Z</time>
      </trkpt>
      <trkpt lat="43.5978" lon="3.40627">
        <ele>226.2</ele>
        <time>2017-03-26T06:55:01Z</time>
      </trkpt>
      <trkpt lat="43.59779" lon="3.40641">
        <ele>225.7</ele>
        <time>2017-03-26T06:55:04Z</time>
      </trkpt>
      <trkpt lat="43.59781" lon="3.40653">
        <ele>224</ele>
        <time>2017-03-26T06:55:06Z</time>
      </trkpt>
      <trkpt lat="43.59781" lon="3.40665">
        <ele>221.8</ele>
        <time>2017-03-26T06:55:08Z</time>
      </trkpt>
      <trkpt lat="43.59785" lon="3.40677">
        <ele>218.9</ele>
        <time>2017-03-26T06:55:10Z</time>
      </trkpt>
      <trkpt lat="43.59789" lon="3.40687">
        <ele>217.1</ele>
        <time>2017-03-26T06:55:13Z</time>
      </trkpt>
      <trkpt lat="43.59788" lon="3.40697">
        <ele>216.6</ele>
        <time>2017-03-26T06:55:17Z</time>
      </trkpt>
      <trkpt lat="43.59785" lon="3.40708">
        <ele>216.2</ele>
        <time>2017-03-26T06:55:18Z</time>
      </trkpt>
      <trkpt lat="43.59781" lon="3.40723">
        <ele>213.3</ele>
        <time>2017-03-26T06:55:22Z</time>
      </trkpt>
      <trkpt lat="43.59778" lon="3.40734">
        <ele>209.5</ele>
        <time>2017-03-26T06:55:23Z</time>
      </trkpt>
      <trkpt lat="43.59773" lon="3.40745">
        <ele>208.1</ele>
        <time>2017-03-26T06:55:25Z</time>
      </trkpt>
      <trkpt lat="43.59773" lon="3.40756">
        <ele>207.9</ele>
        <time>2017-03-26T06:55:27Z</time>
      </trkpt>
      <trkpt lat="43.59778" lon="3.40762">
        <ele>207.7</ele>
        <time>2017-03-26T06:55:30Z</time>
      </trkpt>
      <trkpt lat="43.59788" lon="3.40766">
        <ele>207.2</ele>
        <time>2017-03-26T06:55:33Z</time>
      </trkpt>
      <trkpt lat="43.59796" lon="3.40771">
        <ele>203.7</ele>
        <time>2017-03-26T06:55:35Z</time>
      </trkpt>
      <trkpt lat="43.59804" lon="3.40773">
        <ele>203.3</ele>
        <time>2017-03-26T06:55:37Z</time>
      </trkpt>
      <trkpt lat="43.59812" lon="3.40768">
        <ele>203</ele>
        <time>2017-03-26T06:55:39Z</time>
      </trkpt>
      <trkpt lat="43.59818" lon="3.40763">
        <ele>201.3</ele>
        <time>2017-03-26T06:55:41Z</time>
      </trkpt>
      <trkpt lat="43.59826" lon="3.40763">
        <ele>200.7</ele>
        <time>2017-03-26T06:55:44Z</time>
      </trkpt>
      <trkpt lat="43.59833" lon="3.4076">
        <ele>200</ele>
        <time>2017-03-26T06:55:49Z</time>
      </trkpt>
      <trkpt lat="43.59841" lon="3.40761">
        <ele>199</ele>
        <time>2017-03-26T06:55:54Z</time>
      </trkpt>
      <trkpt lat="43.59848" lon="3.40765">
        <ele>198.2</ele>
        <time>2017-03-26T06:55:57Z</time>
      </trkpt>
      <trkpt lat="43.59852" lon="3.40769">
        <ele>196.2</ele>
        <time>2017-03-26T06:56:27Z</time>
      </trkpt>
      <trkpt lat="43.59845" lon="3.40765">
        <ele>195</ele>
        <time>2017-03-26T06:56:38Z</time>
      </trkpt>
      <trkpt lat="43.59848" lon="3.40762">
        <ele>194.5</ele>
        <time>2017-03-26T06:56:45Z</time>
      </trkpt>
      <trkpt lat="43.59848" lon="3.40749">
        <ele>193.2</ele>
        <time>2017-03-26T06:56:58Z</time>
      </trkpt>
      <trkpt lat="43.59853" lon="3.40741">
        <ele>190.7</ele>
        <time>2017-03-26T06:57:00Z</time>
      </trkpt>
      <trkpt lat="43.5986" lon="3.40734">
        <ele>188.5</ele>
        <time>2017-03-26T06:57:02Z</time>
      </trkpt>
      <trkpt lat="43.59867" lon="3.40726">
        <ele>186.9</ele>
        <time>2017-03-26T06:57:04Z</time>
      </trkpt>
      <trkpt lat="43.59874" lon="3.40718">
        <ele>186</ele>
        <time>2017-03-26T06:57:06Z</time>
      </trkpt>
      <trkpt lat="43.59878" lon="3.4071">
        <ele>185.5</ele>
        <time>2017-03-26T06:57:08Z</time>
      </trkpt>
      <trkpt lat="43.59886" lon="3.40696">
        <ele>184.2</ele>
        <time>2017-03-26T06:57:10Z</time>
      </trkpt>
      <trkpt lat="43.59892" lon="3.40688">
        <ele>183.6</ele>
        <time>2017-03-26T06:57:11Z</time>
      </trkpt>
      <trkpt lat="43.59902" lon="3.40676">
        <ele>180.4</ele>
        <time>2017-03-26T06:57:13Z</time>
      </trkpt>
      <trkpt lat="43.5991" lon="3.40667">
        <ele>179.3</ele>
        <time>2017-03-26T06:57:14Z</time>
      </trkpt>
      <trkpt lat="43.59917" lon="3.4066">
        <ele>178</ele>
        <time>2017-03-26T06:57:15Z</time>
      </trkpt>
      <trkpt lat="43.59924" lon="3.40653">
        <ele>177.3</ele>
        <time>2017-03-26T06:57:16Z</time>
      </trkpt>
      <trkpt lat="43.59931" lon="3.40647">
        <ele>176.8</ele>
        <time>2017-03-26T06:57:17Z</time>
      </trkpt>
      <trkpt lat="43.59937" lon="3.40641">
        <ele>176.1</ele>
        <time>2017-03-26T06:57:18Z</time>
      </trkpt>
      <trkpt lat="43.59943" lon="3.40635">
        <ele>175.3</ele>
        <time>2017-03-26T06:57:19Z</time>
      </trkpt>
      <trkpt lat="43.59951" lon="3.40619">
        <ele>174.6</ele>
        <time>2017-03-26T06:57:21Z</time>
      </trkpt>
      <trkpt lat="43.59955" lon="3.40607">
        <ele>174.1</ele>
        <time>2017-03-26T06:57:24Z</time>
      </trkpt>
      <trkpt lat="43.59958" lon="3.40597">
        <ele>174.2</ele>
        <time>2017-03-26T06:57:26Z</time>
      </trkpt>
      <trkpt lat="43.59964" lon="3.40585">
        <ele>175.1</ele>
        <time>2017-03-26T06:57:29Z</time>
      </trkpt>
      <trkpt lat="43.59969" lon="3.40578">
        <ele>175.3</ele>
        <time>2017-03-26T06:57:31Z</time>
      </trkpt>
      <trkpt lat="43.59977" lon="3.40573">
        <ele>175.4</ele>
        <time>2017-03-26T06:57:33Z</time>
      </trkpt>
      <trkpt lat="43.59986" lon="3.40567">
        <ele>175.7</ele>
        <time>2017-03-26T06:57:36Z</time>
      </trkpt>
      <trkpt lat="43.59995" lon="3.40568">
        <ele>176</ele>
        <time>2017-03-26T06:57:39Z</time>
      </trkpt>
      <trkpt lat="43.60003" lon="3.40572">
        <ele>176.1</ele>
        <time>2017-03-26T06:57:41Z</time>
      </trkpt>
      <trkpt lat="43.60012" lon="3.40575">
        <ele>176.4</ele>
        <time>2017-03-26T06:57:44Z</time>
      </trkpt>
      <trkpt lat="43.60019" lon="3.40575">
        <ele>176.6</ele>
        <time>2017-03-26T06:57:46Z</time>
      </trkpt>
      <trkpt lat="43.60029" lon="3.40572">
        <ele>177</ele>
        <time>2017-03-26T06:57:49Z</time>
      </trkpt>
      <trkpt lat="43.60034" lon="3.40566">
        <ele>177.3</ele>
        <time>2017-03-26T06:57:52Z</time>
      </trkpt>
      <trkpt lat="43.6004" lon="3.40557">
        <ele>177.8</ele>
        <time>2017-03-26T06:57:55Z</time>
      </trkpt>
      <trkpt lat="43.60042" lon="3.40548">
        <ele>178.3</ele>
        <time>2017-03-26T06:57:58Z</time>
      </trkpt>
      <trkpt lat="43.60046" lon="3.40536">
        <ele>179.1</ele>
        <time>2017-03-26T06:58:02Z</time>
      </trkpt>
      <trkpt lat="43.60049" lon="3.40526">
        <ele>179.6</ele>
        <time>2017-03-26T06:58:05Z</time>
      </trkpt>
      <trkpt lat="43.60052" lon="3.40517">
        <ele>180</ele>
        <time>2017-03-26T06:58:08Z</time>
      </trkpt>
      <trkpt lat="43.60055" lon="3.40508">
        <ele>180.4</ele>
        <time>2017-03-26T06:58:11Z</time>
      </trkpt>
      <trkpt lat="43.60058" lon="3.40499">
        <ele>180.8</ele>
        <time>2017-03-26T06:58:14Z</time>
      </trkpt>
      <trkpt lat="43.60062" lon="3.4049">
        <ele>181.1</ele>
        <time>2017-03-26T06:58:17Z</time>
      </trkpt>
      <trkpt lat="43.60067" lon="3.40481">
        <ele>181.4</ele>
        <time>2017-03-26T06:58:20Z</time>
      </trkpt>
      <trkpt lat="43.60071" lon="3.4047">
        <ele>181.8</ele>
        <time>2017-03-26T06:58:24Z</time>
      </trkpt>
      <trkpt lat="43.60074" lon="3.4046">
        <ele>182.1</ele>
        <time>2017-03-26T06:58:27Z</time>
      </trkpt>
      <trkpt lat="43.60075" lon="3.4045">
        <ele>182.3</ele>
        <time>2017-03-26T06:58:30Z</time>
      </trkpt>
      <trkpt lat="43.60075" lon="3.40438">
        <ele>182.2</ele>
        <time>2017-03-26T06:58:33Z</time>
      </trkpt>
      <trkpt lat="43.60076" lon="3.40426">
        <ele>182.3</ele>
        <time>2017-03-26T06:58:36Z</time>
      </trkpt>
      <trkpt lat="43.60077" lon="3.40414">
        <ele>182.4</ele>
        <time>2017-03-26T06:58:39Z</time>
      </trkpt>
      <trkpt lat="43.60078" lon="3.40402">
        <ele>182.5</ele>
        <time>2017-03-26T06:58:42Z</time>
      </trkpt>
      <trkpt lat="43.6008" lon="3.40388">
        <ele>182.7</ele>
        <time>2017-03-26T06:58:45Z</time>
      </trkpt>
      <trkpt lat="43.60083" lon="3.40377">
        <ele>182.9</ele>
        <time>2017-03-26T06:58:48Z</time>
      </trkpt>
      <trkpt lat="43.60086" lon="3.40367">
        <ele>182.9</ele>
        <time>2017-03-26T06:58:51Z</time>
      </trkpt>
      <trkpt lat="43.60091" lon="3.40356">
        <ele>182.9</ele>
        <time>2017-03-26T06:58:54Z</time>
      </trkpt>
      <trkpt lat="43.60094" lon="3.40344">
        <ele>183.1</ele>
        <time>2017-03-26T06:58:57Z</time>
      </trkpt>
      <trkpt lat="43.60094" lon="3.40334">
        <ele>183.2</ele>
        <time>2017-03-26T06:59:00Z</time>
      </trkpt>
      <trkpt lat="43.60094" lon="3.40324">
        <ele>183.4</ele>
        <time>2017-03-26T06:59:03Z</time>
      </trkpt>
      <trkpt lat="43.60093" lon="3.40314">
        <ele>183.6</ele>
        <time>2017-03-26T06:59:07Z</time>
      </trkpt>
      <trkpt lat="43.60092" lon="3.40301">
        <ele>184.2</ele>
        <time>2017-03-26T06:59:11Z</time>
      </trkpt>
      <trkpt lat="43.60092" lon="3.4029">
        <ele>184.5</ele>
        <time>2017-03-26T06:59:14Z</time>
      </trkpt>
      <trkpt lat="43.60093" lon="3.40279">
        <ele>184.7</ele>
        <time>2017-03-26T06:59:17Z</time>
      </trkpt>
      <trkpt lat="43.60095" lon="3.40265">
        <ele>185.7</ele>
        <time>2017-03-26T06:59:20Z</time>
      </trkpt>
      <trkpt lat="43.60098" lon="3.40256">
        <ele>186.6</ele>
        <time>2017-03-26T06:59:22Z</time>
      </trkpt>
      <trkpt lat="43.60103" lon="3.40243">
        <ele>186.6</ele>
        <time>2017-03-26T06:59:24Z</time>
      </trkpt>
      <trkpt lat="43.60109" lon="3.40233">
        <ele>186</ele>
        <time>2017-03-26T06:59:26Z</time>
      </trkpt>
      <trkpt lat="43.60115" lon="3.40229">
        <ele>186</ele>
        <time>2017-03-26T06:59:28Z</time>
      </trkpt>
      <trkpt lat="43.60122" lon="3.40226">
        <ele>186</ele>
        <time>2017-03-26T06:59:31Z</time>
      </trkpt>
      <trkpt lat="43.60129" lon="3.40225">
        <ele>185.7</ele>
        <time>2017-03-26T06:59:38Z</time>
      </trkpt>
      <trkpt lat="43.60129" lon="3.40224">
        <ele>184</ele>
        <time>2017-03-26T07:00:29Z</time>
      </trkpt>
      <trkpt lat="43.60134" lon="3.40214">
        <ele>184</ele>
        <time>2017-03-26T07:00:30Z</time>
      </trkpt>
      <trkpt lat="43.6014" lon="3.40206">
        <ele>184.2</ele>
        <time>2017-03-26T07:00:34Z</time>
      </trkpt>
      <trkpt lat="43.60146" lon="3.40198">
        <ele>184.3</ele>
        <time>2017-03-26T07:00:38Z</time>
      </trkpt>
      <trkpt lat="43.60144" lon="3.40187">
        <ele>184.4</ele>
        <time>2017-03-26T07:00:44Z</time>
      </trkpt>
      <trkpt lat="43.60141" lon="3.40178">
        <ele>184.3</ele>
        <time>2017-03-26T07:00:48Z</time>
      </trkpt>
      <trkpt lat="43.60138" lon="3.40168">
        <ele>184.2</ele>
        <time>2017-03-26T07:00:51Z</time>
      </trkpt>
      <trkpt lat="43.60134" lon="3.40159">
        <ele>184.3</ele>
        <time>2017-03-26T07:00:55Z</time>
      </trkpt>
      <trkpt lat="43.60129" lon="3.4015">
        <ele>184.9</ele>
        <time>2017-03-26T07:00:59Z</time>
      </trkpt>
      <trkpt lat="43.60124" lon="3.40141">
        <ele>185.3</ele>
        <time>2017-03-26T07:01:03Z</time>
      </trkpt>
      <trkpt lat="43.60119" lon="3.40134">
        <ele>185.7</ele>
        <time>2017-03-26T07:01:07Z</time>
      </trkpt>
      <trkpt lat="43.60113" lon="3.40126">
        <ele>186</ele>
        <time>2017-03-26T07:01:11Z</time>
      </trkpt>
      <trkpt lat="43.60108" lon="3.40117">
        <ele>186</ele>
        <time>2017-03-26T07:01:15Z</time>
      </trkpt>
      <trkpt lat="43.60104" lon="3.40109">
        <ele>186</ele>
        <time>2017-03-26T07:01:18Z</time>
      </trkpt>
      <trkpt lat="43.601" lon="3.401">
        <ele>186.2</ele>
        <time>2017-03-26T07:01:21Z</time>
      </trkpt>
      <trkpt lat="43.60096" lon="3.4009">
        <ele>186.4</ele>
        <time>2017-03-26T07:01:24Z</time>
      </trkpt>
      <trkpt lat="43.60092" lon="3.40081">
        <ele>186.5</ele>
        <time>2017-03-26T07:01:27Z</time>
      </trkpt>
      <trkpt lat="43.60087" lon="3.40071">
        <ele>186.5</ele>
        <time>2017-03-26T07:01:30Z</time>
      </trkpt>
      <trkpt lat="43.60084" lon="3.40057">
        <ele>186.5</ele>
        <time>2017-03-26T07:01:34Z</time>
      </trkpt>
      <trkpt lat="43.6008" lon="3.40046">
        <ele>186.1</ele>
        <time>2017-03-26T07:01:36Z</time>
      </trkpt>
      <trkpt lat="43.60077" lon="3.40035">
        <ele>185.8</ele>
        <time>2017-03-26T07:01:38Z</time>
      </trkpt>
      <trkpt lat="43.60075" lon="3.40022">
        <ele>185.7</ele>
        <time>2017-03-26T07:01:41Z</time>
      </trkpt>
      <trkpt lat="43.60083" lon="3.40016">
        <ele>185.7</ele>
        <time>2017-03-26T07:01:44Z</time>
      </trkpt>
      <trkpt lat="43.60091" lon="3.40023">
        <ele>186.2</ele>
        <time>2017-03-26T07:01:48Z</time>
      </trkpt>
      <trkpt lat="43.60096" lon="3.40034">
        <ele>186.5</ele>
        <time>2017-03-26T07:01:51Z</time>
      </trkpt>
      <trkpt lat="43.60102" lon="3.40043">
        <ele>186.6</ele>
        <time>2017-03-26T07:01:54Z</time>
      </trkpt>
      <trkpt lat="43.60108" lon="3.40052">
        <ele>186.7</ele>
        <time>2017-03-26T07:01:57Z</time>
      </trkpt>
      <trkpt lat="43.60116" lon="3.4006">
        <ele>186.9</ele>
        <time>2017-03-26T07:02:00Z</time>
      </trkpt>
      <trkpt lat="43.60124" lon="3.40067">
        <ele>187.2</ele>
        <time>2017-03-26T07:02:03Z</time>
      </trkpt>
      <trkpt lat="43.60132" lon="3.40072">
        <ele>187.6</ele>
        <time>2017-03-26T07:02:06Z</time>
      </trkpt>
      <trkpt lat="43.60141" lon="3.40075">
        <ele>187.7</ele>
        <time>2017-03-26T07:02:09Z</time>
      </trkpt>
      <trkpt lat="43.60149" lon="3.40077">
        <ele>187.9</ele>
        <time>2017-03-26T07:02:13Z</time>
      </trkpt>
      <trkpt lat="43.60157" lon="3.40075">
        <ele>188</ele>
        <time>2017-03-26T07:02:17Z</time>
      </trkpt>
      <trkpt lat="43.60165" lon="3.40072">
        <ele>188.2</ele>
        <time>2017-03-26T07:02:21Z</time>
      </trkpt>
      <trkpt lat="43.60172" lon="3.40067">
        <ele>188.3</ele>
        <time>2017-03-26T07:02:24Z</time>
      </trkpt>
      <trkpt lat="43.60166" lon="3.40056">
        <ele>188.7</ele>
        <time>2017-03-26T07:02:30Z</time>
      </trkpt>
      <trkpt lat="43.60159" lon="3.40053">
        <ele>189.2</ele>
        <time>2017-03-26T07:02:34Z</time>
      </trkpt>
      <trkpt lat="43.60153" lon="3.40044">
        <ele>189.8</ele>
        <time>2017-03-26T07:02:38Z</time>
      </trkpt>
      <trkpt lat="43.60147" lon="3.40035">
        <ele>190.1</ele>
        <time>2017-03-26T07:02:42Z</time>
      </trkpt>
      <trkpt lat="43.60142" lon="3.40027">
        <ele>190.5</ele>
        <time>2017-03-26T07:02:47Z</time>
      </trkpt>
      <trkpt lat="43.60136" lon="3.40018">
        <ele>190.8</ele>
        <time>2017-03-26T07:02:52Z</time>
      </trkpt>
      <trkpt lat="43.60132" lon="3.40008">
        <ele>191.1</ele>
        <time>2017-03-26T07:02:57Z</time>
      </trkpt>
      <trkpt lat="43.60128" lon="3.39998">
        <ele>191.5</ele>
        <time>2017-03-26T07:03:01Z</time>
      </trkpt>
      <trkpt lat="43.60126" lon="3.39985">
        <ele>192.2</ele>
        <time>2017-03-26T07:03:06Z</time>
      </trkpt>
      <trkpt lat="43.60124" lon="3.39974">
        <ele>192.9</ele>
        <time>2017-03-26T07:03:11Z</time>
      </trkpt>
      <trkpt lat="43.60123" lon="3.39964">
        <ele>193.5</ele>
        <time>2017-03-26T07:03:15Z</time>
      </trkpt>
      <trkpt lat="43.60122" lon="3.39952">
        <ele>194.1</ele>
        <time>2017-03-26T07:03:20Z</time>
      </trkpt>
      <trkpt lat="43.6012" lon="3.39942">
        <ele>194.9</ele>
        <time>2017-03-26T07:03:25Z</time>
      </trkpt>
      <trkpt lat="43.60117" lon="3.3993">
        <ele>195.7</ele>
        <time>2017-03-26T07:03:30Z</time>
      </trkpt>
      <trkpt lat="43.60113" lon="3.39919">
        <ele>196.5</ele>
        <time>2017-03-26T07:03:35Z</time>
      </trkpt>
      <trkpt lat="43.60108" lon="3.39912">
        <ele>197.1</ele>
        <time>2017-03-26T07:03:39Z</time>
      </trkpt>
      <trkpt lat="43.60102" lon="3.39904">
        <ele>197.9</ele>
        <time>2017-03-26T07:03:44Z</time>
      </trkpt>
      <trkpt lat="43.60096" lon="3.39897">
        <ele>198.7</ele>
        <time>2017-03-26T07:03:49Z</time>
      </trkpt>
      <trkpt lat="43.6009" lon="3.3989">
        <ele>199.4</ele>
        <time>2017-03-26T07:03:53Z</time>
      </trkpt>
      <trkpt lat="43.60085" lon="3.39882">
        <ele>200</ele>
        <time>2017-03-26T07:03:57Z</time>
      </trkpt>
      <trkpt lat="43.60082" lon="3.39871">
        <ele>200.5</ele>
        <time>2017-03-26T07:04:01Z</time>
      </trkpt>
      <trkpt lat="43.60081" lon="3.39858">
        <ele>201</ele>
        <time>2017-03-26T07:04:06Z</time>
      </trkpt>
      <trkpt lat="43.60081" lon="3.39846">
        <ele>201.5</ele>
        <time>2017-03-26T07:04:10Z</time>
      </trkpt>
      <trkpt lat="43.60081" lon="3.39835">
        <ele>202.3</ele>
        <time>2017-03-26T07:04:14Z</time>
      </trkpt>
      <trkpt lat="43.60083" lon="3.39825">
        <ele>203.4</ele>
        <time>2017-03-26T07:04:19Z</time>
      </trkpt>
      <trkpt lat="43.60085" lon="3.39815">
        <ele>204.1</ele>
        <time>2017-03-26T07:04:23Z</time>
      </trkpt>
      <trkpt lat="43.60087" lon="3.39805">
        <ele>204.9</ele>
        <time>2017-03-26T07:04:27Z</time>
      </trkpt>
      <trkpt lat="43.60087" lon="3.39795">
        <ele>205.7</ele>
        <time>2017-03-26T07:04:31Z</time>
      </trkpt>
      <trkpt lat="43.60086" lon="3.39784">
        <ele>206.5</ele>
        <time>2017-03-26T07:04:35Z</time>
      </trkpt>
      <trkpt lat="43.60081" lon="3.39777">
        <ele>207.4</ele>
        <time>2017-03-26T07:04:39Z</time>
      </trkpt>
      <trkpt lat="43.60072" lon="3.39776">
        <ele>208.6</ele>
        <time>2017-03-26T07:04:44Z</time>
      </trkpt>
      <trkpt lat="43.60063" lon="3.39781">
        <ele>209.6</ele>
        <time>2017-03-26T07:04:48Z</time>
      </trkpt>
      <trkpt lat="43.60056" lon="3.39787">
        <ele>210.5</ele>
        <time>2017-03-26T07:04:52Z</time>
      </trkpt>
      <trkpt lat="43.60051" lon="3.39793">
        <ele>211.3</ele>
        <time>2017-03-26T07:04:56Z</time>
      </trkpt>
      <trkpt lat="43.60044" lon="3.39799">
        <ele>212.1</ele>
        <time>2017-03-26T07:05:00Z</time>
      </trkpt>
      <trkpt lat="43.60037" lon="3.39801">
        <ele>213.1</ele>
        <time>2017-03-26T07:05:06Z</time>
      </trkpt>
      <trkpt lat="43.60041" lon="3.3979">
        <ele>213.9</ele>
        <time>2017-03-26T07:05:11Z</time>
      </trkpt>
      <trkpt lat="43.60048" lon="3.39783">
        <ele>214.6</ele>
        <time>2017-03-26T07:05:15Z</time>
      </trkpt>
      <trkpt lat="43.60053" lon="3.39775">
        <ele>215.3</ele>
        <time>2017-03-26T07:05:19Z</time>
      </trkpt>
      <trkpt lat="43.6006" lon="3.39767">
        <ele>216.6</ele>
        <time>2017-03-26T07:05:24Z</time>
      </trkpt>
      <trkpt lat="43.60065" lon="3.3976">
        <ele>217.6</ele>
        <time>2017-03-26T07:05:28Z</time>
      </trkpt>
      <trkpt lat="43.60071" lon="3.39753">
        <ele>218.6</ele>
        <time>2017-03-26T07:05:32Z</time>
      </trkpt>
      <trkpt lat="43.60078" lon="3.39746">
        <ele>219.4</ele>
        <time>2017-03-26T07:05:36Z</time>
      </trkpt>
      <trkpt lat="43.60084" lon="3.3974">
        <ele>220.4</ele>
        <time>2017-03-26T07:05:40Z</time>
      </trkpt>
      <trkpt lat="43.6009" lon="3.39734">
        <ele>221.1</ele>
        <time>2017-03-26T07:05:44Z</time>
      </trkpt>
      <trkpt lat="43.60096" lon="3.39727">
        <ele>221.9</ele>
        <time>2017-03-26T07:05:48Z</time>
      </trkpt>
      <trkpt lat="43.60102" lon="3.39718">
        <ele>222.5</ele>
        <time>2017-03-26T07:05:53Z</time>
      </trkpt>
      <trkpt lat="43.60109" lon="3.39712">
        <ele>223.2</ele>
        <time>2017-03-26T07:05:57Z</time>
      </trkpt>
      <trkpt lat="43.60115" lon="3.39707">
        <ele>223.8</ele>
        <time>2017-03-26T07:06:01Z</time>
      </trkpt>
      <trkpt lat="43.60123" lon="3.39703">
        <ele>224.5</ele>
        <time>2017-03-26T07:06:05Z</time>
      </trkpt>
      <trkpt lat="43.60132" lon="3.397">
        <ele>225.3</ele>
        <time>2017-03-26T07:06:11Z</time>
      </trkpt>
      <trkpt lat="43.60141" lon="3.39699">
        <ele>225.7</ele>
        <time>2017-03-26T07:06:15Z</time>
      </trkpt>
      <trkpt lat="43.6015" lon="3.39699">
        <ele>226.1</ele>
        <time>2017-03-26T07:06:19Z</time>
      </trkpt>
      <trkpt lat="43.60157" lon="3.39702">
        <ele>226.4</ele>
        <time>2017-03-26T07:06:22Z</time>
      </trkpt>
      <trkpt lat="43.60167" lon="3.39704">
        <ele>226.7</ele>
        <time>2017-03-26T07:06:25Z</time>
      </trkpt>
      <trkpt lat="43.60174" lon="3.39701">
        <ele>226.9</ele>
        <time>2017-03-26T07:06:27Z</time>
      </trkpt>
      <trkpt lat="43.6018" lon="3.39694">
        <ele>227.8</ele>
        <time>2017-03-26T07:06:29Z</time>
      </trkpt>
      <trkpt lat="43.60182" lon="3.39681">
        <ele>229.3</ele>
        <time>2017-03-26T07:06:32Z</time>
      </trkpt>
      <trkpt lat="43.60186" lon="3.39668">
        <ele>230</ele>
        <time>2017-03-26T07:06:34Z</time>
      </trkpt>
      <trkpt lat="43.60193" lon="3.3966">
        <ele>229.7</ele>
        <time>2017-03-26T07:06:36Z</time>
      </trkpt>
      <trkpt lat="43.60202" lon="3.39658">
        <ele>228.9</ele>
        <time>2017-03-26T07:06:38Z</time>
      </trkpt>
      <trkpt lat="43.60212" lon="3.39652">
        <ele>227.8</ele>
        <time>2017-03-26T07:06:40Z</time>
      </trkpt>
      <trkpt lat="43.60224" lon="3.39644">
        <ele>227.5</ele>
        <time>2017-03-26T07:06:42Z</time>
      </trkpt>
      <trkpt lat="43.60235" lon="3.39635">
        <ele>228.5</ele>
        <time>2017-03-26T07:06:44Z</time>
      </trkpt>
      <trkpt lat="43.60243" lon="3.3963">
        <ele>228.7</ele>
        <time>2017-03-26T07:06:46Z</time>
      </trkpt>
      <trkpt lat="43.60243" lon="3.39619">
        <ele>228.6</ele>
        <time>2017-03-26T07:06:50Z</time>
      </trkpt>
      <trkpt lat="43.60235" lon="3.39621">
        <ele>228.5</ele>
        <time>2017-03-26T07:06:52Z</time>
      </trkpt>
      <trkpt lat="43.60228" lon="3.39623">
        <ele>227.3</ele>
        <time>2017-03-26T07:06:54Z</time>
      </trkpt>
      <trkpt lat="43.60219" lon="3.39626">
        <ele>225.3</ele>
        <time>2017-03-26T07:06:56Z</time>
      </trkpt>
      <trkpt lat="43.6021" lon="3.3963">
        <ele>224</ele>
        <time>2017-03-26T07:06:58Z</time>
      </trkpt>
      <trkpt lat="43.602" lon="3.39633">
        <ele>222.8</ele>
        <time>2017-03-26T07:07:00Z</time>
      </trkpt>
      <trkpt lat="43.6019" lon="3.39637">
        <ele>222.5</ele>
        <time>2017-03-26T07:07:02Z</time>
      </trkpt>
      <trkpt lat="43.60182" lon="3.39642">
        <ele>222.5</ele>
        <time>2017-03-26T07:07:04Z</time>
      </trkpt>
      <trkpt lat="43.60175" lon="3.39649">
        <ele>222.9</ele>
        <time>2017-03-26T07:07:06Z</time>
      </trkpt>
      <trkpt lat="43.60168" lon="3.39656">
        <ele>223.1</ele>
        <time>2017-03-26T07:07:08Z</time>
      </trkpt>
      <trkpt lat="43.6016" lon="3.39657">
        <ele>222.9</ele>
        <time>2017-03-26T07:07:10Z</time>
      </trkpt>
      <trkpt lat="43.60154" lon="3.39652">
        <ele>223.4</ele>
        <time>2017-03-26T07:07:12Z</time>
      </trkpt>
      <trkpt lat="43.60148" lon="3.39645">
        <ele>224.8</ele>
        <time>2017-03-26T07:07:14Z</time>
      </trkpt>
      <trkpt lat="43.60142" lon="3.39635">
        <ele>225</ele>
        <time>2017-03-26T07:07:16Z</time>
      </trkpt>
      <trkpt lat="43.60139" lon="3.39626">
        <ele>224.9</ele>
        <time>2017-03-26T07:07:18Z</time>
      </trkpt>
      <trkpt lat="43.60142" lon="3.39616">
        <ele>224.7</ele>
        <time>2017-03-26T07:07:21Z</time>
      </trkpt>
      <trkpt lat="43.60148" lon="3.39606">
        <ele>224.3</ele>
        <time>2017-03-26T07:07:24Z</time>
      </trkpt>
      <trkpt lat="43.60153" lon="3.39593">
        <ele>224</ele>
        <time>2017-03-26T07:07:27Z</time>
      </trkpt>
      <trkpt lat="43.60158" lon="3.39583">
        <ele>222</ele>
        <time>2017-03-26T07:07:29Z</time>
      </trkpt>
      <trkpt lat="43.60162" lon="3.39574">
        <ele>221.4</ele>
        <time>2017-03-26T07:07:31Z</time>
      </trkpt>
      <trkpt lat="43.60167" lon="3.39561">
        <ele>221.1</ele>
        <time>2017-03-26T07:07:34Z</time>
      </trkpt>
      <trkpt lat="43.60171" lon="3.39551">
        <ele>221.2</ele>
        <time>2017-03-26T07:07:37Z</time>
      </trkpt>
      <trkpt lat="43.60176" lon="3.39541">
        <ele>221.3</ele>
        <time>2017-03-26T07:07:40Z</time>
      </trkpt>
      <trkpt lat="43.60181" lon="3.3953">
        <ele>221.4</ele>
        <time>2017-03-26T07:07:43Z</time>
      </trkpt>
      <trkpt lat="43.60185" lon="3.39521">
        <ele>221.4</ele>
        <time>2017-03-26T07:07:45Z</time>
      </trkpt>
      <trkpt lat="43.60189" lon="3.39511">
        <ele>221.5</ele>
        <time>2017-03-26T07:07:47Z</time>
      </trkpt>
      <trkpt lat="43.60192" lon="3.39498">
        <ele>221.5</ele>
        <time>2017-03-26T07:07:50Z</time>
      </trkpt>
      <trkpt lat="43.60195" lon="3.39488">
        <ele>221.4</ele>
        <time>2017-03-26T07:07:52Z</time>
      </trkpt>
      <trkpt lat="43.60198" lon="3.39476">
        <ele>221.3</ele>
        <time>2017-03-26T07:07:55Z</time>
      </trkpt>
      <trkpt lat="43.60199" lon="3.39466">
        <ele>221.3</ele>
        <time>2017-03-26T07:07:57Z</time>
      </trkpt>
      <trkpt lat="43.60202" lon="3.39453">
        <ele>221.4</ele>
        <time>2017-03-26T07:08:00Z</time>
      </trkpt>
      <trkpt lat="43.60204" lon="3.3944">
        <ele>221.5</ele>
        <time>2017-03-26T07:08:03Z</time>
      </trkpt>
      <trkpt lat="43.60206" lon="3.39426">
        <ele>221.5</ele>
        <time>2017-03-26T07:08:06Z</time>
      </trkpt>
      <trkpt lat="43.60206" lon="3.39413">
        <ele>221.4</ele>
        <time>2017-03-26T07:08:09Z</time>
      </trkpt>
      <trkpt lat="43.60205" lon="3.39401">
        <ele>221.6</ele>
        <time>2017-03-26T07:08:12Z</time>
      </trkpt>
      <trkpt lat="43.60204" lon="3.39389">
        <ele>221.9</ele>
        <time>2017-03-26T07:08:15Z</time>
      </trkpt>
      <trkpt lat="43.60202" lon="3.39375">
        <ele>222.1</ele>
        <time>2017-03-26T07:08:18Z</time>
      </trkpt>
      <trkpt lat="43.60198" lon="3.39363">
        <ele>222</ele>
        <time>2017-03-26T07:08:21Z</time>
      </trkpt>
      <trkpt lat="43.60195" lon="3.3935">
        <ele>221.9</ele>
        <time>2017-03-26T07:08:24Z</time>
      </trkpt>
      <trkpt lat="43.60192" lon="3.39341">
        <ele>221.9</ele>
        <time>2017-03-26T07:08:26Z</time>
      </trkpt>
      <trkpt lat="43.60189" lon="3.39328">
        <ele>222</ele>
        <time>2017-03-26T07:08:29Z</time>
      </trkpt>
      <trkpt lat="43.60186" lon="3.39315">
        <ele>222</ele>
        <time>2017-03-26T07:08:32Z</time>
      </trkpt>
      <trkpt lat="43.60184" lon="3.39302">
        <ele>222</ele>
        <time>2017-03-26T07:08:35Z</time>
      </trkpt>
      <trkpt lat="43.6018" lon="3.39291">
        <ele>222</ele>
        <time>2017-03-26T07:08:38Z</time>
      </trkpt>
      <trkpt lat="43.60178" lon="3.3928">
        <ele>222.1</ele>
        <time>2017-03-26T07:08:41Z</time>
      </trkpt>
      <trkpt lat="43.60175" lon="3.39269">
        <ele>222.3</ele>
        <time>2017-03-26T07:08:44Z</time>
      </trkpt>
      <trkpt lat="43.6017" lon="3.39259">
        <ele>222.5</ele>
        <time>2017-03-26T07:08:47Z</time>
      </trkpt>
      <trkpt lat="43.60168" lon="3.39248">
        <ele>222.9</ele>
        <time>2017-03-26T07:08:50Z</time>
      </trkpt>
      <trkpt lat="43.60165" lon="3.39239">
        <ele>223.4</ele>
        <time>2017-03-26T07:08:53Z</time>
      </trkpt>
      <trkpt lat="43.60162" lon="3.39227">
        <ele>224.3</ele>
        <time>2017-03-26T07:08:57Z</time>
      </trkpt>
      <trkpt lat="43.60162" lon="3.39217">
        <ele>224.8</ele>
        <time>2017-03-26T07:09:00Z</time>
      </trkpt>
      <trkpt lat="43.6016" lon="3.39205">
        <ele>225.2</ele>
        <time>2017-03-26T07:09:03Z</time>
      </trkpt>
      <trkpt lat="43.60159" lon="3.39196">
        <ele>225.6</ele>
        <time>2017-03-26T07:09:06Z</time>
      </trkpt>
      <trkpt lat="43.60158" lon="3.39185">
        <ele>226</ele>
        <time>2017-03-26T07:09:09Z</time>
      </trkpt>
      <trkpt lat="43.60156" lon="3.39174">
        <ele>226.3</ele>
        <time>2017-03-26T07:09:12Z</time>
      </trkpt>
      <trkpt lat="43.60154" lon="3.39161">
        <ele>226.3</ele>
        <time>2017-03-26T07:09:15Z</time>
      </trkpt>
      <trkpt lat="43.60152" lon="3.39148">
        <ele>226.6</ele>
        <time>2017-03-26T07:09:19Z</time>
      </trkpt>
      <trkpt lat="43.60151" lon="3.39137">
        <ele>226.8</ele>
        <time>2017-03-26T07:09:22Z</time>
      </trkpt>
      <trkpt lat="43.60148" lon="3.39126">
        <ele>227</ele>
        <time>2017-03-26T07:09:25Z</time>
      </trkpt>
      <trkpt lat="43.60147" lon="3.39115">
        <ele>226.9</ele>
        <time>2017-03-26T07:09:28Z</time>
      </trkpt>
      <trkpt lat="43.60145" lon="3.39104">
        <ele>227</ele>
        <time>2017-03-26T07:09:31Z</time>
      </trkpt>
      <trkpt lat="43.60144" lon="3.39092">
        <ele>227.4</ele>
        <time>2017-03-26T07:09:35Z</time>
      </trkpt>
      <trkpt lat="43.60144" lon="3.39078">
        <ele>227.6</ele>
        <time>2017-03-26T07:09:38Z</time>
      </trkpt>
      <trkpt lat="43.60145" lon="3.39067">
        <ele>227.9</ele>
        <time>2017-03-26T07:09:41Z</time>
      </trkpt>
      <trkpt lat="43.60148" lon="3.39057">
        <ele>228.1</ele>
        <time>2017-03-26T07:09:44Z</time>
      </trkpt>
      <trkpt lat="43.60155" lon="3.39049">
        <ele>228.1</ele>
        <time>2017-03-26T07:09:48Z</time>
      </trkpt>
      <trkpt lat="43.60162" lon="3.39043">
        <ele>228.1</ele>
        <time>2017-03-26T07:09:50Z</time>
      </trkpt>
      <trkpt lat="43.60169" lon="3.3904">
        <ele>228.2</ele>
        <time>2017-03-26T07:09:52Z</time>
      </trkpt>
      <trkpt lat="43.60178" lon="3.39035">
        <ele>228.6</ele>
        <time>2017-03-26T07:09:54Z</time>
      </trkpt>
      <trkpt lat="43.60187" lon="3.39031">
        <ele>228.6</ele>
        <time>2017-03-26T07:09:56Z</time>
      </trkpt>
      <trkpt lat="43.60198" lon="3.39026">
        <ele>228.7</ele>
        <time>2017-03-26T07:09:58Z</time>
      </trkpt>
      <trkpt lat="43.6021" lon="3.39022">
        <ele>228.6</ele>
        <time>2017-03-26T07:10:00Z</time>
      </trkpt>
      <trkpt lat="43.60222" lon="3.39019">
        <ele>228</ele>
        <time>2017-03-26T07:10:02Z</time>
      </trkpt>
      <trkpt lat="43.60233" lon="3.39015">
        <ele>227.1</ele>
        <time>2017-03-26T07:10:04Z</time>
      </trkpt>
      <trkpt lat="43.6024" lon="3.39011">
        <ele>227</ele>
        <time>2017-03-26T07:10:06Z</time>
      </trkpt>
      <trkpt lat="43.60247" lon="3.39007">
        <ele>227</ele>
        <time>2017-03-26T07:10:09Z</time>
      </trkpt>
      <trkpt lat="43.60255" lon="3.39008">
        <ele>227.1</ele>
        <time>2017-03-26T07:10:13Z</time>
      </trkpt>
      <trkpt lat="43.60262" lon="3.39009">
        <ele>227.3</ele>
        <time>2017-03-26T07:10:16Z</time>
      </trkpt>
      <trkpt lat="43.60272" lon="3.39008">
        <ele>227.4</ele>
        <time>2017-03-26T07:10:19Z</time>
      </trkpt>
      <trkpt lat="43.60281" lon="3.39007">
        <ele>227.6</ele>
        <time>2017-03-26T07:10:23Z</time>
      </trkpt>
      <trkpt lat="43.60287" lon="3.39016">
        <ele>227.7</ele>
        <time>2017-03-26T07:10:27Z</time>
      </trkpt>
      <trkpt lat="43.6029" lon="3.39031">
        <ele>227.8</ele>
        <time>2017-03-26T07:10:30Z</time>
      </trkpt>
      <trkpt lat="43.60293" lon="3.39045">
        <ele>227.9</ele>
        <time>2017-03-26T07:10:33Z</time>
      </trkpt>
      <trkpt lat="43.60295" lon="3.39054">
        <ele>228</ele>
        <time>2017-03-26T07:10:35Z</time>
      </trkpt>
      <trkpt lat="43.60297" lon="3.39064">
        <ele>229.1</ele>
        <time>2017-03-26T07:10:37Z</time>
      </trkpt>
      <trkpt lat="43.603" lon="3.39075">
        <ele>229.8</ele>
        <time>2017-03-26T07:10:39Z</time>
      </trkpt>
      <trkpt lat="43.60302" lon="3.39087">
        <ele>229.9</ele>
        <time>2017-03-26T07:10:41Z</time>
      </trkpt>
      <trkpt lat="43.60305" lon="3.391">
        <ele>229.5</ele>
        <time>2017-03-26T07:10:43Z</time>
      </trkpt>
      <trkpt lat="43.60307" lon="3.39115">
        <ele>229.3</ele>
        <time>2017-03-26T07:10:45Z</time>
      </trkpt>
      <trkpt lat="43.6031" lon="3.39128">
        <ele>227.9</ele>
        <time>2017-03-26T07:10:47Z</time>
      </trkpt>
      <trkpt lat="43.60312" lon="3.3914">
        <ele>226.3</ele>
        <time>2017-03-26T07:10:49Z</time>
      </trkpt>
      <trkpt lat="43.60314" lon="3.39152">
        <ele>224.3</ele>
        <time>2017-03-26T07:10:51Z</time>
      </trkpt>
      <trkpt lat="43.60317" lon="3.39163">
        <ele>222.3</ele>
        <time>2017-03-26T07:10:53Z</time>
      </trkpt>
      <trkpt lat="43.60319" lon="3.39173">
        <ele>222.1</ele>
        <time>2017-03-26T07:10:55Z</time>
      </trkpt>
      <trkpt lat="43.60321" lon="3.39184">
        <ele>222.7</ele>
        <time>2017-03-26T07:10:57Z</time>
      </trkpt>
      <trkpt lat="43.60323" lon="3.39194">
        <ele>223.1</ele>
        <time>2017-03-26T07:10:59Z</time>
      </trkpt>
      <trkpt lat="43.60325" lon="3.39206">
        <ele>223.3</ele>
        <time>2017-03-26T07:11:01Z</time>
      </trkpt>
      <trkpt lat="43.60327" lon="3.39218">
        <ele>223.5</ele>
        <time>2017-03-26T07:11:03Z</time>
      </trkpt>
      <trkpt lat="43.60328" lon="3.39229">
        <ele>223.5</ele>
        <time>2017-03-26T07:11:05Z</time>
      </trkpt>
      <trkpt lat="43.6033" lon="3.3924">
        <ele>224.1</ele>
        <time>2017-03-26T07:11:07Z</time>
      </trkpt>
      <trkpt lat="43.60332" lon="3.3925">
        <ele>224.4</ele>
        <time>2017-03-26T07:11:09Z</time>
      </trkpt>
      <trkpt lat="43.60334" lon="3.3926">
        <ele>224.7</ele>
        <time>2017-03-26T07:11:11Z</time>
      </trkpt>
      <trkpt lat="43.60337" lon="3.3927">
        <ele>224.7</ele>
        <time>2017-03-26T07:11:13Z</time>
      </trkpt>
      <trkpt lat="43.60339" lon="3.3928">
        <ele>224.7</ele>
        <time>2017-03-26T07:11:15Z</time>
      </trkpt>
      <trkpt lat="43.60342" lon="3.39289">
        <ele>224.7</ele>
        <time>2017-03-26T07:11:17Z</time>
      </trkpt>
      <trkpt lat="43.60347" lon="3.39301">
        <ele>224.8</ele>
        <time>2017-03-26T07:11:20Z</time>
      </trkpt>
      <trkpt lat="43.60353" lon="3.39308">
        <ele>224.9</ele>
        <time>2017-03-26T07:11:22Z</time>
      </trkpt>
      <trkpt lat="43.60359" lon="3.39313">
        <ele>225</ele>
        <time>2017-03-26T07:11:24Z</time>
      </trkpt>
      <trkpt lat="43.60366" lon="3.39317">
        <ele>225.2</ele>
        <time>2017-03-26T07:11:27Z</time>
      </trkpt>
      <trkpt lat="43.60373" lon="3.39321">
        <ele>225.3</ele>
        <time>2017-03-26T07:11:28Z</time>
      </trkpt>
      <trkpt lat="43.6038" lon="3.39324">
        <ele>225.3</ele>
        <time>2017-03-26T07:11:30Z</time>
      </trkpt>
      <trkpt lat="43.6039" lon="3.39325">
        <ele>225.3</ele>
        <time>2017-03-26T07:11:33Z</time>
      </trkpt>
      <trkpt lat="43.604" lon="3.39323">
        <ele>225.3</ele>
        <time>2017-03-26T07:11:36Z</time>
      </trkpt>
      <trkpt lat="43.60407" lon="3.39321">
        <ele>224.6</ele>
        <time>2017-03-26T07:11:38Z</time>
      </trkpt>
      <trkpt lat="43.60416" lon="3.39318">
        <ele>223.8</ele>
        <time>2017-03-26T07:11:40Z</time>
      </trkpt>
      <trkpt lat="43.60425" lon="3.39316">
        <ele>223.4</ele>
        <time>2017-03-26T07:11:42Z</time>
      </trkpt>
      <trkpt lat="43.60433" lon="3.39312">
        <ele>222.9</ele>
        <time>2017-03-26T07:11:45Z</time>
      </trkpt>
      <trkpt lat="43.60442" lon="3.39307">
        <ele>222.6</ele>
        <time>2017-03-26T07:11:46Z</time>
      </trkpt>
      <trkpt lat="43.6045" lon="3.39302">
        <ele>222.4</ele>
        <time>2017-03-26T07:11:48Z</time>
      </trkpt>
      <trkpt lat="43.60458" lon="3.39295">
        <ele>222.1</ele>
        <time>2017-03-26T07:11:50Z</time>
      </trkpt>
      <trkpt lat="43.60466" lon="3.39287">
        <ele>221.7</ele>
        <time>2017-03-26T07:11:52Z</time>
      </trkpt>
      <trkpt lat="43.60473" lon="3.39277">
        <ele>221.6</ele>
        <time>2017-03-26T07:11:54Z</time>
      </trkpt>
      <trkpt lat="43.60481" lon="3.39268">
        <ele>221.6</ele>
        <time>2017-03-26T07:11:56Z</time>
      </trkpt>
      <trkpt lat="43.60491" lon="3.39264">
        <ele>221.2</ele>
        <time>2017-03-26T07:11:58Z</time>
      </trkpt>
      <trkpt lat="43.60502" lon="3.39266">
        <ele>220.7</ele>
        <time>2017-03-26T07:12:00Z</time>
      </trkpt>
      <trkpt lat="43.60511" lon="3.39274">
        <ele>221</ele>
        <time>2017-03-26T07:12:02Z</time>
      </trkpt>
      <trkpt lat="43.60515" lon="3.39288">
        <ele>221.2</ele>
        <time>2017-03-26T07:12:04Z</time>
      </trkpt>
      <trkpt lat="43.60516" lon="3.39304">
        <ele>221.2</ele>
        <time>2017-03-26T07:12:06Z</time>
      </trkpt>
      <trkpt lat="43.60513" lon="3.3932">
        <ele>221</ele>
        <time>2017-03-26T07:12:08Z</time>
      </trkpt>
      <trkpt lat="43.60509" lon="3.3934">
        <ele>220.7</ele>
        <time>2017-03-26T07:12:10Z</time>
      </trkpt>
      <trkpt lat="43.60507" lon="3.3935">
        <ele>220.7</ele>
        <time>2017-03-26T07:12:11Z</time>
      </trkpt>
      <trkpt lat="43.60504" lon="3.39368">
        <ele>220</ele>
        <time>2017-03-26T07:12:13Z</time>
      </trkpt>
      <trkpt lat="43.60502" lon="3.39386">
        <ele>219.3</ele>
        <time>2017-03-26T07:12:15Z</time>
      </trkpt>
      <trkpt lat="43.60504" lon="3.39402">
        <ele>218.4</ele>
        <time>2017-03-26T07:12:17Z</time>
      </trkpt>
      <trkpt lat="43.60509" lon="3.3942">
        <ele>217.6</ele>
        <time>2017-03-26T07:12:19Z</time>
      </trkpt>
      <trkpt lat="43.60516" lon="3.39436">
        <ele>217</ele>
        <time>2017-03-26T07:12:21Z</time>
      </trkpt>
      <trkpt lat="43.60522" lon="3.39451">
        <ele>216.3</ele>
        <time>2017-03-26T07:12:23Z</time>
      </trkpt>
      <trkpt lat="43.60529" lon="3.39468">
        <ele>215.8</ele>
        <time>2017-03-26T07:12:25Z</time>
      </trkpt>
      <trkpt lat="43.60537" lon="3.39482">
        <ele>215</ele>
        <time>2017-03-26T07:12:27Z</time>
      </trkpt>
      <trkpt lat="43.60548" lon="3.39492">
        <ele>214.5</ele>
        <time>2017-03-26T07:12:29Z</time>
      </trkpt>
      <trkpt lat="43.60554" lon="3.39498">
        <ele>214.2</ele>
        <time>2017-03-26T07:12:30Z</time>
      </trkpt>
      <trkpt lat="43.60567" lon="3.39507">
        <ele>213.7</ele>
        <time>2017-03-26T07:12:32Z</time>
      </trkpt>
      <trkpt lat="43.60573" lon="3.39513">
        <ele>213.5</ele>
        <time>2017-03-26T07:12:33Z</time>
      </trkpt>
      <trkpt lat="43.60585" lon="3.39519">
        <ele>213.8</ele>
        <time>2017-03-26T07:12:35Z</time>
      </trkpt>
      <trkpt lat="43.60598" lon="3.39527">
        <ele>213.6</ele>
        <time>2017-03-26T07:12:37Z</time>
      </trkpt>
      <trkpt lat="43.60611" lon="3.39535">
        <ele>212.8</ele>
        <time>2017-03-26T07:12:39Z</time>
      </trkpt>
      <trkpt lat="43.60617" lon="3.39539">
        <ele>212.3</ele>
        <time>2017-03-26T07:12:40Z</time>
      </trkpt>
      <trkpt lat="43.6063" lon="3.39547">
        <ele>211.8</ele>
        <time>2017-03-26T07:12:42Z</time>
      </trkpt>
      <trkpt lat="43.60637" lon="3.39545">
        <ele>211.4</ele>
        <time>2017-03-26T07:12:43Z</time>
      </trkpt>
      <trkpt lat="43.60643" lon="3.39541">
        <ele>210.8</ele>
        <time>2017-03-26T07:12:44Z</time>
      </trkpt>
      <trkpt lat="43.60653" lon="3.39527">
        <ele>209.3</ele>
        <time>2017-03-26T07:12:46Z</time>
      </trkpt>
      <trkpt lat="43.60658" lon="3.39518">
        <ele>208.2</ele>
        <time>2017-03-26T07:12:48Z</time>
      </trkpt>
      <trkpt lat="43.60665" lon="3.39512">
        <ele>208.2</ele>
        <time>2017-03-26T07:12:52Z</time>
      </trkpt>
      <trkpt lat="43.60672" lon="3.39507">
        <ele>208.2</ele>
        <time>2017-03-26T07:12:56Z</time>
      </trkpt>
      <trkpt lat="43.6068" lon="3.39503">
        <ele>208.6</ele>
        <time>2017-03-26T07:13:01Z</time>
      </trkpt>
      <trkpt lat="43.60689" lon="3.39499">
        <ele>209.2</ele>
        <time>2017-03-26T07:13:06Z</time>
      </trkpt>
      <trkpt lat="43.60696" lon="3.39496">
        <ele>209.7</ele>
        <time>2017-03-26T07:13:11Z</time>
      </trkpt>
      <trkpt lat="43.60703" lon="3.39492">
        <ele>209.7</ele>
        <time>2017-03-26T07:13:16Z</time>
      </trkpt>
      <trkpt lat="43.6071" lon="3.39488">
        <ele>210</ele>
        <time>2017-03-26T07:13:20Z</time>
      </trkpt>
      <trkpt lat="43.60718" lon="3.39485">
        <ele>210.5</ele>
        <time>2017-03-26T07:13:24Z</time>
      </trkpt>
      <trkpt lat="43.60727" lon="3.39482">
        <ele>211</ele>
        <time>2017-03-26T07:13:29Z</time>
      </trkpt>
      <trkpt lat="43.60734" lon="3.39479">
        <ele>211.7</ele>
        <time>2017-03-26T07:13:33Z</time>
      </trkpt>
      <trkpt lat="43.60741" lon="3.39472">
        <ele>212.7</ele>
        <time>2017-03-26T07:13:38Z</time>
      </trkpt>
      <trkpt lat="43.60748" lon="3.39466">
        <ele>213.4</ele>
        <time>2017-03-26T07:13:42Z</time>
      </trkpt>
      <trkpt lat="43.60753" lon="3.39457">
        <ele>214.3</ele>
        <time>2017-03-26T07:13:47Z</time>
      </trkpt>
      <trkpt lat="43.60758" lon="3.39449">
        <ele>215.1</ele>
        <time>2017-03-26T07:13:51Z</time>
      </trkpt>
      <trkpt lat="43.60763" lon="3.39442">
        <ele>216.6</ele>
        <time>2017-03-26T07:13:57Z</time>
      </trkpt>
      <trkpt lat="43.60763" lon="3.39431">
        <ele>217.7</ele>
        <time>2017-03-26T07:14:02Z</time>
      </trkpt>
      <trkpt lat="43.60758" lon="3.39422">
        <ele>219.2</ele>
        <time>2017-03-26T07:14:08Z</time>
      </trkpt>
      <trkpt lat="43.60754" lon="3.39412">
        <ele>220.8</ele>
        <time>2017-03-26T07:14:13Z</time>
      </trkpt>
      <trkpt lat="43.60751" lon="3.39402">
        <ele>222.3</ele>
        <time>2017-03-26T07:14:18Z</time>
      </trkpt>
      <trkpt lat="43.60749" lon="3.39391">
        <ele>223.7</ele>
        <time>2017-03-26T07:14:23Z</time>
      </trkpt>
      <trkpt lat="43.60746" lon="3.3938">
        <ele>225.3</ele>
        <time>2017-03-26T07:14:29Z</time>
      </trkpt>
      <trkpt lat="43.60744" lon="3.39369">
        <ele>226.4</ele>
        <time>2017-03-26T07:14:33Z</time>
      </trkpt>
      <trkpt lat="43.60741" lon="3.39359">
        <ele>227.7</ele>
        <time>2017-03-26T07:14:38Z</time>
      </trkpt>
      <trkpt lat="43.60737" lon="3.39349">
        <ele>228.6</ele>
        <time>2017-03-26T07:14:43Z</time>
      </trkpt>
      <trkpt lat="43.60732" lon="3.39339">
        <ele>229.4</ele>
        <time>2017-03-26T07:14:48Z</time>
      </trkpt>
      <trkpt lat="43.60731" lon="3.39329">
        <ele>230</ele>
        <time>2017-03-26T07:14:52Z</time>
      </trkpt>
      <trkpt lat="43.60728" lon="3.39318">
        <ele>230.8</ele>
        <time>2017-03-26T07:14:57Z</time>
      </trkpt>
      <trkpt lat="43.60727" lon="3.39308">
        <ele>231.4</ele>
        <time>2017-03-26T07:15:01Z</time>
      </trkpt>
      <trkpt lat="43.60724" lon="3.39297">
        <ele>232.2</ele>
        <time>2017-03-26T07:15:06Z</time>
      </trkpt>
      <trkpt lat="43.60722" lon="3.39287">
        <ele>233.2</ele>
        <time>2017-03-26T07:15:11Z</time>
      </trkpt>
      <trkpt lat="43.6072" lon="3.39276">
        <ele>234.4</ele>
        <time>2017-03-26T07:15:16Z</time>
      </trkpt>
      <trkpt lat="43.60718" lon="3.39265">
        <ele>235.6</ele>
        <time>2017-03-26T07:15:21Z</time>
      </trkpt>
      <trkpt lat="43.60716" lon="3.39254">
        <ele>236.4</ele>
        <time>2017-03-26T07:15:25Z</time>
      </trkpt>
      <trkpt lat="43.60714" lon="3.39245">
        <ele>237.2</ele>
        <time>2017-03-26T07:15:29Z</time>
      </trkpt>
      <trkpt lat="43.60712" lon="3.39234">
        <ele>238</ele>
        <time>2017-03-26T07:15:33Z</time>
      </trkpt>
      <trkpt lat="43.60709" lon="3.39223">
        <ele>239</ele>
        <time>2017-03-26T07:15:38Z</time>
      </trkpt>
      <trkpt lat="43.60707" lon="3.39211">
        <ele>239.8</ele>
        <time>2017-03-26T07:15:43Z</time>
      </trkpt>
      <trkpt lat="43.60705" lon="3.39201">
        <ele>240.5</ele>
        <time>2017-03-26T07:15:47Z</time>
      </trkpt>
      <trkpt lat="43.60701" lon="3.39191">
        <ele>241.6</ele>
        <time>2017-03-26T07:15:53Z</time>
      </trkpt>
      <trkpt lat="43.60698" lon="3.39182">
        <ele>242.3</ele>
        <time>2017-03-26T07:15:58Z</time>
      </trkpt>
      <trkpt lat="43.60695" lon="3.39172">
        <ele>242.9</ele>
        <time>2017-03-26T07:16:03Z</time>
      </trkpt>
      <trkpt lat="43.60694" lon="3.39161">
        <ele>243.4</ele>
        <time>2017-03-26T07:16:08Z</time>
      </trkpt>
      <trkpt lat="43.60692" lon="3.39152">
        <ele>244</ele>
        <time>2017-03-26T07:16:13Z</time>
      </trkpt>
      <trkpt lat="43.60687" lon="3.39144">
        <ele>244.6</ele>
        <time>2017-03-26T07:16:18Z</time>
      </trkpt>
      <trkpt lat="43.6068" lon="3.39143">
        <ele>245.2</ele>
        <time>2017-03-26T07:16:24Z</time>
      </trkpt>
      <trkpt lat="43.60673" lon="3.39146">
        <ele>245.9</ele>
        <time>2017-03-26T07:16:28Z</time>
      </trkpt>
      <trkpt lat="43.60667" lon="3.39151">
        <ele>246.6</ele>
        <time>2017-03-26T07:16:32Z</time>
      </trkpt>
      <trkpt lat="43.60658" lon="3.39153">
        <ele>247.5</ele>
        <time>2017-03-26T07:16:37Z</time>
      </trkpt>
      <trkpt lat="43.60649" lon="3.39153">
        <ele>248.3</ele>
        <time>2017-03-26T07:16:42Z</time>
      </trkpt>
      <trkpt lat="43.60641" lon="3.39148">
        <ele>249.1</ele>
        <time>2017-03-26T07:16:47Z</time>
      </trkpt>
      <trkpt lat="43.60634" lon="3.39144">
        <ele>249.9</ele>
        <time>2017-03-26T07:16:52Z</time>
      </trkpt>
      <trkpt lat="43.60627" lon="3.39138">
        <ele>251</ele>
        <time>2017-03-26T07:16:58Z</time>
      </trkpt>
      <trkpt lat="43.6062" lon="3.39133">
        <ele>251.5</ele>
        <time>2017-03-26T07:17:02Z</time>
      </trkpt>
      <trkpt lat="43.60614" lon="3.39126">
        <ele>252.2</ele>
        <time>2017-03-26T07:17:07Z</time>
      </trkpt>
      <trkpt lat="43.60609" lon="3.39117">
        <ele>252.9</ele>
        <time>2017-03-26T07:17:12Z</time>
      </trkpt>
      <trkpt lat="43.60604" lon="3.39109">
        <ele>253.4</ele>
        <time>2017-03-26T07:17:16Z</time>
      </trkpt>
      <trkpt lat="43.60601" lon="3.391">
        <ele>253.9</ele>
        <time>2017-03-26T07:17:20Z</time>
      </trkpt>
      <trkpt lat="43.60598" lon="3.39089">
        <ele>254.8</ele>
        <time>2017-03-26T07:17:25Z</time>
      </trkpt>
      <trkpt lat="43.60594" lon="3.3908">
        <ele>255.4</ele>
        <time>2017-03-26T07:17:29Z</time>
      </trkpt>
      <trkpt lat="43.60592" lon="3.39069">
        <ele>256</ele>
        <time>2017-03-26T07:17:34Z</time>
      </trkpt>
      <trkpt lat="43.6059" lon="3.39058">
        <ele>256.5</ele>
        <time>2017-03-26T07:17:38Z</time>
      </trkpt>
      <trkpt lat="43.60588" lon="3.39047">
        <ele>256.9</ele>
        <time>2017-03-26T07:17:43Z</time>
      </trkpt>
      <trkpt lat="43.60587" lon="3.39036">
        <ele>257.5</ele>
        <time>2017-03-26T07:17:48Z</time>
      </trkpt>
      <trkpt lat="43.60586" lon="3.39026">
        <ele>257.9</ele>
        <time>2017-03-26T07:17:52Z</time>
      </trkpt>
      <trkpt lat="43.60585" lon="3.39013">
        <ele>258.7</ele>
        <time>2017-03-26T07:17:57Z</time>
      </trkpt>
      <trkpt lat="43.60585" lon="3.39001">
        <ele>259.7</ele>
        <time>2017-03-26T07:18:02Z</time>
      </trkpt>
      <trkpt lat="43.60584" lon="3.38989">
        <ele>260.7</ele>
        <time>2017-03-26T07:18:07Z</time>
      </trkpt>
      <trkpt lat="43.60582" lon="3.38977">
        <ele>261.4</ele>
        <time>2017-03-26T07:18:11Z</time>
      </trkpt>
      <trkpt lat="43.6058" lon="3.38966">
        <ele>261.8</ele>
        <time>2017-03-26T07:18:15Z</time>
      </trkpt>
      <trkpt lat="43.6058" lon="3.38954">
        <ele>262.3</ele>
        <time>2017-03-26T07:18:20Z</time>
      </trkpt>
      <trkpt lat="43.6058" lon="3.38943">
        <ele>263</ele>
        <time>2017-03-26T07:18:24Z</time>
      </trkpt>
      <trkpt lat="43.6058" lon="3.38931">
        <ele>263.8</ele>
        <time>2017-03-26T07:18:29Z</time>
      </trkpt>
      <trkpt lat="43.6058" lon="3.3892">
        <ele>264.5</ele>
        <time>2017-03-26T07:18:33Z</time>
      </trkpt>
      <trkpt lat="43.6058" lon="3.3891">
        <ele>265.1</ele>
        <time>2017-03-26T07:18:37Z</time>
      </trkpt>
      <trkpt lat="43.60579" lon="3.389">
        <ele>265.7</ele>
        <time>2017-03-26T07:18:41Z</time>
      </trkpt>
      <trkpt lat="43.60578" lon="3.38889">
        <ele>266.3</ele>
        <time>2017-03-26T07:18:45Z</time>
      </trkpt>
      <trkpt lat="43.60576" lon="3.3888">
        <ele>266.8</ele>
        <time>2017-03-26T07:18:49Z</time>
      </trkpt>
      <trkpt lat="43.60575" lon="3.38869">
        <ele>267.3</ele>
        <time>2017-03-26T07:18:53Z</time>
      </trkpt>
      <trkpt lat="43.6057" lon="3.3886">
        <ele>267.9</ele>
        <time>2017-03-26T07:18:58Z</time>
      </trkpt>
      <trkpt lat="43.60562" lon="3.38859">
        <ele>268.3</ele>
        <time>2017-03-26T07:19:02Z</time>
      </trkpt>
      <trkpt lat="43.60553" lon="3.38859">
        <ele>268.7</ele>
        <time>2017-03-26T07:19:05Z</time>
      </trkpt>
      <trkpt lat="43.60545" lon="3.38857">
        <ele>269.1</ele>
        <time>2017-03-26T07:19:09Z</time>
      </trkpt>
      <trkpt lat="43.60536" lon="3.38853">
        <ele>269.5</ele>
        <time>2017-03-26T07:19:13Z</time>
      </trkpt>
      <trkpt lat="43.60528" lon="3.38848">
        <ele>269.8</ele>
        <time>2017-03-26T07:19:17Z</time>
      </trkpt>
      <trkpt lat="43.6052" lon="3.38841">
        <ele>270</ele>
        <time>2017-03-26T07:19:21Z</time>
      </trkpt>
      <trkpt lat="43.60515" lon="3.38834">
        <ele>270.3</ele>
        <time>2017-03-26T07:19:24Z</time>
      </trkpt>
      <trkpt lat="43.60511" lon="3.38821">
        <ele>270.7</ele>
        <time>2017-03-26T07:19:28Z</time>
      </trkpt>
      <trkpt lat="43.60509" lon="3.38809">
        <ele>271.3</ele>
        <time>2017-03-26T07:19:32Z</time>
      </trkpt>
      <trkpt lat="43.60509" lon="3.38799">
        <ele>271.8</ele>
        <time>2017-03-26T07:19:35Z</time>
      </trkpt>
      <trkpt lat="43.6051" lon="3.38789">
        <ele>272.1</ele>
        <time>2017-03-26T07:19:38Z</time>
      </trkpt>
      <trkpt lat="43.60512" lon="3.38777">
        <ele>272.7</ele>
        <time>2017-03-26T07:19:42Z</time>
      </trkpt>
      <trkpt lat="43.60515" lon="3.38765">
        <ele>273.5</ele>
        <time>2017-03-26T07:19:46Z</time>
      </trkpt>
      <trkpt lat="43.60516" lon="3.38755">
        <ele>273.9</ele>
        <time>2017-03-26T07:19:49Z</time>
      </trkpt>
      <trkpt lat="43.60515" lon="3.38743">
        <ele>274.3</ele>
        <time>2017-03-26T07:19:52Z</time>
      </trkpt>
      <trkpt lat="43.60509" lon="3.38732">
        <ele>275</ele>
        <time>2017-03-26T07:19:56Z</time>
      </trkpt>
      <trkpt lat="43.60503" lon="3.38723">
        <ele>275.4</ele>
        <time>2017-03-26T07:19:59Z</time>
      </trkpt>
      <trkpt lat="43.60499" lon="3.38714">
        <ele>275.7</ele>
        <time>2017-03-26T07:20:02Z</time>
      </trkpt>
      <trkpt lat="43.60494" lon="3.38705">
        <ele>276.1</ele>
        <time>2017-03-26T07:20:05Z</time>
      </trkpt>
      <trkpt lat="43.60488" lon="3.38695">
        <ele>276.3</ele>
        <time>2017-03-26T07:20:08Z</time>
      </trkpt>
      <trkpt lat="43.60483" lon="3.38685">
        <ele>276.6</ele>
        <time>2017-03-26T07:20:11Z</time>
      </trkpt>
      <trkpt lat="43.60478" lon="3.38676">
        <ele>276.8</ele>
        <time>2017-03-26T07:20:14Z</time>
      </trkpt>
      <trkpt lat="43.60473" lon="3.38667">
        <ele>277.1</ele>
        <time>2017-03-26T07:20:17Z</time>
      </trkpt>
      <trkpt lat="43.60469" lon="3.38657">
        <ele>277.5</ele>
        <time>2017-03-26T07:20:20Z</time>
      </trkpt>
      <trkpt lat="43.60464" lon="3.38648">
        <ele>278</ele>
        <time>2017-03-26T07:20:23Z</time>
      </trkpt>
      <trkpt lat="43.60459" lon="3.38637">
        <ele>278.5</ele>
        <time>2017-03-26T07:20:26Z</time>
      </trkpt>
      <trkpt lat="43.60455" lon="3.38626">
        <ele>279</ele>
        <time>2017-03-26T07:20:29Z</time>
      </trkpt>
      <trkpt lat="43.6045" lon="3.38616">
        <ele>279.5</ele>
        <time>2017-03-26T07:20:32Z</time>
      </trkpt>
      <trkpt lat="43.60445" lon="3.38606">
        <ele>279.9</ele>
        <time>2017-03-26T07:20:35Z</time>
      </trkpt>
      <trkpt lat="43.6044" lon="3.38595">
        <ele>280.3</ele>
        <time>2017-03-26T07:20:38Z</time>
      </trkpt>
      <trkpt lat="43.60436" lon="3.38586">
        <ele>281.7</ele>
        <time>2017-03-26T07:20:40Z</time>
      </trkpt>
      <trkpt lat="43.60432" lon="3.38573">
        <ele>282</ele>
        <time>2017-03-26T07:20:43Z</time>
      </trkpt>
      <trkpt lat="43.60428" lon="3.38562">
        <ele>282.2</ele>
        <time>2017-03-26T07:20:46Z</time>
      </trkpt>
      <trkpt lat="43.60423" lon="3.38549">
        <ele>282.4</ele>
        <time>2017-03-26T07:20:49Z</time>
      </trkpt>
      <trkpt lat="43.6042" lon="3.38538">
        <ele>282.6</ele>
        <time>2017-03-26T07:20:52Z</time>
      </trkpt>
      <trkpt lat="43.60416" lon="3.38526">
        <ele>282.9</ele>
        <time>2017-03-26T07:20:55Z</time>
      </trkpt>
      <trkpt lat="43.60413" lon="3.38513">
        <ele>283.1</ele>
        <time>2017-03-26T07:20:58Z</time>
      </trkpt>
      <trkpt lat="43.60409" lon="3.38501">
        <ele>283.3</ele>
        <time>2017-03-26T07:21:01Z</time>
      </trkpt>
      <trkpt lat="43.60405" lon="3.38489">
        <ele>283.5</ele>
        <time>2017-03-26T07:21:04Z</time>
      </trkpt>
      <trkpt lat="43.60403" lon="3.38479">
        <ele>283.5</ele>
        <time>2017-03-26T07:21:06Z</time>
      </trkpt>
      <trkpt lat="43.60401" lon="3.3847">
        <ele>284.3</ele>
        <time>2017-03-26T07:21:08Z</time>
      </trkpt>
      <trkpt lat="43.60399" lon="3.38459">
        <ele>284.8</ele>
        <time>2017-03-26T07:21:10Z</time>
      </trkpt>
      <trkpt lat="43.60396" lon="3.38444">
        <ele>284.4</ele>
        <time>2017-03-26T07:21:13Z</time>
      </trkpt>
      <trkpt lat="43.60394" lon="3.38433">
        <ele>284.4</ele>
        <time>2017-03-26T07:21:15Z</time>
      </trkpt>
      <trkpt lat="43.60393" lon="3.38423">
        <ele>284.4</ele>
        <time>2017-03-26T07:21:17Z</time>
      </trkpt>
      <trkpt lat="43.6039" lon="3.3841">
        <ele>284.5</ele>
        <time>2017-03-26T07:21:20Z</time>
      </trkpt>
      <trkpt lat="43.60388" lon="3.38395">
        <ele>284.5</ele>
        <time>2017-03-26T07:21:23Z</time>
      </trkpt>
      <trkpt lat="43.60386" lon="3.38382">
        <ele>284.8</ele>
        <time>2017-03-26T07:21:26Z</time>
      </trkpt>
      <trkpt lat="43.60385" lon="3.38372">
        <ele>284.9</ele>
        <time>2017-03-26T07:21:28Z</time>
      </trkpt>
      <trkpt lat="43.60383" lon="3.38359">
        <ele>285.1</ele>
        <time>2017-03-26T07:21:31Z</time>
      </trkpt>
      <trkpt lat="43.60382" lon="3.38345">
        <ele>285.3</ele>
        <time>2017-03-26T07:21:34Z</time>
      </trkpt>
      <trkpt lat="43.60382" lon="3.38332">
        <ele>285.4</ele>
        <time>2017-03-26T07:21:37Z</time>
      </trkpt>
      <trkpt lat="43.60381" lon="3.38317">
        <ele>285.5</ele>
        <time>2017-03-26T07:21:40Z</time>
      </trkpt>
      <trkpt lat="43.60381" lon="3.38304">
        <ele>285.7</ele>
        <time>2017-03-26T07:21:43Z</time>
      </trkpt>
      <trkpt lat="43.60381" lon="3.38289">
        <ele>285.9</ele>
        <time>2017-03-26T07:21:46Z</time>
      </trkpt>
      <trkpt lat="43.60381" lon="3.38278">
        <ele>286.8</ele>
        <time>2017-03-26T07:21:48Z</time>
      </trkpt>
      <trkpt lat="43.60381" lon="3.38268">
        <ele>287</ele>
        <time>2017-03-26T07:21:50Z</time>
      </trkpt>
      <trkpt lat="43.6038" lon="3.38253">
        <ele>287.1</ele>
        <time>2017-03-26T07:21:53Z</time>
      </trkpt>
      <trkpt lat="43.6038" lon="3.38239">
        <ele>287.3</ele>
        <time>2017-03-26T07:21:56Z</time>
      </trkpt>
      <trkpt lat="43.60379" lon="3.38225">
        <ele>287.5</ele>
        <time>2017-03-26T07:21:59Z</time>
      </trkpt>
      <trkpt lat="43.60378" lon="3.38216">
        <ele>287.6</ele>
        <time>2017-03-26T07:22:01Z</time>
      </trkpt>
      <trkpt lat="43.60378" lon="3.38206">
        <ele>287.8</ele>
        <time>2017-03-26T07:22:03Z</time>
      </trkpt>
      <trkpt lat="43.60376" lon="3.38193">
        <ele>287.9</ele>
        <time>2017-03-26T07:22:06Z</time>
      </trkpt>
      <trkpt lat="43.60376" lon="3.38182">
        <ele>288.1</ele>
        <time>2017-03-26T07:22:08Z</time>
      </trkpt>
      <trkpt lat="43.60374" lon="3.38168">
        <ele>288.4</ele>
        <time>2017-03-26T07:22:11Z</time>
      </trkpt>
      <trkpt lat="43.60373" lon="3.38155">
        <ele>288.7</ele>
        <time>2017-03-26T07:22:14Z</time>
      </trkpt>
      <trkpt lat="43.60372" lon="3.3814">
        <ele>289</ele>
        <time>2017-03-26T07:22:17Z</time>
      </trkpt>
      <trkpt lat="43.60372" lon="3.38126">
        <ele>289.3</ele>
        <time>2017-03-26T07:22:20Z</time>
      </trkpt>
      <trkpt lat="43.60371" lon="3.38112">
        <ele>289.6</ele>
        <time>2017-03-26T07:22:23Z</time>
      </trkpt>
      <trkpt lat="43.6037" lon="3.38098">
        <ele>289.9</ele>
        <time>2017-03-26T07:22:26Z</time>
      </trkpt>
      <trkpt lat="43.60369" lon="3.38084">
        <ele>291.8</ele>
        <time>2017-03-26T07:22:29Z</time>
      </trkpt>
      <trkpt lat="43.60367" lon="3.38073">
        <ele>292.3</ele>
        <time>2017-03-26T07:22:31Z</time>
      </trkpt>
      <trkpt lat="43.60367" lon="3.3806">
        <ele>292.6</ele>
        <time>2017-03-26T07:22:34Z</time>
      </trkpt>
      <trkpt lat="43.60365" lon="3.38047">
        <ele>292.7</ele>
        <time>2017-03-26T07:22:37Z</time>
      </trkpt>
      <trkpt lat="43.60363" lon="3.38033">
        <ele>292.9</ele>
        <time>2017-03-26T07:22:40Z</time>
      </trkpt>
      <trkpt lat="43.60362" lon="3.38019">
        <ele>293.2</ele>
        <time>2017-03-26T07:22:43Z</time>
      </trkpt>
      <trkpt lat="43.60361" lon="3.38006">
        <ele>293.4</ele>
        <time>2017-03-26T07:22:46Z</time>
      </trkpt>
      <trkpt lat="43.6036" lon="3.37993">
        <ele>293.7</ele>
        <time>2017-03-26T07:22:49Z</time>
      </trkpt>
      <trkpt lat="43.60358" lon="3.37979">
        <ele>294</ele>
        <time>2017-03-26T07:22:52Z</time>
      </trkpt>
      <trkpt lat="43.60357" lon="3.37964">
        <ele>294.2</ele>
        <time>2017-03-26T07:22:55Z</time>
      </trkpt>
      <trkpt lat="43.60356" lon="3.37951">
        <ele>294.6</ele>
        <time>2017-03-26T07:22:58Z</time>
      </trkpt>
      <trkpt lat="43.60355" lon="3.37937">
        <ele>295</ele>
        <time>2017-03-26T07:23:01Z</time>
      </trkpt>
      <trkpt lat="43.60354" lon="3.37924">
        <ele>295.4</ele>
        <time>2017-03-26T07:23:04Z</time>
      </trkpt>
      <trkpt lat="43.60354" lon="3.37911">
        <ele>295.7</ele>
        <time>2017-03-26T07:23:07Z</time>
      </trkpt>
      <trkpt lat="43.60353" lon="3.37899">
        <ele>296.1</ele>
        <time>2017-03-26T07:23:10Z</time>
      </trkpt>
      <trkpt lat="43.60352" lon="3.37887">
        <ele>296.4</ele>
        <time>2017-03-26T07:23:13Z</time>
      </trkpt>
      <trkpt lat="43.60351" lon="3.37876">
        <ele>296.6</ele>
        <time>2017-03-26T07:23:15Z</time>
      </trkpt>
      <trkpt lat="43.6035" lon="3.37864">
        <ele>296.9</ele>
        <time>2017-03-26T07:23:18Z</time>
      </trkpt>
      <trkpt lat="43.60348" lon="3.3785">
        <ele>297.2</ele>
        <time>2017-03-26T07:23:21Z</time>
      </trkpt>
      <trkpt lat="43.60346" lon="3.37838">
        <ele>297.4</ele>
        <time>2017-03-26T07:23:24Z</time>
      </trkpt>
      <trkpt lat="43.60344" lon="3.37825">
        <ele>297.6</ele>
        <time>2017-03-26T07:23:27Z</time>
      </trkpt>
      <trkpt lat="43.60341" lon="3.37811">
        <ele>297.7</ele>
        <time>2017-03-26T07:23:30Z</time>
      </trkpt>
      <trkpt lat="43.60338" lon="3.37799">
        <ele>298</ele>
        <time>2017-03-26T07:23:33Z</time>
      </trkpt>
      <trkpt lat="43.60335" lon="3.3779">
        <ele>298.2</ele>
        <time>2017-03-26T07:23:35Z</time>
      </trkpt>
      <trkpt lat="43.60331" lon="3.37776">
        <ele>298.3</ele>
        <time>2017-03-26T07:23:38Z</time>
      </trkpt>
      <trkpt lat="43.60328" lon="3.37764">
        <ele>298.5</ele>
        <time>2017-03-26T07:23:41Z</time>
      </trkpt>
      <trkpt lat="43.60325" lon="3.37752">
        <ele>298.7</ele>
        <time>2017-03-26T07:23:44Z</time>
      </trkpt>
      <trkpt lat="43.60322" lon="3.3774">
        <ele>299</ele>
        <time>2017-03-26T07:23:47Z</time>
      </trkpt>
      <trkpt lat="43.60321" lon="3.37727">
        <ele>299.3</ele>
        <time>2017-03-26T07:23:50Z</time>
      </trkpt>
      <trkpt lat="43.60321" lon="3.37713">
        <ele>299.5</ele>
        <time>2017-03-26T07:23:53Z</time>
      </trkpt>
      <trkpt lat="43.60321" lon="3.37699">
        <ele>299.7</ele>
        <time>2017-03-26T07:23:56Z</time>
      </trkpt>
      <trkpt lat="43.60322" lon="3.37687">
        <ele>299.9</ele>
        <time>2017-03-26T07:23:59Z</time>
      </trkpt>
      <trkpt lat="43.60324" lon="3.37673">
        <ele>300.1</ele>
        <time>2017-03-26T07:24:02Z</time>
      </trkpt>
      <trkpt lat="43.60325" lon="3.37659">
        <ele>300.4</ele>
        <time>2017-03-26T07:24:05Z</time>
      </trkpt>
      <trkpt lat="43.60327" lon="3.37647">
        <ele>300.8</ele>
        <time>2017-03-26T07:24:08Z</time>
      </trkpt>
      <trkpt lat="43.60327" lon="3.37635">
        <ele>301.2</ele>
        <time>2017-03-26T07:24:11Z</time>
      </trkpt>
      <trkpt lat="43.60328" lon="3.37623">
        <ele>301.5</ele>
        <time>2017-03-26T07:24:14Z</time>
      </trkpt>
      <trkpt lat="43.60329" lon="3.37609">
        <ele>301.9</ele>
        <time>2017-03-26T07:24:17Z</time>
      </trkpt>
      <trkpt lat="43.60329" lon="3.37596">
        <ele>302.2</ele>
        <time>2017-03-26T07:24:20Z</time>
      </trkpt>
      <trkpt lat="43.60329" lon="3.37584">
        <ele>302.6</ele>
        <time>2017-03-26T07:24:23Z</time>
      </trkpt>
      <trkpt lat="43.60329" lon="3.3757">
        <ele>303.1</ele>
        <time>2017-03-26T07:24:26Z</time>
      </trkpt>
      <trkpt lat="43.60329" lon="3.37557">
        <ele>303.6</ele>
        <time>2017-03-26T07:24:29Z</time>
      </trkpt>
      <trkpt lat="43.60329" lon="3.37543">
        <ele>304</ele>
        <time>2017-03-26T07:24:32Z</time>
      </trkpt>
      <trkpt lat="43.60329" lon="3.37531">
        <ele>304.5</ele>
        <time>2017-03-26T07:24:35Z</time>
      </trkpt>
      <trkpt lat="43.6033" lon="3.37518">
        <ele>305</ele>
        <time>2017-03-26T07:24:38Z</time>
      </trkpt>
      <trkpt lat="43.60331" lon="3.37503">
        <ele>305.5</ele>
        <time>2017-03-26T07:24:41Z</time>
      </trkpt>
      <trkpt lat="43.60332" lon="3.37491">
        <ele>306</ele>
        <time>2017-03-26T07:24:44Z</time>
      </trkpt>
      <trkpt lat="43.60334" lon="3.37481">
        <ele>306.3</ele>
        <time>2017-03-26T07:24:46Z</time>
      </trkpt>
      <trkpt lat="43.60336" lon="3.37468">
        <ele>306.8</ele>
        <time>2017-03-26T07:24:49Z</time>
      </trkpt>
      <trkpt lat="43.60337" lon="3.37456">
        <ele>307.3</ele>
        <time>2017-03-26T07:24:52Z</time>
      </trkpt>
      <trkpt lat="43.60337" lon="3.37444">
        <ele>307.8</ele>
        <time>2017-03-26T07:24:55Z</time>
      </trkpt>
      <trkpt lat="43.60338" lon="3.37433">
        <ele>308.1</ele>
        <time>2017-03-26T07:24:57Z</time>
      </trkpt>
      <trkpt lat="43.60338" lon="3.37418">
        <ele>308.6</ele>
        <time>2017-03-26T07:25:00Z</time>
      </trkpt>
      <trkpt lat="43.60337" lon="3.37404">
        <ele>309</ele>
        <time>2017-03-26T07:25:03Z</time>
      </trkpt>
      <trkpt lat="43.60336" lon="3.3739">
        <ele>309.4</ele>
        <time>2017-03-26T07:25:06Z</time>
      </trkpt>
      <trkpt lat="43.60336" lon="3.37379">
        <ele>311.7</ele>
        <time>2017-03-26T07:25:08Z</time>
      </trkpt>
      <trkpt lat="43.60336" lon="3.37369">
        <ele>311.8</ele>
        <time>2017-03-26T07:25:10Z</time>
      </trkpt>
      <trkpt lat="43.60337" lon="3.37355">
        <ele>312.1</ele>
        <time>2017-03-26T07:25:13Z</time>
      </trkpt>
      <trkpt lat="43.60337" lon="3.3734">
        <ele>312.4</ele>
        <time>2017-03-26T07:25:16Z</time>
      </trkpt>
      <trkpt lat="43.60338" lon="3.37326">
        <ele>312.8</ele>
        <time>2017-03-26T07:25:19Z</time>
      </trkpt>
      <trkpt lat="43.60341" lon="3.37313">
        <ele>313.2</ele>
        <time>2017-03-26T07:25:22Z</time>
      </trkpt>
      <trkpt lat="43.60344" lon="3.373">
        <ele>313.6</ele>
        <time>2017-03-26T07:25:25Z</time>
      </trkpt>
      <trkpt lat="43.60347" lon="3.37291">
        <ele>313.7</ele>
        <time>2017-03-26T07:25:27Z</time>
      </trkpt>
      <trkpt lat="43.6035" lon="3.37278">
        <ele>314</ele>
        <time>2017-03-26T07:25:30Z</time>
      </trkpt>
      <trkpt lat="43.60353" lon="3.37266">
        <ele>314.4</ele>
        <time>2017-03-26T07:25:33Z</time>
      </trkpt>
      <trkpt lat="43.60356" lon="3.37252">
        <ele>314.7</ele>
        <time>2017-03-26T07:25:36Z</time>
      </trkpt>
      <trkpt lat="43.6036" lon="3.37238">
        <ele>314.9</ele>
        <time>2017-03-26T07:25:39Z</time>
      </trkpt>
      <trkpt lat="43.60363" lon="3.37225">
        <ele>316.1</ele>
        <time>2017-03-26T07:25:42Z</time>
      </trkpt>
      <trkpt lat="43.60365" lon="3.3721">
        <ele>316.4</ele>
        <time>2017-03-26T07:25:45Z</time>
      </trkpt>
      <trkpt lat="43.60367" lon="3.37197">
        <ele>316.7</ele>
        <time>2017-03-26T07:25:48Z</time>
      </trkpt>
      <trkpt lat="43.60371" lon="3.37183">
        <ele>318.1</ele>
        <time>2017-03-26T07:25:51Z</time>
      </trkpt>
      <trkpt lat="43.60373" lon="3.37173">
        <ele>319.6</ele>
        <time>2017-03-26T07:25:53Z</time>
      </trkpt>
      <trkpt lat="43.60374" lon="3.37163">
        <ele>320.2</ele>
        <time>2017-03-26T07:25:55Z</time>
      </trkpt>
      <trkpt lat="43.60375" lon="3.37152">
        <ele>321.4</ele>
        <time>2017-03-26T07:25:57Z</time>
      </trkpt>
      <trkpt lat="43.60375" lon="3.37141">
        <ele>322.1</ele>
        <time>2017-03-26T07:25:59Z</time>
      </trkpt>
      <trkpt lat="43.60375" lon="3.3713">
        <ele>322.3</ele>
        <time>2017-03-26T07:26:01Z</time>
      </trkpt>
      <trkpt lat="43.60375" lon="3.37119">
        <ele>322.5</ele>
        <time>2017-03-26T07:26:03Z</time>
      </trkpt>
      <trkpt lat="43.60375" lon="3.37108">
        <ele>322.4</ele>
        <time>2017-03-26T07:26:05Z</time>
      </trkpt>
      <trkpt lat="43.60375" lon="3.37096">
        <ele>322.5</ele>
        <time>2017-03-26T07:26:07Z</time>
      </trkpt>
      <trkpt lat="43.60375" lon="3.37085">
        <ele>322.7</ele>
        <time>2017-03-26T07:26:09Z</time>
      </trkpt>
      <trkpt lat="43.60376" lon="3.37073">
        <ele>322.9</ele>
        <time>2017-03-26T07:26:11Z</time>
      </trkpt>
      <trkpt lat="43.60378" lon="3.3706">
        <ele>322.6</ele>
        <time>2017-03-26T07:26:13Z</time>
      </trkpt>
      <trkpt lat="43.60381" lon="3.37049">
        <ele>322.5</ele>
        <time>2017-03-26T07:26:15Z</time>
      </trkpt>
      <trkpt lat="43.60383" lon="3.37038">
        <ele>322.9</ele>
        <time>2017-03-26T07:26:17Z</time>
      </trkpt>
      <trkpt lat="43.60385" lon="3.37028">
        <ele>323.4</ele>
        <time>2017-03-26T07:26:19Z</time>
      </trkpt>
      <trkpt lat="43.60387" lon="3.37017">
        <ele>323.8</ele>
        <time>2017-03-26T07:26:21Z</time>
      </trkpt>
      <trkpt lat="43.60389" lon="3.37006">
        <ele>324</ele>
        <time>2017-03-26T07:26:23Z</time>
      </trkpt>
      <trkpt lat="43.60389" lon="3.36995">
        <ele>323.8</ele>
        <time>2017-03-26T07:26:25Z</time>
      </trkpt>
      <trkpt lat="43.60389" lon="3.36983">
        <ele>323.4</ele>
        <time>2017-03-26T07:26:27Z</time>
      </trkpt>
      <trkpt lat="43.6039" lon="3.36973">
        <ele>323.6</ele>
        <time>2017-03-26T07:26:29Z</time>
      </trkpt>
      <trkpt lat="43.60389" lon="3.36961">
        <ele>322.9</ele>
        <time>2017-03-26T07:26:31Z</time>
      </trkpt>
      <trkpt lat="43.60389" lon="3.36947">
        <ele>323.1</ele>
        <time>2017-03-26T07:26:34Z</time>
      </trkpt>
      <trkpt lat="43.60389" lon="3.36936">
        <ele>323.4</ele>
        <time>2017-03-26T07:26:36Z</time>
      </trkpt>
      <trkpt lat="43.60388" lon="3.36925">
        <ele>323.4</ele>
        <time>2017-03-26T07:26:38Z</time>
      </trkpt>
      <trkpt lat="43.60385" lon="3.36911">
        <ele>323.4</ele>
        <time>2017-03-26T07:26:41Z</time>
      </trkpt>
      <trkpt lat="43.60383" lon="3.36901">
        <ele>323.4</ele>
        <time>2017-03-26T07:26:43Z</time>
      </trkpt>
      <trkpt lat="43.60381" lon="3.36892">
        <ele>323.6</ele>
        <time>2017-03-26T07:26:45Z</time>
      </trkpt>
      <trkpt lat="43.60375" lon="3.36879">
        <ele>323.5</ele>
        <time>2017-03-26T07:26:48Z</time>
      </trkpt>
      <trkpt lat="43.60371" lon="3.3687">
        <ele>323.1</ele>
        <time>2017-03-26T07:26:50Z</time>
      </trkpt>
      <trkpt lat="43.60365" lon="3.36859">
        <ele>323</ele>
        <time>2017-03-26T07:26:53Z</time>
      </trkpt>
      <trkpt lat="43.6036" lon="3.36851">
        <ele>322.6</ele>
        <time>2017-03-26T07:26:55Z</time>
      </trkpt>
      <trkpt lat="43.60357" lon="3.36842">
        <ele>322.5</ele>
        <time>2017-03-26T07:26:57Z</time>
      </trkpt>
      <trkpt lat="43.60354" lon="3.36833">
        <ele>322.4</ele>
        <time>2017-03-26T07:26:59Z</time>
      </trkpt>
      <trkpt lat="43.60349" lon="3.3682">
        <ele>322.5</ele>
        <time>2017-03-26T07:27:02Z</time>
      </trkpt>
      <trkpt lat="43.60345" lon="3.36807">
        <ele>322.6</ele>
        <time>2017-03-26T07:27:05Z</time>
      </trkpt>
      <trkpt lat="43.60343" lon="3.36797">
        <ele>322.7</ele>
        <time>2017-03-26T07:27:07Z</time>
      </trkpt>
      <trkpt lat="43.60341" lon="3.36784">
        <ele>322.9</ele>
        <time>2017-03-26T07:27:10Z</time>
      </trkpt>
      <trkpt lat="43.60338" lon="3.3677">
        <ele>323.1</ele>
        <time>2017-03-26T07:27:13Z</time>
      </trkpt>
      <trkpt lat="43.60335" lon="3.36757">
        <ele>323.2</ele>
        <time>2017-03-26T07:27:16Z</time>
      </trkpt>
      <trkpt lat="43.60333" lon="3.36747">
        <ele>323.1</ele>
        <time>2017-03-26T07:27:18Z</time>
      </trkpt>
      <trkpt lat="43.60329" lon="3.36734">
        <ele>323</ele>
        <time>2017-03-26T07:27:21Z</time>
      </trkpt>
      <trkpt lat="43.60325" lon="3.36725">
        <ele>323.5</ele>
        <time>2017-03-26T07:27:23Z</time>
      </trkpt>
      <trkpt lat="43.6032" lon="3.36717">
        <ele>323.5</ele>
        <time>2017-03-26T07:27:25Z</time>
      </trkpt>
      <trkpt lat="43.60315" lon="3.36708">
        <ele>323.5</ele>
        <time>2017-03-26T07:27:27Z</time>
      </trkpt>
      <trkpt lat="43.60309" lon="3.36698">
        <ele>323.7</ele>
        <time>2017-03-26T07:27:30Z</time>
      </trkpt>
      <trkpt lat="43.60305" lon="3.36686">
        <ele>324</ele>
        <time>2017-03-26T07:27:33Z</time>
      </trkpt>
      <trkpt lat="43.60305" lon="3.36675">
        <ele>324.2</ele>
        <time>2017-03-26T07:27:35Z</time>
      </trkpt>
      <trkpt lat="43.6031" lon="3.36662">
        <ele>324.7</ele>
        <time>2017-03-26T07:27:38Z</time>
      </trkpt>
      <trkpt lat="43.60315" lon="3.36654">
        <ele>325.1</ele>
        <time>2017-03-26T07:27:41Z</time>
      </trkpt>
      <trkpt lat="43.60321" lon="3.36644">
        <ele>325.8</ele>
        <time>2017-03-26T07:27:45Z</time>
      </trkpt>
      <trkpt lat="43.60324" lon="3.36634">
        <ele>326.3</ele>
        <time>2017-03-26T07:27:48Z</time>
      </trkpt>
      <trkpt lat="43.60328" lon="3.36623">
        <ele>326.9</ele>
        <time>2017-03-26T07:27:51Z</time>
      </trkpt>
      <trkpt lat="43.60333" lon="3.36611">
        <ele>327.5</ele>
        <time>2017-03-26T07:27:54Z</time>
      </trkpt>
      <trkpt lat="43.60336" lon="3.36601">
        <ele>328.1</ele>
        <time>2017-03-26T07:27:57Z</time>
      </trkpt>
      <trkpt lat="43.6034" lon="3.36591">
        <ele>328.6</ele>
        <time>2017-03-26T07:28:00Z</time>
      </trkpt>
      <trkpt lat="43.60343" lon="3.3658">
        <ele>328.9</ele>
        <time>2017-03-26T07:28:03Z</time>
      </trkpt>
      <trkpt lat="43.60347" lon="3.36568">
        <ele>329.3</ele>
        <time>2017-03-26T07:28:06Z</time>
      </trkpt>
      <trkpt lat="43.6035" lon="3.36559">
        <ele>329.6</ele>
        <time>2017-03-26T07:28:08Z</time>
      </trkpt>
      <trkpt lat="43.60352" lon="3.36546">
        <ele>330.1</ele>
        <time>2017-03-26T07:28:11Z</time>
      </trkpt>
      <trkpt lat="43.60357" lon="3.36533">
        <ele>330.5</ele>
        <time>2017-03-26T07:28:14Z</time>
      </trkpt>
      <trkpt lat="43.60359" lon="3.3652">
        <ele>330.8</ele>
        <time>2017-03-26T07:28:17Z</time>
      </trkpt>
      <trkpt lat="43.6036" lon="3.3651">
        <ele>331</ele>
        <time>2017-03-26T07:28:19Z</time>
      </trkpt>
      <trkpt lat="43.60362" lon="3.36496">
        <ele>331.4</ele>
        <time>2017-03-26T07:28:22Z</time>
      </trkpt>
      <trkpt lat="43.60364" lon="3.36483">
        <ele>331.7</ele>
        <time>2017-03-26T07:28:25Z</time>
      </trkpt>
      <trkpt lat="43.60365" lon="3.36473">
        <ele>331.9</ele>
        <time>2017-03-26T07:28:27Z</time>
      </trkpt>
      <trkpt lat="43.60367" lon="3.36463">
        <ele>333.3</ele>
        <time>2017-03-26T07:28:29Z</time>
      </trkpt>
      <trkpt lat="43.60368" lon="3.36453">
        <ele>333.5</ele>
        <time>2017-03-26T07:28:31Z</time>
      </trkpt>
      <trkpt lat="43.60369" lon="3.36443">
        <ele>334.7</ele>
        <time>2017-03-26T07:28:33Z</time>
      </trkpt>
      <trkpt lat="43.60371" lon="3.36432">
        <ele>336.3</ele>
        <time>2017-03-26T07:28:35Z</time>
      </trkpt>
      <trkpt lat="43.60373" lon="3.36421">
        <ele>337</ele>
        <time>2017-03-26T07:28:37Z</time>
      </trkpt>
      <trkpt lat="43.60374" lon="3.36412">
        <ele>337.5</ele>
        <time>2017-03-26T07:28:39Z</time>
      </trkpt>
      <trkpt lat="43.60376" lon="3.36397">
        <ele>338.9</ele>
        <time>2017-03-26T07:28:42Z</time>
      </trkpt>
      <trkpt lat="43.60377" lon="3.36386">
        <ele>340.6</ele>
        <time>2017-03-26T07:28:44Z</time>
      </trkpt>
      <trkpt lat="43.60378" lon="3.36376">
        <ele>341.2</ele>
        <time>2017-03-26T07:28:46Z</time>
      </trkpt>
      <trkpt lat="43.60379" lon="3.36365">
        <ele>341.7</ele>
        <time>2017-03-26T07:28:48Z</time>
      </trkpt>
      <trkpt lat="43.6038" lon="3.36355">
        <ele>342.3</ele>
        <time>2017-03-26T07:28:50Z</time>
      </trkpt>
      <trkpt lat="43.60382" lon="3.36343">
        <ele>342.2</ele>
        <time>2017-03-26T07:28:52Z</time>
      </trkpt>
      <trkpt lat="43.60382" lon="3.36333">
        <ele>342</ele>
        <time>2017-03-26T07:28:54Z</time>
      </trkpt>
      <trkpt lat="43.60383" lon="3.36323">
        <ele>341.9</ele>
        <time>2017-03-26T07:28:56Z</time>
      </trkpt>
      <trkpt lat="43.60384" lon="3.36312">
        <ele>341.9</ele>
        <time>2017-03-26T07:28:58Z</time>
      </trkpt>
      <trkpt lat="43.60385" lon="3.36302">
        <ele>342.6</ele>
        <time>2017-03-26T07:29:00Z</time>
      </trkpt>
      <trkpt lat="43.60386" lon="3.36291">
        <ele>343.3</ele>
        <time>2017-03-26T07:29:02Z</time>
      </trkpt>
      <trkpt lat="43.60387" lon="3.3628">
        <ele>343.9</ele>
        <time>2017-03-26T07:29:04Z</time>
      </trkpt>
      <trkpt lat="43.60388" lon="3.36269">
        <ele>344.2</ele>
        <time>2017-03-26T07:29:06Z</time>
      </trkpt>
      <trkpt lat="43.6039" lon="3.36256">
        <ele>344.1</ele>
        <time>2017-03-26T07:29:09Z</time>
      </trkpt>
      <trkpt lat="43.60393" lon="3.36245">
        <ele>344</ele>
        <time>2017-03-26T07:29:11Z</time>
      </trkpt>
      <trkpt lat="43.60394" lon="3.36235">
        <ele>344</ele>
        <time>2017-03-26T07:29:13Z</time>
      </trkpt>
      <trkpt lat="43.60395" lon="3.36224">
        <ele>343.9</ele>
        <time>2017-03-26T07:29:15Z</time>
      </trkpt>
      <trkpt lat="43.60397" lon="3.3621">
        <ele>343.8</ele>
        <time>2017-03-26T07:29:18Z</time>
      </trkpt>
      <trkpt lat="43.60397" lon="3.36199">
        <ele>342.6</ele>
        <time>2017-03-26T07:29:20Z</time>
      </trkpt>
      <trkpt lat="43.60397" lon="3.36188">
        <ele>342.7</ele>
        <time>2017-03-26T07:29:22Z</time>
      </trkpt>
      <trkpt lat="43.60397" lon="3.36176">
        <ele>342.7</ele>
        <time>2017-03-26T07:29:24Z</time>
      </trkpt>
      <trkpt lat="43.60395" lon="3.36162">
        <ele>342.8</ele>
        <time>2017-03-26T07:29:27Z</time>
      </trkpt>
      <trkpt lat="43.60393" lon="3.36148">
        <ele>343</ele>
        <time>2017-03-26T07:29:30Z</time>
      </trkpt>
      <trkpt lat="43.6039" lon="3.36134">
        <ele>343.1</ele>
        <time>2017-03-26T07:29:33Z</time>
      </trkpt>
      <trkpt lat="43.60388" lon="3.36124">
        <ele>343.2</ele>
        <time>2017-03-26T07:29:35Z</time>
      </trkpt>
      <trkpt lat="43.60384" lon="3.36115">
        <ele>343.8</ele>
        <time>2017-03-26T07:29:37Z</time>
      </trkpt>
      <trkpt lat="43.60379" lon="3.36107">
        <ele>344.7</ele>
        <time>2017-03-26T07:29:39Z</time>
      </trkpt>
      <trkpt lat="43.60373" lon="3.36099">
        <ele>345.7</ele>
        <time>2017-03-26T07:29:41Z</time>
      </trkpt>
      <trkpt lat="43.60367" lon="3.36093">
        <ele>346.6</ele>
        <time>2017-03-26T07:29:43Z</time>
      </trkpt>
      <trkpt lat="43.60358" lon="3.36085">
        <ele>347.3</ele>
        <time>2017-03-26T07:29:46Z</time>
      </trkpt>
      <trkpt lat="43.6035" lon="3.36078">
        <ele>347.3</ele>
        <time>2017-03-26T07:29:49Z</time>
      </trkpt>
      <trkpt lat="43.60343" lon="3.36073">
        <ele>347.2</ele>
        <time>2017-03-26T07:29:51Z</time>
      </trkpt>
      <trkpt lat="43.60334" lon="3.36064">
        <ele>347.3</ele>
        <time>2017-03-26T07:29:54Z</time>
      </trkpt>
      <trkpt lat="43.60329" lon="3.36051">
        <ele>349.4</ele>
        <time>2017-03-26T07:29:57Z</time>
      </trkpt>
      <trkpt lat="43.60328" lon="3.3604">
        <ele>350.2</ele>
        <time>2017-03-26T07:29:59Z</time>
      </trkpt>
      <trkpt lat="43.60328" lon="3.36029">
        <ele>350.5</ele>
        <time>2017-03-26T07:30:01Z</time>
      </trkpt>
      <trkpt lat="43.60329" lon="3.36019">
        <ele>350.3</ele>
        <time>2017-03-26T07:30:03Z</time>
      </trkpt>
      <trkpt lat="43.60331" lon="3.36004">
        <ele>350.2</ele>
        <time>2017-03-26T07:30:06Z</time>
      </trkpt>
      <trkpt lat="43.60333" lon="3.35994">
        <ele>350.2</ele>
        <time>2017-03-26T07:30:08Z</time>
      </trkpt>
      <trkpt lat="43.60336" lon="3.35984">
        <ele>350.2</ele>
        <time>2017-03-26T07:30:11Z</time>
      </trkpt>
      <trkpt lat="43.6034" lon="3.35971">
        <ele>350.3</ele>
        <time>2017-03-26T07:30:14Z</time>
      </trkpt>
      <trkpt lat="43.60343" lon="3.35961">
        <ele>350.6</ele>
        <time>2017-03-26T07:30:16Z</time>
      </trkpt>
      <trkpt lat="43.60347" lon="3.35946">
        <ele>350.7</ele>
        <time>2017-03-26T07:30:19Z</time>
      </trkpt>
      <trkpt lat="43.60348" lon="3.35933">
        <ele>350.6</ele>
        <time>2017-03-26T07:30:22Z</time>
      </trkpt>
      <trkpt lat="43.60346" lon="3.3592">
        <ele>350.6</ele>
        <time>2017-03-26T07:30:25Z</time>
      </trkpt>
      <trkpt lat="43.60343" lon="3.35906">
        <ele>350.5</ele>
        <time>2017-03-26T07:30:28Z</time>
      </trkpt>
      <trkpt lat="43.60337" lon="3.35895">
        <ele>349.8</ele>
        <time>2017-03-26T07:30:31Z</time>
      </trkpt>
      <trkpt lat="43.6033" lon="3.35889">
        <ele>349.5</ele>
        <time>2017-03-26T07:30:33Z</time>
      </trkpt>
      <trkpt lat="43.60321" lon="3.35885">
        <ele>349.4</ele>
        <time>2017-03-26T07:30:36Z</time>
      </trkpt>
      <trkpt lat="43.60311" lon="3.35889">
        <ele>349.5</ele>
        <time>2017-03-26T07:30:40Z</time>
      </trkpt>
      <trkpt lat="43.60304" lon="3.35892">
        <ele>349.6</ele>
        <time>2017-03-26T07:30:43Z</time>
      </trkpt>
      <trkpt lat="43.60297" lon="3.35893">
        <ele>349.8</ele>
        <time>2017-03-26T07:30:46Z</time>
      </trkpt>
      <trkpt lat="43.60288" lon="3.35895">
        <ele>350.2</ele>
        <time>2017-03-26T07:30:49Z</time>
      </trkpt>
      <trkpt lat="43.60278" lon="3.35895">
        <ele>350.6</ele>
        <time>2017-03-26T07:30:52Z</time>
      </trkpt>
      <trkpt lat="43.60267" lon="3.35893">
        <ele>350.9</ele>
        <time>2017-03-26T07:30:55Z</time>
      </trkpt>
      <trkpt lat="43.60258" lon="3.35893">
        <ele>351.2</ele>
        <time>2017-03-26T07:30:58Z</time>
      </trkpt>
      <trkpt lat="43.60249" lon="3.35893">
        <ele>351.5</ele>
        <time>2017-03-26T07:31:01Z</time>
      </trkpt>
      <trkpt lat="43.60238" lon="3.35893">
        <ele>351.8</ele>
        <time>2017-03-26T07:31:04Z</time>
      </trkpt>
      <trkpt lat="43.60234" lon="3.35884">
        <ele>351.8</ele>
        <time>2017-03-26T07:31:08Z</time>
      </trkpt>
      <trkpt lat="43.60238" lon="3.35874">
        <ele>351.9</ele>
        <time>2017-03-26T07:31:11Z</time>
      </trkpt>
      <trkpt lat="43.60243" lon="3.35866">
        <ele>352.1</ele>
        <time>2017-03-26T07:31:14Z</time>
      </trkpt>
      <trkpt lat="43.60251" lon="3.35863">
        <ele>352.5</ele>
        <time>2017-03-26T07:31:18Z</time>
      </trkpt>
      <trkpt lat="43.6026" lon="3.3586">
        <ele>352.8</ele>
        <time>2017-03-26T07:31:21Z</time>
      </trkpt>
      <trkpt lat="43.60266" lon="3.35857">
        <ele>353</ele>
        <time>2017-03-26T07:31:24Z</time>
      </trkpt>
      <trkpt lat="43.60273" lon="3.35852">
        <ele>353.2</ele>
        <time>2017-03-26T07:31:27Z</time>
      </trkpt>
      <trkpt lat="43.6028" lon="3.35847">
        <ele>353.4</ele>
        <time>2017-03-26T07:31:30Z</time>
      </trkpt>
      <trkpt lat="43.60287" lon="3.35839">
        <ele>353.5</ele>
        <time>2017-03-26T07:31:34Z</time>
      </trkpt>
      <trkpt lat="43.60292" lon="3.35831">
        <ele>353.7</ele>
        <time>2017-03-26T07:31:37Z</time>
      </trkpt>
      <trkpt lat="43.60299" lon="3.35823">
        <ele>353.9</ele>
        <time>2017-03-26T07:31:40Z</time>
      </trkpt>
      <trkpt lat="43.60305" lon="3.35815">
        <ele>354.2</ele>
        <time>2017-03-26T07:31:43Z</time>
      </trkpt>
      <trkpt lat="43.60311" lon="3.35806">
        <ele>354.4</ele>
        <time>2017-03-26T07:31:46Z</time>
      </trkpt>
      <trkpt lat="43.60318" lon="3.35795">
        <ele>354.8</ele>
        <time>2017-03-26T07:31:50Z</time>
      </trkpt>
      <trkpt lat="43.60324" lon="3.35784">
        <ele>355.1</ele>
        <time>2017-03-26T07:31:53Z</time>
      </trkpt>
      <trkpt lat="43.60329" lon="3.35777">
        <ele>355.3</ele>
        <time>2017-03-26T07:31:55Z</time>
      </trkpt>
      <trkpt lat="43.60336" lon="3.35769">
        <ele>357.5</ele>
        <time>2017-03-26T07:31:57Z</time>
      </trkpt>
      <trkpt lat="43.60342" lon="3.35761">
        <ele>358.9</ele>
        <time>2017-03-26T07:31:59Z</time>
      </trkpt>
      <trkpt lat="43.60348" lon="3.35752">
        <ele>360.6</ele>
        <time>2017-03-26T07:32:01Z</time>
      </trkpt>
      <trkpt lat="43.60355" lon="3.35739">
        <ele>361.2</ele>
        <time>2017-03-26T07:32:03Z</time>
      </trkpt>
      <trkpt lat="43.6036" lon="3.35723">
        <ele>361.4</ele>
        <time>2017-03-26T07:32:05Z</time>
      </trkpt>
      <trkpt lat="43.60365" lon="3.35707">
        <ele>361.3</ele>
        <time>2017-03-26T07:32:07Z</time>
      </trkpt>
      <trkpt lat="43.60369" lon="3.35691">
        <ele>361.7</ele>
        <time>2017-03-26T07:32:09Z</time>
      </trkpt>
      <trkpt lat="43.60373" lon="3.35675">
        <ele>362.3</ele>
        <time>2017-03-26T07:32:11Z</time>
      </trkpt>
      <trkpt lat="43.60376" lon="3.3566">
        <ele>363</ele>
        <time>2017-03-26T07:32:13Z</time>
      </trkpt>
      <trkpt lat="43.60379" lon="3.35646">
        <ele>363.6</ele>
        <time>2017-03-26T07:32:15Z</time>
      </trkpt>
      <trkpt lat="43.60381" lon="3.35634">
        <ele>364.2</ele>
        <time>2017-03-26T07:32:17Z</time>
      </trkpt>
      <trkpt lat="43.60382" lon="3.35622">
        <ele>364.3</ele>
        <time>2017-03-26T07:32:19Z</time>
      </trkpt>
      <trkpt lat="43.60381" lon="3.35608">
        <ele>364.2</ele>
        <time>2017-03-26T07:32:22Z</time>
      </trkpt>
      <trkpt lat="43.6038" lon="3.35595">
        <ele>363.9</ele>
        <time>2017-03-26T07:32:25Z</time>
      </trkpt>
      <trkpt lat="43.60377" lon="3.35584">
        <ele>363.6</ele>
        <time>2017-03-26T07:32:28Z</time>
      </trkpt>
      <trkpt lat="43.60372" lon="3.35574">
        <ele>363.3</ele>
        <time>2017-03-26T07:32:31Z</time>
      </trkpt>
      <trkpt lat="43.60365" lon="3.35565">
        <ele>363</ele>
        <time>2017-03-26T07:32:34Z</time>
      </trkpt>
      <trkpt lat="43.60357" lon="3.3556">
        <ele>362.9</ele>
        <time>2017-03-26T07:32:37Z</time>
      </trkpt>
      <trkpt lat="43.60349" lon="3.35555">
        <ele>362.9</ele>
        <time>2017-03-26T07:32:40Z</time>
      </trkpt>
      <trkpt lat="43.60341" lon="3.35552">
        <ele>363</ele>
        <time>2017-03-26T07:32:43Z</time>
      </trkpt>
      <trkpt lat="43.60334" lon="3.3555">
        <ele>363</ele>
        <time>2017-03-26T07:32:46Z</time>
      </trkpt>
      <trkpt lat="43.60326" lon="3.35548">
        <ele>363.1</ele>
        <time>2017-03-26T07:32:49Z</time>
      </trkpt>
      <trkpt lat="43.60319" lon="3.35547">
        <ele>363.1</ele>
        <time>2017-03-26T07:32:52Z</time>
      </trkpt>
      <trkpt lat="43.6031" lon="3.35546">
        <ele>363.2</ele>
        <time>2017-03-26T07:32:56Z</time>
      </trkpt>
      <trkpt lat="43.603" lon="3.35545">
        <ele>363.4</ele>
        <time>2017-03-26T07:33:00Z</time>
      </trkpt>
      <trkpt lat="43.60292" lon="3.35545">
        <ele>363.4</ele>
        <time>2017-03-26T07:33:03Z</time>
      </trkpt>
      <trkpt lat="43.60284" lon="3.35545">
        <ele>363.4</ele>
        <time>2017-03-26T07:33:07Z</time>
      </trkpt>
      <trkpt lat="43.60276" lon="3.35544">
        <ele>363.3</ele>
        <time>2017-03-26T07:33:10Z</time>
      </trkpt>
      <trkpt lat="43.60268" lon="3.35542">
        <ele>363.5</ele>
        <time>2017-03-26T07:33:13Z</time>
      </trkpt>
      <trkpt lat="43.60261" lon="3.35542">
        <ele>363.7</ele>
        <time>2017-03-26T07:33:16Z</time>
      </trkpt>
      <trkpt lat="43.60253" lon="3.35541">
        <ele>363.9</ele>
        <time>2017-03-26T07:33:19Z</time>
      </trkpt>
      <trkpt lat="43.60245" lon="3.35538">
        <ele>364.2</ele>
        <time>2017-03-26T07:33:22Z</time>
      </trkpt>
      <trkpt lat="43.60238" lon="3.35533">
        <ele>364.4</ele>
        <time>2017-03-26T07:33:25Z</time>
      </trkpt>
      <trkpt lat="43.60233" lon="3.35523">
        <ele>364.8</ele>
        <time>2017-03-26T07:33:29Z</time>
      </trkpt>
      <trkpt lat="43.60231" lon="3.3551">
        <ele>365.4</ele>
        <time>2017-03-26T07:33:33Z</time>
      </trkpt>
      <trkpt lat="43.60229" lon="3.35498">
        <ele>365.7</ele>
        <time>2017-03-26T07:33:36Z</time>
      </trkpt>
      <trkpt lat="43.60228" lon="3.35488">
        <ele>366.1</ele>
        <time>2017-03-26T07:33:39Z</time>
      </trkpt>
      <trkpt lat="43.60224" lon="3.35478">
        <ele>366.3</ele>
        <time>2017-03-26T07:33:42Z</time>
      </trkpt>
      <trkpt lat="43.60221" lon="3.35469">
        <ele>366.7</ele>
        <time>2017-03-26T07:33:45Z</time>
      </trkpt>
      <trkpt lat="43.60215" lon="3.35459">
        <ele>366.9</ele>
        <time>2017-03-26T07:33:48Z</time>
      </trkpt>
      <trkpt lat="43.6021" lon="3.35451">
        <ele>367.2</ele>
        <time>2017-03-26T07:33:51Z</time>
      </trkpt>
      <trkpt lat="43.60204" lon="3.35443">
        <ele>367.5</ele>
        <time>2017-03-26T07:33:54Z</time>
      </trkpt>
      <trkpt lat="43.60198" lon="3.35437">
        <ele>367.8</ele>
        <time>2017-03-26T07:33:57Z</time>
      </trkpt>
      <trkpt lat="43.60191" lon="3.35432">
        <ele>368.1</ele>
        <time>2017-03-26T07:34:00Z</time>
      </trkpt>
      <trkpt lat="43.60184" lon="3.35427">
        <ele>368.5</ele>
        <time>2017-03-26T07:34:03Z</time>
      </trkpt>
      <trkpt lat="43.60177" lon="3.35423">
        <ele>368.8</ele>
        <time>2017-03-26T07:34:06Z</time>
      </trkpt>
      <trkpt lat="43.6017" lon="3.3542">
        <ele>369.1</ele>
        <time>2017-03-26T07:34:09Z</time>
      </trkpt>
      <trkpt lat="43.60162" lon="3.35416">
        <ele>369.4</ele>
        <time>2017-03-26T07:34:12Z</time>
      </trkpt>
      <trkpt lat="43.60155" lon="3.35412">
        <ele>369.6</ele>
        <time>2017-03-26T07:34:15Z</time>
      </trkpt>
      <trkpt lat="43.60147" lon="3.35407">
        <ele>369.9</ele>
        <time>2017-03-26T07:34:19Z</time>
      </trkpt>
      <trkpt lat="43.6014" lon="3.35402">
        <ele>369.9</ele>
        <time>2017-03-26T07:34:22Z</time>
      </trkpt>
      <trkpt lat="43.60132" lon="3.35395">
        <ele>370</ele>
        <time>2017-03-26T07:34:26Z</time>
      </trkpt>
      <trkpt lat="43.60124" lon="3.35389">
        <ele>370.4</ele>
        <time>2017-03-26T07:34:30Z</time>
      </trkpt>
      <trkpt lat="43.60117" lon="3.35387">
        <ele>370.9</ele>
        <time>2017-03-26T07:34:33Z</time>
      </trkpt>
      <trkpt lat="43.60109" lon="3.35385">
        <ele>371.4</ele>
        <time>2017-03-26T07:34:36Z</time>
      </trkpt>
      <trkpt lat="43.60101" lon="3.35386">
        <ele>371.7</ele>
        <time>2017-03-26T07:34:39Z</time>
      </trkpt>
      <trkpt lat="43.60091" lon="3.35383">
        <ele>372.2</ele>
        <time>2017-03-26T07:34:43Z</time>
      </trkpt>
      <trkpt lat="43.60083" lon="3.35377">
        <ele>372.8</ele>
        <time>2017-03-26T07:34:47Z</time>
      </trkpt>
      <trkpt lat="43.60079" lon="3.35368">
        <ele>373.4</ele>
        <time>2017-03-26T07:34:50Z</time>
      </trkpt>
      <trkpt lat="43.60079" lon="3.35356">
        <ele>373.8</ele>
        <time>2017-03-26T07:34:53Z</time>
      </trkpt>
      <trkpt lat="43.60082" lon="3.35347">
        <ele>374.3</ele>
        <time>2017-03-26T07:34:56Z</time>
      </trkpt>
      <trkpt lat="43.60087" lon="3.35337">
        <ele>374.5</ele>
        <time>2017-03-26T07:34:59Z</time>
      </trkpt>
      <trkpt lat="43.60091" lon="3.35328">
        <ele>374.8</ele>
        <time>2017-03-26T07:35:02Z</time>
      </trkpt>
      <trkpt lat="43.60095" lon="3.35318">
        <ele>375.2</ele>
        <time>2017-03-26T07:35:05Z</time>
      </trkpt>
      <trkpt lat="43.60099" lon="3.35308">
        <ele>375.7</ele>
        <time>2017-03-26T07:35:08Z</time>
      </trkpt>
      <trkpt lat="43.60103" lon="3.35296">
        <ele>376</ele>
        <time>2017-03-26T07:35:11Z</time>
      </trkpt>
      <trkpt lat="43.60102" lon="3.35282">
        <ele>376.3</ele>
        <time>2017-03-26T07:35:14Z</time>
      </trkpt>
      <trkpt lat="43.601" lon="3.35272">
        <ele>376.6</ele>
        <time>2017-03-26T07:35:16Z</time>
      </trkpt>
      <trkpt lat="43.60096" lon="3.35262">
        <ele>377</ele>
        <time>2017-03-26T07:35:19Z</time>
      </trkpt>
      <trkpt lat="43.60089" lon="3.35253">
        <ele>377.5</ele>
        <time>2017-03-26T07:35:22Z</time>
      </trkpt>
      <trkpt lat="43.60082" lon="3.35245">
        <ele>378.1</ele>
        <time>2017-03-26T07:35:25Z</time>
      </trkpt>
      <trkpt lat="43.60076" lon="3.35234">
        <ele>378.5</ele>
        <time>2017-03-26T07:35:28Z</time>
      </trkpt>
      <trkpt lat="43.60072" lon="3.35225">
        <ele>378.8</ele>
        <time>2017-03-26T07:35:31Z</time>
      </trkpt>
      <trkpt lat="43.60069" lon="3.35214">
        <ele>379</ele>
        <time>2017-03-26T07:35:35Z</time>
      </trkpt>
      <trkpt lat="43.60065" lon="3.35203">
        <ele>379.2</ele>
        <time>2017-03-26T07:35:39Z</time>
      </trkpt>
      <trkpt lat="43.6006" lon="3.35192">
        <ele>379.5</ele>
        <time>2017-03-26T07:35:43Z</time>
      </trkpt>
      <trkpt lat="43.60056" lon="3.35182">
        <ele>379.9</ele>
        <time>2017-03-26T07:35:47Z</time>
      </trkpt>
      <trkpt lat="43.60051" lon="3.35171">
        <ele>380.3</ele>
        <time>2017-03-26T07:35:51Z</time>
      </trkpt>
      <trkpt lat="43.60047" lon="3.35162">
        <ele>380.6</ele>
        <time>2017-03-26T07:35:54Z</time>
      </trkpt>
      <trkpt lat="43.60041" lon="3.35153">
        <ele>381.3</ele>
        <time>2017-03-26T07:35:58Z</time>
      </trkpt>
      <trkpt lat="43.60034" lon="3.35144">
        <ele>382.3</ele>
        <time>2017-03-26T07:36:02Z</time>
      </trkpt>
      <trkpt lat="43.60029" lon="3.35138">
        <ele>383.1</ele>
        <time>2017-03-26T07:36:05Z</time>
      </trkpt>
      <trkpt lat="43.60021" lon="3.35135">
        <ele>383.9</ele>
        <time>2017-03-26T07:36:08Z</time>
      </trkpt>
      <trkpt lat="43.60013" lon="3.35136">
        <ele>384.5</ele>
        <time>2017-03-26T07:36:11Z</time>
      </trkpt>
      <trkpt lat="43.60007" lon="3.3514">
        <ele>385.1</ele>
        <time>2017-03-26T07:36:14Z</time>
      </trkpt>
      <trkpt lat="43.6" lon="3.35146">
        <ele>385.5</ele>
        <time>2017-03-26T07:36:17Z</time>
      </trkpt>
      <trkpt lat="43.59994" lon="3.35154">
        <ele>385.9</ele>
        <time>2017-03-26T07:36:21Z</time>
      </trkpt>
      <trkpt lat="43.59986" lon="3.35159">
        <ele>386.4</ele>
        <time>2017-03-26T07:36:25Z</time>
      </trkpt>
      <trkpt lat="43.5998" lon="3.35165">
        <ele>386.9</ele>
        <time>2017-03-26T07:36:28Z</time>
      </trkpt>
      <trkpt lat="43.59973" lon="3.35171">
        <ele>387.7</ele>
        <time>2017-03-26T07:36:32Z</time>
      </trkpt>
      <trkpt lat="43.59965" lon="3.35177">
        <ele>388.6</ele>
        <time>2017-03-26T07:36:36Z</time>
      </trkpt>
      <trkpt lat="43.59958" lon="3.35183">
        <ele>389.7</ele>
        <time>2017-03-26T07:36:40Z</time>
      </trkpt>
      <trkpt lat="43.59951" lon="3.35191">
        <ele>390.9</ele>
        <time>2017-03-26T07:36:45Z</time>
      </trkpt>
      <trkpt lat="43.59944" lon="3.35198">
        <ele>391.8</ele>
        <time>2017-03-26T07:36:49Z</time>
      </trkpt>
      <trkpt lat="43.59936" lon="3.35205">
        <ele>392.7</ele>
        <time>2017-03-26T07:36:53Z</time>
      </trkpt>
      <trkpt lat="43.59929" lon="3.3521">
        <ele>393.2</ele>
        <time>2017-03-26T07:36:56Z</time>
      </trkpt>
      <trkpt lat="43.59923" lon="3.35215">
        <ele>393.6</ele>
        <time>2017-03-26T07:36:59Z</time>
      </trkpt>
      <trkpt lat="43.59915" lon="3.3522">
        <ele>394.1</ele>
        <time>2017-03-26T07:37:03Z</time>
      </trkpt>
      <trkpt lat="43.59907" lon="3.35224">
        <ele>394.7</ele>
        <time>2017-03-26T07:37:07Z</time>
      </trkpt>
      <trkpt lat="43.59898" lon="3.35225">
        <ele>395.3</ele>
        <time>2017-03-26T07:37:11Z</time>
      </trkpt>
      <trkpt lat="43.59889" lon="3.35225">
        <ele>396.1</ele>
        <time>2017-03-26T07:37:15Z</time>
      </trkpt>
      <trkpt lat="43.59881" lon="3.35226">
        <ele>396.8</ele>
        <time>2017-03-26T07:37:18Z</time>
      </trkpt>
      <trkpt lat="43.59872" lon="3.35227">
        <ele>397.7</ele>
        <time>2017-03-26T07:37:22Z</time>
      </trkpt>
      <trkpt lat="43.59865" lon="3.35231">
        <ele>398.3</ele>
        <time>2017-03-26T07:37:25Z</time>
      </trkpt>
      <trkpt lat="43.59856" lon="3.35234">
        <ele>399.1</ele>
        <time>2017-03-26T07:37:29Z</time>
      </trkpt>
      <trkpt lat="43.59847" lon="3.35233">
        <ele>399.8</ele>
        <time>2017-03-26T07:37:33Z</time>
      </trkpt>
      <trkpt lat="43.5984" lon="3.35228">
        <ele>400.1</ele>
        <time>2017-03-26T07:37:36Z</time>
      </trkpt>
      <trkpt lat="43.59834" lon="3.3522">
        <ele>400.6</ele>
        <time>2017-03-26T07:37:40Z</time>
      </trkpt>
      <trkpt lat="43.59829" lon="3.35212">
        <ele>400.9</ele>
        <time>2017-03-26T07:37:43Z</time>
      </trkpt>
      <trkpt lat="43.59823" lon="3.35205">
        <ele>401.4</ele>
        <time>2017-03-26T07:37:46Z</time>
      </trkpt>
      <trkpt lat="43.59818" lon="3.35199">
        <ele>402</ele>
        <time>2017-03-26T07:37:49Z</time>
      </trkpt>
      <trkpt lat="43.59809" lon="3.35193">
        <ele>402.8</ele>
        <time>2017-03-26T07:37:53Z</time>
      </trkpt>
      <trkpt lat="43.59802" lon="3.3519">
        <ele>403.5</ele>
        <time>2017-03-26T07:37:56Z</time>
      </trkpt>
      <trkpt lat="43.59795" lon="3.35188">
        <ele>404.1</ele>
        <time>2017-03-26T07:37:59Z</time>
      </trkpt>
      <trkpt lat="43.59786" lon="3.35186">
        <ele>404.7</ele>
        <time>2017-03-26T07:38:03Z</time>
      </trkpt>
      <trkpt lat="43.59778" lon="3.35186">
        <ele>405.4</ele>
        <time>2017-03-26T07:38:07Z</time>
      </trkpt>
      <trkpt lat="43.5977" lon="3.35187">
        <ele>406</ele>
        <time>2017-03-26T07:38:10Z</time>
      </trkpt>
      <trkpt lat="43.59763" lon="3.35189">
        <ele>406.5</ele>
        <time>2017-03-26T07:38:13Z</time>
      </trkpt>
      <trkpt lat="43.59752" lon="3.3519">
        <ele>407.2</ele>
        <time>2017-03-26T07:38:17Z</time>
      </trkpt>
      <trkpt lat="43.59744" lon="3.35191">
        <ele>407.9</ele>
        <time>2017-03-26T07:38:21Z</time>
      </trkpt>
      <trkpt lat="43.59736" lon="3.35194">
        <ele>408.8</ele>
        <time>2017-03-26T07:38:26Z</time>
      </trkpt>
      <trkpt lat="43.59728" lon="3.35201">
        <ele>409.7</ele>
        <time>2017-03-26T07:38:30Z</time>
      </trkpt>
      <trkpt lat="43.59726" lon="3.35209">
        <ele>411.1</ele>
        <time>2017-03-26T07:38:37Z</time>
      </trkpt>
      <trkpt lat="43.5973" lon="3.35201">
        <ele>411.9</ele>
        <time>2017-03-26T07:38:43Z</time>
      </trkpt>
      <trkpt lat="43.59723" lon="3.35199">
        <ele>413.1</ele>
        <time>2017-03-26T07:38:50Z</time>
      </trkpt>
      <trkpt lat="43.59729" lon="3.35206">
        <ele>414.3</ele>
        <time>2017-03-26T07:38:57Z</time>
      </trkpt>
      <trkpt lat="43.59723" lon="3.35205">
        <ele>415.1</ele>
        <time>2017-03-26T07:39:04Z</time>
      </trkpt>
      <trkpt lat="43.59728" lon="3.35201">
        <ele>415.9</ele>
        <time>2017-03-26T07:39:11Z</time>
      </trkpt>
      <trkpt lat="43.59724" lon="3.35207">
        <ele>416.5</ele>
        <time>2017-03-26T07:39:18Z</time>
      </trkpt>
      <trkpt lat="43.59726" lon="3.352">
        <ele>417.2</ele>
        <time>2017-03-26T07:39:25Z</time>
      </trkpt>
      <trkpt lat="43.59733" lon="3.35202">
        <ele>417.5</ele>
        <time>2017-03-26T07:39:28Z</time>
      </trkpt>
      <trkpt lat="43.59742" lon="3.35205">
        <ele>418</ele>
        <time>2017-03-26T07:39:32Z</time>
      </trkpt>
      <trkpt lat="43.5975" lon="3.35202">
        <ele>418.4</ele>
        <time>2017-03-26T07:39:36Z</time>
      </trkpt>
      <trkpt lat="43.59759" lon="3.35203">
        <ele>418.5</ele>
        <time>2017-03-26T07:39:39Z</time>
      </trkpt>
      <trkpt lat="43.59766" lon="3.35207">
        <ele>418.9</ele>
        <time>2017-03-26T07:39:43Z</time>
      </trkpt>
      <trkpt lat="43.59775" lon="3.35213">
        <ele>419.2</ele>
        <time>2017-03-26T07:39:47Z</time>
      </trkpt>
      <trkpt lat="43.59781" lon="3.35222">
        <ele>419.5</ele>
        <time>2017-03-26T07:39:51Z</time>
      </trkpt>
      <trkpt lat="43.59785" lon="3.35231">
        <ele>419.8</ele>
        <time>2017-03-26T07:39:55Z</time>
      </trkpt>
      <trkpt lat="43.59787" lon="3.35243">
        <ele>420</ele>
        <time>2017-03-26T07:39:59Z</time>
      </trkpt>
      <trkpt lat="43.59789" lon="3.35254">
        <ele>420.3</ele>
        <time>2017-03-26T07:40:03Z</time>
      </trkpt>
      <trkpt lat="43.5979" lon="3.35264">
        <ele>420.6</ele>
        <time>2017-03-26T07:40:07Z</time>
      </trkpt>
      <trkpt lat="43.59792" lon="3.35275">
        <ele>420.7</ele>
        <time>2017-03-26T07:40:10Z</time>
      </trkpt>
      <trkpt lat="43.59795" lon="3.35285">
        <ele>420.9</ele>
        <time>2017-03-26T07:40:13Z</time>
      </trkpt>
      <trkpt lat="43.59799" lon="3.35296">
        <ele>421.2</ele>
        <time>2017-03-26T07:40:17Z</time>
      </trkpt>
      <trkpt lat="43.59804" lon="3.35307">
        <ele>421.4</ele>
        <time>2017-03-26T07:40:21Z</time>
      </trkpt>
      <trkpt lat="43.59809" lon="3.35318">
        <ele>421.6</ele>
        <time>2017-03-26T07:40:25Z</time>
      </trkpt>
      <trkpt lat="43.59813" lon="3.35328">
        <ele>421.9</ele>
        <time>2017-03-26T07:40:29Z</time>
      </trkpt>
      <trkpt lat="43.59821" lon="3.35336">
        <ele>422</ele>
        <time>2017-03-26T07:40:33Z</time>
      </trkpt>
      <trkpt lat="43.5983" lon="3.3534">
        <ele>422.5</ele>
        <time>2017-03-26T07:40:37Z</time>
      </trkpt>
      <trkpt lat="43.59837" lon="3.35342">
        <ele>422.8</ele>
        <time>2017-03-26T07:40:40Z</time>
      </trkpt>
      <trkpt lat="43.59844" lon="3.35345">
        <ele>423</ele>
        <time>2017-03-26T07:40:43Z</time>
      </trkpt>
      <trkpt lat="43.59854" lon="3.35347">
        <ele>423.3</ele>
        <time>2017-03-26T07:40:47Z</time>
      </trkpt>
      <trkpt lat="43.59862" lon="3.35351">
        <ele>423.6</ele>
        <time>2017-03-26T07:40:51Z</time>
      </trkpt>
      <trkpt lat="43.5987" lon="3.35356">
        <ele>423.7</ele>
        <time>2017-03-26T07:40:55Z</time>
      </trkpt>
      <trkpt lat="43.59878" lon="3.35359">
        <ele>424.1</ele>
        <time>2017-03-26T07:40:59Z</time>
      </trkpt>
      <trkpt lat="43.59886" lon="3.35363">
        <ele>424.8</ele>
        <time>2017-03-26T07:41:03Z</time>
      </trkpt>
      <trkpt lat="43.59894" lon="3.35371">
        <ele>425.5</ele>
        <time>2017-03-26T07:41:07Z</time>
      </trkpt>
      <trkpt lat="43.59899" lon="3.35379">
        <ele>426</ele>
        <time>2017-03-26T07:41:10Z</time>
      </trkpt>
      <trkpt lat="43.59904" lon="3.35389">
        <ele>426.6</ele>
        <time>2017-03-26T07:41:14Z</time>
      </trkpt>
      <trkpt lat="43.59907" lon="3.35399">
        <ele>427.2</ele>
        <time>2017-03-26T07:41:18Z</time>
      </trkpt>
      <trkpt lat="43.59911" lon="3.35409">
        <ele>427.7</ele>
        <time>2017-03-26T07:41:21Z</time>
      </trkpt>
      <trkpt lat="43.59915" lon="3.3542">
        <ele>428.3</ele>
        <time>2017-03-26T07:41:25Z</time>
      </trkpt>
      <trkpt lat="43.59917" lon="3.3543">
        <ele>428.7</ele>
        <time>2017-03-26T07:41:28Z</time>
      </trkpt>
      <trkpt lat="43.5992" lon="3.35441">
        <ele>428.9</ele>
        <time>2017-03-26T07:41:31Z</time>
      </trkpt>
      <trkpt lat="43.59925" lon="3.3545">
        <ele>429.1</ele>
        <time>2017-03-26T07:41:34Z</time>
      </trkpt>
      <trkpt lat="43.59929" lon="3.35459">
        <ele>429.2</ele>
        <time>2017-03-26T07:41:37Z</time>
      </trkpt>
      <trkpt lat="43.59935" lon="3.35468">
        <ele>429.5</ele>
        <time>2017-03-26T07:41:41Z</time>
      </trkpt>
      <trkpt lat="43.5994" lon="3.35476">
        <ele>429.9</ele>
        <time>2017-03-26T07:41:44Z</time>
      </trkpt>
      <trkpt lat="43.59946" lon="3.35487">
        <ele>430.5</ele>
        <time>2017-03-26T07:41:48Z</time>
      </trkpt>
      <trkpt lat="43.59951" lon="3.35496">
        <ele>431</ele>
        <time>2017-03-26T07:41:52Z</time>
      </trkpt>
      <trkpt lat="43.59956" lon="3.35504">
        <ele>431.3</ele>
        <time>2017-03-26T07:41:55Z</time>
      </trkpt>
      <trkpt lat="43.59963" lon="3.35512">
        <ele>431.7</ele>
        <time>2017-03-26T07:41:59Z</time>
      </trkpt>
      <trkpt lat="43.59971" lon="3.35517">
        <ele>432.2</ele>
        <time>2017-03-26T07:42:03Z</time>
      </trkpt>
      <trkpt lat="43.59978" lon="3.35522">
        <ele>432.6</ele>
        <time>2017-03-26T07:42:07Z</time>
      </trkpt>
      <trkpt lat="43.59985" lon="3.35526">
        <ele>433.1</ele>
        <time>2017-03-26T07:42:10Z</time>
      </trkpt>
      <trkpt lat="43.59993" lon="3.35534">
        <ele>433.7</ele>
        <time>2017-03-26T07:42:14Z</time>
      </trkpt>
      <trkpt lat="43.59998" lon="3.35544">
        <ele>434</ele>
        <time>2017-03-26T07:42:18Z</time>
      </trkpt>
      <trkpt lat="43.59999" lon="3.35556">
        <ele>434.3</ele>
        <time>2017-03-26T07:42:22Z</time>
      </trkpt>
      <trkpt lat="43.59992" lon="3.35551">
        <ele>434.7</ele>
        <time>2017-03-26T07:42:27Z</time>
      </trkpt>
      <trkpt lat="43.59988" lon="3.35542">
        <ele>435.2</ele>
        <time>2017-03-26T07:42:30Z</time>
      </trkpt>
      <trkpt lat="43.59982" lon="3.35537">
        <ele>435.6</ele>
        <time>2017-03-26T07:42:33Z</time>
      </trkpt>
      <trkpt lat="43.59974" lon="3.35532">
        <ele>436.1</ele>
        <time>2017-03-26T07:42:36Z</time>
      </trkpt>
      <trkpt lat="43.59967" lon="3.35528">
        <ele>436.6</ele>
        <time>2017-03-26T07:42:39Z</time>
      </trkpt>
      <trkpt lat="43.5996" lon="3.35525">
        <ele>437.1</ele>
        <time>2017-03-26T07:42:42Z</time>
      </trkpt>
      <trkpt lat="43.59953" lon="3.35522">
        <ele>437.7</ele>
        <time>2017-03-26T07:42:45Z</time>
      </trkpt>
      <trkpt lat="43.59945" lon="3.35518">
        <ele>438.5</ele>
        <time>2017-03-26T07:42:49Z</time>
      </trkpt>
      <trkpt lat="43.59938" lon="3.35511">
        <ele>439.1</ele>
        <time>2017-03-26T07:42:53Z</time>
      </trkpt>
      <trkpt lat="43.59933" lon="3.35504">
        <ele>439.7</ele>
        <time>2017-03-26T07:42:57Z</time>
      </trkpt>
      <trkpt lat="43.59926" lon="3.35497">
        <ele>440.2</ele>
        <time>2017-03-26T07:43:00Z</time>
      </trkpt>
      <trkpt lat="43.59919" lon="3.3549">
        <ele>440.9</ele>
        <time>2017-03-26T07:43:04Z</time>
      </trkpt>
      <trkpt lat="43.59912" lon="3.35485">
        <ele>441.3</ele>
        <time>2017-03-26T07:43:07Z</time>
      </trkpt>
      <trkpt lat="43.59905" lon="3.35479">
        <ele>442.2</ele>
        <time>2017-03-26T07:43:12Z</time>
      </trkpt>
      <trkpt lat="43.59897" lon="3.35473">
        <ele>443.1</ele>
        <time>2017-03-26T07:43:16Z</time>
      </trkpt>
      <trkpt lat="43.5989" lon="3.35468">
        <ele>444</ele>
        <time>2017-03-26T07:43:20Z</time>
      </trkpt>
      <trkpt lat="43.59882" lon="3.35464">
        <ele>444.7</ele>
        <time>2017-03-26T07:43:24Z</time>
      </trkpt>
      <trkpt lat="43.59873" lon="3.3546">
        <ele>445.4</ele>
        <time>2017-03-26T07:43:28Z</time>
      </trkpt>
      <trkpt lat="43.59866" lon="3.35454">
        <ele>446.1</ele>
        <time>2017-03-26T07:43:32Z</time>
      </trkpt>
      <trkpt lat="43.59857" lon="3.35449">
        <ele>446.7</ele>
        <time>2017-03-26T07:43:36Z</time>
      </trkpt>
      <trkpt lat="43.59849" lon="3.35443">
        <ele>447</ele>
        <time>2017-03-26T07:43:39Z</time>
      </trkpt>
      <trkpt lat="43.59842" lon="3.35437">
        <ele>447.6</ele>
        <time>2017-03-26T07:43:42Z</time>
      </trkpt>
      <trkpt lat="43.59834" lon="3.35435">
        <ele>448.4</ele>
        <time>2017-03-26T07:43:46Z</time>
      </trkpt>
      <trkpt lat="43.59829" lon="3.35443">
        <ele>449.1</ele>
        <time>2017-03-26T07:43:50Z</time>
      </trkpt>
      <trkpt lat="43.59835" lon="3.3545">
        <ele>449.3</ele>
        <time>2017-03-26T07:43:54Z</time>
      </trkpt>
      <trkpt lat="43.59841" lon="3.35455">
        <ele>449.3</ele>
        <time>2017-03-26T07:43:57Z</time>
      </trkpt>
      <trkpt lat="43.59848" lon="3.35461">
        <ele>449.4</ele>
        <time>2017-03-26T07:44:01Z</time>
      </trkpt>
      <trkpt lat="43.59855" lon="3.35469">
        <ele>449.6</ele>
        <time>2017-03-26T07:44:05Z</time>
      </trkpt>
      <trkpt lat="43.59861" lon="3.35476">
        <ele>450</ele>
        <time>2017-03-26T07:44:09Z</time>
      </trkpt>
      <trkpt lat="43.59867" lon="3.35482">
        <ele>450.2</ele>
        <time>2017-03-26T07:44:12Z</time>
      </trkpt>
      <trkpt lat="43.59875" lon="3.3549">
        <ele>450.7</ele>
        <time>2017-03-26T07:44:17Z</time>
      </trkpt>
      <trkpt lat="43.5988" lon="3.35497">
        <ele>450.9</ele>
        <time>2017-03-26T07:44:20Z</time>
      </trkpt>
      <trkpt lat="43.59886" lon="3.35505">
        <ele>451.2</ele>
        <time>2017-03-26T07:44:24Z</time>
      </trkpt>
      <trkpt lat="43.59891" lon="3.35513">
        <ele>451.7</ele>
        <time>2017-03-26T07:44:28Z</time>
      </trkpt>
      <trkpt lat="43.59898" lon="3.35521">
        <ele>452.1</ele>
        <time>2017-03-26T07:44:32Z</time>
      </trkpt>
      <trkpt lat="43.59904" lon="3.35531">
        <ele>452.5</ele>
        <time>2017-03-26T07:44:36Z</time>
      </trkpt>
      <trkpt lat="43.5991" lon="3.3554">
        <ele>453</ele>
        <time>2017-03-26T07:44:40Z</time>
      </trkpt>
      <trkpt lat="43.59915" lon="3.35551">
        <ele>453.6</ele>
        <time>2017-03-26T07:44:44Z</time>
      </trkpt>
      <trkpt lat="43.59919" lon="3.3556">
        <ele>454.2</ele>
        <time>2017-03-26T07:44:48Z</time>
      </trkpt>
      <trkpt lat="43.59924" lon="3.35571">
        <ele>454.7</ele>
        <time>2017-03-26T07:44:52Z</time>
      </trkpt>
      <trkpt lat="43.5993" lon="3.35579">
        <ele>455.1</ele>
        <time>2017-03-26T07:44:56Z</time>
      </trkpt>
      <trkpt lat="43.59937" lon="3.35586">
        <ele>455.7</ele>
        <time>2017-03-26T07:45:00Z</time>
      </trkpt>
      <trkpt lat="43.59943" lon="3.35593">
        <ele>456.2</ele>
        <time>2017-03-26T07:45:03Z</time>
      </trkpt>
      <trkpt lat="43.59949" lon="3.35604">
        <ele>456.8</ele>
        <time>2017-03-26T07:45:07Z</time>
      </trkpt>
      <trkpt lat="43.59953" lon="3.35614">
        <ele>457.5</ele>
        <time>2017-03-26T07:45:11Z</time>
      </trkpt>
      <trkpt lat="43.59956" lon="3.35623">
        <ele>458</ele>
        <time>2017-03-26T07:45:14Z</time>
      </trkpt>
      <trkpt lat="43.59958" lon="3.35636">
        <ele>458.5</ele>
        <time>2017-03-26T07:45:18Z</time>
      </trkpt>
      <trkpt lat="43.59958" lon="3.35649">
        <ele>459.1</ele>
        <time>2017-03-26T07:45:22Z</time>
      </trkpt>
      <trkpt lat="43.59951" lon="3.35653">
        <ele>459.9</ele>
        <time>2017-03-26T07:45:27Z</time>
      </trkpt>
      <trkpt lat="43.59951" lon="3.35643">
        <ele>460.8</ele>
        <time>2017-03-26T07:45:31Z</time>
      </trkpt>
      <trkpt lat="43.59949" lon="3.35633">
        <ele>461.3</ele>
        <time>2017-03-26T07:45:34Z</time>
      </trkpt>
      <trkpt lat="43.59946" lon="3.35622">
        <ele>461.7</ele>
        <time>2017-03-26T07:45:37Z</time>
      </trkpt>
      <trkpt lat="43.5994" lon="3.35612">
        <ele>462.3</ele>
        <time>2017-03-26T07:45:41Z</time>
      </trkpt>
      <trkpt lat="43.59934" lon="3.35605">
        <ele>463.2</ele>
        <time>2017-03-26T07:45:45Z</time>
      </trkpt>
      <trkpt lat="43.59926" lon="3.35598">
        <ele>464.1</ele>
        <time>2017-03-26T07:45:49Z</time>
      </trkpt>
      <trkpt lat="43.59917" lon="3.35592">
        <ele>465.1</ele>
        <time>2017-03-26T07:45:53Z</time>
      </trkpt>
      <trkpt lat="43.59909" lon="3.35587">
        <ele>466.2</ele>
        <time>2017-03-26T07:45:57Z</time>
      </trkpt>
      <trkpt lat="43.59901" lon="3.35582">
        <ele>467.3</ele>
        <time>2017-03-26T07:46:01Z</time>
      </trkpt>
      <trkpt lat="43.59893" lon="3.35577">
        <ele>468.4</ele>
        <time>2017-03-26T07:46:05Z</time>
      </trkpt>
      <trkpt lat="43.59885" lon="3.35572">
        <ele>469.3</ele>
        <time>2017-03-26T07:46:09Z</time>
      </trkpt>
      <trkpt lat="43.59877" lon="3.35568">
        <ele>470.3</ele>
        <time>2017-03-26T07:46:14Z</time>
      </trkpt>
      <trkpt lat="43.59869" lon="3.35564">
        <ele>471.1</ele>
        <time>2017-03-26T07:46:18Z</time>
      </trkpt>
      <trkpt lat="43.59861" lon="3.3556">
        <ele>471.6</ele>
        <time>2017-03-26T07:46:22Z</time>
      </trkpt>
      <trkpt lat="43.59854" lon="3.35558">
        <ele>472</ele>
        <time>2017-03-26T07:46:25Z</time>
      </trkpt>
      <trkpt lat="43.59845" lon="3.35555">
        <ele>472.7</ele>
        <time>2017-03-26T07:46:29Z</time>
      </trkpt>
      <trkpt lat="43.59837" lon="3.35551">
        <ele>473.4</ele>
        <time>2017-03-26T07:46:33Z</time>
      </trkpt>
      <trkpt lat="43.59829" lon="3.35547">
        <ele>474.1</ele>
        <time>2017-03-26T07:46:37Z</time>
      </trkpt>
      <trkpt lat="43.59822" lon="3.35542">
        <ele>474.8</ele>
        <time>2017-03-26T07:46:41Z</time>
      </trkpt>
      <trkpt lat="43.59814" lon="3.35538">
        <ele>475.9</ele>
        <time>2017-03-26T07:46:46Z</time>
      </trkpt>
      <trkpt lat="43.59806" lon="3.35531">
        <ele>476.5</ele>
        <time>2017-03-26T07:46:50Z</time>
      </trkpt>
      <trkpt lat="43.59798" lon="3.35525">
        <ele>477.1</ele>
        <time>2017-03-26T07:46:54Z</time>
      </trkpt>
      <trkpt lat="43.5979" lon="3.35518">
        <ele>477.6</ele>
        <time>2017-03-26T07:46:58Z</time>
      </trkpt>
      <trkpt lat="43.59783" lon="3.35514">
        <ele>478.4</ele>
        <time>2017-03-26T07:47:03Z</time>
      </trkpt>
      <trkpt lat="43.59782" lon="3.35513">
        <ele>478.9</ele>
        <time>2017-03-26T07:47:10Z</time>
      </trkpt>
      <trkpt lat="43.59784" lon="3.35515">
        <ele>479.5</ele>
        <time>2017-03-26T07:47:19Z</time>
      </trkpt>
      <trkpt lat="43.59781" lon="3.3552">
        <ele>481.7</ele>
        <time>2017-03-26T07:48:10Z</time>
      </trkpt>
      <trkpt lat="43.59786" lon="3.35529">
        <ele>482.2</ele>
        <time>2017-03-26T07:48:15Z</time>
      </trkpt>
      <trkpt lat="43.59792" lon="3.35536">
        <ele>482.5</ele>
        <time>2017-03-26T07:48:20Z</time>
      </trkpt>
      <trkpt lat="43.59798" lon="3.35544">
        <ele>482.8</ele>
        <time>2017-03-26T07:48:24Z</time>
      </trkpt>
      <trkpt lat="43.59805" lon="3.35551">
        <ele>483.1</ele>
        <time>2017-03-26T07:48:28Z</time>
      </trkpt>
      <trkpt lat="43.59811" lon="3.35561">
        <ele>483.6</ele>
        <time>2017-03-26T07:48:33Z</time>
      </trkpt>
      <trkpt lat="43.59816" lon="3.3557">
        <ele>484</ele>
        <time>2017-03-26T07:48:37Z</time>
      </trkpt>
      <trkpt lat="43.59823" lon="3.35576">
        <ele>484.4</ele>
        <time>2017-03-26T07:48:41Z</time>
      </trkpt>
      <trkpt lat="43.59829" lon="3.35582">
        <ele>484.8</ele>
        <time>2017-03-26T07:48:45Z</time>
      </trkpt>
      <trkpt lat="43.59835" lon="3.35588">
        <ele>485.2</ele>
        <time>2017-03-26T07:48:49Z</time>
      </trkpt>
      <trkpt lat="43.5984" lon="3.35598">
        <ele>485.7</ele>
        <time>2017-03-26T07:48:53Z</time>
      </trkpt>
      <trkpt lat="43.59845" lon="3.35606">
        <ele>486.2</ele>
        <time>2017-03-26T07:48:57Z</time>
      </trkpt>
      <trkpt lat="43.59851" lon="3.35614">
        <ele>486.6</ele>
        <time>2017-03-26T07:49:01Z</time>
      </trkpt>
      <trkpt lat="43.59856" lon="3.35621">
        <ele>487</ele>
        <time>2017-03-26T07:49:05Z</time>
      </trkpt>
      <trkpt lat="43.59861" lon="3.35628">
        <ele>487.6</ele>
        <time>2017-03-26T07:49:09Z</time>
      </trkpt>
      <trkpt lat="43.59867" lon="3.35638">
        <ele>488.3</ele>
        <time>2017-03-26T07:49:13Z</time>
      </trkpt>
      <trkpt lat="43.59872" lon="3.35647">
        <ele>489</ele>
        <time>2017-03-26T07:49:17Z</time>
      </trkpt>
      <trkpt lat="43.59875" lon="3.35657">
        <ele>489.8</ele>
        <time>2017-03-26T07:49:21Z</time>
      </trkpt>
      <trkpt lat="43.59877" lon="3.35666">
        <ele>491.2</ele>
        <time>2017-03-26T07:49:28Z</time>
      </trkpt>
      <trkpt lat="43.59878" lon="3.35669">
        <ele>492</ele>
        <time>2017-03-26T07:49:35Z</time>
      </trkpt>
      <trkpt lat="43.59879" lon="3.35668">
        <ele>493.5</ele>
        <time>2017-03-26T07:50:43Z</time>
      </trkpt>
      <trkpt lat="43.59878" lon="3.35669">
        <ele>495.7</ele>
        <time>2017-03-26T07:51:43Z</time>
      </trkpt>
      <trkpt lat="43.59878" lon="3.35671">
        <ele>499.3</ele>
        <time>2017-03-26T07:54:04Z</time>
      </trkpt>
      <trkpt lat="43.59882" lon="3.35683">
        <ele>498.3</ele>
        <time>2017-03-26T07:53:51Z</time>
      </trkpt>
      <trkpt lat="43.59885" lon="3.35693">
        <ele>498.1</ele>
        <time>2017-03-26T07:55:01Z</time>
      </trkpt>
      <trkpt lat="43.59892" lon="3.35686">
        <ele>497.6</ele>
        <time>2017-03-26T07:55:06Z</time>
      </trkpt>
      <trkpt lat="43.599" lon="3.3568">
        <ele>497.3</ele>
        <time>2017-03-26T07:55:09Z</time>
      </trkpt>
      <trkpt lat="43.59903" lon="3.35693">
        <ele>496.8</ele>
        <time>2017-03-26T07:55:13Z</time>
      </trkpt>
      <trkpt lat="43.59903" lon="3.35706">
        <ele>496.5</ele>
        <time>2017-03-26T07:55:16Z</time>
      </trkpt>
      <trkpt lat="43.59906" lon="3.35718">
        <ele>496.1</ele>
        <time>2017-03-26T07:55:18Z</time>
      </trkpt>
      <trkpt lat="43.59906" lon="3.35729">
        <ele>493.2</ele>
        <time>2017-03-26T07:55:20Z</time>
      </trkpt>
      <trkpt lat="43.59906" lon="3.35742">
        <ele>489</ele>
        <time>2017-03-26T07:55:22Z</time>
      </trkpt>
      <trkpt lat="43.59906" lon="3.35753">
        <ele>486.4</ele>
        <time>2017-03-26T07:55:24Z</time>
      </trkpt>
      <trkpt lat="43.59906" lon="3.35763">
        <ele>483.8</ele>
        <time>2017-03-26T07:55:26Z</time>
      </trkpt>
      <trkpt lat="43.59908" lon="3.35775">
        <ele>483.2</ele>
        <time>2017-03-26T07:55:29Z</time>
      </trkpt>
      <trkpt lat="43.59914" lon="3.35786">
        <ele>482.7</ele>
        <time>2017-03-26T07:55:32Z</time>
      </trkpt>
      <trkpt lat="43.5992" lon="3.35793">
        <ele>482.1</ele>
        <time>2017-03-26T07:55:35Z</time>
      </trkpt>
      <trkpt lat="43.59926" lon="3.358">
        <ele>480.8</ele>
        <time>2017-03-26T07:55:42Z</time>
      </trkpt>
      <trkpt lat="43.59928" lon="3.35812">
        <ele>479.9</ele>
        <time>2017-03-26T07:55:47Z</time>
      </trkpt>
      <trkpt lat="43.59931" lon="3.35823">
        <ele>479.1</ele>
        <time>2017-03-26T07:55:50Z</time>
      </trkpt>
      <trkpt lat="43.59935" lon="3.35834">
        <ele>478.2</ele>
        <time>2017-03-26T07:55:53Z</time>
      </trkpt>
      <trkpt lat="43.59936" lon="3.35845">
        <ele>477.1</ele>
        <time>2017-03-26T07:55:56Z</time>
      </trkpt>
      <trkpt lat="43.59939" lon="3.35856">
        <ele>475.6</ele>
        <time>2017-03-26T07:56:00Z</time>
      </trkpt>
      <trkpt lat="43.59944" lon="3.35863">
        <ele>473.9</ele>
        <time>2017-03-26T07:56:04Z</time>
      </trkpt>
      <trkpt lat="43.5995" lon="3.35871">
        <ele>472.1</ele>
        <time>2017-03-26T07:56:08Z</time>
      </trkpt>
      <trkpt lat="43.59957" lon="3.35879">
        <ele>470.3</ele>
        <time>2017-03-26T07:56:12Z</time>
      </trkpt>
      <trkpt lat="43.5996" lon="3.35881">
        <ele>466.9</ele>
        <time>2017-03-26T07:56:19Z</time>
      </trkpt>
      <trkpt lat="43.59962" lon="3.35884">
        <ele>460.5</ele>
        <time>2017-03-26T07:56:48Z</time>
      </trkpt>
      <trkpt lat="43.59963" lon="3.35888">
        <ele>457.8</ele>
        <time>2017-03-26T07:56:55Z</time>
      </trkpt>
      <trkpt lat="43.59964" lon="3.35895">
        <ele>454.1</ele>
        <time>2017-03-26T07:57:06Z</time>
      </trkpt>
      <trkpt lat="43.59965" lon="3.35898">
        <ele>451.9</ele>
        <time>2017-03-26T07:57:13Z</time>
      </trkpt>
      <trkpt lat="43.59968" lon="3.35905">
        <ele>449.9</ele>
        <time>2017-03-26T07:57:20Z</time>
      </trkpt>
      <trkpt lat="43.59968" lon="3.35914">
        <ele>447.8</ele>
        <time>2017-03-26T07:57:27Z</time>
      </trkpt>
      <trkpt lat="43.5997" lon="3.35922">
        <ele>445.9</ele>
        <time>2017-03-26T07:57:34Z</time>
      </trkpt>
      <trkpt lat="43.59977" lon="3.3593">
        <ele>444.8</ele>
        <time>2017-03-26T07:57:38Z</time>
      </trkpt>
      <trkpt lat="43.59973" lon="3.3594">
        <ele>443</ele>
        <time>2017-03-26T07:57:44Z</time>
      </trkpt>
      <trkpt lat="43.59975" lon="3.35946">
        <ele>441</ele>
        <time>2017-03-26T07:57:51Z</time>
      </trkpt>
      <trkpt lat="43.59973" lon="3.35947">
        <ele>439.1</ele>
        <time>2017-03-26T07:58:16Z</time>
      </trkpt>
      <trkpt lat="43.59977" lon="3.3595">
        <ele>437.9</ele>
        <time>2017-03-26T07:58:23Z</time>
      </trkpt>
      <trkpt lat="43.59984" lon="3.35951">
        <ele>433</ele>
        <time>2017-03-26T08:00:21Z</time>
      </trkpt>
      <trkpt lat="43.59992" lon="3.35951">
        <ele>432.2</ele>
        <time>2017-03-26T08:00:26Z</time>
      </trkpt>
      <trkpt lat="43.59998" lon="3.35957">
        <ele>431.3</ele>
        <time>2017-03-26T08:00:32Z</time>
      </trkpt>
      <trkpt lat="43.60001" lon="3.35967">
        <ele>430.3</ele>
        <time>2017-03-26T08:00:37Z</time>
      </trkpt>
      <trkpt lat="43.60008" lon="3.35972">
        <ele>429.3</ele>
        <time>2017-03-26T08:00:42Z</time>
      </trkpt>
      <trkpt lat="43.60016" lon="3.35968">
        <ele>428.7</ele>
        <time>2017-03-26T08:00:45Z</time>
      </trkpt>
      <trkpt lat="43.60025" lon="3.35965">
        <ele>428</ele>
        <time>2017-03-26T08:00:48Z</time>
      </trkpt>
      <trkpt lat="43.60031" lon="3.3597">
        <ele>426.6</ele>
        <time>2017-03-26T08:00:53Z</time>
      </trkpt>
      <trkpt lat="43.60035" lon="3.35979">
        <ele>425.6</ele>
        <time>2017-03-26T08:00:56Z</time>
      </trkpt>
      <trkpt lat="43.60042" lon="3.3599">
        <ele>424.5</ele>
        <time>2017-03-26T08:00:59Z</time>
      </trkpt>
      <trkpt lat="43.60048" lon="3.35996">
        <ele>416</ele>
        <time>2017-03-26T08:01:01Z</time>
      </trkpt>
      <trkpt lat="43.60057" lon="3.36">
        <ele>415</ele>
        <time>2017-03-26T08:01:04Z</time>
      </trkpt>
      <trkpt lat="43.60066" lon="3.36004">
        <ele>413.8</ele>
        <time>2017-03-26T08:01:08Z</time>
      </trkpt>
      <trkpt lat="43.60073" lon="3.36008">
        <ele>407.4</ele>
        <time>2017-03-26T08:01:10Z</time>
      </trkpt>
      <trkpt lat="43.60081" lon="3.36012">
        <ele>401.8</ele>
        <time>2017-03-26T08:01:12Z</time>
      </trkpt>
      <trkpt lat="43.60089" lon="3.36016">
        <ele>397.4</ele>
        <time>2017-03-26T08:01:14Z</time>
      </trkpt>
      <trkpt lat="43.601" lon="3.3602">
        <ele>393.2</ele>
        <time>2017-03-26T08:01:16Z</time>
      </trkpt>
      <trkpt lat="43.60109" lon="3.36026">
        <ele>388.3</ele>
        <time>2017-03-26T08:01:18Z</time>
      </trkpt>
      <trkpt lat="43.60117" lon="3.36031">
        <ele>383.9</ele>
        <time>2017-03-26T08:01:20Z</time>
      </trkpt>
      <trkpt lat="43.60125" lon="3.3604">
        <ele>379.4</ele>
        <time>2017-03-26T08:01:22Z</time>
      </trkpt>
      <trkpt lat="43.60138" lon="3.36044">
        <ele>375.1</ele>
        <time>2017-03-26T08:01:24Z</time>
      </trkpt>
      <trkpt lat="43.60151" lon="3.36048">
        <ele>371.6</ele>
        <time>2017-03-26T08:01:26Z</time>
      </trkpt>
      <trkpt lat="43.60164" lon="3.36056">
        <ele>369.4</ele>
        <time>2017-03-26T08:01:28Z</time>
      </trkpt>
      <trkpt lat="43.60176" lon="3.36062">
        <ele>367.1</ele>
        <time>2017-03-26T08:01:30Z</time>
      </trkpt>
      <trkpt lat="43.60187" lon="3.36065">
        <ele>364.9</ele>
        <time>2017-03-26T08:01:32Z</time>
      </trkpt>
      <trkpt lat="43.60197" lon="3.36068">
        <ele>362.8</ele>
        <time>2017-03-26T08:01:34Z</time>
      </trkpt>
      <trkpt lat="43.60207" lon="3.36069">
        <ele>360.7</ele>
        <time>2017-03-26T08:01:36Z</time>
      </trkpt>
      <trkpt lat="43.60214" lon="3.36074">
        <ele>359.6</ele>
        <time>2017-03-26T08:01:38Z</time>
      </trkpt>
      <trkpt lat="43.60219" lon="3.36084">
        <ele>359.3</ele>
        <time>2017-03-26T08:01:41Z</time>
      </trkpt>
      <trkpt lat="43.60222" lon="3.36094">
        <ele>358.8</ele>
        <time>2017-03-26T08:01:44Z</time>
      </trkpt>
      <trkpt lat="43.60223" lon="3.36095">
        <ele>358.4</ele>
        <time>2017-03-26T08:01:51Z</time>
      </trkpt>
      <trkpt lat="43.60218" lon="3.36077">
        <ele>356.3</ele>
        <time>2017-03-26T08:02:19Z</time>
      </trkpt>
      <trkpt lat="43.60214" lon="3.36071">
        <ele>356.2</ele>
        <time>2017-03-26T08:02:26Z</time>
      </trkpt>
      <trkpt lat="43.60211" lon="3.36064">
        <ele>356.4</ele>
        <time>2017-03-26T08:02:33Z</time>
      </trkpt>
      <trkpt lat="43.60217" lon="3.36059">
        <ele>356.4</ele>
        <time>2017-03-26T08:02:39Z</time>
      </trkpt>
      <trkpt lat="43.60227" lon="3.36056">
        <ele>356.4</ele>
        <time>2017-03-26T08:02:42Z</time>
      </trkpt>
      <trkpt lat="43.60234" lon="3.36059">
        <ele>356.3</ele>
        <time>2017-03-26T08:02:44Z</time>
      </trkpt>
      <trkpt lat="43.60242" lon="3.36061">
        <ele>356</ele>
        <time>2017-03-26T08:02:46Z</time>
      </trkpt>
      <trkpt lat="43.60252" lon="3.36062">
        <ele>355.6</ele>
        <time>2017-03-26T08:02:49Z</time>
      </trkpt>
      <trkpt lat="43.6026" lon="3.36066">
        <ele>355.2</ele>
        <time>2017-03-26T08:02:52Z</time>
      </trkpt>
      <trkpt lat="43.60268" lon="3.36072">
        <ele>354.7</ele>
        <time>2017-03-26T08:02:55Z</time>
      </trkpt>
      <trkpt lat="43.60278" lon="3.36074">
        <ele>352.5</ele>
        <time>2017-03-26T08:02:58Z</time>
      </trkpt>
      <trkpt lat="43.60287" lon="3.36076">
        <ele>350.6</ele>
        <time>2017-03-26T08:03:00Z</time>
      </trkpt>
      <trkpt lat="43.60295" lon="3.36074">
        <ele>348.9</ele>
        <time>2017-03-26T08:03:02Z</time>
      </trkpt>
      <trkpt lat="43.60301" lon="3.36067">
        <ele>348.4</ele>
        <time>2017-03-26T08:03:04Z</time>
      </trkpt>
      <trkpt lat="43.60307" lon="3.3606">
        <ele>348.5</ele>
        <time>2017-03-26T08:03:07Z</time>
      </trkpt>
      <trkpt lat="43.60313" lon="3.36053">
        <ele>348.6</ele>
        <time>2017-03-26T08:03:10Z</time>
      </trkpt>
      <trkpt lat="43.60319" lon="3.36047">
        <ele>348.7</ele>
        <time>2017-03-26T08:03:13Z</time>
      </trkpt>
      <trkpt lat="43.60326" lon="3.3604">
        <ele>348.8</ele>
        <time>2017-03-26T08:03:17Z</time>
      </trkpt>
      <trkpt lat="43.60328" lon="3.36028">
        <ele>348.9</ele>
        <time>2017-03-26T08:03:21Z</time>
      </trkpt>
      <trkpt lat="43.60328" lon="3.36015">
        <ele>348.8</ele>
        <time>2017-03-26T08:03:25Z</time>
      </trkpt>
      <trkpt lat="43.60329" lon="3.36004">
        <ele>348.8</ele>
        <time>2017-03-26T08:03:28Z</time>
      </trkpt>
      <trkpt lat="43.60331" lon="3.35992">
        <ele>348.8</ele>
        <time>2017-03-26T08:03:31Z</time>
      </trkpt>
      <trkpt lat="43.60334" lon="3.3598">
        <ele>348.8</ele>
        <time>2017-03-26T08:03:34Z</time>
      </trkpt>
      <trkpt lat="43.60337" lon="3.3597">
        <ele>348.7</ele>
        <time>2017-03-26T08:03:37Z</time>
      </trkpt>
      <trkpt lat="43.60341" lon="3.35962">
        <ele>348.8</ele>
        <time>2017-03-26T08:03:40Z</time>
      </trkpt>
      <trkpt lat="43.60345" lon="3.35953">
        <ele>348.6</ele>
        <time>2017-03-26T08:03:44Z</time>
      </trkpt>
      <trkpt lat="43.60348" lon="3.35943">
        <ele>348.3</ele>
        <time>2017-03-26T08:03:48Z</time>
      </trkpt>
      <trkpt lat="43.60348" lon="3.35931">
        <ele>348.3</ele>
        <time>2017-03-26T08:03:53Z</time>
      </trkpt>
      <trkpt lat="43.60347" lon="3.35919">
        <ele>348.3</ele>
        <time>2017-03-26T08:03:58Z</time>
      </trkpt>
      <trkpt lat="43.60344" lon="3.35908">
        <ele>348.6</ele>
        <time>2017-03-26T08:04:03Z</time>
      </trkpt>
      <trkpt lat="43.6034" lon="3.35898">
        <ele>348.7</ele>
        <time>2017-03-26T08:04:07Z</time>
      </trkpt>
      <trkpt lat="43.60333" lon="3.3589">
        <ele>348.8</ele>
        <time>2017-03-26T08:04:11Z</time>
      </trkpt>
      <trkpt lat="43.60324" lon="3.35887">
        <ele>348.9</ele>
        <time>2017-03-26T08:04:15Z</time>
      </trkpt>
      <trkpt lat="43.60316" lon="3.35887">
        <ele>349</ele>
        <time>2017-03-26T08:04:18Z</time>
      </trkpt>
      <trkpt lat="43.60309" lon="3.35891">
        <ele>349.2</ele>
        <time>2017-03-26T08:04:21Z</time>
      </trkpt>
      <trkpt lat="43.603" lon="3.35894">
        <ele>349.3</ele>
        <time>2017-03-26T08:04:25Z</time>
      </trkpt>
      <trkpt lat="43.60292" lon="3.35896">
        <ele>349.4</ele>
        <time>2017-03-26T08:04:28Z</time>
      </trkpt>
      <trkpt lat="43.60283" lon="3.35897">
        <ele>349.3</ele>
        <time>2017-03-26T08:04:31Z</time>
      </trkpt>
      <trkpt lat="43.60274" lon="3.35898">
        <ele>349.2</ele>
        <time>2017-03-26T08:04:34Z</time>
      </trkpt>
      <trkpt lat="43.60266" lon="3.35897">
        <ele>349</ele>
        <time>2017-03-26T08:04:37Z</time>
      </trkpt>
      <trkpt lat="43.60259" lon="3.35897">
        <ele>348.7</ele>
        <time>2017-03-26T08:04:40Z</time>
      </trkpt>
      <trkpt lat="43.60251" lon="3.35897">
        <ele>348.5</ele>
        <time>2017-03-26T08:04:43Z</time>
      </trkpt>
      <trkpt lat="43.60244" lon="3.359">
        <ele>348.4</ele>
        <time>2017-03-26T08:04:46Z</time>
      </trkpt>
      <trkpt lat="43.60236" lon="3.35893">
        <ele>348.1</ele>
        <time>2017-03-26T08:04:50Z</time>
      </trkpt>
      <trkpt lat="43.60233" lon="3.35884">
        <ele>348</ele>
        <time>2017-03-26T08:04:54Z</time>
      </trkpt>
      <trkpt lat="43.60236" lon="3.35874">
        <ele>348</ele>
        <time>2017-03-26T08:04:57Z</time>
      </trkpt>
      <trkpt lat="43.60244" lon="3.35868">
        <ele>347.9</ele>
        <time>2017-03-26T08:05:01Z</time>
      </trkpt>
      <trkpt lat="43.60252" lon="3.35865">
        <ele>348.3</ele>
        <time>2017-03-26T08:05:04Z</time>
      </trkpt>
      <trkpt lat="43.6026" lon="3.35862">
        <ele>348.9</ele>
        <time>2017-03-26T08:05:07Z</time>
      </trkpt>
      <trkpt lat="43.60266" lon="3.35858">
        <ele>349.5</ele>
        <time>2017-03-26T08:05:10Z</time>
      </trkpt>
      <trkpt lat="43.60273" lon="3.35853">
        <ele>350.4</ele>
        <time>2017-03-26T08:05:14Z</time>
      </trkpt>
      <trkpt lat="43.60281" lon="3.35846">
        <ele>351.1</ele>
        <time>2017-03-26T08:05:18Z</time>
      </trkpt>
      <trkpt lat="43.60288" lon="3.35838">
        <ele>351.9</ele>
        <time>2017-03-26T08:05:22Z</time>
      </trkpt>
      <trkpt lat="43.60294" lon="3.3583">
        <ele>352.4</ele>
        <time>2017-03-26T08:05:25Z</time>
      </trkpt>
      <trkpt lat="43.603" lon="3.35822">
        <ele>352.9</ele>
        <time>2017-03-26T08:05:29Z</time>
      </trkpt>
      <trkpt lat="43.60306" lon="3.35815">
        <ele>353.3</ele>
        <time>2017-03-26T08:05:32Z</time>
      </trkpt>
      <trkpt lat="43.6031" lon="3.35806">
        <ele>354</ele>
        <time>2017-03-26T08:05:36Z</time>
      </trkpt>
      <trkpt lat="43.60314" lon="3.35798">
        <ele>354.5</ele>
        <time>2017-03-26T08:05:39Z</time>
      </trkpt>
      <trkpt lat="43.6032" lon="3.3579">
        <ele>355.2</ele>
        <time>2017-03-26T08:05:43Z</time>
      </trkpt>
      <trkpt lat="43.60326" lon="3.35783">
        <ele>355.9</ele>
        <time>2017-03-26T08:05:47Z</time>
      </trkpt>
      <trkpt lat="43.60332" lon="3.35775">
        <ele>356.6</ele>
        <time>2017-03-26T08:05:52Z</time>
      </trkpt>
      <trkpt lat="43.60338" lon="3.35766">
        <ele>357.1</ele>
        <time>2017-03-26T08:05:56Z</time>
      </trkpt>
      <trkpt lat="43.60344" lon="3.35757">
        <ele>357.2</ele>
        <time>2017-03-26T08:05:59Z</time>
      </trkpt>
      <trkpt lat="43.60349" lon="3.35749">
        <ele>356</ele>
        <time>2017-03-26T08:06:01Z</time>
      </trkpt>
      <trkpt lat="43.60354" lon="3.35738">
        <ele>355.2</ele>
        <time>2017-03-26T08:06:03Z</time>
      </trkpt>
      <trkpt lat="43.6036" lon="3.35726">
        <ele>352.9</ele>
        <time>2017-03-26T08:06:05Z</time>
      </trkpt>
      <trkpt lat="43.60366" lon="3.35712">
        <ele>352.3</ele>
        <time>2017-03-26T08:06:07Z</time>
      </trkpt>
      <trkpt lat="43.60369" lon="3.35698">
        <ele>352.8</ele>
        <time>2017-03-26T08:06:09Z</time>
      </trkpt>
      <trkpt lat="43.60373" lon="3.35683">
        <ele>353.9</ele>
        <time>2017-03-26T08:06:11Z</time>
      </trkpt>
      <trkpt lat="43.60376" lon="3.35668">
        <ele>354</ele>
        <time>2017-03-26T08:06:13Z</time>
      </trkpt>
      <trkpt lat="43.60378" lon="3.35655">
        <ele>354.3</ele>
        <time>2017-03-26T08:06:15Z</time>
      </trkpt>
      <trkpt lat="43.6038" lon="3.35641">
        <ele>353.7</ele>
        <time>2017-03-26T08:06:17Z</time>
      </trkpt>
      <trkpt lat="43.60381" lon="3.35628">
        <ele>353.7</ele>
        <time>2017-03-26T08:06:19Z</time>
      </trkpt>
      <trkpt lat="43.60382" lon="3.35616">
        <ele>353.8</ele>
        <time>2017-03-26T08:06:21Z</time>
      </trkpt>
      <trkpt lat="43.60381" lon="3.35603">
        <ele>353.9</ele>
        <time>2017-03-26T08:06:24Z</time>
      </trkpt>
      <trkpt lat="43.60379" lon="3.35592">
        <ele>354</ele>
        <time>2017-03-26T08:06:27Z</time>
      </trkpt>
      <trkpt lat="43.60376" lon="3.3558">
        <ele>354.2</ele>
        <time>2017-03-26T08:06:30Z</time>
      </trkpt>
      <trkpt lat="43.60371" lon="3.35571">
        <ele>354.3</ele>
        <time>2017-03-26T08:06:33Z</time>
      </trkpt>
      <trkpt lat="43.60364" lon="3.35563">
        <ele>354.4</ele>
        <time>2017-03-26T08:06:36Z</time>
      </trkpt>
      <trkpt lat="43.60356" lon="3.35558">
        <ele>354.6</ele>
        <time>2017-03-26T08:06:39Z</time>
      </trkpt>
      <trkpt lat="43.60348" lon="3.35555">
        <ele>354.6</ele>
        <time>2017-03-26T08:06:41Z</time>
      </trkpt>
      <trkpt lat="43.60339" lon="3.35553">
        <ele>354.7</ele>
        <time>2017-03-26T08:06:44Z</time>
      </trkpt>
      <trkpt lat="43.60329" lon="3.35552">
        <ele>355</ele>
        <time>2017-03-26T08:06:47Z</time>
      </trkpt>
      <trkpt lat="43.60321" lon="3.35549">
        <ele>355.3</ele>
        <time>2017-03-26T08:06:50Z</time>
      </trkpt>
      <trkpt lat="43.60313" lon="3.35548">
        <ele>355.5</ele>
        <time>2017-03-26T08:06:53Z</time>
      </trkpt>
      <trkpt lat="43.60304" lon="3.35547">
        <ele>355.9</ele>
        <time>2017-03-26T08:06:56Z</time>
      </trkpt>
      <trkpt lat="43.60293" lon="3.35545">
        <ele>356.4</ele>
        <time>2017-03-26T08:07:00Z</time>
      </trkpt>
      <trkpt lat="43.60284" lon="3.35545">
        <ele>356.9</ele>
        <time>2017-03-26T08:07:03Z</time>
      </trkpt>
      <trkpt lat="43.60275" lon="3.35545">
        <ele>357.4</ele>
        <time>2017-03-26T08:07:06Z</time>
      </trkpt>
      <trkpt lat="43.60265" lon="3.35545">
        <ele>357.9</ele>
        <time>2017-03-26T08:07:09Z</time>
      </trkpt>
      <trkpt lat="43.60257" lon="3.35545">
        <ele>358.5</ele>
        <time>2017-03-26T08:07:12Z</time>
      </trkpt>
      <trkpt lat="43.60249" lon="3.35543">
        <ele>358.9</ele>
        <time>2017-03-26T08:07:15Z</time>
      </trkpt>
      <trkpt lat="43.60242" lon="3.35541">
        <ele>359.3</ele>
        <time>2017-03-26T08:07:18Z</time>
      </trkpt>
      <trkpt lat="43.60234" lon="3.35532">
        <ele>359.4</ele>
        <time>2017-03-26T08:07:22Z</time>
      </trkpt>
      <trkpt lat="43.60232" lon="3.35522">
        <ele>359.6</ele>
        <time>2017-03-26T08:07:25Z</time>
      </trkpt>
      <trkpt lat="43.60231" lon="3.3551">
        <ele>360.1</ele>
        <time>2017-03-26T08:07:28Z</time>
      </trkpt>
      <trkpt lat="43.6023" lon="3.35498">
        <ele>360.6</ele>
        <time>2017-03-26T08:07:31Z</time>
      </trkpt>
      <trkpt lat="43.60228" lon="3.35487">
        <ele>361.1</ele>
        <time>2017-03-26T08:07:34Z</time>
      </trkpt>
      <trkpt lat="43.60224" lon="3.35476">
        <ele>361.7</ele>
        <time>2017-03-26T08:07:37Z</time>
      </trkpt>
      <trkpt lat="43.6022" lon="3.35464">
        <ele>362.2</ele>
        <time>2017-03-26T08:07:41Z</time>
      </trkpt>
      <trkpt lat="43.60214" lon="3.35455">
        <ele>362.4</ele>
        <time>2017-03-26T08:07:44Z</time>
      </trkpt>
      <trkpt lat="43.60208" lon="3.35447">
        <ele>362.5</ele>
        <time>2017-03-26T08:07:47Z</time>
      </trkpt>
      <trkpt lat="43.60202" lon="3.35441">
        <ele>362.6</ele>
        <time>2017-03-26T08:07:50Z</time>
      </trkpt>
      <trkpt lat="43.60194" lon="3.35435">
        <ele>362.8</ele>
        <time>2017-03-26T08:07:53Z</time>
      </trkpt>
      <trkpt lat="43.60186" lon="3.3543">
        <ele>362.9</ele>
        <time>2017-03-26T08:07:56Z</time>
      </trkpt>
      <trkpt lat="43.60178" lon="3.35426">
        <ele>363</ele>
        <time>2017-03-26T08:07:59Z</time>
      </trkpt>
      <trkpt lat="43.60169" lon="3.35421">
        <ele>363.2</ele>
        <time>2017-03-26T08:08:02Z</time>
      </trkpt>
      <trkpt lat="43.60162" lon="3.35417">
        <ele>363.6</ele>
        <time>2017-03-26T08:08:05Z</time>
      </trkpt>
      <trkpt lat="43.60153" lon="3.35412">
        <ele>363.8</ele>
        <time>2017-03-26T08:08:08Z</time>
      </trkpt>
      <trkpt lat="43.60145" lon="3.35407">
        <ele>364.2</ele>
        <time>2017-03-26T08:08:12Z</time>
      </trkpt>
      <trkpt lat="43.60137" lon="3.35399">
        <ele>364.4</ele>
        <time>2017-03-26T08:08:15Z</time>
      </trkpt>
      <trkpt lat="43.60131" lon="3.35394">
        <ele>364.9</ele>
        <time>2017-03-26T08:08:18Z</time>
      </trkpt>
      <trkpt lat="43.60121" lon="3.3539">
        <ele>365.9</ele>
        <time>2017-03-26T08:08:22Z</time>
      </trkpt>
      <trkpt lat="43.60114" lon="3.35389">
        <ele>366.5</ele>
        <time>2017-03-26T08:08:25Z</time>
      </trkpt>
      <trkpt lat="43.60106" lon="3.35388">
        <ele>367</ele>
        <time>2017-03-26T08:08:28Z</time>
      </trkpt>
      <trkpt lat="43.60097" lon="3.35388">
        <ele>367.5</ele>
        <time>2017-03-26T08:08:31Z</time>
      </trkpt>
      <trkpt lat="43.6009" lon="3.35385">
        <ele>368</ele>
        <time>2017-03-26T08:08:34Z</time>
      </trkpt>
      <trkpt lat="43.60084" lon="3.3538">
        <ele>368.7</ele>
        <time>2017-03-26T08:08:37Z</time>
      </trkpt>
      <trkpt lat="43.60079" lon="3.35369">
        <ele>369.5</ele>
        <time>2017-03-26T08:08:41Z</time>
      </trkpt>
      <trkpt lat="43.60079" lon="3.35356">
        <ele>370.1</ele>
        <time>2017-03-26T08:08:44Z</time>
      </trkpt>
      <trkpt lat="43.60084" lon="3.35345">
        <ele>370.7</ele>
        <time>2017-03-26T08:08:48Z</time>
      </trkpt>
      <trkpt lat="43.60087" lon="3.35336">
        <ele>370.9</ele>
        <time>2017-03-26T08:08:51Z</time>
      </trkpt>
      <trkpt lat="43.60091" lon="3.35326">
        <ele>371.4</ele>
        <time>2017-03-26T08:08:54Z</time>
      </trkpt>
      <trkpt lat="43.60095" lon="3.35317">
        <ele>371.8</ele>
        <time>2017-03-26T08:08:57Z</time>
      </trkpt>
      <trkpt lat="43.601" lon="3.35307">
        <ele>372.5</ele>
        <time>2017-03-26T08:09:01Z</time>
      </trkpt>
      <trkpt lat="43.60103" lon="3.35297">
        <ele>373.2</ele>
        <time>2017-03-26T08:09:04Z</time>
      </trkpt>
      <trkpt lat="43.60104" lon="3.35285">
        <ele>373.8</ele>
        <time>2017-03-26T08:09:08Z</time>
      </trkpt>
      <trkpt lat="43.60102" lon="3.35273">
        <ele>374.1</ele>
        <time>2017-03-26T08:09:12Z</time>
      </trkpt>
      <trkpt lat="43.60097" lon="3.35264">
        <ele>374.5</ele>
        <time>2017-03-26T08:09:15Z</time>
      </trkpt>
      <trkpt lat="43.60091" lon="3.35256">
        <ele>374.7</ele>
        <time>2017-03-26T08:09:18Z</time>
      </trkpt>
      <trkpt lat="43.60085" lon="3.3525">
        <ele>375.1</ele>
        <time>2017-03-26T08:09:21Z</time>
      </trkpt>
      <trkpt lat="43.6008" lon="3.35242">
        <ele>375.3</ele>
        <time>2017-03-26T08:09:24Z</time>
      </trkpt>
      <trkpt lat="43.60075" lon="3.35233">
        <ele>375.7</ele>
        <time>2017-03-26T08:09:27Z</time>
      </trkpt>
      <trkpt lat="43.60071" lon="3.35222">
        <ele>376.2</ele>
        <time>2017-03-26T08:09:31Z</time>
      </trkpt>
      <trkpt lat="43.60069" lon="3.3521">
        <ele>376.8</ele>
        <time>2017-03-26T08:09:35Z</time>
      </trkpt>
      <trkpt lat="43.60065" lon="3.35198">
        <ele>377.4</ele>
        <time>2017-03-26T08:09:39Z</time>
      </trkpt>
      <trkpt lat="43.60062" lon="3.35186">
        <ele>378.1</ele>
        <time>2017-03-26T08:09:43Z</time>
      </trkpt>
      <trkpt lat="43.60058" lon="3.35178">
        <ele>378.6</ele>
        <time>2017-03-26T08:09:46Z</time>
      </trkpt>
      <trkpt lat="43.60052" lon="3.35167">
        <ele>379.3</ele>
        <time>2017-03-26T08:09:50Z</time>
      </trkpt>
      <trkpt lat="43.60047" lon="3.35159">
        <ele>379.7</ele>
        <time>2017-03-26T08:09:53Z</time>
      </trkpt>
      <trkpt lat="43.60041" lon="3.35151">
        <ele>380.2</ele>
        <time>2017-03-26T08:09:57Z</time>
      </trkpt>
      <trkpt lat="43.60034" lon="3.35145">
        <ele>380.4</ele>
        <time>2017-03-26T08:10:00Z</time>
      </trkpt>
      <trkpt lat="43.60027" lon="3.3514">
        <ele>380.6</ele>
        <time>2017-03-26T08:10:03Z</time>
      </trkpt>
      <trkpt lat="43.60016" lon="3.35139">
        <ele>380.9</ele>
        <time>2017-03-26T08:10:06Z</time>
      </trkpt>
      <trkpt lat="43.60008" lon="3.35142">
        <ele>381.2</ele>
        <time>2017-03-26T08:10:09Z</time>
      </trkpt>
      <trkpt lat="43.60001" lon="3.35148">
        <ele>381.8</ele>
        <time>2017-03-26T08:10:13Z</time>
      </trkpt>
      <trkpt lat="43.59994" lon="3.35155">
        <ele>382.6</ele>
        <time>2017-03-26T08:10:18Z</time>
      </trkpt>
      <trkpt lat="43.59987" lon="3.35161">
        <ele>383.3</ele>
        <time>2017-03-26T08:10:22Z</time>
      </trkpt>
      <trkpt lat="43.5998" lon="3.35167">
        <ele>384</ele>
        <time>2017-03-26T08:10:26Z</time>
      </trkpt>
      <trkpt lat="43.59974" lon="3.35174">
        <ele>384.9</ele>
        <time>2017-03-26T08:10:30Z</time>
      </trkpt>
      <trkpt lat="43.59967" lon="3.3518">
        <ele>385.8</ele>
        <time>2017-03-26T08:10:34Z</time>
      </trkpt>
      <trkpt lat="43.59961" lon="3.35186">
        <ele>386.6</ele>
        <time>2017-03-26T08:10:38Z</time>
      </trkpt>
      <trkpt lat="43.59954" lon="3.35193">
        <ele>387.5</ele>
        <time>2017-03-26T08:10:42Z</time>
      </trkpt>
      <trkpt lat="43.59947" lon="3.35199">
        <ele>388.3</ele>
        <time>2017-03-26T08:10:46Z</time>
      </trkpt>
      <trkpt lat="43.59939" lon="3.35205">
        <ele>389.1</ele>
        <time>2017-03-26T08:10:50Z</time>
      </trkpt>
      <trkpt lat="43.59931" lon="3.3521">
        <ele>390</ele>
        <time>2017-03-26T08:10:54Z</time>
      </trkpt>
      <trkpt lat="43.59923" lon="3.35216">
        <ele>390.9</ele>
        <time>2017-03-26T08:10:58Z</time>
      </trkpt>
      <trkpt lat="43.59916" lon="3.35222">
        <ele>391.9</ele>
        <time>2017-03-26T08:11:03Z</time>
      </trkpt>
      <trkpt lat="43.59908" lon="3.35226">
        <ele>392.6</ele>
        <time>2017-03-26T08:11:07Z</time>
      </trkpt>
      <trkpt lat="43.59899" lon="3.35228">
        <ele>393.4</ele>
        <time>2017-03-26T08:11:11Z</time>
      </trkpt>
      <trkpt lat="43.5989" lon="3.35228">
        <ele>394.2</ele>
        <time>2017-03-26T08:11:15Z</time>
      </trkpt>
      <trkpt lat="43.59882" lon="3.35228">
        <ele>394.9</ele>
        <time>2017-03-26T08:11:18Z</time>
      </trkpt>
      <trkpt lat="43.59875" lon="3.35229">
        <ele>395.5</ele>
        <time>2017-03-26T08:11:21Z</time>
      </trkpt>
      <trkpt lat="43.59867" lon="3.35234">
        <ele>396.3</ele>
        <time>2017-03-26T08:11:25Z</time>
      </trkpt>
      <trkpt lat="43.59861" lon="3.35237">
        <ele>396.7</ele>
        <time>2017-03-26T08:11:28Z</time>
      </trkpt>
      <trkpt lat="43.59851" lon="3.35238">
        <ele>397.2</ele>
        <time>2017-03-26T08:11:32Z</time>
      </trkpt>
      <trkpt lat="43.59844" lon="3.35236">
        <ele>397.6</ele>
        <time>2017-03-26T08:11:35Z</time>
      </trkpt>
      <trkpt lat="43.59837" lon="3.35229">
        <ele>398.3</ele>
        <time>2017-03-26T08:11:38Z</time>
      </trkpt>
      <trkpt lat="43.59832" lon="3.35221">
        <ele>398.9</ele>
        <time>2017-03-26T08:11:41Z</time>
      </trkpt>
      <trkpt lat="43.59828" lon="3.35213">
        <ele>399.7</ele>
        <time>2017-03-26T08:11:45Z</time>
      </trkpt>
      <trkpt lat="43.5982" lon="3.35205">
        <ele>400.1</ele>
        <time>2017-03-26T08:11:49Z</time>
      </trkpt>
      <trkpt lat="43.59812" lon="3.35198">
        <ele>400.4</ele>
        <time>2017-03-26T08:11:53Z</time>
      </trkpt>
      <trkpt lat="43.59804" lon="3.35193">
        <ele>401</ele>
        <time>2017-03-26T08:11:57Z</time>
      </trkpt>
      <trkpt lat="43.59797" lon="3.3519">
        <ele>401.4</ele>
        <time>2017-03-26T08:12:00Z</time>
      </trkpt>
      <trkpt lat="43.59788" lon="3.35189">
        <ele>402.1</ele>
        <time>2017-03-26T08:12:04Z</time>
      </trkpt>
      <trkpt lat="43.5978" lon="3.35189">
        <ele>402.6</ele>
        <time>2017-03-26T08:12:07Z</time>
      </trkpt>
      <trkpt lat="43.5977" lon="3.35189">
        <ele>403.3</ele>
        <time>2017-03-26T08:12:11Z</time>
      </trkpt>
      <trkpt lat="43.59761" lon="3.35189">
        <ele>404</ele>
        <time>2017-03-26T08:12:15Z</time>
      </trkpt>
      <trkpt lat="43.59754" lon="3.3519">
        <ele>404.7</ele>
        <time>2017-03-26T08:12:18Z</time>
      </trkpt>
      <trkpt lat="43.59747" lon="3.3519">
        <ele>405.3</ele>
        <time>2017-03-26T08:12:21Z</time>
      </trkpt>
      <trkpt lat="43.5974" lon="3.35183">
        <ele>408.1</ele>
        <time>2017-03-26T08:12:25Z</time>
      </trkpt>
      <trkpt lat="43.59734" lon="3.35174">
        <ele>410.6</ele>
        <time>2017-03-26T08:12:27Z</time>
      </trkpt>
      <trkpt lat="43.59727" lon="3.35162">
        <ele>412.3</ele>
        <time>2017-03-26T08:12:29Z</time>
      </trkpt>
      <trkpt lat="43.59719" lon="3.35152">
        <ele>413.1</ele>
        <time>2017-03-26T08:12:31Z</time>
      </trkpt>
      <trkpt lat="43.59714" lon="3.35141">
        <ele>413.1</ele>
        <time>2017-03-26T08:12:34Z</time>
      </trkpt>
      <trkpt lat="43.59711" lon="3.35131">
        <ele>413.2</ele>
        <time>2017-03-26T08:12:38Z</time>
      </trkpt>
      <trkpt lat="43.59708" lon="3.35121">
        <ele>413.3</ele>
        <time>2017-03-26T08:12:42Z</time>
      </trkpt>
      <trkpt lat="43.59703" lon="3.35121">
        <ele>413.5</ele>
        <time>2017-03-26T08:12:49Z</time>
      </trkpt>
      <trkpt lat="43.59708" lon="3.3512">
        <ele>413.8</ele>
        <time>2017-03-26T08:13:06Z</time>
      </trkpt>
      <trkpt lat="43.59711" lon="3.35121">
        <ele>413.6</ele>
        <time>2017-03-26T08:13:13Z</time>
      </trkpt>
      <trkpt lat="43.5971" lon="3.35119">
        <ele>413.4</ele>
        <time>2017-03-26T08:13:25Z</time>
      </trkpt>
      <trkpt lat="43.59708" lon="3.35118">
        <ele>412.8</ele>
        <time>2017-03-26T08:13:32Z</time>
      </trkpt>
      <trkpt lat="43.59707" lon="3.35107">
        <ele>412.3</ele>
        <time>2017-03-26T08:13:39Z</time>
      </trkpt>
      <trkpt lat="43.59707" lon="3.35096">
        <ele>411.9</ele>
        <time>2017-03-26T08:13:43Z</time>
      </trkpt>
      <trkpt lat="43.59707" lon="3.35085">
        <ele>411.5</ele>
        <time>2017-03-26T08:13:47Z</time>
      </trkpt>
      <trkpt lat="43.59705" lon="3.35075">
        <ele>411.1</ele>
        <time>2017-03-26T08:13:49Z</time>
      </trkpt>
      <trkpt lat="43.59704" lon="3.35061">
        <ele>409.8</ele>
        <time>2017-03-26T08:13:51Z</time>
      </trkpt>
      <trkpt lat="43.59704" lon="3.35045">
        <ele>407.4</ele>
        <time>2017-03-26T08:13:53Z</time>
      </trkpt>
      <trkpt lat="43.59702" lon="3.35027">
        <ele>405.6</ele>
        <time>2017-03-26T08:13:55Z</time>
      </trkpt>
      <trkpt lat="43.59699" lon="3.35016">
        <ele>404.6</ele>
        <time>2017-03-26T08:13:56Z</time>
      </trkpt>
      <trkpt lat="43.59697" lon="3.35006">
        <ele>404</ele>
        <time>2017-03-26T08:13:57Z</time>
      </trkpt>
      <trkpt lat="43.59696" lon="3.34986">
        <ele>403.7</ele>
        <time>2017-03-26T08:13:59Z</time>
      </trkpt>
      <trkpt lat="43.59695" lon="3.34976">
        <ele>403.3</ele>
        <time>2017-03-26T08:14:00Z</time>
      </trkpt>
      <trkpt lat="43.59693" lon="3.34965">
        <ele>402.6</ele>
        <time>2017-03-26T08:14:01Z</time>
      </trkpt>
      <trkpt lat="43.59695" lon="3.3495">
        <ele>401.6</ele>
        <time>2017-03-26T08:14:03Z</time>
      </trkpt>
      <trkpt lat="43.59698" lon="3.34938">
        <ele>400.1</ele>
        <time>2017-03-26T08:14:07Z</time>
      </trkpt>
      <trkpt lat="43.59697" lon="3.34927">
        <ele>398.2</ele>
        <time>2017-03-26T08:14:09Z</time>
      </trkpt>
      <trkpt lat="43.59693" lon="3.34917">
        <ele>396.9</ele>
        <time>2017-03-26T08:14:11Z</time>
      </trkpt>
      <trkpt lat="43.5969" lon="3.34908">
        <ele>396.2</ele>
        <time>2017-03-26T08:14:13Z</time>
      </trkpt>
      <trkpt lat="43.59686" lon="3.34896">
        <ele>395.4</ele>
        <time>2017-03-26T08:14:15Z</time>
      </trkpt>
      <trkpt lat="43.59684" lon="3.34887">
        <ele>394.4</ele>
        <time>2017-03-26T08:14:17Z</time>
      </trkpt>
      <trkpt lat="43.59679" lon="3.34878">
        <ele>393.6</ele>
        <time>2017-03-26T08:14:19Z</time>
      </trkpt>
      <trkpt lat="43.59674" lon="3.34869">
        <ele>393.4</ele>
        <time>2017-03-26T08:14:22Z</time>
      </trkpt>
      <trkpt lat="43.59668" lon="3.34863">
        <ele>393.5</ele>
        <time>2017-03-26T08:14:26Z</time>
      </trkpt>
      <trkpt lat="43.59662" lon="3.34852">
        <ele>393.8</ele>
        <time>2017-03-26T08:14:30Z</time>
      </trkpt>
      <trkpt lat="43.59658" lon="3.34843">
        <ele>394</ele>
        <time>2017-03-26T08:14:34Z</time>
      </trkpt>
      <trkpt lat="43.59654" lon="3.34833">
        <ele>394.2</ele>
        <time>2017-03-26T08:14:38Z</time>
      </trkpt>
      <trkpt lat="43.59649" lon="3.34824">
        <ele>394.2</ele>
        <time>2017-03-26T08:14:42Z</time>
      </trkpt>
      <trkpt lat="43.59643" lon="3.34819">
        <ele>394.3</ele>
        <time>2017-03-26T08:14:46Z</time>
      </trkpt>
      <trkpt lat="43.59637" lon="3.34813">
        <ele>394.8</ele>
        <time>2017-03-26T08:14:50Z</time>
      </trkpt>
      <trkpt lat="43.59633" lon="3.34803">
        <ele>395.4</ele>
        <time>2017-03-26T08:14:54Z</time>
      </trkpt>
      <trkpt lat="43.5963" lon="3.34793">
        <ele>396</ele>
        <time>2017-03-26T08:14:58Z</time>
      </trkpt>
      <trkpt lat="43.59626" lon="3.34781">
        <ele>396.5</ele>
        <time>2017-03-26T08:15:02Z</time>
      </trkpt>
      <trkpt lat="43.59624" lon="3.34772">
        <ele>397</ele>
        <time>2017-03-26T08:15:07Z</time>
      </trkpt>
      <trkpt lat="43.59621" lon="3.34761">
        <ele>397.4</ele>
        <time>2017-03-26T08:15:12Z</time>
      </trkpt>
      <trkpt lat="43.5962" lon="3.34751">
        <ele>397.9</ele>
        <time>2017-03-26T08:15:16Z</time>
      </trkpt>
      <trkpt lat="43.59619" lon="3.34741">
        <ele>398.2</ele>
        <time>2017-03-26T08:15:20Z</time>
      </trkpt>
      <trkpt lat="43.59618" lon="3.3473">
        <ele>398.4</ele>
        <time>2017-03-26T08:15:25Z</time>
      </trkpt>
      <trkpt lat="43.59615" lon="3.34719">
        <ele>398.9</ele>
        <time>2017-03-26T08:15:30Z</time>
      </trkpt>
      <trkpt lat="43.59613" lon="3.34709">
        <ele>399.5</ele>
        <time>2017-03-26T08:15:34Z</time>
      </trkpt>
      <trkpt lat="43.59611" lon="3.34698">
        <ele>400.4</ele>
        <time>2017-03-26T08:15:40Z</time>
      </trkpt>
      <trkpt lat="43.59608" lon="3.34687">
        <ele>401.1</ele>
        <time>2017-03-26T08:15:45Z</time>
      </trkpt>
      <trkpt lat="43.59605" lon="3.34677">
        <ele>402</ele>
        <time>2017-03-26T08:15:50Z</time>
      </trkpt>
      <trkpt lat="43.59601" lon="3.34665">
        <ele>402.9</ele>
        <time>2017-03-26T08:15:55Z</time>
      </trkpt>
      <trkpt lat="43.59597" lon="3.34657">
        <ele>404.3</ele>
        <time>2017-03-26T08:16:01Z</time>
      </trkpt>
      <trkpt lat="43.59593" lon="3.34648">
        <ele>405.2</ele>
        <time>2017-03-26T08:16:06Z</time>
      </trkpt>
      <trkpt lat="43.59589" lon="3.34637">
        <ele>406.3</ele>
        <time>2017-03-26T08:16:12Z</time>
      </trkpt>
      <trkpt lat="43.59586" lon="3.34627">
        <ele>407.1</ele>
        <time>2017-03-26T08:16:17Z</time>
      </trkpt>
      <trkpt lat="43.59581" lon="3.34618">
        <ele>408.7</ele>
        <time>2017-03-26T08:16:24Z</time>
      </trkpt>
      <trkpt lat="43.59577" lon="3.34608">
        <ele>410.2</ele>
        <time>2017-03-26T08:16:30Z</time>
      </trkpt>
      <trkpt lat="43.59575" lon="3.34597">
        <ele>411.1</ele>
        <time>2017-03-26T08:16:36Z</time>
      </trkpt>
      <trkpt lat="43.59571" lon="3.34586">
        <ele>411.9</ele>
        <time>2017-03-26T08:16:41Z</time>
      </trkpt>
      <trkpt lat="43.5957" lon="3.34573">
        <ele>412.5</ele>
        <time>2017-03-26T08:16:44Z</time>
      </trkpt>
      <trkpt lat="43.59568" lon="3.34563">
        <ele>413.7</ele>
        <time>2017-03-26T08:16:46Z</time>
      </trkpt>
      <trkpt lat="43.59564" lon="3.34553">
        <ele>414.4</ele>
        <time>2017-03-26T08:16:48Z</time>
      </trkpt>
      <trkpt lat="43.5956" lon="3.34543">
        <ele>414.9</ele>
        <time>2017-03-26T08:16:50Z</time>
      </trkpt>
      <trkpt lat="43.59555" lon="3.34534">
        <ele>415.7</ele>
        <time>2017-03-26T08:16:52Z</time>
      </trkpt>
      <trkpt lat="43.5955" lon="3.34523">
        <ele>416.1</ele>
        <time>2017-03-26T08:16:54Z</time>
      </trkpt>
      <trkpt lat="43.59544" lon="3.34514">
        <ele>416.5</ele>
        <time>2017-03-26T08:16:56Z</time>
      </trkpt>
      <trkpt lat="43.59538" lon="3.34504">
        <ele>416.6</ele>
        <time>2017-03-26T08:16:58Z</time>
      </trkpt>
      <trkpt lat="43.59532" lon="3.34494">
        <ele>415.9</ele>
        <time>2017-03-26T08:17:00Z</time>
      </trkpt>
      <trkpt lat="43.59525" lon="3.34484">
        <ele>415.4</ele>
        <time>2017-03-26T08:17:02Z</time>
      </trkpt>
      <trkpt lat="43.59518" lon="3.34475">
        <ele>415.6</ele>
        <time>2017-03-26T08:17:04Z</time>
      </trkpt>
      <trkpt lat="43.59512" lon="3.34467">
        <ele>416</ele>
        <time>2017-03-26T08:17:06Z</time>
      </trkpt>
      <trkpt lat="43.59509" lon="3.34459">
        <ele>416</ele>
        <time>2017-03-26T08:17:09Z</time>
      </trkpt>
      <trkpt lat="43.59503" lon="3.3445">
        <ele>416.1</ele>
        <time>2017-03-26T08:17:12Z</time>
      </trkpt>
      <trkpt lat="43.59497" lon="3.3444">
        <ele>416.1</ele>
        <time>2017-03-26T08:17:16Z</time>
      </trkpt>
      <trkpt lat="43.59491" lon="3.34431">
        <ele>416.1</ele>
        <time>2017-03-26T08:17:20Z</time>
      </trkpt>
      <trkpt lat="43.59485" lon="3.34426">
        <ele>416.1</ele>
        <time>2017-03-26T08:17:23Z</time>
      </trkpt>
      <trkpt lat="43.59478" lon="3.34418">
        <ele>416.1</ele>
        <time>2017-03-26T08:17:27Z</time>
      </trkpt>
      <trkpt lat="43.59473" lon="3.3441">
        <ele>416.4</ele>
        <time>2017-03-26T08:17:31Z</time>
      </trkpt>
      <trkpt lat="43.5947" lon="3.34401">
        <ele>416.7</ele>
        <time>2017-03-26T08:17:34Z</time>
      </trkpt>
      <trkpt lat="43.59465" lon="3.34391">
        <ele>417.3</ele>
        <time>2017-03-26T08:17:39Z</time>
      </trkpt>
      <trkpt lat="43.59461" lon="3.34382">
        <ele>417.7</ele>
        <time>2017-03-26T08:17:43Z</time>
      </trkpt>
      <trkpt lat="43.59458" lon="3.34372">
        <ele>418</ele>
        <time>2017-03-26T08:17:47Z</time>
      </trkpt>
      <trkpt lat="43.59454" lon="3.34362">
        <ele>418.6</ele>
        <time>2017-03-26T08:17:52Z</time>
      </trkpt>
      <trkpt lat="43.59452" lon="3.34352">
        <ele>419.2</ele>
        <time>2017-03-26T08:17:57Z</time>
      </trkpt>
      <trkpt lat="43.59446" lon="3.34343">
        <ele>419.6</ele>
        <time>2017-03-26T08:18:02Z</time>
      </trkpt>
      <trkpt lat="43.5944" lon="3.34338">
        <ele>420.5</ele>
        <time>2017-03-26T08:18:07Z</time>
      </trkpt>
      <trkpt lat="43.59435" lon="3.34329">
        <ele>421.3</ele>
        <time>2017-03-26T08:18:12Z</time>
      </trkpt>
      <trkpt lat="43.59431" lon="3.3432">
        <ele>421.7</ele>
        <time>2017-03-26T08:18:17Z</time>
      </trkpt>
      <trkpt lat="43.59427" lon="3.34311">
        <ele>422.1</ele>
        <time>2017-03-26T08:18:22Z</time>
      </trkpt>
      <trkpt lat="43.59423" lon="3.343">
        <ele>423.1</ele>
        <time>2017-03-26T08:18:28Z</time>
      </trkpt>
      <trkpt lat="43.5942" lon="3.34291">
        <ele>423.8</ele>
        <time>2017-03-26T08:18:33Z</time>
      </trkpt>
      <trkpt lat="43.59418" lon="3.34279">
        <ele>424.4</ele>
        <time>2017-03-26T08:18:37Z</time>
      </trkpt>
      <trkpt lat="43.59418" lon="3.34271">
        <ele>425</ele>
        <time>2017-03-26T08:18:44Z</time>
      </trkpt>
      <trkpt lat="43.59418" lon="3.34275">
        <ele>427.1</ele>
        <time>2017-03-26T08:20:07Z</time>
      </trkpt>
      <trkpt lat="43.59417" lon="3.34272">
        <ele>428.2</ele>
        <time>2017-03-26T08:20:35Z</time>
      </trkpt>
      <trkpt lat="43.59416" lon="3.3426">
        <ele>428.3</ele>
        <time>2017-03-26T08:20:38Z</time>
      </trkpt>
      <trkpt lat="43.59415" lon="3.34246">
        <ele>427.9</ele>
        <time>2017-03-26T08:20:40Z</time>
      </trkpt>
      <trkpt lat="43.59414" lon="3.34229">
        <ele>427.3</ele>
        <time>2017-03-26T08:20:42Z</time>
      </trkpt>
      <trkpt lat="43.59415" lon="3.34213">
        <ele>425.1</ele>
        <time>2017-03-26T08:20:44Z</time>
      </trkpt>
      <trkpt lat="43.59416" lon="3.34201">
        <ele>424.6</ele>
        <time>2017-03-26T08:20:48Z</time>
      </trkpt>
      <trkpt lat="43.59419" lon="3.3419">
        <ele>424.2</ele>
        <time>2017-03-26T08:20:51Z</time>
      </trkpt>
      <trkpt lat="43.59424" lon="3.3418">
        <ele>423.6</ele>
        <time>2017-03-26T08:20:54Z</time>
      </trkpt>
      <trkpt lat="43.59429" lon="3.34171">
        <ele>422.8</ele>
        <time>2017-03-26T08:20:57Z</time>
      </trkpt>
      <trkpt lat="43.59434" lon="3.34163">
        <ele>422.1</ele>
        <time>2017-03-26T08:21:00Z</time>
      </trkpt>
      <trkpt lat="43.59437" lon="3.34154">
        <ele>420.5</ele>
        <time>2017-03-26T08:21:05Z</time>
      </trkpt>
      <trkpt lat="43.59441" lon="3.34143">
        <ele>419.6</ele>
        <time>2017-03-26T08:21:08Z</time>
      </trkpt>
      <trkpt lat="43.59441" lon="3.34132">
        <ele>418.5</ele>
        <time>2017-03-26T08:21:11Z</time>
      </trkpt>
      <trkpt lat="43.59447" lon="3.34123">
        <ele>416.9</ele>
        <time>2017-03-26T08:21:15Z</time>
      </trkpt>
      <trkpt lat="43.59451" lon="3.34114">
        <ele>415.6</ele>
        <time>2017-03-26T08:21:18Z</time>
      </trkpt>
      <trkpt lat="43.59456" lon="3.34104">
        <ele>414.3</ele>
        <time>2017-03-26T08:21:21Z</time>
      </trkpt>
      <trkpt lat="43.59463" lon="3.34096">
        <ele>412.3</ele>
        <time>2017-03-26T08:21:25Z</time>
      </trkpt>
      <trkpt lat="43.5947" lon="3.34091">
        <ele>410.2</ele>
        <time>2017-03-26T08:21:29Z</time>
      </trkpt>
      <trkpt lat="43.59473" lon="3.3408">
        <ele>406.9</ele>
        <time>2017-03-26T08:21:35Z</time>
      </trkpt>
      <trkpt lat="43.59474" lon="3.3407">
        <ele>405.2</ele>
        <time>2017-03-26T08:21:38Z</time>
      </trkpt>
      <trkpt lat="43.59477" lon="3.3406">
        <ele>403.6</ele>
        <time>2017-03-26T08:21:41Z</time>
      </trkpt>
      <trkpt lat="43.59477" lon="3.34049">
        <ele>401.8</ele>
        <time>2017-03-26T08:21:44Z</time>
      </trkpt>
      <trkpt lat="43.59474" lon="3.34037">
        <ele>400.2</ele>
        <time>2017-03-26T08:21:47Z</time>
      </trkpt>
      <trkpt lat="43.59479" lon="3.34027">
        <ele>397.9</ele>
        <time>2017-03-26T08:21:51Z</time>
      </trkpt>
      <trkpt lat="43.59481" lon="3.34017">
        <ele>396.7</ele>
        <time>2017-03-26T08:21:53Z</time>
      </trkpt>
      <trkpt lat="43.59483" lon="3.34006">
        <ele>395</ele>
        <time>2017-03-26T08:21:56Z</time>
      </trkpt>
      <trkpt lat="43.59486" lon="3.33993">
        <ele>393.2</ele>
        <time>2017-03-26T08:21:59Z</time>
      </trkpt>
      <trkpt lat="43.59492" lon="3.33985">
        <ele>391.3</ele>
        <time>2017-03-26T08:22:02Z</time>
      </trkpt>
      <trkpt lat="43.59496" lon="3.33977">
        <ele>389.4</ele>
        <time>2017-03-26T08:22:05Z</time>
      </trkpt>
      <trkpt lat="43.595" lon="3.33965">
        <ele>387.4</ele>
        <time>2017-03-26T08:22:08Z</time>
      </trkpt>
      <trkpt lat="43.59504" lon="3.33953">
        <ele>385.5</ele>
        <time>2017-03-26T08:22:11Z</time>
      </trkpt>
      <trkpt lat="43.5951" lon="3.33944">
        <ele>383.3</ele>
        <time>2017-03-26T08:22:14Z</time>
      </trkpt>
      <trkpt lat="43.59509" lon="3.33932">
        <ele>380.4</ele>
        <time>2017-03-26T08:22:18Z</time>
      </trkpt>
      <trkpt lat="43.59505" lon="3.33919">
        <ele>377.3</ele>
        <time>2017-03-26T08:22:22Z</time>
      </trkpt>
      <trkpt lat="43.59503" lon="3.33909">
        <ele>374.3</ele>
        <time>2017-03-26T08:22:26Z</time>
      </trkpt>
      <trkpt lat="43.595" lon="3.33898">
        <ele>370.5</ele>
        <time>2017-03-26T08:22:31Z</time>
      </trkpt>
      <trkpt lat="43.59496" lon="3.33887">
        <ele>368.4</ele>
        <time>2017-03-26T08:22:34Z</time>
      </trkpt>
      <trkpt lat="43.59491" lon="3.33877">
        <ele>365.5</ele>
        <time>2017-03-26T08:22:38Z</time>
      </trkpt>
      <trkpt lat="43.5949" lon="3.33865">
        <ele>362.6</ele>
        <time>2017-03-26T08:22:42Z</time>
      </trkpt>
      <trkpt lat="43.59492" lon="3.33854">
        <ele>360.3</ele>
        <time>2017-03-26T08:22:45Z</time>
      </trkpt>
      <trkpt lat="43.59493" lon="3.33841">
        <ele>352</ele>
        <time>2017-03-26T08:22:48Z</time>
      </trkpt>
      <trkpt lat="43.59492" lon="3.3383">
        <ele>345.7</ele>
        <time>2017-03-26T08:22:50Z</time>
      </trkpt>
      <trkpt lat="43.59494" lon="3.3382">
        <ele>344.6</ele>
        <time>2017-03-26T08:22:52Z</time>
      </trkpt>
      <trkpt lat="43.59493" lon="3.33808">
        <ele>341.7</ele>
        <time>2017-03-26T08:22:57Z</time>
      </trkpt>
      <trkpt lat="43.59488" lon="3.338">
        <ele>339.9</ele>
        <time>2017-03-26T08:23:00Z</time>
      </trkpt>
      <trkpt lat="43.59487" lon="3.33789">
        <ele>336.6</ele>
        <time>2017-03-26T08:23:05Z</time>
      </trkpt>
      <trkpt lat="43.59485" lon="3.33779">
        <ele>334.6</ele>
        <time>2017-03-26T08:23:08Z</time>
      </trkpt>
      <trkpt lat="43.59484" lon="3.33766">
        <ele>332</ele>
        <time>2017-03-26T08:23:12Z</time>
      </trkpt>
      <trkpt lat="43.59489" lon="3.33756">
        <ele>329.3</ele>
        <time>2017-03-26T08:23:16Z</time>
      </trkpt>
      <trkpt lat="43.59496" lon="3.3375">
        <ele>327</ele>
        <time>2017-03-26T08:23:19Z</time>
      </trkpt>
      <trkpt lat="43.59496" lon="3.33739">
        <ele>322.8</ele>
        <time>2017-03-26T08:23:25Z</time>
      </trkpt>
      <trkpt lat="43.595" lon="3.33728">
        <ele>319.8</ele>
        <time>2017-03-26T08:23:29Z</time>
      </trkpt>
      <trkpt lat="43.59498" lon="3.33715">
        <ele>316.7</ele>
        <time>2017-03-26T08:23:33Z</time>
      </trkpt>
      <trkpt lat="43.59505" lon="3.33712">
        <ele>313.2</ele>
        <time>2017-03-26T08:23:38Z</time>
      </trkpt>
      <trkpt lat="43.59511" lon="3.33703">
        <ele>310.2</ele>
        <time>2017-03-26T08:23:42Z</time>
      </trkpt>
      <trkpt lat="43.59515" lon="3.33693">
        <ele>307.7</ele>
        <time>2017-03-26T08:23:45Z</time>
      </trkpt>
      <trkpt lat="43.59522" lon="3.33691">
        <ele>305.4</ele>
        <time>2017-03-26T08:23:48Z</time>
      </trkpt>
      <trkpt lat="43.59531" lon="3.33694">
        <ele>303.1</ele>
        <time>2017-03-26T08:23:51Z</time>
      </trkpt>
      <trkpt lat="43.59535" lon="3.33685">
        <ele>295.3</ele>
        <time>2017-03-26T08:24:05Z</time>
      </trkpt>
      <trkpt lat="43.5954" lon="3.33689">
        <ele>290</ele>
        <time>2017-03-26T08:24:19Z</time>
      </trkpt>
      <trkpt lat="43.59541" lon="3.33693">
        <ele>285.9</ele>
        <time>2017-03-26T08:24:33Z</time>
      </trkpt>
      <trkpt lat="43.59537" lon="3.33695">
        <ele>283</ele>
        <time>2017-03-26T08:25:27Z</time>
      </trkpt>
      <trkpt lat="43.59534" lon="3.33695">
        <ele>282.6</ele>
        <time>2017-03-26T08:25:34Z</time>
      </trkpt>
      <trkpt lat="43.59536" lon="3.33693">
        <ele>276.9</ele>
        <time>2017-03-26T08:25:29Z</time>
      </trkpt>
      <trkpt lat="43.5953" lon="3.33683">
        <ele>272.7</ele>
        <time>2017-03-26T08:26:49Z</time>
      </trkpt>
      <trkpt lat="43.59527" lon="3.33677">
        <ele>271.3</ele>
        <time>2017-03-26T08:26:56Z</time>
      </trkpt>
      <trkpt lat="43.5952" lon="3.33675">
        <ele>270.3</ele>
        <time>2017-03-26T08:27:03Z</time>
      </trkpt>
      <trkpt lat="43.59512" lon="3.33676">
        <ele>269.6</ele>
        <time>2017-03-26T08:27:07Z</time>
      </trkpt>
      <trkpt lat="43.59505" lon="3.33684">
        <ele>269.1</ele>
        <time>2017-03-26T08:27:11Z</time>
      </trkpt>
      <trkpt lat="43.59498" lon="3.3369">
        <ele>268.5</ele>
        <time>2017-03-26T08:27:16Z</time>
      </trkpt>
      <trkpt lat="43.5949" lon="3.33695">
        <ele>267.6</ele>
        <time>2017-03-26T08:27:22Z</time>
      </trkpt>
      <trkpt lat="43.59484" lon="3.33702">
        <ele>267.3</ele>
        <time>2017-03-26T08:27:26Z</time>
      </trkpt>
      <trkpt lat="43.59477" lon="3.33708">
        <ele>267.2</ele>
        <time>2017-03-26T08:27:31Z</time>
      </trkpt>
      <trkpt lat="43.5947" lon="3.33715">
        <ele>267.5</ele>
        <time>2017-03-26T08:27:36Z</time>
      </trkpt>
      <trkpt lat="43.59463" lon="3.33721">
        <ele>267.9</ele>
        <time>2017-03-26T08:27:42Z</time>
      </trkpt>
      <trkpt lat="43.59456" lon="3.33727">
        <ele>268</ele>
        <time>2017-03-26T08:27:46Z</time>
      </trkpt>
      <trkpt lat="43.59447" lon="3.3373">
        <ele>268.1</ele>
        <time>2017-03-26T08:27:49Z</time>
      </trkpt>
      <trkpt lat="43.5944" lon="3.33738">
        <ele>268.1</ele>
        <time>2017-03-26T08:27:52Z</time>
      </trkpt>
      <trkpt lat="43.59434" lon="3.33746">
        <ele>268.1</ele>
        <time>2017-03-26T08:27:55Z</time>
      </trkpt>
      <trkpt lat="43.59428" lon="3.33752">
        <ele>267.9</ele>
        <time>2017-03-26T08:27:59Z</time>
      </trkpt>
      <trkpt lat="43.59421" lon="3.33757">
        <ele>267.7</ele>
        <time>2017-03-26T08:28:04Z</time>
      </trkpt>
      <trkpt lat="43.59414" lon="3.33763">
        <ele>267.9</ele>
        <time>2017-03-26T08:28:09Z</time>
      </trkpt>
      <trkpt lat="43.59407" lon="3.33769">
        <ele>268</ele>
        <time>2017-03-26T08:28:14Z</time>
      </trkpt>
      <trkpt lat="43.59403" lon="3.33778">
        <ele>268.2</ele>
        <time>2017-03-26T08:28:18Z</time>
      </trkpt>
      <trkpt lat="43.59399" lon="3.33789">
        <ele>269</ele>
        <time>2017-03-26T08:28:20Z</time>
      </trkpt>
      <trkpt lat="43.59396" lon="3.33803">
        <ele>270.1</ele>
        <time>2017-03-26T08:28:22Z</time>
      </trkpt>
      <trkpt lat="43.59393" lon="3.33815">
        <ele>270.2</ele>
        <time>2017-03-26T08:28:24Z</time>
      </trkpt>
      <trkpt lat="43.59386" lon="3.33826">
        <ele>270.2</ele>
        <time>2017-03-26T08:28:27Z</time>
      </trkpt>
      <trkpt lat="43.59379" lon="3.33837">
        <ele>269.6</ele>
        <time>2017-03-26T08:28:29Z</time>
      </trkpt>
      <trkpt lat="43.59372" lon="3.33847">
        <ele>268.8</ele>
        <time>2017-03-26T08:28:31Z</time>
      </trkpt>
      <trkpt lat="43.59365" lon="3.33855">
        <ele>268.5</ele>
        <time>2017-03-26T08:28:33Z</time>
      </trkpt>
      <trkpt lat="43.59359" lon="3.33863">
        <ele>268.1</ele>
        <time>2017-03-26T08:28:35Z</time>
      </trkpt>
      <trkpt lat="43.59351" lon="3.3387">
        <ele>267.7</ele>
        <time>2017-03-26T08:28:37Z</time>
      </trkpt>
      <trkpt lat="43.59344" lon="3.33876">
        <ele>267.4</ele>
        <time>2017-03-26T08:28:39Z</time>
      </trkpt>
      <trkpt lat="43.59335" lon="3.33883">
        <ele>263.6</ele>
        <time>2017-03-26T08:28:41Z</time>
      </trkpt>
      <trkpt lat="43.59324" lon="3.33888">
        <ele>260.3</ele>
        <time>2017-03-26T08:28:43Z</time>
      </trkpt>
      <trkpt lat="43.59315" lon="3.33891">
        <ele>260.1</ele>
        <time>2017-03-26T08:28:45Z</time>
      </trkpt>
      <trkpt lat="43.59305" lon="3.33893">
        <ele>257.2</ele>
        <time>2017-03-26T08:28:47Z</time>
      </trkpt>
      <trkpt lat="43.59297" lon="3.33893">
        <ele>255.8</ele>
        <time>2017-03-26T08:28:49Z</time>
      </trkpt>
      <trkpt lat="43.59288" lon="3.33892">
        <ele>255.5</ele>
        <time>2017-03-26T08:28:52Z</time>
      </trkpt>
      <trkpt lat="43.59281" lon="3.33887">
        <ele>254.1</ele>
        <time>2017-03-26T08:28:55Z</time>
      </trkpt>
      <trkpt lat="43.59273" lon="3.3388">
        <ele>252.2</ele>
        <time>2017-03-26T08:28:57Z</time>
      </trkpt>
      <trkpt lat="43.59266" lon="3.33874">
        <ele>251.8</ele>
        <time>2017-03-26T08:29:00Z</time>
      </trkpt>
      <trkpt lat="43.59258" lon="3.33873">
        <ele>251.5</ele>
        <time>2017-03-26T08:29:03Z</time>
      </trkpt>
      <trkpt lat="43.5925" lon="3.33874">
        <ele>250.7</ele>
        <time>2017-03-26T08:29:08Z</time>
      </trkpt>
      <trkpt lat="43.59247" lon="3.33865">
        <ele>250</ele>
        <time>2017-03-26T08:29:12Z</time>
      </trkpt>
      <trkpt lat="43.59247" lon="3.33853">
        <ele>249.2</ele>
        <time>2017-03-26T08:29:15Z</time>
      </trkpt>
      <trkpt lat="43.59242" lon="3.33845">
        <ele>248.4</ele>
        <time>2017-03-26T08:29:18Z</time>
      </trkpt>
      <trkpt lat="43.59236" lon="3.33838">
        <ele>245.7</ele>
        <time>2017-03-26T08:29:20Z</time>
      </trkpt>
      <trkpt lat="43.5923" lon="3.33832">
        <ele>245.3</ele>
        <time>2017-03-26T08:29:22Z</time>
      </trkpt>
      <trkpt lat="43.59223" lon="3.33827">
        <ele>244.5</ele>
        <time>2017-03-26T08:29:25Z</time>
      </trkpt>
      <trkpt lat="43.59215" lon="3.33823">
        <ele>243.6</ele>
        <time>2017-03-26T08:29:28Z</time>
      </trkpt>
      <trkpt lat="43.59209" lon="3.33817">
        <ele>242.7</ele>
        <time>2017-03-26T08:29:31Z</time>
      </trkpt>
      <trkpt lat="43.59203" lon="3.33811">
        <ele>241.6</ele>
        <time>2017-03-26T08:29:34Z</time>
      </trkpt>
      <trkpt lat="43.59193" lon="3.33808">
        <ele>240.1</ele>
        <time>2017-03-26T08:29:38Z</time>
      </trkpt>
      <trkpt lat="43.59184" lon="3.33808">
        <ele>239.5</ele>
        <time>2017-03-26T08:29:40Z</time>
      </trkpt>
      <trkpt lat="43.59175" lon="3.33813">
        <ele>238.6</ele>
        <time>2017-03-26T08:29:43Z</time>
      </trkpt>
      <trkpt lat="43.59177" lon="3.33813">
        <ele>236</ele>
        <time>2017-03-26T08:29:57Z</time>
      </trkpt>
      <trkpt lat="43.5918" lon="3.33812">
        <ele>231.9</ele>
        <time>2017-03-26T08:30:44Z</time>
      </trkpt>
      <trkpt lat="43.59172" lon="3.3381">
        <ele>229.1</ele>
        <time>2017-03-26T08:30:53Z</time>
      </trkpt>
      <trkpt lat="43.59163" lon="3.33807">
        <ele>228.5</ele>
        <time>2017-03-26T08:30:55Z</time>
      </trkpt>
      <trkpt lat="43.59155" lon="3.33811">
        <ele>227.7</ele>
        <time>2017-03-26T08:30:59Z</time>
      </trkpt>
      <trkpt lat="43.59153" lon="3.33822">
        <ele>226.7</ele>
        <time>2017-03-26T08:31:05Z</time>
      </trkpt>
      <trkpt lat="43.59151" lon="3.33822">
        <ele>225.9</ele>
        <time>2017-03-26T08:31:12Z</time>
      </trkpt>
      <trkpt lat="43.59149" lon="3.33824">
        <ele>224.1</ele>
        <time>2017-03-26T08:31:27Z</time>
      </trkpt>
      <trkpt lat="43.59142" lon="3.33815">
        <ele>221.8</ele>
        <time>2017-03-26T08:31:41Z</time>
      </trkpt>
      <trkpt lat="43.59141" lon="3.33803">
        <ele>221.1</ele>
        <time>2017-03-26T08:31:44Z</time>
      </trkpt>
      <trkpt lat="43.5914" lon="3.33803">
        <ele>219.3</ele>
        <time>2017-03-26T08:31:51Z</time>
      </trkpt>
      <trkpt lat="43.5914" lon="3.33818">
        <ele>218.7</ele>
        <time>2017-03-26T08:31:55Z</time>
      </trkpt>
      <trkpt lat="43.59139" lon="3.33833">
        <ele>218</ele>
        <time>2017-03-26T08:31:58Z</time>
      </trkpt>
      <trkpt lat="43.59135" lon="3.33845">
        <ele>217.3</ele>
        <time>2017-03-26T08:32:01Z</time>
      </trkpt>
      <trkpt lat="43.59129" lon="3.33854">
        <ele>216.2</ele>
        <time>2017-03-26T08:32:05Z</time>
      </trkpt>
      <trkpt lat="43.59124" lon="3.33865">
        <ele>215.3</ele>
        <time>2017-03-26T08:32:09Z</time>
      </trkpt>
      <trkpt lat="43.5912" lon="3.33874">
        <ele>214.6</ele>
        <time>2017-03-26T08:32:13Z</time>
      </trkpt>
      <trkpt lat="43.59116" lon="3.33884">
        <ele>213.9</ele>
        <time>2017-03-26T08:32:18Z</time>
      </trkpt>
      <trkpt lat="43.59114" lon="3.33894">
        <ele>213.4</ele>
        <time>2017-03-26T08:32:22Z</time>
      </trkpt>
      <trkpt lat="43.59111" lon="3.33903">
        <ele>213</ele>
        <time>2017-03-26T08:32:27Z</time>
      </trkpt>
      <trkpt lat="43.59108" lon="3.33912">
        <ele>212.8</ele>
        <time>2017-03-26T08:32:31Z</time>
      </trkpt>
      <trkpt lat="43.59106" lon="3.33925">
        <ele>212.6</ele>
        <time>2017-03-26T08:32:36Z</time>
      </trkpt>
      <trkpt lat="43.59103" lon="3.33936">
        <ele>212.4</ele>
        <time>2017-03-26T08:32:41Z</time>
      </trkpt>
      <trkpt lat="43.59103" lon="3.33946">
        <ele>212</ele>
        <time>2017-03-26T08:32:45Z</time>
      </trkpt>
      <trkpt lat="43.59102" lon="3.33957">
        <ele>211.7</ele>
        <time>2017-03-26T08:32:49Z</time>
      </trkpt>
      <trkpt lat="43.59102" lon="3.33968">
        <ele>211.8</ele>
        <time>2017-03-26T08:32:54Z</time>
      </trkpt>
      <trkpt lat="43.59103" lon="3.33981">
        <ele>212.4</ele>
        <time>2017-03-26T08:33:00Z</time>
      </trkpt>
      <trkpt lat="43.59104" lon="3.3399">
        <ele>212.4</ele>
        <time>2017-03-26T08:33:04Z</time>
      </trkpt>
      <trkpt lat="43.59107" lon="3.34001">
        <ele>212.3</ele>
        <time>2017-03-26T08:33:10Z</time>
      </trkpt>
      <trkpt lat="43.59112" lon="3.3401">
        <ele>213</ele>
        <time>2017-03-26T08:33:16Z</time>
      </trkpt>
      <trkpt lat="43.59119" lon="3.34016">
        <ele>213.8</ele>
        <time>2017-03-26T08:33:23Z</time>
      </trkpt>
      <trkpt lat="43.59126" lon="3.34017">
        <ele>214.2</ele>
        <time>2017-03-26T08:33:28Z</time>
      </trkpt>
      <trkpt lat="43.59134" lon="3.34016">
        <ele>214.6</ele>
        <time>2017-03-26T08:33:33Z</time>
      </trkpt>
      <trkpt lat="43.59139" lon="3.34019">
        <ele>215.3</ele>
        <time>2017-03-26T08:33:40Z</time>
      </trkpt>
      <trkpt lat="43.59138" lon="3.34027">
        <ele>216.3</ele>
        <time>2017-03-26T08:33:47Z</time>
      </trkpt>
      <trkpt lat="43.59139" lon="3.34038">
        <ele>216.6</ele>
        <time>2017-03-26T08:33:53Z</time>
      </trkpt>
      <trkpt lat="43.5914" lon="3.34047">
        <ele>217.4</ele>
        <time>2017-03-26T08:33:59Z</time>
      </trkpt>
      <trkpt lat="43.59139" lon="3.34058">
        <ele>218.8</ele>
        <time>2017-03-26T08:34:05Z</time>
      </trkpt>
      <trkpt lat="43.59139" lon="3.34069">
        <ele>219.9</ele>
        <time>2017-03-26T08:34:10Z</time>
      </trkpt>
      <trkpt lat="43.59139" lon="3.34079">
        <ele>221</ele>
        <time>2017-03-26T08:34:16Z</time>
      </trkpt>
      <trkpt lat="43.59138" lon="3.34089">
        <ele>222.1</ele>
        <time>2017-03-26T08:34:21Z</time>
      </trkpt>
      <trkpt lat="43.59137" lon="3.341">
        <ele>223</ele>
        <time>2017-03-26T08:34:26Z</time>
      </trkpt>
      <trkpt lat="43.59136" lon="3.34111">
        <ele>223.4</ele>
        <time>2017-03-26T08:34:30Z</time>
      </trkpt>
      <trkpt lat="43.59135" lon="3.34122">
        <ele>224.3</ele>
        <time>2017-03-26T08:34:37Z</time>
      </trkpt>
      <trkpt lat="43.59137" lon="3.34132">
        <ele>224.5</ele>
        <time>2017-03-26T08:34:42Z</time>
      </trkpt>
      <trkpt lat="43.59136" lon="3.34142">
        <ele>224.7</ele>
        <time>2017-03-26T08:34:46Z</time>
      </trkpt>
      <trkpt lat="43.59136" lon="3.34152">
        <ele>225</ele>
        <time>2017-03-26T08:34:50Z</time>
      </trkpt>
      <trkpt lat="43.59136" lon="3.34163">
        <ele>225.6</ele>
        <time>2017-03-26T08:34:54Z</time>
      </trkpt>
      <trkpt lat="43.59136" lon="3.34174">
        <ele>225.9</ele>
        <time>2017-03-26T08:34:58Z</time>
      </trkpt>
      <trkpt lat="43.59136" lon="3.34186">
        <ele>226.4</ele>
        <time>2017-03-26T08:35:02Z</time>
      </trkpt>
      <trkpt lat="43.59136" lon="3.34196">
        <ele>227.2</ele>
        <time>2017-03-26T08:35:07Z</time>
      </trkpt>
      <trkpt lat="43.59133" lon="3.34206">
        <ele>227.6</ele>
        <time>2017-03-26T08:35:10Z</time>
      </trkpt>
      <trkpt lat="43.59132" lon="3.34216">
        <ele>228.8</ele>
        <time>2017-03-26T08:35:16Z</time>
      </trkpt>
      <trkpt lat="43.59133" lon="3.34227">
        <ele>230</ele>
        <time>2017-03-26T08:35:21Z</time>
      </trkpt>
      <trkpt lat="43.59134" lon="3.34235">
        <ele>231</ele>
        <time>2017-03-26T08:35:28Z</time>
      </trkpt>
      <trkpt lat="43.59132" lon="3.34246">
        <ele>232.3</ele>
        <time>2017-03-26T08:35:35Z</time>
      </trkpt>
      <trkpt lat="43.5913" lon="3.34255">
        <ele>233.2</ele>
        <time>2017-03-26T08:35:40Z</time>
      </trkpt>
      <trkpt lat="43.5913" lon="3.34267">
        <ele>234.4</ele>
        <time>2017-03-26T08:35:46Z</time>
      </trkpt>
      <trkpt lat="43.5913" lon="3.34278">
        <ele>235.3</ele>
        <time>2017-03-26T08:35:51Z</time>
      </trkpt>
      <trkpt lat="43.5913" lon="3.34291">
        <ele>236.1</ele>
        <time>2017-03-26T08:35:55Z</time>
      </trkpt>
      <trkpt lat="43.59127" lon="3.34304">
        <ele>236.7</ele>
        <time>2017-03-26T08:35:58Z</time>
      </trkpt>
      <trkpt lat="43.59126" lon="3.34316">
        <ele>237.2</ele>
        <time>2017-03-26T08:36:01Z</time>
      </trkpt>
      <trkpt lat="43.59125" lon="3.34327">
        <ele>237.8</ele>
        <time>2017-03-26T08:36:04Z</time>
      </trkpt>
      <trkpt lat="43.59125" lon="3.34338">
        <ele>238.3</ele>
        <time>2017-03-26T08:36:07Z</time>
      </trkpt>
      <trkpt lat="43.59123" lon="3.34347">
        <ele>238.9</ele>
        <time>2017-03-26T08:36:11Z</time>
      </trkpt>
      <trkpt lat="43.59122" lon="3.34358">
        <ele>239.5</ele>
        <time>2017-03-26T08:36:15Z</time>
      </trkpt>
      <trkpt lat="43.59122" lon="3.34369">
        <ele>240.2</ele>
        <time>2017-03-26T08:36:20Z</time>
      </trkpt>
      <trkpt lat="43.59124" lon="3.34379">
        <ele>240.7</ele>
        <time>2017-03-26T08:36:24Z</time>
      </trkpt>
      <trkpt lat="43.59125" lon="3.34389">
        <ele>241.3</ele>
        <time>2017-03-26T08:36:29Z</time>
      </trkpt>
      <trkpt lat="43.59131" lon="3.34399">
        <ele>241.7</ele>
        <time>2017-03-26T08:36:33Z</time>
      </trkpt>
      <trkpt lat="43.59135" lon="3.34409">
        <ele>242.3</ele>
        <time>2017-03-26T08:36:38Z</time>
      </trkpt>
      <trkpt lat="43.5914" lon="3.34417">
        <ele>242.8</ele>
        <time>2017-03-26T08:36:42Z</time>
      </trkpt>
      <trkpt lat="43.59146" lon="3.34425">
        <ele>243.2</ele>
        <time>2017-03-26T08:36:46Z</time>
      </trkpt>
      <trkpt lat="43.59152" lon="3.34434">
        <ele>243.6</ele>
        <time>2017-03-26T08:36:50Z</time>
      </trkpt>
      <trkpt lat="43.59159" lon="3.34444">
        <ele>244.2</ele>
        <time>2017-03-26T08:36:55Z</time>
      </trkpt>
      <trkpt lat="43.59163" lon="3.34457">
        <ele>245.1</ele>
        <time>2017-03-26T08:37:00Z</time>
      </trkpt>
      <trkpt lat="43.59168" lon="3.34466">
        <ele>245.4</ele>
        <time>2017-03-26T08:37:03Z</time>
      </trkpt>
      <trkpt lat="43.5917" lon="3.34476">
        <ele>245.6</ele>
        <time>2017-03-26T08:37:05Z</time>
      </trkpt>
      <trkpt lat="43.59172" lon="3.34486">
        <ele>245.8</ele>
        <time>2017-03-26T08:37:07Z</time>
      </trkpt>
      <trkpt lat="43.59173" lon="3.34497">
        <ele>246</ele>
        <time>2017-03-26T08:37:09Z</time>
      </trkpt>
      <trkpt lat="43.59175" lon="3.34506">
        <ele>246.1</ele>
        <time>2017-03-26T08:37:11Z</time>
      </trkpt>
      <trkpt lat="43.59175" lon="3.34522">
        <ele>246.3</ele>
        <time>2017-03-26T08:37:14Z</time>
      </trkpt>
      <trkpt lat="43.59177" lon="3.34536">
        <ele>246.4</ele>
        <time>2017-03-26T08:37:17Z</time>
      </trkpt>
      <trkpt lat="43.59178" lon="3.34546">
        <ele>246.4</ele>
        <time>2017-03-26T08:37:19Z</time>
      </trkpt>
      <trkpt lat="43.59179" lon="3.34557">
        <ele>246.5</ele>
        <time>2017-03-26T08:37:21Z</time>
      </trkpt>
      <trkpt lat="43.59182" lon="3.34569">
        <ele>246.5</ele>
        <time>2017-03-26T08:37:24Z</time>
      </trkpt>
      <trkpt lat="43.59185" lon="3.34584">
        <ele>246.4</ele>
        <time>2017-03-26T08:37:27Z</time>
      </trkpt>
      <trkpt lat="43.59185" lon="3.34595">
        <ele>246.1</ele>
        <time>2017-03-26T08:37:30Z</time>
      </trkpt>
      <trkpt lat="43.59187" lon="3.34605">
        <ele>246</ele>
        <time>2017-03-26T08:37:32Z</time>
      </trkpt>
      <trkpt lat="43.59188" lon="3.34616">
        <ele>245.7</ele>
        <time>2017-03-26T08:37:36Z</time>
      </trkpt>
      <trkpt lat="43.5919" lon="3.34627">
        <ele>245.5</ele>
        <time>2017-03-26T08:37:39Z</time>
      </trkpt>
      <trkpt lat="43.59191" lon="3.34637">
        <ele>245.3</ele>
        <time>2017-03-26T08:37:41Z</time>
      </trkpt>
      <trkpt lat="43.59196" lon="3.3465">
        <ele>245.3</ele>
        <time>2017-03-26T08:37:44Z</time>
      </trkpt>
      <trkpt lat="43.59199" lon="3.34661">
        <ele>245.3</ele>
        <time>2017-03-26T08:37:46Z</time>
      </trkpt>
      <trkpt lat="43.59204" lon="3.34674">
        <ele>245.3</ele>
        <time>2017-03-26T08:37:49Z</time>
      </trkpt>
      <trkpt lat="43.59207" lon="3.34684">
        <ele>245.2</ele>
        <time>2017-03-26T08:37:51Z</time>
      </trkpt>
      <trkpt lat="43.5921" lon="3.34696">
        <ele>245.2</ele>
        <time>2017-03-26T08:37:55Z</time>
      </trkpt>
      <trkpt lat="43.59213" lon="3.34707">
        <ele>245.2</ele>
        <time>2017-03-26T08:37:57Z</time>
      </trkpt>
      <trkpt lat="43.59215" lon="3.34719">
        <ele>244.7</ele>
        <time>2017-03-26T08:37:59Z</time>
      </trkpt>
      <trkpt lat="43.59219" lon="3.3473">
        <ele>243.7</ele>
        <time>2017-03-26T08:38:01Z</time>
      </trkpt>
      <trkpt lat="43.59223" lon="3.3474">
        <ele>243.1</ele>
        <time>2017-03-26T08:38:03Z</time>
      </trkpt>
      <trkpt lat="43.59223" lon="3.34752">
        <ele>243</ele>
        <time>2017-03-26T08:38:06Z</time>
      </trkpt>
      <trkpt lat="43.59223" lon="3.34762">
        <ele>242.6</ele>
        <time>2017-03-26T08:38:08Z</time>
      </trkpt>
      <trkpt lat="43.59225" lon="3.34774">
        <ele>242.5</ele>
        <time>2017-03-26T08:38:11Z</time>
      </trkpt>
      <trkpt lat="43.5923" lon="3.3478">
        <ele>242.7</ele>
        <time>2017-03-26T08:38:18Z</time>
      </trkpt>
      <trkpt lat="43.59233" lon="3.34792">
        <ele>241.8</ele>
        <time>2017-03-26T08:38:35Z</time>
      </trkpt>
      <trkpt lat="43.59231" lon="3.34803">
        <ele>241.9</ele>
        <time>2017-03-26T08:38:38Z</time>
      </trkpt>
      <trkpt lat="43.59226" lon="3.34812">
        <ele>241.9</ele>
        <time>2017-03-26T08:38:40Z</time>
      </trkpt>
      <trkpt lat="43.59221" lon="3.34823">
        <ele>241.9</ele>
        <time>2017-03-26T08:38:43Z</time>
      </trkpt>
      <trkpt lat="43.59215" lon="3.34834">
        <ele>240.8</ele>
        <time>2017-03-26T08:38:46Z</time>
      </trkpt>
      <trkpt lat="43.59212" lon="3.34844">
        <ele>240.6</ele>
        <time>2017-03-26T08:38:48Z</time>
      </trkpt>
      <trkpt lat="43.59214" lon="3.34857">
        <ele>240.1</ele>
        <time>2017-03-26T08:38:50Z</time>
      </trkpt>
      <trkpt lat="43.59219" lon="3.34868">
        <ele>239.8</ele>
        <time>2017-03-26T08:38:52Z</time>
      </trkpt>
      <trkpt lat="43.59221" lon="3.34878">
        <ele>238.2</ele>
        <time>2017-03-26T08:38:54Z</time>
      </trkpt>
      <trkpt lat="43.59226" lon="3.34889">
        <ele>237</ele>
        <time>2017-03-26T08:38:56Z</time>
      </trkpt>
      <trkpt lat="43.59233" lon="3.349">
        <ele>235.7</ele>
        <time>2017-03-26T08:38:58Z</time>
      </trkpt>
      <trkpt lat="43.59237" lon="3.34911">
        <ele>235.2</ele>
        <time>2017-03-26T08:39:00Z</time>
      </trkpt>
      <trkpt lat="43.59238" lon="3.34922">
        <ele>233.8</ele>
        <time>2017-03-26T08:39:02Z</time>
      </trkpt>
      <trkpt lat="43.59239" lon="3.34936">
        <ele>232.8</ele>
        <time>2017-03-26T08:39:04Z</time>
      </trkpt>
      <trkpt lat="43.59241" lon="3.34953">
        <ele>232</ele>
        <time>2017-03-26T08:39:06Z</time>
      </trkpt>
      <trkpt lat="43.59242" lon="3.34969">
        <ele>231</ele>
        <time>2017-03-26T08:39:08Z</time>
      </trkpt>
      <trkpt lat="43.59244" lon="3.34984">
        <ele>230.4</ele>
        <time>2017-03-26T08:39:10Z</time>
      </trkpt>
      <trkpt lat="43.59247" lon="3.34996">
        <ele>229.4</ele>
        <time>2017-03-26T08:39:12Z</time>
      </trkpt>
      <trkpt lat="43.5925" lon="3.35008">
        <ele>229.3</ele>
        <time>2017-03-26T08:39:14Z</time>
      </trkpt>
      <trkpt lat="43.59253" lon="3.35019">
        <ele>228.8</ele>
        <time>2017-03-26T08:39:18Z</time>
      </trkpt>
      <trkpt lat="43.59257" lon="3.35032">
        <ele>225.8</ele>
        <time>2017-03-26T08:39:21Z</time>
      </trkpt>
      <trkpt lat="43.59263" lon="3.35045">
        <ele>223.4</ele>
        <time>2017-03-26T08:39:23Z</time>
      </trkpt>
      <trkpt lat="43.59267" lon="3.35055">
        <ele>221.5</ele>
        <time>2017-03-26T08:39:25Z</time>
      </trkpt>
      <trkpt lat="43.59268" lon="3.35066">
        <ele>220.7</ele>
        <time>2017-03-26T08:39:27Z</time>
      </trkpt>
      <trkpt lat="43.59262" lon="3.35075">
        <ele>220.5</ele>
        <time>2017-03-26T08:39:30Z</time>
      </trkpt>
      <trkpt lat="43.59251" lon="3.35072">
        <ele>218.1</ele>
        <time>2017-03-26T08:39:33Z</time>
      </trkpt>
      <trkpt lat="43.59241" lon="3.35072">
        <ele>216.9</ele>
        <time>2017-03-26T08:39:35Z</time>
      </trkpt>
      <trkpt lat="43.5923" lon="3.35074">
        <ele>215.5</ele>
        <time>2017-03-26T08:39:37Z</time>
      </trkpt>
      <trkpt lat="43.59221" lon="3.3507">
        <ele>214.5</ele>
        <time>2017-03-26T08:39:39Z</time>
      </trkpt>
      <trkpt lat="43.5921" lon="3.35065">
        <ele>214.7</ele>
        <time>2017-03-26T08:39:41Z</time>
      </trkpt>
      <trkpt lat="43.592" lon="3.35064">
        <ele>213.8</ele>
        <time>2017-03-26T08:39:43Z</time>
      </trkpt>
      <trkpt lat="43.59197" lon="3.35078">
        <ele>212.5</ele>
        <time>2017-03-26T08:39:46Z</time>
      </trkpt>
      <trkpt lat="43.592" lon="3.35091">
        <ele>211.7</ele>
        <time>2017-03-26T08:39:48Z</time>
      </trkpt>
      <trkpt lat="43.59207" lon="3.35103">
        <ele>210.9</ele>
        <time>2017-03-26T08:39:50Z</time>
      </trkpt>
      <trkpt lat="43.59213" lon="3.35116">
        <ele>209.5</ele>
        <time>2017-03-26T08:39:52Z</time>
      </trkpt>
      <trkpt lat="43.59215" lon="3.35131">
        <ele>208.2</ele>
        <time>2017-03-26T08:39:54Z</time>
      </trkpt>
      <trkpt lat="43.59216" lon="3.35145">
        <ele>207.4</ele>
        <time>2017-03-26T08:39:56Z</time>
      </trkpt>
      <trkpt lat="43.59214" lon="3.35162">
        <ele>205.5</ele>
        <time>2017-03-26T08:39:58Z</time>
      </trkpt>
      <trkpt lat="43.59213" lon="3.35177">
        <ele>204.5</ele>
        <time>2017-03-26T08:40:00Z</time>
      </trkpt>
      <trkpt lat="43.59215" lon="3.35193">
        <ele>202.9</ele>
        <time>2017-03-26T08:40:02Z</time>
      </trkpt>
      <trkpt lat="43.59221" lon="3.35205">
        <ele>201.1</ele>
        <time>2017-03-26T08:40:04Z</time>
      </trkpt>
      <trkpt lat="43.59225" lon="3.35217">
        <ele>200</ele>
        <time>2017-03-26T08:40:07Z</time>
      </trkpt>
      <trkpt lat="43.59223" lon="3.35227">
        <ele>198.9</ele>
        <time>2017-03-26T08:40:09Z</time>
      </trkpt>
      <trkpt lat="43.5922" lon="3.35236">
        <ele>198.6</ele>
        <time>2017-03-26T08:40:11Z</time>
      </trkpt>
      <trkpt lat="43.59214" lon="3.35248">
        <ele>197.9</ele>
        <time>2017-03-26T08:40:14Z</time>
      </trkpt>
      <trkpt lat="43.5921" lon="3.35258">
        <ele>196.6</ele>
        <time>2017-03-26T08:40:16Z</time>
      </trkpt>
      <trkpt lat="43.59208" lon="3.35271">
        <ele>195.5</ele>
        <time>2017-03-26T08:40:18Z</time>
      </trkpt>
      <trkpt lat="43.59206" lon="3.35284">
        <ele>194.6</ele>
        <time>2017-03-26T08:40:20Z</time>
      </trkpt>
      <trkpt lat="43.59201" lon="3.35297">
        <ele>193.8</ele>
        <time>2017-03-26T08:40:22Z</time>
      </trkpt>
      <trkpt lat="43.59194" lon="3.35309">
        <ele>192.4</ele>
        <time>2017-03-26T08:40:24Z</time>
      </trkpt>
      <trkpt lat="43.5919" lon="3.35321">
        <ele>191.7</ele>
        <time>2017-03-26T08:40:26Z</time>
      </trkpt>
      <trkpt lat="43.59188" lon="3.35336">
        <ele>191.4</ele>
        <time>2017-03-26T08:40:28Z</time>
      </trkpt>
      <trkpt lat="43.59187" lon="3.35351">
        <ele>190.5</ele>
        <time>2017-03-26T08:40:30Z</time>
      </trkpt>
      <trkpt lat="43.59185" lon="3.35361">
        <ele>190</ele>
        <time>2017-03-26T08:40:32Z</time>
      </trkpt>
      <trkpt lat="43.59177" lon="3.35356">
        <ele>190.5</ele>
        <time>2017-03-26T08:40:37Z</time>
      </trkpt>
      <trkpt lat="43.59165" lon="3.35352">
        <ele>191.3</ele>
        <time>2017-03-26T08:40:39Z</time>
      </trkpt>
      <trkpt lat="43.59154" lon="3.35355">
        <ele>191.2</ele>
        <time>2017-03-26T08:40:41Z</time>
      </trkpt>
      <trkpt lat="43.59144" lon="3.35362">
        <ele>190.7</ele>
        <time>2017-03-26T08:40:43Z</time>
      </trkpt>
      <trkpt lat="43.59132" lon="3.35372">
        <ele>189.4</ele>
        <time>2017-03-26T08:40:45Z</time>
      </trkpt>
      <trkpt lat="43.59122" lon="3.35383">
        <ele>188.2</ele>
        <time>2017-03-26T08:40:47Z</time>
      </trkpt>
      <trkpt lat="43.59112" lon="3.35394">
        <ele>186.9</ele>
        <time>2017-03-26T08:40:49Z</time>
      </trkpt>
      <trkpt lat="43.59101" lon="3.35401">
        <ele>185.5</ele>
        <time>2017-03-26T08:40:51Z</time>
      </trkpt>
      <trkpt lat="43.59091" lon="3.35407">
        <ele>184.8</ele>
        <time>2017-03-26T08:40:53Z</time>
      </trkpt>
      <trkpt lat="43.5908" lon="3.35414">
        <ele>184.4</ele>
        <time>2017-03-26T08:40:55Z</time>
      </trkpt>
      <trkpt lat="43.59074" lon="3.35418">
        <ele>184.4</ele>
        <time>2017-03-26T08:40:56Z</time>
      </trkpt>
      <trkpt lat="43.59068" lon="3.35423">
        <ele>184.1</ele>
        <time>2017-03-26T08:40:57Z</time>
      </trkpt>
      <trkpt lat="43.5906" lon="3.3543">
        <ele>183.9</ele>
        <time>2017-03-26T08:40:58Z</time>
      </trkpt>
      <trkpt lat="43.59053" lon="3.35435">
        <ele>183.6</ele>
        <time>2017-03-26T08:40:59Z</time>
      </trkpt>
      <trkpt lat="43.59039" lon="3.35438">
        <ele>182.1</ele>
        <time>2017-03-26T08:41:01Z</time>
      </trkpt>
      <trkpt lat="43.59032" lon="3.35439">
        <ele>181.1</ele>
        <time>2017-03-26T08:41:02Z</time>
      </trkpt>
      <trkpt lat="43.59025" lon="3.35441">
        <ele>180.5</ele>
        <time>2017-03-26T08:41:03Z</time>
      </trkpt>
      <trkpt lat="43.59014" lon="3.35449">
        <ele>179.3</ele>
        <time>2017-03-26T08:41:05Z</time>
      </trkpt>
      <trkpt lat="43.59004" lon="3.35461">
        <ele>178.3</ele>
        <time>2017-03-26T08:41:07Z</time>
      </trkpt>
      <trkpt lat="43.58995" lon="3.35473">
        <ele>178</ele>
        <time>2017-03-26T08:41:09Z</time>
      </trkpt>
      <trkpt lat="43.58987" lon="3.35485">
        <ele>177.6</ele>
        <time>2017-03-26T08:41:11Z</time>
      </trkpt>
      <trkpt lat="43.58982" lon="3.35494">
        <ele>178</ele>
        <time>2017-03-26T08:41:13Z</time>
      </trkpt>
      <trkpt lat="43.58976" lon="3.35506">
        <ele>178.3</ele>
        <time>2017-03-26T08:41:15Z</time>
      </trkpt>
      <trkpt lat="43.58972" lon="3.35517">
        <ele>178.7</ele>
        <time>2017-03-26T08:41:17Z</time>
      </trkpt>
      <trkpt lat="43.58966" lon="3.3553">
        <ele>178.3</ele>
        <time>2017-03-26T08:41:19Z</time>
      </trkpt>
      <trkpt lat="43.58961" lon="3.35541">
        <ele>177.4</ele>
        <time>2017-03-26T08:41:21Z</time>
      </trkpt>
      <trkpt lat="43.58958" lon="3.35553">
        <ele>176.4</ele>
        <time>2017-03-26T08:41:23Z</time>
      </trkpt>
      <trkpt lat="43.58955" lon="3.35566">
        <ele>175.6</ele>
        <time>2017-03-26T08:41:25Z</time>
      </trkpt>
      <trkpt lat="43.58949" lon="3.35577">
        <ele>175.4</ele>
        <time>2017-03-26T08:41:27Z</time>
      </trkpt>
      <trkpt lat="43.58941" lon="3.35586">
        <ele>174.9</ele>
        <time>2017-03-26T08:41:29Z</time>
      </trkpt>
      <trkpt lat="43.58933" lon="3.35598">
        <ele>174.4</ele>
        <time>2017-03-26T08:41:31Z</time>
      </trkpt>
      <trkpt lat="43.58927" lon="3.35612">
        <ele>173</ele>
        <time>2017-03-26T08:41:33Z</time>
      </trkpt>
      <trkpt lat="43.5892" lon="3.35625">
        <ele>171.4</ele>
        <time>2017-03-26T08:41:35Z</time>
      </trkpt>
      <trkpt lat="43.58915" lon="3.35634">
        <ele>171</ele>
        <time>2017-03-26T08:41:37Z</time>
      </trkpt>
      <trkpt lat="43.58912" lon="3.35642">
        <ele>171.1</ele>
        <time>2017-03-26T08:41:39Z</time>
      </trkpt>
      <trkpt lat="43.58907" lon="3.35656">
        <ele>171.1</ele>
        <time>2017-03-26T08:41:42Z</time>
      </trkpt>
      <trkpt lat="43.58903" lon="3.35666">
        <ele>171.7</ele>
        <time>2017-03-26T08:41:44Z</time>
      </trkpt>
      <trkpt lat="43.58897" lon="3.35675">
        <ele>172.3</ele>
        <time>2017-03-26T08:41:46Z</time>
      </trkpt>
      <trkpt lat="43.58889" lon="3.35684">
        <ele>172.3</ele>
        <time>2017-03-26T08:41:48Z</time>
      </trkpt>
      <trkpt lat="43.5888" lon="3.35686">
        <ele>171.3</ele>
        <time>2017-03-26T08:41:50Z</time>
      </trkpt>
      <trkpt lat="43.58874" lon="3.35693">
        <ele>171.4</ele>
        <time>2017-03-26T08:41:52Z</time>
      </trkpt>
      <trkpt lat="43.58869" lon="3.35701">
        <ele>171.5</ele>
        <time>2017-03-26T08:41:54Z</time>
      </trkpt>
      <trkpt lat="43.58863" lon="3.35709">
        <ele>171.6</ele>
        <time>2017-03-26T08:41:56Z</time>
      </trkpt>
      <trkpt lat="43.58857" lon="3.35716">
        <ele>171.8</ele>
        <time>2017-03-26T08:42:02Z</time>
      </trkpt>
      <trkpt lat="43.58856" lon="3.35721">
        <ele>172.4</ele>
        <time>2017-03-26T08:42:09Z</time>
      </trkpt>
      <trkpt lat="43.58854" lon="3.35727">
        <ele>172.7</ele>
        <time>2017-03-26T08:42:16Z</time>
      </trkpt>
      <trkpt lat="43.58848" lon="3.35734">
        <ele>172.7</ele>
        <time>2017-03-26T08:42:20Z</time>
      </trkpt>
      <trkpt lat="43.58843" lon="3.3574">
        <ele>172.7</ele>
        <time>2017-03-26T08:42:24Z</time>
      </trkpt>
      <trkpt lat="43.58837" lon="3.35749">
        <ele>172.8</ele>
        <time>2017-03-26T08:42:28Z</time>
      </trkpt>
      <trkpt lat="43.58831" lon="3.35758">
        <ele>172.7</ele>
        <time>2017-03-26T08:42:31Z</time>
      </trkpt>
      <trkpt lat="43.58825" lon="3.35766">
        <ele>172.7</ele>
        <time>2017-03-26T08:42:33Z</time>
      </trkpt>
      <trkpt lat="43.58818" lon="3.35772">
        <ele>172.7</ele>
        <time>2017-03-26T08:42:36Z</time>
      </trkpt>
      <trkpt lat="43.58812" lon="3.3578">
        <ele>172.6</ele>
        <time>2017-03-26T08:42:39Z</time>
      </trkpt>
      <trkpt lat="43.58806" lon="3.35787">
        <ele>172.6</ele>
        <time>2017-03-26T08:42:42Z</time>
      </trkpt>
      <trkpt lat="43.58799" lon="3.35794">
        <ele>172.7</ele>
        <time>2017-03-26T08:42:45Z</time>
      </trkpt>
      <trkpt lat="43.58791" lon="3.35802">
        <ele>172.8</ele>
        <time>2017-03-26T08:42:48Z</time>
      </trkpt>
      <trkpt lat="43.58784" lon="3.3581">
        <ele>172.8</ele>
        <time>2017-03-26T08:42:51Z</time>
      </trkpt>
      <trkpt lat="43.58778" lon="3.3582">
        <ele>172.7</ele>
        <time>2017-03-26T08:42:54Z</time>
      </trkpt>
      <trkpt lat="43.58771" lon="3.35826">
        <ele>172.8</ele>
        <time>2017-03-26T08:42:57Z</time>
      </trkpt>
      <trkpt lat="43.58764" lon="3.35834">
        <ele>173</ele>
        <time>2017-03-26T08:43:00Z</time>
      </trkpt>
      <trkpt lat="43.58758" lon="3.35841">
        <ele>173</ele>
        <time>2017-03-26T08:43:02Z</time>
      </trkpt>
      <trkpt lat="43.58751" lon="3.35847">
        <ele>173</ele>
        <time>2017-03-26T08:43:05Z</time>
      </trkpt>
      <trkpt lat="43.58743" lon="3.35857">
        <ele>173</ele>
        <time>2017-03-26T08:43:08Z</time>
      </trkpt>
      <trkpt lat="43.58737" lon="3.35863">
        <ele>173</ele>
        <time>2017-03-26T08:43:10Z</time>
      </trkpt>
      <trkpt lat="43.58728" lon="3.35871">
        <ele>172.9</ele>
        <time>2017-03-26T08:43:13Z</time>
      </trkpt>
      <trkpt lat="43.58722" lon="3.35877">
        <ele>172.8</ele>
        <time>2017-03-26T08:43:15Z</time>
      </trkpt>
      <trkpt lat="43.58713" lon="3.35884">
        <ele>172.9</ele>
        <time>2017-03-26T08:43:18Z</time>
      </trkpt>
      <trkpt lat="43.58706" lon="3.35889">
        <ele>173.6</ele>
        <time>2017-03-26T08:43:20Z</time>
      </trkpt>
      <trkpt lat="43.58699" lon="3.35895">
        <ele>173.9</ele>
        <time>2017-03-26T08:43:22Z</time>
      </trkpt>
      <trkpt lat="43.58691" lon="3.35901">
        <ele>173.1</ele>
        <time>2017-03-26T08:43:24Z</time>
      </trkpt>
      <trkpt lat="43.58683" lon="3.35908">
        <ele>172.1</ele>
        <time>2017-03-26T08:43:26Z</time>
      </trkpt>
      <trkpt lat="43.58675" lon="3.35914">
        <ele>171.7</ele>
        <time>2017-03-26T08:43:28Z</time>
      </trkpt>
      <trkpt lat="43.58667" lon="3.3592">
        <ele>170.2</ele>
        <time>2017-03-26T08:43:30Z</time>
      </trkpt>
      <trkpt lat="43.5866" lon="3.35926">
        <ele>168.3</ele>
        <time>2017-03-26T08:43:32Z</time>
      </trkpt>
      <trkpt lat="43.58653" lon="3.35932">
        <ele>167.3</ele>
        <time>2017-03-26T08:43:34Z</time>
      </trkpt>
      <trkpt lat="43.58644" lon="3.35939">
        <ele>167</ele>
        <time>2017-03-26T08:43:37Z</time>
      </trkpt>
      <trkpt lat="43.58637" lon="3.35944">
        <ele>167.7</ele>
        <time>2017-03-26T08:43:39Z</time>
      </trkpt>
      <trkpt lat="43.5863" lon="3.35947">
        <ele>169</ele>
        <time>2017-03-26T08:43:41Z</time>
      </trkpt>
      <trkpt lat="43.5862" lon="3.35954">
        <ele>170</ele>
        <time>2017-03-26T08:43:44Z</time>
      </trkpt>
      <trkpt lat="43.5861" lon="3.35958">
        <ele>170.3</ele>
        <time>2017-03-26T08:43:47Z</time>
      </trkpt>
      <trkpt lat="43.58601" lon="3.3596">
        <ele>170.5</ele>
        <time>2017-03-26T08:43:50Z</time>
      </trkpt>
      <trkpt lat="43.58592" lon="3.35962">
        <ele>170.8</ele>
        <time>2017-03-26T08:43:52Z</time>
      </trkpt>
      <trkpt lat="43.58584" lon="3.35966">
        <ele>170.5</ele>
        <time>2017-03-26T08:43:54Z</time>
      </trkpt>
      <trkpt lat="43.58575" lon="3.35972">
        <ele>170.1</ele>
        <time>2017-03-26T08:43:57Z</time>
      </trkpt>
      <trkpt lat="43.58566" lon="3.35977">
        <ele>169.4</ele>
        <time>2017-03-26T08:43:59Z</time>
      </trkpt>
      <trkpt lat="43.58559" lon="3.35982">
        <ele>169.3</ele>
        <time>2017-03-26T08:44:01Z</time>
      </trkpt>
      <trkpt lat="43.58552" lon="3.35988">
        <ele>170</ele>
        <time>2017-03-26T08:44:03Z</time>
      </trkpt>
      <trkpt lat="43.58544" lon="3.35993">
        <ele>170.1</ele>
        <time>2017-03-26T08:44:06Z</time>
      </trkpt>
      <trkpt lat="43.58535" lon="3.36">
        <ele>169.5</ele>
        <time>2017-03-26T08:44:08Z</time>
      </trkpt>
      <trkpt lat="43.58526" lon="3.36007">
        <ele>168.7</ele>
        <time>2017-03-26T08:44:10Z</time>
      </trkpt>
      <trkpt lat="43.58516" lon="3.36015">
        <ele>168.4</ele>
        <time>2017-03-26T08:44:12Z</time>
      </trkpt>
      <trkpt lat="43.58509" lon="3.3602">
        <ele>169.1</ele>
        <time>2017-03-26T08:44:14Z</time>
      </trkpt>
      <trkpt lat="43.58502" lon="3.36027">
        <ele>169.4</ele>
        <time>2017-03-26T08:44:16Z</time>
      </trkpt>
      <trkpt lat="43.58493" lon="3.36035">
        <ele>169.2</ele>
        <time>2017-03-26T08:44:18Z</time>
      </trkpt>
      <trkpt lat="43.58485" lon="3.36042">
        <ele>169.4</ele>
        <time>2017-03-26T08:44:20Z</time>
      </trkpt>
      <trkpt lat="43.58478" lon="3.36049">
        <ele>169.7</ele>
        <time>2017-03-26T08:44:22Z</time>
      </trkpt>
      <trkpt lat="43.58471" lon="3.36055">
        <ele>169.4</ele>
        <time>2017-03-26T08:44:24Z</time>
      </trkpt>
      <trkpt lat="43.58463" lon="3.36062">
        <ele>168.7</ele>
        <time>2017-03-26T08:44:26Z</time>
      </trkpt>
      <trkpt lat="43.58456" lon="3.36068">
        <ele>168.9</ele>
        <time>2017-03-26T08:44:28Z</time>
      </trkpt>
      <trkpt lat="43.58447" lon="3.36074">
        <ele>168.2</ele>
        <time>2017-03-26T08:44:30Z</time>
      </trkpt>
      <trkpt lat="43.58439" lon="3.36083">
        <ele>167.9</ele>
        <time>2017-03-26T08:44:33Z</time>
      </trkpt>
      <trkpt lat="43.58433" lon="3.3609">
        <ele>167.4</ele>
        <time>2017-03-26T08:44:35Z</time>
      </trkpt>
      <trkpt lat="43.58426" lon="3.36099">
        <ele>167.5</ele>
        <time>2017-03-26T08:44:37Z</time>
      </trkpt>
      <trkpt lat="43.5842" lon="3.36107">
        <ele>168</ele>
        <time>2017-03-26T08:44:39Z</time>
      </trkpt>
      <trkpt lat="43.58415" lon="3.36115">
        <ele>168</ele>
        <time>2017-03-26T08:44:41Z</time>
      </trkpt>
      <trkpt lat="43.58407" lon="3.36125">
        <ele>169.5</ele>
        <time>2017-03-26T08:44:43Z</time>
      </trkpt>
      <trkpt lat="43.58401" lon="3.36132">
        <ele>169.3</ele>
        <time>2017-03-26T08:44:45Z</time>
      </trkpt>
      <trkpt lat="43.58395" lon="3.3614">
        <ele>168.9</ele>
        <time>2017-03-26T08:44:47Z</time>
      </trkpt>
      <trkpt lat="43.58388" lon="3.36149">
        <ele>169.1</ele>
        <time>2017-03-26T08:44:49Z</time>
      </trkpt>
      <trkpt lat="43.58382" lon="3.36158">
        <ele>169.3</ele>
        <time>2017-03-26T08:44:51Z</time>
      </trkpt>
      <trkpt lat="43.58375" lon="3.36166">
        <ele>168</ele>
        <time>2017-03-26T08:44:53Z</time>
      </trkpt>
      <trkpt lat="43.58368" lon="3.36175">
        <ele>166.8</ele>
        <time>2017-03-26T08:44:55Z</time>
      </trkpt>
      <trkpt lat="43.58361" lon="3.36181">
        <ele>166.2</ele>
        <time>2017-03-26T08:44:57Z</time>
      </trkpt>
      <trkpt lat="43.58353" lon="3.36186">
        <ele>165.4</ele>
        <time>2017-03-26T08:44:59Z</time>
      </trkpt>
      <trkpt lat="43.58344" lon="3.36189">
        <ele>164.9</ele>
        <time>2017-03-26T08:45:01Z</time>
      </trkpt>
      <trkpt lat="43.58337" lon="3.36191">
        <ele>165</ele>
        <time>2017-03-26T08:45:03Z</time>
      </trkpt>
      <trkpt lat="43.5833" lon="3.36194">
        <ele>165.7</ele>
        <time>2017-03-26T08:45:05Z</time>
      </trkpt>
      <trkpt lat="43.58321" lon="3.36196">
        <ele>165.8</ele>
        <time>2017-03-26T08:45:07Z</time>
      </trkpt>
      <trkpt lat="43.58313" lon="3.36198">
        <ele>165.5</ele>
        <time>2017-03-26T08:45:09Z</time>
      </trkpt>
      <trkpt lat="43.58305" lon="3.36201">
        <ele>164.9</ele>
        <time>2017-03-26T08:45:11Z</time>
      </trkpt>
      <trkpt lat="43.58294" lon="3.36205">
        <ele>165.9</ele>
        <time>2017-03-26T08:45:14Z</time>
      </trkpt>
      <trkpt lat="43.58286" lon="3.36206">
        <ele>166.2</ele>
        <time>2017-03-26T08:45:16Z</time>
      </trkpt>
      <trkpt lat="43.58276" lon="3.36211">
        <ele>166.7</ele>
        <time>2017-03-26T08:45:19Z</time>
      </trkpt>
      <trkpt lat="43.58268" lon="3.36215">
        <ele>167</ele>
        <time>2017-03-26T08:45:21Z</time>
      </trkpt>
      <trkpt lat="43.58259" lon="3.3622">
        <ele>166.7</ele>
        <time>2017-03-26T08:45:23Z</time>
      </trkpt>
      <trkpt lat="43.58249" lon="3.36224">
        <ele>166.6</ele>
        <time>2017-03-26T08:45:25Z</time>
      </trkpt>
      <trkpt lat="43.58241" lon="3.3623">
        <ele>166.7</ele>
        <time>2017-03-26T08:45:27Z</time>
      </trkpt>
      <trkpt lat="43.58232" lon="3.36234">
        <ele>167</ele>
        <time>2017-03-26T08:45:29Z</time>
      </trkpt>
      <trkpt lat="43.58223" lon="3.36239">
        <ele>167.4</ele>
        <time>2017-03-26T08:45:31Z</time>
      </trkpt>
      <trkpt lat="43.58215" lon="3.36244">
        <ele>167.6</ele>
        <time>2017-03-26T08:45:33Z</time>
      </trkpt>
      <trkpt lat="43.58206" lon="3.36249">
        <ele>167.8</ele>
        <time>2017-03-26T08:45:35Z</time>
      </trkpt>
      <trkpt lat="43.58197" lon="3.36254">
        <ele>168.1</ele>
        <time>2017-03-26T08:45:37Z</time>
      </trkpt>
      <trkpt lat="43.58188" lon="3.36259">
        <ele>167.9</ele>
        <time>2017-03-26T08:45:39Z</time>
      </trkpt>
      <trkpt lat="43.58178" lon="3.36264">
        <ele>167.8</ele>
        <time>2017-03-26T08:45:41Z</time>
      </trkpt>
      <trkpt lat="43.58168" lon="3.3627">
        <ele>167</ele>
        <time>2017-03-26T08:45:43Z</time>
      </trkpt>
      <trkpt lat="43.5816" lon="3.36274">
        <ele>166.8</ele>
        <time>2017-03-26T08:45:45Z</time>
      </trkpt>
      <trkpt lat="43.5815" lon="3.36279">
        <ele>166.4</ele>
        <time>2017-03-26T08:45:47Z</time>
      </trkpt>
      <trkpt lat="43.5814" lon="3.36284">
        <ele>165.7</ele>
        <time>2017-03-26T08:45:49Z</time>
      </trkpt>
      <trkpt lat="43.58132" lon="3.36289">
        <ele>164.7</ele>
        <time>2017-03-26T08:45:51Z</time>
      </trkpt>
      <trkpt lat="43.58122" lon="3.36295">
        <ele>163.2</ele>
        <time>2017-03-26T08:45:53Z</time>
      </trkpt>
      <trkpt lat="43.58113" lon="3.36299">
        <ele>163.2</ele>
        <time>2017-03-26T08:45:55Z</time>
      </trkpt>
      <trkpt lat="43.58103" lon="3.36305">
        <ele>163.4</ele>
        <time>2017-03-26T08:45:57Z</time>
      </trkpt>
      <trkpt lat="43.58095" lon="3.36309">
        <ele>163.9</ele>
        <time>2017-03-26T08:45:59Z</time>
      </trkpt>
      <trkpt lat="43.58086" lon="3.36314">
        <ele>164.4</ele>
        <time>2017-03-26T08:46:01Z</time>
      </trkpt>
      <trkpt lat="43.58076" lon="3.3632">
        <ele>164.3</ele>
        <time>2017-03-26T08:46:03Z</time>
      </trkpt>
      <trkpt lat="43.58067" lon="3.36325">
        <ele>163.6</ele>
        <time>2017-03-26T08:46:05Z</time>
      </trkpt>
      <trkpt lat="43.58059" lon="3.3633">
        <ele>163.2</ele>
        <time>2017-03-26T08:46:07Z</time>
      </trkpt>
      <trkpt lat="43.58051" lon="3.36335">
        <ele>163.1</ele>
        <time>2017-03-26T08:46:09Z</time>
      </trkpt>
      <trkpt lat="43.58042" lon="3.3634">
        <ele>162.7</ele>
        <time>2017-03-26T08:46:11Z</time>
      </trkpt>
      <trkpt lat="43.58033" lon="3.36344">
        <ele>162.1</ele>
        <time>2017-03-26T08:46:13Z</time>
      </trkpt>
      <trkpt lat="43.58024" lon="3.36347">
        <ele>162</ele>
        <time>2017-03-26T08:46:15Z</time>
      </trkpt>
      <trkpt lat="43.58015" lon="3.36349">
        <ele>161.4</ele>
        <time>2017-03-26T08:46:17Z</time>
      </trkpt>
      <trkpt lat="43.58005" lon="3.36351">
        <ele>161.8</ele>
        <time>2017-03-26T08:46:19Z</time>
      </trkpt>
      <trkpt lat="43.57995" lon="3.36352">
        <ele>162.2</ele>
        <time>2017-03-26T08:46:21Z</time>
      </trkpt>
      <trkpt lat="43.57988" lon="3.36355">
        <ele>163.5</ele>
        <time>2017-03-26T08:46:23Z</time>
      </trkpt>
      <trkpt lat="43.57981" lon="3.36357">
        <ele>164.8</ele>
        <time>2017-03-26T08:46:25Z</time>
      </trkpt>
      <trkpt lat="43.57971" lon="3.36359">
        <ele>164.1</ele>
        <time>2017-03-26T08:46:27Z</time>
      </trkpt>
      <trkpt lat="43.57962" lon="3.36361">
        <ele>163.6</ele>
        <time>2017-03-26T08:46:29Z</time>
      </trkpt>
      <trkpt lat="43.57953" lon="3.36363">
        <ele>163.6</ele>
        <time>2017-03-26T08:46:31Z</time>
      </trkpt>
      <trkpt lat="43.57945" lon="3.36364">
        <ele>163.2</ele>
        <time>2017-03-26T08:46:33Z</time>
      </trkpt>
      <trkpt lat="43.57936" lon="3.36366">
        <ele>162.4</ele>
        <time>2017-03-26T08:46:35Z</time>
      </trkpt>
      <trkpt lat="43.57928" lon="3.36368">
        <ele>162.1</ele>
        <time>2017-03-26T08:46:37Z</time>
      </trkpt>
      <trkpt lat="43.57919" lon="3.36371">
        <ele>162.3</ele>
        <time>2017-03-26T08:46:39Z</time>
      </trkpt>
      <trkpt lat="43.5791" lon="3.36372">
        <ele>162.1</ele>
        <time>2017-03-26T08:46:41Z</time>
      </trkpt>
      <trkpt lat="43.57902" lon="3.36374">
        <ele>162.6</ele>
        <time>2017-03-26T08:46:43Z</time>
      </trkpt>
      <trkpt lat="43.57893" lon="3.36375">
        <ele>162.8</ele>
        <time>2017-03-26T08:46:45Z</time>
      </trkpt>
      <trkpt lat="43.57883" lon="3.36376">
        <ele>163.6</ele>
        <time>2017-03-26T08:46:47Z</time>
      </trkpt>
      <trkpt lat="43.57874" lon="3.36379">
        <ele>162.7</ele>
        <time>2017-03-26T08:46:49Z</time>
      </trkpt>
      <trkpt lat="43.57864" lon="3.36374">
        <ele>161.4</ele>
        <time>2017-03-26T08:46:52Z</time>
      </trkpt>
      <trkpt lat="43.57858" lon="3.36365">
        <ele>161.6</ele>
        <time>2017-03-26T08:46:55Z</time>
      </trkpt>
      <trkpt lat="43.57851" lon="3.36355">
        <ele>161.8</ele>
        <time>2017-03-26T08:46:59Z</time>
      </trkpt>
      <trkpt lat="43.57853" lon="3.36345">
        <ele>162</ele>
        <time>2017-03-26T08:47:03Z</time>
      </trkpt>
      <trkpt lat="43.5786" lon="3.36339">
        <ele>162</ele>
        <time>2017-03-26T08:47:06Z</time>
      </trkpt>
      <trkpt lat="43.57867" lon="3.36335">
        <ele>162.1</ele>
        <time>2017-03-26T08:47:09Z</time>
      </trkpt>
      <trkpt lat="43.57874" lon="3.3633">
        <ele>162.3</ele>
        <time>2017-03-26T08:47:12Z</time>
      </trkpt>
      <trkpt lat="43.57882" lon="3.36323">
        <ele>162.4</ele>
        <time>2017-03-26T08:47:15Z</time>
      </trkpt>
      <trkpt lat="43.57889" lon="3.36318">
        <ele>162.5</ele>
        <time>2017-03-26T08:47:18Z</time>
      </trkpt>
      <trkpt lat="43.57896" lon="3.36312">
        <ele>162.6</ele>
        <time>2017-03-26T08:47:21Z</time>
      </trkpt>
      <trkpt lat="43.57902" lon="3.36305">
        <ele>162.7</ele>
        <time>2017-03-26T08:47:24Z</time>
      </trkpt>
      <trkpt lat="43.5791" lon="3.36299">
        <ele>163</ele>
        <time>2017-03-26T08:47:28Z</time>
      </trkpt>
      <trkpt lat="43.57918" lon="3.36293">
        <ele>163.4</ele>
        <time>2017-03-26T08:47:32Z</time>
      </trkpt>
      <trkpt lat="43.57924" lon="3.36285">
        <ele>163.8</ele>
        <time>2017-03-26T08:47:35Z</time>
      </trkpt>
      <trkpt lat="43.57928" lon="3.36276">
        <ele>164</ele>
        <time>2017-03-26T08:47:38Z</time>
      </trkpt>
      <trkpt lat="43.57933" lon="3.36268">
        <ele>164.3</ele>
        <time>2017-03-26T08:47:41Z</time>
      </trkpt>
      <trkpt lat="43.57938" lon="3.36257">
        <ele>164.7</ele>
        <time>2017-03-26T08:47:45Z</time>
      </trkpt>
      <trkpt lat="43.57941" lon="3.36246">
        <ele>165.4</ele>
        <time>2017-03-26T08:47:49Z</time>
      </trkpt>
      <trkpt lat="43.57934" lon="3.3624">
        <ele>165.9</ele>
        <time>2017-03-26T08:47:53Z</time>
      </trkpt>
      <trkpt lat="43.57926" lon="3.36241">
        <ele>166.5</ele>
        <time>2017-03-26T08:47:57Z</time>
      </trkpt>
      <trkpt lat="43.57917" lon="3.36244">
        <ele>166.9</ele>
        <time>2017-03-26T08:48:00Z</time>
      </trkpt>
      <trkpt lat="43.57909" lon="3.36244">
        <ele>167.4</ele>
        <time>2017-03-26T08:48:03Z</time>
      </trkpt>
      <trkpt lat="43.57902" lon="3.36243">
        <ele>168</ele>
        <time>2017-03-26T08:48:06Z</time>
      </trkpt>
      <trkpt lat="43.57893" lon="3.36241">
        <ele>168.8</ele>
        <time>2017-03-26T08:48:10Z</time>
      </trkpt>
      <trkpt lat="43.57884" lon="3.36235">
        <ele>169.2</ele>
        <time>2017-03-26T08:48:13Z</time>
      </trkpt>
      <trkpt lat="43.57878" lon="3.36229">
        <ele>169.5</ele>
        <time>2017-03-26T08:48:15Z</time>
      </trkpt>
      <trkpt lat="43.57871" lon="3.36221">
        <ele>170.3</ele>
        <time>2017-03-26T08:48:19Z</time>
      </trkpt>
      <trkpt lat="43.57865" lon="3.36214">
        <ele>170.9</ele>
        <time>2017-03-26T08:48:22Z</time>
      </trkpt>
      <trkpt lat="43.5786" lon="3.36206">
        <ele>171.4</ele>
        <time>2017-03-26T08:48:25Z</time>
      </trkpt>
      <trkpt lat="43.57855" lon="3.36196">
        <ele>171.8</ele>
        <time>2017-03-26T08:48:28Z</time>
      </trkpt>
      <trkpt lat="43.5785" lon="3.36186">
        <ele>172.4</ele>
        <time>2017-03-26T08:48:32Z</time>
      </trkpt>
      <trkpt lat="43.57844" lon="3.36179">
        <ele>173</ele>
        <time>2017-03-26T08:48:35Z</time>
      </trkpt>
      <trkpt lat="43.5784" lon="3.3617">
        <ele>173.5</ele>
        <time>2017-03-26T08:48:39Z</time>
      </trkpt>
      <trkpt lat="43.57834" lon="3.36162">
        <ele>173.9</ele>
        <time>2017-03-26T08:48:42Z</time>
      </trkpt>
      <trkpt lat="43.57829" lon="3.36155">
        <ele>174.3</ele>
        <time>2017-03-26T08:48:45Z</time>
      </trkpt>
      <trkpt lat="43.5782" lon="3.36143">
        <ele>175.4</ele>
        <time>2017-03-26T08:48:49Z</time>
      </trkpt>
      <trkpt lat="43.57813" lon="3.36133">
        <ele>175.6</ele>
        <time>2017-03-26T08:48:51Z</time>
      </trkpt>
      <trkpt lat="43.57808" lon="3.36124">
        <ele>176.8</ele>
        <time>2017-03-26T08:48:53Z</time>
      </trkpt>
      <trkpt lat="43.57803" lon="3.36113">
        <ele>176.9</ele>
        <time>2017-03-26T08:48:56Z</time>
      </trkpt>
      <trkpt lat="43.57805" lon="3.36105">
        <ele>178.7</ele>
        <time>2017-03-26T08:49:37Z</time>
      </trkpt>
      <trkpt lat="43.57799" lon="3.36109">
        <ele>178.2</ele>
        <time>2017-03-26T08:49:57Z</time>
      </trkpt>
      <trkpt lat="43.57793" lon="3.36106">
        <ele>178.4</ele>
        <time>2017-03-26T08:50:33Z</time>
      </trkpt>
      <trkpt lat="43.57786" lon="3.36103">
        <ele>178.5</ele>
        <time>2017-03-26T08:50:35Z</time>
      </trkpt>
      <trkpt lat="43.57778" lon="3.36098">
        <ele>178.8</ele>
        <time>2017-03-26T08:50:38Z</time>
      </trkpt>
      <trkpt lat="43.5777" lon="3.36095">
        <ele>179.2</ele>
        <time>2017-03-26T08:50:42Z</time>
      </trkpt>
      <trkpt lat="43.57764" lon="3.36089">
        <ele>179.9</ele>
        <time>2017-03-26T08:50:47Z</time>
      </trkpt>
      <trkpt lat="43.57753" lon="3.36094">
        <ele>180.5</ele>
        <time>2017-03-26T08:50:51Z</time>
      </trkpt>
      <trkpt lat="43.57744" lon="3.36107">
        <ele>183.2</ele>
        <time>2017-03-26T08:50:53Z</time>
      </trkpt>
      <trkpt lat="43.57739" lon="3.36115">
        <ele>183.5</ele>
        <time>2017-03-26T08:50:54Z</time>
      </trkpt>
      <trkpt lat="43.57733" lon="3.36124">
        <ele>182.7</ele>
        <time>2017-03-26T08:50:55Z</time>
      </trkpt>
      <trkpt lat="43.57728" lon="3.36133">
        <ele>181.6</ele>
        <time>2017-03-26T08:50:56Z</time>
      </trkpt>
      <trkpt lat="43.57723" lon="3.3614">
        <ele>180.7</ele>
        <time>2017-03-26T08:50:57Z</time>
      </trkpt>
      <trkpt lat="43.57717" lon="3.36147">
        <ele>179.7</ele>
        <time>2017-03-26T08:50:58Z</time>
      </trkpt>
      <trkpt lat="43.57711" lon="3.36154">
        <ele>178.8</ele>
        <time>2017-03-26T08:50:59Z</time>
      </trkpt>
      <trkpt lat="43.57703" lon="3.36159">
        <ele>177.9</ele>
        <time>2017-03-26T08:51:00Z</time>
      </trkpt>
      <trkpt lat="43.57695" lon="3.36165">
        <ele>177.5</ele>
        <time>2017-03-26T08:51:01Z</time>
      </trkpt>
      <trkpt lat="43.57688" lon="3.3617">
        <ele>176.9</ele>
        <time>2017-03-26T08:51:02Z</time>
      </trkpt>
      <trkpt lat="43.5768" lon="3.36179">
        <ele>176.3</ele>
        <time>2017-03-26T08:51:04Z</time>
      </trkpt>
      <trkpt lat="43.57677" lon="3.3619">
        <ele>176.6</ele>
        <time>2017-03-26T08:51:06Z</time>
      </trkpt>
      <trkpt lat="43.57679" lon="3.36202">
        <ele>176.4</ele>
        <time>2017-03-26T08:51:09Z</time>
      </trkpt>
      <trkpt lat="43.57682" lon="3.36215">
        <ele>175.9</ele>
        <time>2017-03-26T08:51:13Z</time>
      </trkpt>
      <trkpt lat="43.57685" lon="3.36227">
        <ele>174</ele>
        <time>2017-03-26T08:51:15Z</time>
      </trkpt>
      <trkpt lat="43.57692" lon="3.36244">
        <ele>172.2</ele>
        <time>2017-03-26T08:51:17Z</time>
      </trkpt>
      <trkpt lat="43.57695" lon="3.36252">
        <ele>171.3</ele>
        <time>2017-03-26T08:51:18Z</time>
      </trkpt>
      <trkpt lat="43.57704" lon="3.3627">
        <ele>170.5</ele>
        <time>2017-03-26T08:51:20Z</time>
      </trkpt>
      <trkpt lat="43.57708" lon="3.36279">
        <ele>170</ele>
        <time>2017-03-26T08:51:22Z</time>
      </trkpt>
      <trkpt lat="43.57714" lon="3.36287">
        <ele>170.4</ele>
        <time>2017-03-26T08:51:22Z</time>
      </trkpt>
      <trkpt lat="43.57719" lon="3.36297">
        <ele>170.4</ele>
        <time>2017-03-26T08:51:23Z</time>
      </trkpt>
      <trkpt lat="43.57728" lon="3.36309">
        <ele>172</ele>
        <time>2017-03-26T08:51:25Z</time>
      </trkpt>
      <trkpt lat="43.57739" lon="3.3631">
        <ele>172.8</ele>
        <time>2017-03-26T08:51:27Z</time>
      </trkpt>
      <trkpt lat="43.57743" lon="3.36299">
        <ele>172.8</ele>
        <time>2017-03-26T08:51:29Z</time>
      </trkpt>
      <trkpt lat="43.5774" lon="3.36287">
        <ele>172.4</ele>
        <time>2017-03-26T08:51:32Z</time>
      </trkpt>
      <trkpt lat="43.57737" lon="3.36276">
        <ele>172</ele>
        <time>2017-03-26T08:51:37Z</time>
      </trkpt>
      <trkpt lat="43.57739" lon="3.36264">
        <ele>171.4</ele>
        <time>2017-03-26T08:51:40Z</time>
      </trkpt>
      <trkpt lat="43.57739" lon="3.3626">
        <ele>171.4</ele>
        <time>2017-03-26T08:51:47Z</time>
      </trkpt>
    </trkseg>
  </trk>
</gpx>